<?xml version="1.0" encoding="UTF-8" standalone="no" ?>
<gpx xmlns="http://www.topografix.com/GPX/1/1" xmlns:xsi="http://www.w3.org/2001/XMLSchema-instance" xsi:schemaLocation="http://www.topografix.com/GPX/1/1 http://www.topografix.com/GPX/1/1/gpx.xsd" version="1.1" creator="VisuGPX - https://www.visugpx.com">
  <metadata>
    <name>?? Beautiful Col de Sarenne from Mizoen (??)</name>
    <desc><![CDATA[
<p>Just 10 km east of the famous Alpe d'Huez climb you find the Col de Sarenne, at an altitude of 1999 m. The climb from Mizoen is very nice on a small quiet road with spectacular views in the upper part. Enjoy!!</p>

<p>See my other videos and playlists at <a href="https://dashboard.kinomap.com/en/users/129864/videos">videos by Gonvil</a> </p>

<p>For lots of videos of cols, see: <a href="https://videos.kinomap.com/en/playlists/6139">Cols in France</a> and <a href="https://videos.kinomap.com/en/playlists/7014">Cols in Switzerland</a></p>]]></desc>
  </metadata>
  <trk>
    <name><![CDATA[😍⛰ Beautiful Col de Sarenne from Mizoen (🇫🇷)]]></name>
    <desc><![CDATA[<p>Just 10 km east of the famous Alpe d'Huez climb you find the Col de Sarenne, at an altitude of&nbsp;1999 m. The climb from Mizoen is very nice on a small quiet road with spectacular views in the upper part. Enjoy!!</p>

<p>See my other videos and playlists&nbsp;at&nbsp;<a href="https://dashboard.kinomap.com/en/users/129864/videos">videos by Gonvil</a>&nbsp;</p>

<p>For lots of videos of cols, see:&nbsp;<a href="https://videos.kinomap.com/en/playlists/6139">Cols in France</a>&nbsp;and&nbsp;<a href="https://videos.kinomap.com/en/playlists/7014">Cols in Switzerland</a></p>]]></desc>
    <trkseg>
      <trkpt lat="45.05028" lon="6.14295">
        <ele>1170.2</ele>
        <time>2020-08-26T09:54:07.000Z</time>
      </trkpt>
      <trkpt lat="45.05031" lon="6.14296">
        <ele>1170.2</ele>
        <time>2020-08-26T09:54:08.000Z</time>
      </trkpt>
      <trkpt lat="45.05034" lon="6.14297">
        <ele>1170.2</ele>
        <time>2020-08-26T09:54:09.000Z</time>
      </trkpt>
      <trkpt lat="45.05037" lon="6.14298">
        <ele>1170.2</ele>
        <time>2020-08-26T09:54:10.000Z</time>
      </trkpt>
      <trkpt lat="45.05041" lon="6.14299">
        <ele>1170.2</ele>
        <time>2020-08-26T09:54:11.000Z</time>
      </trkpt>
      <trkpt lat="45.05044" lon="6.14301">
        <ele>1170.2</ele>
        <time>2020-08-26T09:54:12.000Z</time>
      </trkpt>
      <trkpt lat="45.05047" lon="6.14302">
        <ele>1170</ele>
        <time>2020-08-26T09:54:13.000Z</time>
      </trkpt>
      <trkpt lat="45.05051" lon="6.14304">
        <ele>1170</ele>
        <time>2020-08-26T09:54:14.000Z</time>
      </trkpt>
      <trkpt lat="45.05054" lon="6.14306">
        <ele>1169.8</ele>
        <time>2020-08-26T09:54:15.000Z</time>
      </trkpt>
      <trkpt lat="45.05057" lon="6.14309">
        <ele>1169.8</ele>
        <time>2020-08-26T09:54:16.000Z</time>
      </trkpt>
      <trkpt lat="45.05061" lon="6.1431">
        <ele>1169.6</ele>
        <time>2020-08-26T09:54:17.000Z</time>
      </trkpt>
      <trkpt lat="45.05064" lon="6.14312">
        <ele>1169.6</ele>
        <time>2020-08-26T09:54:18.000Z</time>
      </trkpt>
      <trkpt lat="45.05067" lon="6.14313">
        <ele>1169.6</ele>
        <time>2020-08-26T09:54:19.000Z</time>
      </trkpt>
      <trkpt lat="45.0507" lon="6.14314">
        <ele>1169.6</ele>
        <time>2020-08-26T09:54:20.000Z</time>
      </trkpt>
      <trkpt lat="45.05073" lon="6.14314">
        <ele>1169.4</ele>
        <time>2020-08-26T09:54:21.000Z</time>
      </trkpt>
      <trkpt lat="45.05076" lon="6.14314">
        <ele>1169.4</ele>
        <time>2020-08-26T09:54:22.000Z</time>
      </trkpt>
      <trkpt lat="45.05079" lon="6.14315">
        <ele>1169.4</ele>
        <time>2020-08-26T09:54:23.000Z</time>
      </trkpt>
      <trkpt lat="45.05083" lon="6.14315">
        <ele>1169.4</ele>
        <time>2020-08-26T09:54:24.000Z</time>
      </trkpt>
      <trkpt lat="45.05088" lon="6.14314">
        <ele>1169.4</ele>
        <time>2020-08-26T09:54:25.000Z</time>
      </trkpt>
      <trkpt lat="45.05092" lon="6.14313">
        <ele>1169.4</ele>
        <time>2020-08-26T09:54:26.000Z</time>
      </trkpt>
      <trkpt lat="45.05097" lon="6.14312">
        <ele>1169.4</ele>
        <time>2020-08-26T09:54:27.000Z</time>
      </trkpt>
      <trkpt lat="45.05102" lon="6.14311">
        <ele>1169.4</ele>
        <time>2020-08-26T09:54:28.000Z</time>
      </trkpt>
      <trkpt lat="45.05106" lon="6.14309">
        <ele>1169.4</ele>
        <time>2020-08-26T09:54:29.000Z</time>
      </trkpt>
      <trkpt lat="45.05111" lon="6.14308">
        <ele>1169.4</ele>
        <time>2020-08-26T09:54:30.000Z</time>
      </trkpt>
      <trkpt lat="45.05116" lon="6.14306">
        <ele>1169.4</ele>
        <time>2020-08-26T09:54:31.000Z</time>
      </trkpt>
      <trkpt lat="45.05121" lon="6.14304">
        <ele>1169.2</ele>
        <time>2020-08-26T09:54:32.000Z</time>
      </trkpt>
      <trkpt lat="45.05126" lon="6.14302">
        <ele>1169.2</ele>
        <time>2020-08-26T09:54:33.000Z</time>
      </trkpt>
      <trkpt lat="45.05131" lon="6.14301">
        <ele>1169.2</ele>
        <time>2020-08-26T09:54:34.000Z</time>
      </trkpt>
      <trkpt lat="45.05136" lon="6.14299">
        <ele>1169.4</ele>
        <time>2020-08-26T09:54:35.000Z</time>
      </trkpt>
      <trkpt lat="45.05141" lon="6.14298">
        <ele>1169.4</ele>
        <time>2020-08-26T09:54:36.000Z</time>
      </trkpt>
      <trkpt lat="45.05146" lon="6.14296">
        <ele>1169.4</ele>
        <time>2020-08-26T09:54:37.000Z</time>
      </trkpt>
      <trkpt lat="45.05151" lon="6.14294">
        <ele>1169.4</ele>
        <time>2020-08-26T09:54:38.000Z</time>
      </trkpt>
      <trkpt lat="45.05156" lon="6.14292">
        <ele>1169.4</ele>
        <time>2020-08-26T09:54:39.000Z</time>
      </trkpt>
      <trkpt lat="45.05161" lon="6.14289">
        <ele>1169.4</ele>
        <time>2020-08-26T09:54:40.000Z</time>
      </trkpt>
      <trkpt lat="45.05166" lon="6.14286">
        <ele>1169.2</ele>
        <time>2020-08-26T09:54:41.000Z</time>
      </trkpt>
      <trkpt lat="45.05171" lon="6.14284">
        <ele>1169.2</ele>
        <time>2020-08-26T09:54:42.000Z</time>
      </trkpt>
      <trkpt lat="45.05175" lon="6.14283">
        <ele>1169.2</ele>
        <time>2020-08-26T09:54:43.000Z</time>
      </trkpt>
      <trkpt lat="45.05179" lon="6.14281">
        <ele>1169.2</ele>
        <time>2020-08-26T09:54:44.000Z</time>
      </trkpt>
      <trkpt lat="45.05183" lon="6.14279">
        <ele>1169.2</ele>
        <time>2020-08-26T09:54:45.000Z</time>
      </trkpt>
      <trkpt lat="45.05188" lon="6.14277">
        <ele>1169.4</ele>
        <time>2020-08-26T09:54:46.000Z</time>
      </trkpt>
      <trkpt lat="45.05192" lon="6.14275">
        <ele>1169.4</ele>
        <time>2020-08-26T09:54:47.000Z</time>
      </trkpt>
      <trkpt lat="45.05197" lon="6.14274">
        <ele>1169.4</ele>
        <time>2020-08-26T09:54:48.000Z</time>
      </trkpt>
      <trkpt lat="45.05202" lon="6.14274">
        <ele>1169.6</ele>
        <time>2020-08-26T09:54:49.000Z</time>
      </trkpt>
      <trkpt lat="45.05206" lon="6.14274">
        <ele>1169.8</ele>
        <time>2020-08-26T09:54:50.000Z</time>
      </trkpt>
      <trkpt lat="45.0521" lon="6.14275">
        <ele>1170</ele>
        <time>2020-08-26T09:54:51.000Z</time>
      </trkpt>
      <trkpt lat="45.05214" lon="6.14276">
        <ele>1170.2</ele>
        <time>2020-08-26T09:54:52.000Z</time>
      </trkpt>
      <trkpt lat="45.05218" lon="6.14278">
        <ele>1170.4</ele>
        <time>2020-08-26T09:54:53.000Z</time>
      </trkpt>
      <trkpt lat="45.05221" lon="6.1428">
        <ele>1170.6</ele>
        <time>2020-08-26T09:54:54.000Z</time>
      </trkpt>
      <trkpt lat="45.05225" lon="6.14283">
        <ele>1171</ele>
        <time>2020-08-26T09:54:55.000Z</time>
      </trkpt>
      <trkpt lat="45.05229" lon="6.14285">
        <ele>1171.2</ele>
        <time>2020-08-26T09:54:56.000Z</time>
      </trkpt>
      <trkpt lat="45.05232" lon="6.14288">
        <ele>1171.2</ele>
        <time>2020-08-26T09:54:57.000Z</time>
      </trkpt>
      <trkpt lat="45.05236" lon="6.14291">
        <ele>1171.4</ele>
        <time>2020-08-26T09:54:58.000Z</time>
      </trkpt>
      <trkpt lat="45.05239" lon="6.14294">
        <ele>1171.6</ele>
        <time>2020-08-26T09:54:59.000Z</time>
      </trkpt>
      <trkpt lat="45.05243" lon="6.14297">
        <ele>1171.6</ele>
        <time>2020-08-26T09:55:00.000Z</time>
      </trkpt>
      <trkpt lat="45.05246" lon="6.14299">
        <ele>1171.8</ele>
        <time>2020-08-26T09:55:01.000Z</time>
      </trkpt>
      <trkpt lat="45.05249" lon="6.14302">
        <ele>1172.2</ele>
        <time>2020-08-26T09:55:02.000Z</time>
      </trkpt>
      <trkpt lat="45.05253" lon="6.14305">
        <ele>1172.6</ele>
        <time>2020-08-26T09:55:03.000Z</time>
      </trkpt>
      <trkpt lat="45.05256" lon="6.14308">
        <ele>1173</ele>
        <time>2020-08-26T09:55:04.000Z</time>
      </trkpt>
      <trkpt lat="45.05259" lon="6.14311">
        <ele>1173.2</ele>
        <time>2020-08-26T09:55:05.000Z</time>
      </trkpt>
      <trkpt lat="45.05262" lon="6.14314">
        <ele>1173.4</ele>
        <time>2020-08-26T09:55:06.000Z</time>
      </trkpt>
      <trkpt lat="45.05265" lon="6.14318">
        <ele>1173.6</ele>
        <time>2020-08-26T09:55:07.000Z</time>
      </trkpt>
      <trkpt lat="45.05268" lon="6.14321">
        <ele>1173.8</ele>
        <time>2020-08-26T09:55:08.000Z</time>
      </trkpt>
      <trkpt lat="45.05271" lon="6.14325">
        <ele>1174</ele>
        <time>2020-08-26T09:55:09.000Z</time>
      </trkpt>
      <trkpt lat="45.05274" lon="6.14328">
        <ele>1174</ele>
        <time>2020-08-26T09:55:10.000Z</time>
      </trkpt>
      <trkpt lat="45.05277" lon="6.14332">
        <ele>1174.2</ele>
        <time>2020-08-26T09:55:11.000Z</time>
      </trkpt>
      <trkpt lat="45.0528" lon="6.14335">
        <ele>1174.8</ele>
        <time>2020-08-26T09:55:12.000Z</time>
      </trkpt>
      <trkpt lat="45.05283" lon="6.14339">
        <ele>1175</ele>
        <time>2020-08-26T09:55:13.000Z</time>
      </trkpt>
      <trkpt lat="45.05286" lon="6.14343">
        <ele>1175.2</ele>
        <time>2020-08-26T09:55:14.000Z</time>
      </trkpt>
      <trkpt lat="45.05289" lon="6.14347">
        <ele>1175.2</ele>
        <time>2020-08-26T09:55:15.000Z</time>
      </trkpt>
      <trkpt lat="45.05292" lon="6.14351">
        <ele>1175.2</ele>
        <time>2020-08-26T09:55:16.000Z</time>
      </trkpt>
      <trkpt lat="45.05295" lon="6.14356">
        <ele>1175.2</ele>
        <time>2020-08-26T09:55:17.000Z</time>
      </trkpt>
      <trkpt lat="45.05298" lon="6.1436">
        <ele>1175.4</ele>
        <time>2020-08-26T09:55:18.000Z</time>
      </trkpt>
      <trkpt lat="45.05302" lon="6.14364">
        <ele>1175.4</ele>
        <time>2020-08-26T09:55:19.000Z</time>
      </trkpt>
      <trkpt lat="45.05305" lon="6.14368">
        <ele>1175.6</ele>
        <time>2020-08-26T09:55:20.000Z</time>
      </trkpt>
      <trkpt lat="45.05309" lon="6.14372">
        <ele>1175.6</ele>
        <time>2020-08-26T09:55:21.000Z</time>
      </trkpt>
      <trkpt lat="45.05311" lon="6.14376">
        <ele>1175.8</ele>
        <time>2020-08-26T09:55:22.000Z</time>
      </trkpt>
      <trkpt lat="45.05314" lon="6.1438">
        <ele>1175.8</ele>
        <time>2020-08-26T09:55:23.000Z</time>
      </trkpt>
      <trkpt lat="45.05317" lon="6.14384">
        <ele>1176</ele>
        <time>2020-08-26T09:55:24.000Z</time>
      </trkpt>
      <trkpt lat="45.0532" lon="6.14389">
        <ele>1176.2</ele>
        <time>2020-08-26T09:55:25.000Z</time>
      </trkpt>
      <trkpt lat="45.05323" lon="6.14393">
        <ele>1176.2</ele>
        <time>2020-08-26T09:55:26.000Z</time>
      </trkpt>
      <trkpt lat="45.05325" lon="6.14398">
        <ele>1176.4</ele>
        <time>2020-08-26T09:55:27.000Z</time>
      </trkpt>
      <trkpt lat="45.05328" lon="6.14402">
        <ele>1176.4</ele>
        <time>2020-08-26T09:55:28.000Z</time>
      </trkpt>
      <trkpt lat="45.05331" lon="6.14406">
        <ele>1176.6</ele>
        <time>2020-08-26T09:55:29.000Z</time>
      </trkpt>
      <trkpt lat="45.05334" lon="6.1441">
        <ele>1176.6</ele>
        <time>2020-08-26T09:55:30.000Z</time>
      </trkpt>
      <trkpt lat="45.05337" lon="6.14413">
        <ele>1176.8</ele>
        <time>2020-08-26T09:55:31.000Z</time>
      </trkpt>
      <trkpt lat="45.0534" lon="6.14416">
        <ele>1177</ele>
        <time>2020-08-26T09:55:32.000Z</time>
      </trkpt>
      <trkpt lat="45.05344" lon="6.1442">
        <ele>1177.2</ele>
        <time>2020-08-26T09:55:33.000Z</time>
      </trkpt>
      <trkpt lat="45.05346" lon="6.14423">
        <ele>1177.2</ele>
        <time>2020-08-26T09:55:34.000Z</time>
      </trkpt>
      <trkpt lat="45.05349" lon="6.14426">
        <ele>1177.4</ele>
        <time>2020-08-26T09:55:35.000Z</time>
      </trkpt>
      <trkpt lat="45.05352" lon="6.14429">
        <ele>1177.4</ele>
        <time>2020-08-26T09:55:36.000Z</time>
      </trkpt>
      <trkpt lat="45.05355" lon="6.14432">
        <ele>1177.6</ele>
        <time>2020-08-26T09:55:37.000Z</time>
      </trkpt>
      <trkpt lat="45.05358" lon="6.14435">
        <ele>1177.8</ele>
        <time>2020-08-26T09:55:38.000Z</time>
      </trkpt>
      <trkpt lat="45.0536" lon="6.14437">
        <ele>1178</ele>
        <time>2020-08-26T09:55:39.000Z</time>
      </trkpt>
      <trkpt lat="45.05363" lon="6.14439">
        <ele>1178.4</ele>
        <time>2020-08-26T09:55:40.000Z</time>
      </trkpt>
      <trkpt lat="45.05366" lon="6.14441">
        <ele>1179</ele>
        <time>2020-08-26T09:55:41.000Z</time>
      </trkpt>
      <trkpt lat="45.05369" lon="6.14444">
        <ele>1179.4</ele>
        <time>2020-08-26T09:55:42.000Z</time>
      </trkpt>
      <trkpt lat="45.05372" lon="6.14446">
        <ele>1179.8</ele>
        <time>2020-08-26T09:55:43.000Z</time>
      </trkpt>
      <trkpt lat="45.05375" lon="6.14448">
        <ele>1180</ele>
        <time>2020-08-26T09:55:44.000Z</time>
      </trkpt>
      <trkpt lat="45.05378" lon="6.1445">
        <ele>1180.2</ele>
        <time>2020-08-26T09:55:45.000Z</time>
      </trkpt>
      <trkpt lat="45.05381" lon="6.14451">
        <ele>1180.2</ele>
        <time>2020-08-26T09:55:46.000Z</time>
      </trkpt>
      <trkpt lat="45.05384" lon="6.14453">
        <ele>1180.4</ele>
        <time>2020-08-26T09:55:47.000Z</time>
      </trkpt>
      <trkpt lat="45.05387" lon="6.14454">
        <ele>1180.4</ele>
        <time>2020-08-26T09:55:48.000Z</time>
      </trkpt>
      <trkpt lat="45.05391" lon="6.14456">
        <ele>1180.4</ele>
        <time>2020-08-26T09:55:49.000Z</time>
      </trkpt>
      <trkpt lat="45.05395" lon="6.14457">
        <ele>1180.6</ele>
        <time>2020-08-26T09:55:50.000Z</time>
      </trkpt>
      <trkpt lat="45.05398" lon="6.14458">
        <ele>1180.8</ele>
        <time>2020-08-26T09:55:51.000Z</time>
      </trkpt>
      <trkpt lat="45.05401" lon="6.14459">
        <ele>1180.8</ele>
        <time>2020-08-26T09:55:52.000Z</time>
      </trkpt>
      <trkpt lat="45.05404" lon="6.1446">
        <ele>1181</ele>
        <time>2020-08-26T09:55:53.000Z</time>
      </trkpt>
      <trkpt lat="45.05408" lon="6.14461">
        <ele>1181.4</ele>
        <time>2020-08-26T09:55:54.000Z</time>
      </trkpt>
      <trkpt lat="45.05411" lon="6.14462">
        <ele>1181.6</ele>
        <time>2020-08-26T09:55:55.000Z</time>
      </trkpt>
      <trkpt lat="45.05414" lon="6.14462">
        <ele>1182</ele>
        <time>2020-08-26T09:55:56.000Z</time>
      </trkpt>
      <trkpt lat="45.05417" lon="6.14463">
        <ele>1182.2</ele>
        <time>2020-08-26T09:55:57.000Z</time>
      </trkpt>
      <trkpt lat="45.05421" lon="6.14464">
        <ele>1182.2</ele>
        <time>2020-08-26T09:55:58.000Z</time>
      </trkpt>
      <trkpt lat="45.05424" lon="6.14465">
        <ele>1182.2</ele>
        <time>2020-08-26T09:55:59.000Z</time>
      </trkpt>
      <trkpt lat="45.05427" lon="6.14468">
        <ele>1182.4</ele>
        <time>2020-08-26T09:56:00.000Z</time>
      </trkpt>
      <trkpt lat="45.0543" lon="6.14471">
        <ele>1182.8</ele>
        <time>2020-08-26T09:56:01.000Z</time>
      </trkpt>
      <trkpt lat="45.05432" lon="6.14475">
        <ele>1182.8</ele>
        <time>2020-08-26T09:56:02.000Z</time>
      </trkpt>
      <trkpt lat="45.05434" lon="6.14479">
        <ele>1183</ele>
        <time>2020-08-26T09:56:03.000Z</time>
      </trkpt>
      <trkpt lat="45.05437" lon="6.14482">
        <ele>1183.2</ele>
        <time>2020-08-26T09:56:04.000Z</time>
      </trkpt>
      <trkpt lat="45.0544" lon="6.14486">
        <ele>1183.2</ele>
        <time>2020-08-26T09:56:05.000Z</time>
      </trkpt>
      <trkpt lat="45.05442" lon="6.14489">
        <ele>1183.4</ele>
        <time>2020-08-26T09:56:06.000Z</time>
      </trkpt>
      <trkpt lat="45.05445" lon="6.14492">
        <ele>1183.6</ele>
        <time>2020-08-26T09:56:07.000Z</time>
      </trkpt>
      <trkpt lat="45.05448" lon="6.14495">
        <ele>1183.8</ele>
        <time>2020-08-26T09:56:08.000Z</time>
      </trkpt>
      <trkpt lat="45.05451" lon="6.14498">
        <ele>1184</ele>
        <time>2020-08-26T09:56:09.000Z</time>
      </trkpt>
      <trkpt lat="45.05455" lon="6.14501">
        <ele>1184.4</ele>
        <time>2020-08-26T09:56:10.000Z</time>
      </trkpt>
      <trkpt lat="45.05458" lon="6.14505">
        <ele>1184.6</ele>
        <time>2020-08-26T09:56:11.000Z</time>
      </trkpt>
      <trkpt lat="45.05461" lon="6.14507">
        <ele>1184.8</ele>
        <time>2020-08-26T09:56:12.000Z</time>
      </trkpt>
      <trkpt lat="45.05465" lon="6.1451">
        <ele>1184.8</ele>
        <time>2020-08-26T09:56:13.000Z</time>
      </trkpt>
      <trkpt lat="45.05469" lon="6.14513">
        <ele>1184.8</ele>
        <time>2020-08-26T09:56:14.000Z</time>
      </trkpt>
      <trkpt lat="45.05473" lon="6.14515">
        <ele>1185</ele>
        <time>2020-08-26T09:56:15.000Z</time>
      </trkpt>
      <trkpt lat="45.05478" lon="6.14517">
        <ele>1185</ele>
        <time>2020-08-26T09:56:16.000Z</time>
      </trkpt>
      <trkpt lat="45.05481" lon="6.14519">
        <ele>1185.2</ele>
        <time>2020-08-26T09:56:17.000Z</time>
      </trkpt>
      <trkpt lat="45.05485" lon="6.14521">
        <ele>1185.2</ele>
        <time>2020-08-26T09:56:18.000Z</time>
      </trkpt>
      <trkpt lat="45.05488" lon="6.14523">
        <ele>1185.4</ele>
        <time>2020-08-26T09:56:19.000Z</time>
      </trkpt>
      <trkpt lat="45.05492" lon="6.14525">
        <ele>1185.4</ele>
        <time>2020-08-26T09:56:20.000Z</time>
      </trkpt>
      <trkpt lat="45.05496" lon="6.14527">
        <ele>1185.6</ele>
        <time>2020-08-26T09:56:21.000Z</time>
      </trkpt>
      <trkpt lat="45.055" lon="6.14529">
        <ele>1185.6</ele>
        <time>2020-08-26T09:56:22.000Z</time>
      </trkpt>
      <trkpt lat="45.05504" lon="6.14532">
        <ele>1185.6</ele>
        <time>2020-08-26T09:56:23.000Z</time>
      </trkpt>
      <trkpt lat="45.05507" lon="6.14534">
        <ele>1185.8</ele>
        <time>2020-08-26T09:56:24.000Z</time>
      </trkpt>
      <trkpt lat="45.05511" lon="6.14536">
        <ele>1186</ele>
        <time>2020-08-26T09:56:25.000Z</time>
      </trkpt>
      <trkpt lat="45.05515" lon="6.14538">
        <ele>1186.4</ele>
        <time>2020-08-26T09:56:26.000Z</time>
      </trkpt>
      <trkpt lat="45.05518" lon="6.1454">
        <ele>1186.6</ele>
        <time>2020-08-26T09:56:27.000Z</time>
      </trkpt>
      <trkpt lat="45.05522" lon="6.14542">
        <ele>1186.8</ele>
        <time>2020-08-26T09:56:28.000Z</time>
      </trkpt>
      <trkpt lat="45.05525" lon="6.14544">
        <ele>1187.2</ele>
        <time>2020-08-26T09:56:29.000Z</time>
      </trkpt>
      <trkpt lat="45.05529" lon="6.14546">
        <ele>1187.2</ele>
        <time>2020-08-26T09:56:30.000Z</time>
      </trkpt>
      <trkpt lat="45.05532" lon="6.14548">
        <ele>1187.4</ele>
        <time>2020-08-26T09:56:31.000Z</time>
      </trkpt>
      <trkpt lat="45.05538" lon="6.14551">
        <ele>1187.4</ele>
        <time>2020-08-26T09:56:32.000Z</time>
      </trkpt>
      <trkpt lat="45.05542" lon="6.14553">
        <ele>1187.6</ele>
        <time>2020-08-26T09:56:33.000Z</time>
      </trkpt>
      <trkpt lat="45.05546" lon="6.14556">
        <ele>1187.6</ele>
        <time>2020-08-26T09:56:34.000Z</time>
      </trkpt>
      <trkpt lat="45.05551" lon="6.14558">
        <ele>1187.6</ele>
        <time>2020-08-26T09:56:35.000Z</time>
      </trkpt>
      <trkpt lat="45.05557" lon="6.14561">
        <ele>1187.6</ele>
        <time>2020-08-26T09:56:36.000Z</time>
      </trkpt>
      <trkpt lat="45.05562" lon="6.14564">
        <ele>1187.6</ele>
        <time>2020-08-26T09:56:37.000Z</time>
      </trkpt>
      <trkpt lat="45.05568" lon="6.14566">
        <ele>1187.6</ele>
        <time>2020-08-26T09:56:38.000Z</time>
      </trkpt>
      <trkpt lat="45.05575" lon="6.14568">
        <ele>1187.6</ele>
        <time>2020-08-26T09:56:39.000Z</time>
      </trkpt>
      <trkpt lat="45.05582" lon="6.14569">
        <ele>1187.6</ele>
        <time>2020-08-26T09:56:40.000Z</time>
      </trkpt>
      <trkpt lat="45.0559" lon="6.14569">
        <ele>1187.6</ele>
        <time>2020-08-26T09:56:41.000Z</time>
      </trkpt>
      <trkpt lat="45.05598" lon="6.14568">
        <ele>1187.4</ele>
        <time>2020-08-26T09:56:42.000Z</time>
      </trkpt>
      <trkpt lat="45.05607" lon="6.14568">
        <ele>1187</ele>
        <time>2020-08-26T09:56:43.000Z</time>
      </trkpt>
      <trkpt lat="45.05617" lon="6.14567">
        <ele>1186.8</ele>
        <time>2020-08-26T09:56:44.000Z</time>
      </trkpt>
      <trkpt lat="45.05626" lon="6.14568">
        <ele>1186.6</ele>
        <time>2020-08-26T09:56:45.000Z</time>
      </trkpt>
      <trkpt lat="45.05637" lon="6.1457">
        <ele>1186.4</ele>
        <time>2020-08-26T09:56:46.000Z</time>
      </trkpt>
      <trkpt lat="45.05648" lon="6.14575">
        <ele>1186</ele>
        <time>2020-08-26T09:56:47.000Z</time>
      </trkpt>
      <trkpt lat="45.05658" lon="6.14584">
        <ele>1185.4</ele>
        <time>2020-08-26T09:56:48.000Z</time>
      </trkpt>
      <trkpt lat="45.05666" lon="6.14596">
        <ele>1185</ele>
        <time>2020-08-26T09:56:49.000Z</time>
      </trkpt>
      <trkpt lat="45.05674" lon="6.1461">
        <ele>1184.6</ele>
        <time>2020-08-26T09:56:50.000Z</time>
      </trkpt>
      <trkpt lat="45.05681" lon="6.14624">
        <ele>1183.8</ele>
        <time>2020-08-26T09:56:51.000Z</time>
      </trkpt>
      <trkpt lat="45.05688" lon="6.14638">
        <ele>1183</ele>
        <time>2020-08-26T09:56:52.000Z</time>
      </trkpt>
      <trkpt lat="45.05698" lon="6.1465">
        <ele>1182.2</ele>
        <time>2020-08-26T09:56:53.000Z</time>
      </trkpt>
      <trkpt lat="45.05708" lon="6.14662">
        <ele>1181.2</ele>
        <time>2020-08-26T09:56:54.000Z</time>
      </trkpt>
      <trkpt lat="45.05719" lon="6.14673">
        <ele>1180.2</ele>
        <time>2020-08-26T09:56:55.000Z</time>
      </trkpt>
      <trkpt lat="45.05728" lon="6.14685">
        <ele>1178.8</ele>
        <time>2020-08-26T09:56:56.000Z</time>
      </trkpt>
      <trkpt lat="45.05737" lon="6.14698">
        <ele>1177.4</ele>
        <time>2020-08-26T09:56:57.000Z</time>
      </trkpt>
      <trkpt lat="45.05747" lon="6.1471">
        <ele>1176.2</ele>
        <time>2020-08-26T09:56:58.000Z</time>
      </trkpt>
      <trkpt lat="45.05758" lon="6.14718">
        <ele>1174.4</ele>
        <time>2020-08-26T09:56:59.000Z</time>
      </trkpt>
      <trkpt lat="45.05769" lon="6.14724">
        <ele>1172.6</ele>
        <time>2020-08-26T09:57:00.000Z</time>
      </trkpt>
      <trkpt lat="45.05782" lon="6.14729">
        <ele>1171</ele>
        <time>2020-08-26T09:57:01.000Z</time>
      </trkpt>
      <trkpt lat="45.05795" lon="6.14735">
        <ele>1169.6</ele>
        <time>2020-08-26T09:57:02.000Z</time>
      </trkpt>
      <trkpt lat="45.05807" lon="6.14745">
        <ele>1168.2</ele>
        <time>2020-08-26T09:57:03.000Z</time>
      </trkpt>
      <trkpt lat="45.05818" lon="6.14757">
        <ele>1167</ele>
        <time>2020-08-26T09:57:04.000Z</time>
      </trkpt>
      <trkpt lat="45.0583" lon="6.14768">
        <ele>1165.6</ele>
        <time>2020-08-26T09:57:05.000Z</time>
      </trkpt>
      <trkpt lat="45.05842" lon="6.14779">
        <ele>1164.6</ele>
        <time>2020-08-26T09:57:06.000Z</time>
      </trkpt>
      <trkpt lat="45.05855" lon="6.14789">
        <ele>1163.2</ele>
        <time>2020-08-26T09:57:07.000Z</time>
      </trkpt>
      <trkpt lat="45.05867" lon="6.14797">
        <ele>1162.2</ele>
        <time>2020-08-26T09:57:08.000Z</time>
      </trkpt>
      <trkpt lat="45.05878" lon="6.14806">
        <ele>1161</ele>
        <time>2020-08-26T09:57:09.000Z</time>
      </trkpt>
      <trkpt lat="45.05887" lon="6.14814">
        <ele>1159.8</ele>
        <time>2020-08-26T09:57:10.000Z</time>
      </trkpt>
      <trkpt lat="45.05895" lon="6.14821">
        <ele>1159.4</ele>
        <time>2020-08-26T09:57:11.000Z</time>
      </trkpt>
      <trkpt lat="45.05902" lon="6.14827">
        <ele>1159.2</ele>
        <time>2020-08-26T09:57:12.000Z</time>
      </trkpt>
      <trkpt lat="45.05907" lon="6.14832">
        <ele>1159</ele>
        <time>2020-08-26T09:57:13.000Z</time>
      </trkpt>
      <trkpt lat="45.05911" lon="6.14837">
        <ele>1159</ele>
        <time>2020-08-26T09:57:14.000Z</time>
      </trkpt>
      <trkpt lat="45.05915" lon="6.1484">
        <ele>1159</ele>
        <time>2020-08-26T09:57:15.000Z</time>
      </trkpt>
      <trkpt lat="45.05918" lon="6.14843">
        <ele>1159</ele>
        <time>2020-08-26T09:57:16.000Z</time>
      </trkpt>
      <trkpt lat="45.05921" lon="6.14846">
        <ele>1159</ele>
        <time>2020-08-26T09:57:17.000Z</time>
      </trkpt>
      <trkpt lat="45.05924" lon="6.14848">
        <ele>1159</ele>
        <time>2020-08-26T09:57:18.000Z</time>
      </trkpt>
      <trkpt lat="45.05926" lon="6.14851">
        <ele>1159</ele>
        <time>2020-08-26T09:57:19.000Z</time>
      </trkpt>
      <trkpt lat="45.05929" lon="6.14854">
        <ele>1160.4</ele>
        <time>2020-08-26T09:57:20.000Z</time>
      </trkpt>
      <trkpt lat="45.05931" lon="6.14857">
        <ele>1162</ele>
        <time>2020-08-26T09:57:21.000Z</time>
      </trkpt>
      <trkpt lat="45.05933" lon="6.14858">
        <ele>1163.8</ele>
        <time>2020-08-26T09:57:22.000Z</time>
      </trkpt>
      <trkpt lat="45.05936" lon="6.1486">
        <ele>1165.4</ele>
        <time>2020-08-26T09:57:23.000Z</time>
      </trkpt>
      <trkpt lat="45.05938" lon="6.14863">
        <ele>1166.8</ele>
        <time>2020-08-26T09:57:24.000Z</time>
      </trkpt>
      <trkpt lat="45.0594" lon="6.14865">
        <ele>1168</ele>
        <time>2020-08-26T09:57:25.000Z</time>
      </trkpt>
      <trkpt lat="45.05942" lon="6.14867">
        <ele>1169</ele>
        <time>2020-08-26T09:57:26.000Z</time>
      </trkpt>
      <trkpt lat="45.05944" lon="6.14869">
        <ele>1169.8</ele>
        <time>2020-08-26T09:57:27.000Z</time>
      </trkpt>
      <trkpt lat="45.05946" lon="6.14871">
        <ele>1170.4</ele>
        <time>2020-08-26T09:57:28.000Z</time>
      </trkpt>
      <trkpt lat="45.05948" lon="6.14873">
        <ele>1170.6</ele>
        <time>2020-08-26T09:57:29.000Z</time>
      </trkpt>
      <trkpt lat="45.05949" lon="6.14875">
        <ele>1171.2</ele>
        <time>2020-08-26T09:57:30.000Z</time>
      </trkpt>
      <trkpt lat="45.0595" lon="6.14878">
        <ele>1171.8</ele>
        <time>2020-08-26T09:57:31.000Z</time>
      </trkpt>
      <trkpt lat="45.05952" lon="6.1488">
        <ele>1172.2</ele>
        <time>2020-08-26T09:57:32.000Z</time>
      </trkpt>
      <trkpt lat="45.05953" lon="6.14882">
        <ele>1172.6</ele>
        <time>2020-08-26T09:57:33.000Z</time>
      </trkpt>
      <trkpt lat="45.05954" lon="6.14885">
        <ele>1173</ele>
        <time>2020-08-26T09:57:34.000Z</time>
      </trkpt>
      <trkpt lat="45.05955" lon="6.14887">
        <ele>1173.4</ele>
        <time>2020-08-26T09:57:35.000Z</time>
      </trkpt>
      <trkpt lat="45.05957" lon="6.14889">
        <ele>1174.2</ele>
        <time>2020-08-26T09:57:36.000Z</time>
      </trkpt>
      <trkpt lat="45.05958" lon="6.14891">
        <ele>1174.6</ele>
        <time>2020-08-26T09:57:37.000Z</time>
      </trkpt>
      <trkpt lat="45.0596" lon="6.14893">
        <ele>1175</ele>
        <time>2020-08-26T09:57:38.000Z</time>
      </trkpt>
      <trkpt lat="45.05961" lon="6.14896">
        <ele>1175.4</ele>
        <time>2020-08-26T09:57:39.000Z</time>
      </trkpt>
      <trkpt lat="45.05963" lon="6.14898">
        <ele>1175.6</ele>
        <time>2020-08-26T09:57:40.000Z</time>
      </trkpt>
      <trkpt lat="45.05964" lon="6.149">
        <ele>1176</ele>
        <time>2020-08-26T09:57:41.000Z</time>
      </trkpt>
      <trkpt lat="45.05965" lon="6.14903">
        <ele>1176.4</ele>
        <time>2020-08-26T09:57:42.000Z</time>
      </trkpt>
      <trkpt lat="45.05967" lon="6.14905">
        <ele>1176.6</ele>
        <time>2020-08-26T09:57:43.000Z</time>
      </trkpt>
      <trkpt lat="45.05968" lon="6.14907">
        <ele>1176.8</ele>
        <time>2020-08-26T09:57:44.000Z</time>
      </trkpt>
      <trkpt lat="45.05969" lon="6.14909">
        <ele>1177</ele>
        <time>2020-08-26T09:57:45.000Z</time>
      </trkpt>
      <trkpt lat="45.05971" lon="6.14911">
        <ele>1177.4</ele>
        <time>2020-08-26T09:57:46.000Z</time>
      </trkpt>
      <trkpt lat="45.05972" lon="6.14914">
        <ele>1177.8</ele>
        <time>2020-08-26T09:57:47.000Z</time>
      </trkpt>
      <trkpt lat="45.05974" lon="6.14916">
        <ele>1178</ele>
        <time>2020-08-26T09:57:48.000Z</time>
      </trkpt>
      <trkpt lat="45.05975" lon="6.14919">
        <ele>1178.4</ele>
        <time>2020-08-26T09:57:49.000Z</time>
      </trkpt>
      <trkpt lat="45.05976" lon="6.14921">
        <ele>1178.8</ele>
        <time>2020-08-26T09:57:50.000Z</time>
      </trkpt>
      <trkpt lat="45.05977" lon="6.14924">
        <ele>1179.2</ele>
        <time>2020-08-26T09:57:51.000Z</time>
      </trkpt>
      <trkpt lat="45.05978" lon="6.14926">
        <ele>1179.8</ele>
        <time>2020-08-26T09:57:52.000Z</time>
      </trkpt>
      <trkpt lat="45.05979" lon="6.14929">
        <ele>1180.2</ele>
        <time>2020-08-26T09:57:53.000Z</time>
      </trkpt>
      <trkpt lat="45.0598" lon="6.14931">
        <ele>1180.4</ele>
        <time>2020-08-26T09:57:54.000Z</time>
      </trkpt>
      <trkpt lat="45.05981" lon="6.14934">
        <ele>1180.6</ele>
        <time>2020-08-26T09:57:55.000Z</time>
      </trkpt>
      <trkpt lat="45.05981" lon="6.14936">
        <ele>1180.8</ele>
        <time>2020-08-26T09:57:56.000Z</time>
      </trkpt>
      <trkpt lat="45.05982" lon="6.14939">
        <ele>1181.2</ele>
        <time>2020-08-26T09:57:57.000Z</time>
      </trkpt>
      <trkpt lat="45.05983" lon="6.14941">
        <ele>1181.4</ele>
        <time>2020-08-26T09:57:58.000Z</time>
      </trkpt>
      <trkpt lat="45.05984" lon="6.14944">
        <ele>1182</ele>
        <time>2020-08-26T09:57:59.000Z</time>
      </trkpt>
      <trkpt lat="45.05985" lon="6.14946">
        <ele>1182.2</ele>
        <time>2020-08-26T09:58:00.000Z</time>
      </trkpt>
      <trkpt lat="45.05986" lon="6.14949">
        <ele>1182.4</ele>
        <time>2020-08-26T09:58:01.000Z</time>
      </trkpt>
      <trkpt lat="45.05988" lon="6.1495">
        <ele>1182.8</ele>
        <time>2020-08-26T09:58:02.000Z</time>
      </trkpt>
      <trkpt lat="45.0599" lon="6.14952">
        <ele>1183</ele>
        <time>2020-08-26T09:58:03.000Z</time>
      </trkpt>
      <trkpt lat="45.05991" lon="6.14953">
        <ele>1183.4</ele>
        <time>2020-08-26T09:58:04.000Z</time>
      </trkpt>
      <trkpt lat="45.05993" lon="6.14953">
        <ele>1183.8</ele>
        <time>2020-08-26T09:58:05.000Z</time>
      </trkpt>
      <trkpt lat="45.05995" lon="6.14951">
        <ele>1184</ele>
        <time>2020-08-26T09:58:06.000Z</time>
      </trkpt>
      <trkpt lat="45.05997" lon="6.14949">
        <ele>1184.2</ele>
        <time>2020-08-26T09:58:07.000Z</time>
      </trkpt>
      <trkpt lat="45.05999" lon="6.14947">
        <ele>1184.6</ele>
        <time>2020-08-26T09:58:08.000Z</time>
      </trkpt>
      <trkpt lat="45.06" lon="6.14944">
        <ele>1185</ele>
        <time>2020-08-26T09:58:09.000Z</time>
      </trkpt>
      <trkpt lat="45.06001" lon="6.14942">
        <ele>1185.2</ele>
        <time>2020-08-26T09:58:10.000Z</time>
      </trkpt>
      <trkpt lat="45.06" lon="6.14939">
        <ele>1185.4</ele>
        <time>2020-08-26T09:58:11.000Z</time>
      </trkpt>
      <trkpt lat="45.06" lon="6.14935">
        <ele>1185.6</ele>
        <time>2020-08-26T09:58:12.000Z</time>
      </trkpt>
      <trkpt lat="45.05999" lon="6.14932">
        <ele>1185.8</ele>
        <time>2020-08-26T09:58:13.000Z</time>
      </trkpt>
      <trkpt lat="45.05999" lon="6.1493">
        <ele>1186</ele>
        <time>2020-08-26T09:58:14.000Z</time>
      </trkpt>
      <trkpt lat="45.05998" lon="6.14927">
        <ele>1186.2</ele>
        <time>2020-08-26T09:58:15.000Z</time>
      </trkpt>
      <trkpt lat="45.05997" lon="6.14925">
        <ele>1186.2</ele>
        <time>2020-08-26T09:58:16.000Z</time>
      </trkpt>
      <trkpt lat="45.05995" lon="6.14922">
        <ele>1186.2</ele>
        <time>2020-08-26T09:58:17.000Z</time>
      </trkpt>
      <trkpt lat="45.05994" lon="6.14919">
        <ele>1186.4</ele>
        <time>2020-08-26T09:58:18.000Z</time>
      </trkpt>
      <trkpt lat="45.05993" lon="6.14916">
        <ele>1186.4</ele>
        <time>2020-08-26T09:58:19.000Z</time>
      </trkpt>
      <trkpt lat="45.05991" lon="6.14913">
        <ele>1186.6</ele>
        <time>2020-08-26T09:58:20.000Z</time>
      </trkpt>
      <trkpt lat="45.0599" lon="6.1491">
        <ele>1186.8</ele>
        <time>2020-08-26T09:58:21.000Z</time>
      </trkpt>
      <trkpt lat="45.0599" lon="6.14907">
        <ele>1187</ele>
        <time>2020-08-26T09:58:22.000Z</time>
      </trkpt>
      <trkpt lat="45.05989" lon="6.14905">
        <ele>1187.2</ele>
        <time>2020-08-26T09:58:23.000Z</time>
      </trkpt>
      <trkpt lat="45.05988" lon="6.14902">
        <ele>1187.4</ele>
        <time>2020-08-26T09:58:24.000Z</time>
      </trkpt>
      <trkpt lat="45.05986" lon="6.149">
        <ele>1187.4</ele>
        <time>2020-08-26T09:58:25.000Z</time>
      </trkpt>
      <trkpt lat="45.05985" lon="6.14897">
        <ele>1187.6</ele>
        <time>2020-08-26T09:58:26.000Z</time>
      </trkpt>
      <trkpt lat="45.05985" lon="6.14894">
        <ele>1187.8</ele>
        <time>2020-08-26T09:58:27.000Z</time>
      </trkpt>
      <trkpt lat="45.05984" lon="6.14891">
        <ele>1188</ele>
        <time>2020-08-26T09:58:28.000Z</time>
      </trkpt>
      <trkpt lat="45.05983" lon="6.14889">
        <ele>1188</ele>
        <time>2020-08-26T09:58:29.000Z</time>
      </trkpt>
      <trkpt lat="45.05982" lon="6.14886">
        <ele>1188.2</ele>
        <time>2020-08-26T09:58:30.000Z</time>
      </trkpt>
      <trkpt lat="45.05981" lon="6.14884">
        <ele>1188.4</ele>
        <time>2020-08-26T09:58:31.000Z</time>
      </trkpt>
      <trkpt lat="45.0598" lon="6.14881">
        <ele>1188.6</ele>
        <time>2020-08-26T09:58:32.000Z</time>
      </trkpt>
      <trkpt lat="45.05979" lon="6.14878">
        <ele>1188.8</ele>
        <time>2020-08-26T09:58:33.000Z</time>
      </trkpt>
      <trkpt lat="45.05978" lon="6.14875">
        <ele>1189.4</ele>
        <time>2020-08-26T09:58:34.000Z</time>
      </trkpt>
      <trkpt lat="45.05977" lon="6.14873">
        <ele>1189.8</ele>
        <time>2020-08-26T09:58:35.000Z</time>
      </trkpt>
      <trkpt lat="45.05976" lon="6.1487">
        <ele>1190.2</ele>
        <time>2020-08-26T09:58:36.000Z</time>
      </trkpt>
      <trkpt lat="45.05975" lon="6.14868">
        <ele>1190.4</ele>
        <time>2020-08-26T09:58:37.000Z</time>
      </trkpt>
      <trkpt lat="45.05974" lon="6.14865">
        <ele>1190.6</ele>
        <time>2020-08-26T09:58:38.000Z</time>
      </trkpt>
      <trkpt lat="45.05973" lon="6.14862">
        <ele>1190.8</ele>
        <time>2020-08-26T09:58:39.000Z</time>
      </trkpt>
      <trkpt lat="45.05971" lon="6.14859">
        <ele>1191</ele>
        <time>2020-08-26T09:58:40.000Z</time>
      </trkpt>
      <trkpt lat="45.0597" lon="6.14857">
        <ele>1191.2</ele>
        <time>2020-08-26T09:58:41.000Z</time>
      </trkpt>
      <trkpt lat="45.05969" lon="6.14854">
        <ele>1191.6</ele>
        <time>2020-08-26T09:58:42.000Z</time>
      </trkpt>
      <trkpt lat="45.05968" lon="6.14851">
        <ele>1192</ele>
        <time>2020-08-26T09:58:43.000Z</time>
      </trkpt>
      <trkpt lat="45.05968" lon="6.14848">
        <ele>1192.2</ele>
        <time>2020-08-26T09:58:44.000Z</time>
      </trkpt>
      <trkpt lat="45.05967" lon="6.14845">
        <ele>1192.4</ele>
        <time>2020-08-26T09:58:45.000Z</time>
      </trkpt>
      <trkpt lat="45.05967" lon="6.14843">
        <ele>1192.6</ele>
        <time>2020-08-26T09:58:46.000Z</time>
      </trkpt>
      <trkpt lat="45.05967" lon="6.1484">
        <ele>1192.6</ele>
        <time>2020-08-26T09:58:47.000Z</time>
      </trkpt>
      <trkpt lat="45.05966" lon="6.14837">
        <ele>1192.8</ele>
        <time>2020-08-26T09:58:48.000Z</time>
      </trkpt>
      <trkpt lat="45.05966" lon="6.14835">
        <ele>1193.2</ele>
        <time>2020-08-26T09:58:49.000Z</time>
      </trkpt>
      <trkpt lat="45.05966" lon="6.14832">
        <ele>1193.4</ele>
        <time>2020-08-26T09:58:50.000Z</time>
      </trkpt>
      <trkpt lat="45.05965" lon="6.1483">
        <ele>1193.4</ele>
        <time>2020-08-26T09:58:51.000Z</time>
      </trkpt>
      <trkpt lat="45.05965" lon="6.14827">
        <ele>1193.6</ele>
        <time>2020-08-26T09:58:52.000Z</time>
      </trkpt>
      <trkpt lat="45.05964" lon="6.14825">
        <ele>1193.6</ele>
        <time>2020-08-26T09:58:53.000Z</time>
      </trkpt>
      <trkpt lat="45.05964" lon="6.14822">
        <ele>1193.6</ele>
        <time>2020-08-26T09:58:54.000Z</time>
      </trkpt>
      <trkpt lat="45.05965" lon="6.14819">
        <ele>1194</ele>
        <time>2020-08-26T09:58:55.000Z</time>
      </trkpt>
      <trkpt lat="45.05965" lon="6.14817">
        <ele>1194.2</ele>
        <time>2020-08-26T09:58:56.000Z</time>
      </trkpt>
      <trkpt lat="45.05965" lon="6.14814">
        <ele>1194.4</ele>
        <time>2020-08-26T09:58:57.000Z</time>
      </trkpt>
      <trkpt lat="45.05965" lon="6.14811">
        <ele>1194.8</ele>
        <time>2020-08-26T09:58:58.000Z</time>
      </trkpt>
      <trkpt lat="45.05965" lon="6.14808">
        <ele>1195</ele>
        <time>2020-08-26T09:58:59.000Z</time>
      </trkpt>
      <trkpt lat="45.05965" lon="6.14806">
        <ele>1195.2</ele>
        <time>2020-08-26T09:59:00.000Z</time>
      </trkpt>
      <trkpt lat="45.05965" lon="6.14803">
        <ele>1195.6</ele>
        <time>2020-08-26T09:59:01.000Z</time>
      </trkpt>
      <trkpt lat="45.05965" lon="6.148">
        <ele>1195.8</ele>
        <time>2020-08-26T09:59:02.000Z</time>
      </trkpt>
      <trkpt lat="45.05965" lon="6.14798">
        <ele>1196.2</ele>
        <time>2020-08-26T09:59:03.000Z</time>
      </trkpt>
      <trkpt lat="45.05965" lon="6.14795">
        <ele>1196.4</ele>
        <time>2020-08-26T09:59:04.000Z</time>
      </trkpt>
      <trkpt lat="45.05964" lon="6.14792">
        <ele>1196.8</ele>
        <time>2020-08-26T09:59:05.000Z</time>
      </trkpt>
      <trkpt lat="45.05964" lon="6.1479">
        <ele>1197</ele>
        <time>2020-08-26T09:59:06.000Z</time>
      </trkpt>
      <trkpt lat="45.05963" lon="6.14786">
        <ele>1197.2</ele>
        <time>2020-08-26T09:59:07.000Z</time>
      </trkpt>
      <trkpt lat="45.05962" lon="6.14783">
        <ele>1197.6</ele>
        <time>2020-08-26T09:59:08.000Z</time>
      </trkpt>
      <trkpt lat="45.05961" lon="6.14779">
        <ele>1197.8</ele>
        <time>2020-08-26T09:59:09.000Z</time>
      </trkpt>
      <trkpt lat="45.0596" lon="6.14776">
        <ele>1198</ele>
        <time>2020-08-26T09:59:10.000Z</time>
      </trkpt>
      <trkpt lat="45.0596" lon="6.14774">
        <ele>1198.2</ele>
        <time>2020-08-26T09:59:11.000Z</time>
      </trkpt>
      <trkpt lat="45.05959" lon="6.1477">
        <ele>1198.4</ele>
        <time>2020-08-26T09:59:12.000Z</time>
      </trkpt>
      <trkpt lat="45.05958" lon="6.14767">
        <ele>1198.6</ele>
        <time>2020-08-26T09:59:13.000Z</time>
      </trkpt>
      <trkpt lat="45.05957" lon="6.14763">
        <ele>1198.8</ele>
        <time>2020-08-26T09:59:14.000Z</time>
      </trkpt>
      <trkpt lat="45.05956" lon="6.1476">
        <ele>1198.8</ele>
        <time>2020-08-26T09:59:15.000Z</time>
      </trkpt>
      <trkpt lat="45.05955" lon="6.14758">
        <ele>1199</ele>
        <time>2020-08-26T09:59:16.000Z</time>
      </trkpt>
      <trkpt lat="45.05953" lon="6.14755">
        <ele>1199.2</ele>
        <time>2020-08-26T09:59:17.000Z</time>
      </trkpt>
      <trkpt lat="45.05952" lon="6.14753">
        <ele>1199.2</ele>
        <time>2020-08-26T09:59:18.000Z</time>
      </trkpt>
      <trkpt lat="45.05951" lon="6.1475">
        <ele>1199.4</ele>
        <time>2020-08-26T09:59:19.000Z</time>
      </trkpt>
      <trkpt lat="45.0595" lon="6.14747">
        <ele>1199.6</ele>
        <time>2020-08-26T09:59:20.000Z</time>
      </trkpt>
      <trkpt lat="45.05949" lon="6.14744">
        <ele>1199.8</ele>
        <time>2020-08-26T09:59:21.000Z</time>
      </trkpt>
      <trkpt lat="45.05948" lon="6.14742">
        <ele>1200.2</ele>
        <time>2020-08-26T09:59:22.000Z</time>
      </trkpt>
      <trkpt lat="45.05947" lon="6.14739">
        <ele>1200.4</ele>
        <time>2020-08-26T09:59:23.000Z</time>
      </trkpt>
      <trkpt lat="45.05946" lon="6.14737">
        <ele>1200.8</ele>
        <time>2020-08-26T09:59:24.000Z</time>
      </trkpt>
      <trkpt lat="45.05946" lon="6.14734">
        <ele>1201</ele>
        <time>2020-08-26T09:59:25.000Z</time>
      </trkpt>
      <trkpt lat="45.05945" lon="6.14731">
        <ele>1201.2</ele>
        <time>2020-08-26T09:59:26.000Z</time>
      </trkpt>
      <trkpt lat="45.05944" lon="6.14729">
        <ele>1201.4</ele>
        <time>2020-08-26T09:59:27.000Z</time>
      </trkpt>
      <trkpt lat="45.05943" lon="6.14726">
        <ele>1201.8</ele>
        <time>2020-08-26T09:59:28.000Z</time>
      </trkpt>
      <trkpt lat="45.05942" lon="6.14723">
        <ele>1202</ele>
        <time>2020-08-26T09:59:29.000Z</time>
      </trkpt>
      <trkpt lat="45.05941" lon="6.1472">
        <ele>1202</ele>
        <time>2020-08-26T09:59:30.000Z</time>
      </trkpt>
      <trkpt lat="45.05939" lon="6.14718">
        <ele>1202.2</ele>
        <time>2020-08-26T09:59:31.000Z</time>
      </trkpt>
      <trkpt lat="45.05938" lon="6.14715">
        <ele>1202.4</ele>
        <time>2020-08-26T09:59:32.000Z</time>
      </trkpt>
      <trkpt lat="45.05937" lon="6.14713">
        <ele>1203</ele>
        <time>2020-08-26T09:59:33.000Z</time>
      </trkpt>
      <trkpt lat="45.05936" lon="6.1471">
        <ele>1203.2</ele>
        <time>2020-08-26T09:59:34.000Z</time>
      </trkpt>
      <trkpt lat="45.05935" lon="6.14708">
        <ele>1203.4</ele>
        <time>2020-08-26T09:59:35.000Z</time>
      </trkpt>
      <trkpt lat="45.05933" lon="6.14705">
        <ele>1203.6</ele>
        <time>2020-08-26T09:59:36.000Z</time>
      </trkpt>
      <trkpt lat="45.05932" lon="6.14703">
        <ele>1204</ele>
        <time>2020-08-26T09:59:37.000Z</time>
      </trkpt>
      <trkpt lat="45.0593" lon="6.147">
        <ele>1204.2</ele>
        <time>2020-08-26T09:59:38.000Z</time>
      </trkpt>
      <trkpt lat="45.05929" lon="6.14697">
        <ele>1204.6</ele>
        <time>2020-08-26T09:59:39.000Z</time>
      </trkpt>
      <trkpt lat="45.05927" lon="6.14694">
        <ele>1204.8</ele>
        <time>2020-08-26T09:59:40.000Z</time>
      </trkpt>
      <trkpt lat="45.05926" lon="6.14691">
        <ele>1205</ele>
        <time>2020-08-26T09:59:41.000Z</time>
      </trkpt>
      <trkpt lat="45.05924" lon="6.14689">
        <ele>1205.2</ele>
        <time>2020-08-26T09:59:42.000Z</time>
      </trkpt>
      <trkpt lat="45.05923" lon="6.14686">
        <ele>1205.4</ele>
        <time>2020-08-26T09:59:43.000Z</time>
      </trkpt>
      <trkpt lat="45.05922" lon="6.14684">
        <ele>1205.4</ele>
        <time>2020-08-26T09:59:44.000Z</time>
      </trkpt>
      <trkpt lat="45.05921" lon="6.14681">
        <ele>1205.6</ele>
        <time>2020-08-26T09:59:45.000Z</time>
      </trkpt>
      <trkpt lat="45.05919" lon="6.14678">
        <ele>1205.8</ele>
        <time>2020-08-26T09:59:46.000Z</time>
      </trkpt>
      <trkpt lat="45.05918" lon="6.14674">
        <ele>1206</ele>
        <time>2020-08-26T09:59:47.000Z</time>
      </trkpt>
      <trkpt lat="45.05917" lon="6.14671">
        <ele>1206.2</ele>
        <time>2020-08-26T09:59:48.000Z</time>
      </trkpt>
      <trkpt lat="45.05917" lon="6.14668">
        <ele>1206.6</ele>
        <time>2020-08-26T09:59:49.000Z</time>
      </trkpt>
      <trkpt lat="45.05917" lon="6.14664">
        <ele>1206.8</ele>
        <time>2020-08-26T09:59:50.000Z</time>
      </trkpt>
      <trkpt lat="45.05918" lon="6.14661">
        <ele>1207</ele>
        <time>2020-08-26T09:59:51.000Z</time>
      </trkpt>
      <trkpt lat="45.05917" lon="6.14659">
        <ele>1207.2</ele>
        <time>2020-08-26T09:59:52.000Z</time>
      </trkpt>
      <trkpt lat="45.05917" lon="6.14659">
        <ele>1207.4</ele>
        <time>2020-08-26T09:59:53.000Z</time>
      </trkpt>
      <trkpt lat="45.05918" lon="6.1466">
        <ele>1207.6</ele>
        <time>2020-08-26T09:59:54.000Z</time>
      </trkpt>
      <trkpt lat="45.05919" lon="6.14662">
        <ele>1207.6</ele>
        <time>2020-08-26T09:59:55.000Z</time>
      </trkpt>
      <trkpt lat="45.0592" lon="6.14664">
        <ele>1207.8</ele>
        <time>2020-08-26T09:59:56.000Z</time>
      </trkpt>
      <trkpt lat="45.05921" lon="6.14666">
        <ele>1208</ele>
        <time>2020-08-26T09:59:57.000Z</time>
      </trkpt>
      <trkpt lat="45.05922" lon="6.14668">
        <ele>1208.2</ele>
        <time>2020-08-26T09:59:58.000Z</time>
      </trkpt>
      <trkpt lat="45.05923" lon="6.1467">
        <ele>1208.4</ele>
        <time>2020-08-26T09:59:59.000Z</time>
      </trkpt>
      <trkpt lat="45.05925" lon="6.14673">
        <ele>1208.6</ele>
        <time>2020-08-26T10:00:00.000Z</time>
      </trkpt>
      <trkpt lat="45.05927" lon="6.14675">
        <ele>1208.8</ele>
        <time>2020-08-26T10:00:01.000Z</time>
      </trkpt>
      <trkpt lat="45.05928" lon="6.14677">
        <ele>1209</ele>
        <time>2020-08-26T10:00:02.000Z</time>
      </trkpt>
      <trkpt lat="45.0593" lon="6.14679">
        <ele>1209.2</ele>
        <time>2020-08-26T10:00:03.000Z</time>
      </trkpt>
      <trkpt lat="45.05931" lon="6.14682">
        <ele>1209.4</ele>
        <time>2020-08-26T10:00:04.000Z</time>
      </trkpt>
      <trkpt lat="45.05932" lon="6.14684">
        <ele>1209.6</ele>
        <time>2020-08-26T10:00:05.000Z</time>
      </trkpt>
      <trkpt lat="45.05934" lon="6.14686">
        <ele>1209.6</ele>
        <time>2020-08-26T10:00:06.000Z</time>
      </trkpt>
      <trkpt lat="45.05935" lon="6.14687">
        <ele>1209.8</ele>
        <time>2020-08-26T10:00:07.000Z</time>
      </trkpt>
      <trkpt lat="45.05937" lon="6.14689">
        <ele>1209.8</ele>
        <time>2020-08-26T10:00:08.000Z</time>
      </trkpt>
      <trkpt lat="45.05938" lon="6.14691">
        <ele>1210.2</ele>
        <time>2020-08-26T10:00:09.000Z</time>
      </trkpt>
      <trkpt lat="45.0594" lon="6.14693">
        <ele>1210.6</ele>
        <time>2020-08-26T10:00:10.000Z</time>
      </trkpt>
      <trkpt lat="45.05942" lon="6.14695">
        <ele>1211</ele>
        <time>2020-08-26T10:00:11.000Z</time>
      </trkpt>
      <trkpt lat="45.05944" lon="6.14697">
        <ele>1211.2</ele>
        <time>2020-08-26T10:00:12.000Z</time>
      </trkpt>
      <trkpt lat="45.05946" lon="6.14699">
        <ele>1211.6</ele>
        <time>2020-08-26T10:00:13.000Z</time>
      </trkpt>
      <trkpt lat="45.05947" lon="6.14701">
        <ele>1211.8</ele>
        <time>2020-08-26T10:00:14.000Z</time>
      </trkpt>
      <trkpt lat="45.0595" lon="6.14703">
        <ele>1212</ele>
        <time>2020-08-26T10:00:15.000Z</time>
      </trkpt>
      <trkpt lat="45.05952" lon="6.14705">
        <ele>1212.2</ele>
        <time>2020-08-26T10:00:16.000Z</time>
      </trkpt>
      <trkpt lat="45.05954" lon="6.14706">
        <ele>1212.4</ele>
        <time>2020-08-26T10:00:17.000Z</time>
      </trkpt>
      <trkpt lat="45.05956" lon="6.14708">
        <ele>1212.6</ele>
        <time>2020-08-26T10:00:18.000Z</time>
      </trkpt>
      <trkpt lat="45.05958" lon="6.1471">
        <ele>1212.8</ele>
        <time>2020-08-26T10:00:19.000Z</time>
      </trkpt>
      <trkpt lat="45.0596" lon="6.14711">
        <ele>1213</ele>
        <time>2020-08-26T10:00:20.000Z</time>
      </trkpt>
      <trkpt lat="45.05962" lon="6.14713">
        <ele>1213.4</ele>
        <time>2020-08-26T10:00:21.000Z</time>
      </trkpt>
      <trkpt lat="45.05964" lon="6.14715">
        <ele>1213.6</ele>
        <time>2020-08-26T10:00:22.000Z</time>
      </trkpt>
      <trkpt lat="45.05966" lon="6.14717">
        <ele>1213.8</ele>
        <time>2020-08-26T10:00:23.000Z</time>
      </trkpt>
      <trkpt lat="45.05968" lon="6.14719">
        <ele>1213.8</ele>
        <time>2020-08-26T10:00:24.000Z</time>
      </trkpt>
      <trkpt lat="45.0597" lon="6.1472">
        <ele>1214</ele>
        <time>2020-08-26T10:00:25.000Z</time>
      </trkpt>
      <trkpt lat="45.05972" lon="6.14722">
        <ele>1214.2</ele>
        <time>2020-08-26T10:00:26.000Z</time>
      </trkpt>
      <trkpt lat="45.05974" lon="6.14724">
        <ele>1214.4</ele>
        <time>2020-08-26T10:00:27.000Z</time>
      </trkpt>
      <trkpt lat="45.05976" lon="6.14725">
        <ele>1214.6</ele>
        <time>2020-08-26T10:00:28.000Z</time>
      </trkpt>
      <trkpt lat="45.05978" lon="6.14727">
        <ele>1214.8</ele>
        <time>2020-08-26T10:00:29.000Z</time>
      </trkpt>
      <trkpt lat="45.0598" lon="6.14728">
        <ele>1215</ele>
        <time>2020-08-26T10:00:30.000Z</time>
      </trkpt>
      <trkpt lat="45.05982" lon="6.1473">
        <ele>1215.6</ele>
        <time>2020-08-26T10:00:31.000Z</time>
      </trkpt>
      <trkpt lat="45.05984" lon="6.14731">
        <ele>1215.8</ele>
        <time>2020-08-26T10:00:32.000Z</time>
      </trkpt>
      <trkpt lat="45.05986" lon="6.14733">
        <ele>1216</ele>
        <time>2020-08-26T10:00:33.000Z</time>
      </trkpt>
      <trkpt lat="45.05988" lon="6.14734">
        <ele>1216.4</ele>
        <time>2020-08-26T10:00:34.000Z</time>
      </trkpt>
      <trkpt lat="45.0599" lon="6.14736">
        <ele>1216.6</ele>
        <time>2020-08-26T10:00:35.000Z</time>
      </trkpt>
      <trkpt lat="45.05993" lon="6.14737">
        <ele>1216.8</ele>
        <time>2020-08-26T10:00:36.000Z</time>
      </trkpt>
      <trkpt lat="45.05995" lon="6.14738">
        <ele>1217</ele>
        <time>2020-08-26T10:00:37.000Z</time>
      </trkpt>
      <trkpt lat="45.05997" lon="6.1474">
        <ele>1217.2</ele>
        <time>2020-08-26T10:00:38.000Z</time>
      </trkpt>
      <trkpt lat="45.05998" lon="6.14741">
        <ele>1217.6</ele>
        <time>2020-08-26T10:00:39.000Z</time>
      </trkpt>
      <trkpt lat="45.06" lon="6.14743">
        <ele>1217.8</ele>
        <time>2020-08-26T10:00:40.000Z</time>
      </trkpt>
      <trkpt lat="45.06002" lon="6.14745">
        <ele>1218.2</ele>
        <time>2020-08-26T10:00:41.000Z</time>
      </trkpt>
      <trkpt lat="45.06004" lon="6.14746">
        <ele>1218.4</ele>
        <time>2020-08-26T10:00:42.000Z</time>
      </trkpt>
      <trkpt lat="45.06006" lon="6.14748">
        <ele>1218.6</ele>
        <time>2020-08-26T10:00:43.000Z</time>
      </trkpt>
      <trkpt lat="45.06007" lon="6.14749">
        <ele>1218.8</ele>
        <time>2020-08-26T10:00:44.000Z</time>
      </trkpt>
      <trkpt lat="45.06009" lon="6.14751">
        <ele>1219.2</ele>
        <time>2020-08-26T10:00:45.000Z</time>
      </trkpt>
      <trkpt lat="45.0601" lon="6.14752">
        <ele>1219.2</ele>
        <time>2020-08-26T10:00:46.000Z</time>
      </trkpt>
      <trkpt lat="45.06012" lon="6.14754">
        <ele>1219.4</ele>
        <time>2020-08-26T10:00:47.000Z</time>
      </trkpt>
      <trkpt lat="45.06014" lon="6.14756">
        <ele>1219.6</ele>
        <time>2020-08-26T10:00:48.000Z</time>
      </trkpt>
      <trkpt lat="45.06016" lon="6.14757">
        <ele>1219.8</ele>
        <time>2020-08-26T10:00:49.000Z</time>
      </trkpt>
      <trkpt lat="45.06017" lon="6.14758">
        <ele>1220</ele>
        <time>2020-08-26T10:00:50.000Z</time>
      </trkpt>
      <trkpt lat="45.0602" lon="6.1476">
        <ele>1220.4</ele>
        <time>2020-08-26T10:00:51.000Z</time>
      </trkpt>
      <trkpt lat="45.06021" lon="6.14761">
        <ele>1220.6</ele>
        <time>2020-08-26T10:00:52.000Z</time>
      </trkpt>
      <trkpt lat="45.06023" lon="6.14763">
        <ele>1220.8</ele>
        <time>2020-08-26T10:00:53.000Z</time>
      </trkpt>
      <trkpt lat="45.06025" lon="6.14764">
        <ele>1221</ele>
        <time>2020-08-26T10:00:54.000Z</time>
      </trkpt>
      <trkpt lat="45.06027" lon="6.14766">
        <ele>1221.2</ele>
        <time>2020-08-26T10:00:55.000Z</time>
      </trkpt>
      <trkpt lat="45.06028" lon="6.14768">
        <ele>1221.4</ele>
        <time>2020-08-26T10:00:56.000Z</time>
      </trkpt>
      <trkpt lat="45.0603" lon="6.14769">
        <ele>1221.6</ele>
        <time>2020-08-26T10:00:57.000Z</time>
      </trkpt>
      <trkpt lat="45.06032" lon="6.14771">
        <ele>1222</ele>
        <time>2020-08-26T10:00:58.000Z</time>
      </trkpt>
      <trkpt lat="45.06034" lon="6.14773">
        <ele>1222.2</ele>
        <time>2020-08-26T10:00:59.000Z</time>
      </trkpt>
      <trkpt lat="45.06037" lon="6.14774">
        <ele>1222.6</ele>
        <time>2020-08-26T10:01:00.000Z</time>
      </trkpt>
      <trkpt lat="45.06038" lon="6.14776">
        <ele>1222.8</ele>
        <time>2020-08-26T10:01:01.000Z</time>
      </trkpt>
      <trkpt lat="45.06041" lon="6.14778">
        <ele>1223.2</ele>
        <time>2020-08-26T10:01:02.000Z</time>
      </trkpt>
      <trkpt lat="45.06043" lon="6.14779">
        <ele>1223.4</ele>
        <time>2020-08-26T10:01:03.000Z</time>
      </trkpt>
      <trkpt lat="45.06045" lon="6.14782">
        <ele>1223.6</ele>
        <time>2020-08-26T10:01:04.000Z</time>
      </trkpt>
      <trkpt lat="45.06047" lon="6.14783">
        <ele>1223.8</ele>
        <time>2020-08-26T10:01:05.000Z</time>
      </trkpt>
      <trkpt lat="45.06049" lon="6.14785">
        <ele>1224.2</ele>
        <time>2020-08-26T10:01:06.000Z</time>
      </trkpt>
      <trkpt lat="45.06051" lon="6.14787">
        <ele>1224.4</ele>
        <time>2020-08-26T10:01:07.000Z</time>
      </trkpt>
      <trkpt lat="45.06053" lon="6.14789">
        <ele>1224.6</ele>
        <time>2020-08-26T10:01:08.000Z</time>
      </trkpt>
      <trkpt lat="45.06055" lon="6.1479">
        <ele>1225</ele>
        <time>2020-08-26T10:01:09.000Z</time>
      </trkpt>
      <trkpt lat="45.06057" lon="6.14792">
        <ele>1225.2</ele>
        <time>2020-08-26T10:01:10.000Z</time>
      </trkpt>
      <trkpt lat="45.0606" lon="6.14794">
        <ele>1225.4</ele>
        <time>2020-08-26T10:01:11.000Z</time>
      </trkpt>
      <trkpt lat="45.06062" lon="6.14796">
        <ele>1225.6</ele>
        <time>2020-08-26T10:01:12.000Z</time>
      </trkpt>
      <trkpt lat="45.06063" lon="6.14798">
        <ele>1225.8</ele>
        <time>2020-08-26T10:01:13.000Z</time>
      </trkpt>
      <trkpt lat="45.06065" lon="6.14799">
        <ele>1226</ele>
        <time>2020-08-26T10:01:14.000Z</time>
      </trkpt>
      <trkpt lat="45.06067" lon="6.14801">
        <ele>1226.2</ele>
        <time>2020-08-26T10:01:15.000Z</time>
      </trkpt>
      <trkpt lat="45.06068" lon="6.14803">
        <ele>1226.6</ele>
        <time>2020-08-26T10:01:16.000Z</time>
      </trkpt>
      <trkpt lat="45.0607" lon="6.14805">
        <ele>1226.8</ele>
        <time>2020-08-26T10:01:17.000Z</time>
      </trkpt>
      <trkpt lat="45.06072" lon="6.14807">
        <ele>1227</ele>
        <time>2020-08-26T10:01:18.000Z</time>
      </trkpt>
      <trkpt lat="45.06074" lon="6.14808">
        <ele>1227.2</ele>
        <time>2020-08-26T10:01:19.000Z</time>
      </trkpt>
      <trkpt lat="45.06076" lon="6.1481">
        <ele>1227.4</ele>
        <time>2020-08-26T10:01:20.000Z</time>
      </trkpt>
      <trkpt lat="45.06078" lon="6.14812">
        <ele>1227.8</ele>
        <time>2020-08-26T10:01:21.000Z</time>
      </trkpt>
      <trkpt lat="45.0608" lon="6.14813">
        <ele>1228</ele>
        <time>2020-08-26T10:01:22.000Z</time>
      </trkpt>
      <trkpt lat="45.06082" lon="6.14814">
        <ele>1228.4</ele>
        <time>2020-08-26T10:01:23.000Z</time>
      </trkpt>
      <trkpt lat="45.06085" lon="6.14816">
        <ele>1228.6</ele>
        <time>2020-08-26T10:01:24.000Z</time>
      </trkpt>
      <trkpt lat="45.06087" lon="6.14817">
        <ele>1228.8</ele>
        <time>2020-08-26T10:01:25.000Z</time>
      </trkpt>
      <trkpt lat="45.06089" lon="6.14818">
        <ele>1229</ele>
        <time>2020-08-26T10:01:26.000Z</time>
      </trkpt>
      <trkpt lat="45.06091" lon="6.1482">
        <ele>1229.4</ele>
        <time>2020-08-26T10:01:27.000Z</time>
      </trkpt>
      <trkpt lat="45.06094" lon="6.14821">
        <ele>1229.6</ele>
        <time>2020-08-26T10:01:28.000Z</time>
      </trkpt>
      <trkpt lat="45.06096" lon="6.14822">
        <ele>1229.8</ele>
        <time>2020-08-26T10:01:29.000Z</time>
      </trkpt>
      <trkpt lat="45.06098" lon="6.14824">
        <ele>1230.2</ele>
        <time>2020-08-26T10:01:30.000Z</time>
      </trkpt>
      <trkpt lat="45.061" lon="6.14825">
        <ele>1230.6</ele>
        <time>2020-08-26T10:01:31.000Z</time>
      </trkpt>
      <trkpt lat="45.06102" lon="6.14826">
        <ele>1230.8</ele>
        <time>2020-08-26T10:01:32.000Z</time>
      </trkpt>
      <trkpt lat="45.06104" lon="6.14827">
        <ele>1231</ele>
        <time>2020-08-26T10:01:33.000Z</time>
      </trkpt>
      <trkpt lat="45.06106" lon="6.14828">
        <ele>1231.2</ele>
        <time>2020-08-26T10:01:34.000Z</time>
      </trkpt>
      <trkpt lat="45.06108" lon="6.14829">
        <ele>1231.6</ele>
        <time>2020-08-26T10:01:35.000Z</time>
      </trkpt>
      <trkpt lat="45.06111" lon="6.1483">
        <ele>1231.8</ele>
        <time>2020-08-26T10:01:36.000Z</time>
      </trkpt>
      <trkpt lat="45.06112" lon="6.14832">
        <ele>1232.2</ele>
        <time>2020-08-26T10:01:37.000Z</time>
      </trkpt>
      <trkpt lat="45.06114" lon="6.14834">
        <ele>1232.4</ele>
        <time>2020-08-26T10:01:38.000Z</time>
      </trkpt>
      <trkpt lat="45.06116" lon="6.14836">
        <ele>1232.8</ele>
        <time>2020-08-26T10:01:39.000Z</time>
      </trkpt>
      <trkpt lat="45.06118" lon="6.14837">
        <ele>1233</ele>
        <time>2020-08-26T10:01:40.000Z</time>
      </trkpt>
      <trkpt lat="45.06119" lon="6.14839">
        <ele>1233.2</ele>
        <time>2020-08-26T10:01:41.000Z</time>
      </trkpt>
      <trkpt lat="45.06121" lon="6.1484">
        <ele>1233.4</ele>
        <time>2020-08-26T10:01:42.000Z</time>
      </trkpt>
      <trkpt lat="45.06124" lon="6.14841">
        <ele>1233.8</ele>
        <time>2020-08-26T10:01:43.000Z</time>
      </trkpt>
      <trkpt lat="45.06126" lon="6.14842">
        <ele>1234</ele>
        <time>2020-08-26T10:01:44.000Z</time>
      </trkpt>
      <trkpt lat="45.06128" lon="6.14844">
        <ele>1234.2</ele>
        <time>2020-08-26T10:01:45.000Z</time>
      </trkpt>
      <trkpt lat="45.0613" lon="6.14845">
        <ele>1234.6</ele>
        <time>2020-08-26T10:01:46.000Z</time>
      </trkpt>
      <trkpt lat="45.06132" lon="6.14846">
        <ele>1234.8</ele>
        <time>2020-08-26T10:01:47.000Z</time>
      </trkpt>
      <trkpt lat="45.06134" lon="6.14847">
        <ele>1235</ele>
        <time>2020-08-26T10:01:48.000Z</time>
      </trkpt>
      <trkpt lat="45.06135" lon="6.14849">
        <ele>1235.4</ele>
        <time>2020-08-26T10:01:49.000Z</time>
      </trkpt>
      <trkpt lat="45.06137" lon="6.1485">
        <ele>1235.6</ele>
        <time>2020-08-26T10:01:50.000Z</time>
      </trkpt>
      <trkpt lat="45.0614" lon="6.14852">
        <ele>1235.8</ele>
        <time>2020-08-26T10:01:51.000Z</time>
      </trkpt>
      <trkpt lat="45.06142" lon="6.14853">
        <ele>1236</ele>
        <time>2020-08-26T10:01:52.000Z</time>
      </trkpt>
      <trkpt lat="45.06144" lon="6.14854">
        <ele>1236.2</ele>
        <time>2020-08-26T10:01:53.000Z</time>
      </trkpt>
      <trkpt lat="45.06146" lon="6.14856">
        <ele>1236.2</ele>
        <time>2020-08-26T10:01:54.000Z</time>
      </trkpt>
      <trkpt lat="45.06147" lon="6.14857">
        <ele>1236.4</ele>
        <time>2020-08-26T10:01:55.000Z</time>
      </trkpt>
      <trkpt lat="45.0615" lon="6.14858">
        <ele>1236.8</ele>
        <time>2020-08-26T10:01:56.000Z</time>
      </trkpt>
      <trkpt lat="45.06152" lon="6.14859">
        <ele>1237</ele>
        <time>2020-08-26T10:01:57.000Z</time>
      </trkpt>
      <trkpt lat="45.06154" lon="6.14861">
        <ele>1237.2</ele>
        <time>2020-08-26T10:01:58.000Z</time>
      </trkpt>
      <trkpt lat="45.06156" lon="6.14862">
        <ele>1237.6</ele>
        <time>2020-08-26T10:01:59.000Z</time>
      </trkpt>
      <trkpt lat="45.06159" lon="6.14863">
        <ele>1237.6</ele>
        <time>2020-08-26T10:02:00.000Z</time>
      </trkpt>
      <trkpt lat="45.06161" lon="6.14864">
        <ele>1238</ele>
        <time>2020-08-26T10:02:01.000Z</time>
      </trkpt>
      <trkpt lat="45.06164" lon="6.14865">
        <ele>1238.2</ele>
        <time>2020-08-26T10:02:02.000Z</time>
      </trkpt>
      <trkpt lat="45.06166" lon="6.14866">
        <ele>1238.4</ele>
        <time>2020-08-26T10:02:03.000Z</time>
      </trkpt>
      <trkpt lat="45.06169" lon="6.14867">
        <ele>1238.6</ele>
        <time>2020-08-26T10:02:04.000Z</time>
      </trkpt>
      <trkpt lat="45.06171" lon="6.14868">
        <ele>1238.8</ele>
        <time>2020-08-26T10:02:05.000Z</time>
      </trkpt>
      <trkpt lat="45.06172" lon="6.14869">
        <ele>1239.2</ele>
        <time>2020-08-26T10:02:06.000Z</time>
      </trkpt>
      <trkpt lat="45.06174" lon="6.14871">
        <ele>1239.4</ele>
        <time>2020-08-26T10:02:07.000Z</time>
      </trkpt>
      <trkpt lat="45.06176" lon="6.14872">
        <ele>1239.6</ele>
        <time>2020-08-26T10:02:08.000Z</time>
      </trkpt>
      <trkpt lat="45.06179" lon="6.14873">
        <ele>1239.8</ele>
        <time>2020-08-26T10:02:09.000Z</time>
      </trkpt>
      <trkpt lat="45.06181" lon="6.14873">
        <ele>1240.2</ele>
        <time>2020-08-26T10:02:10.000Z</time>
      </trkpt>
      <trkpt lat="45.06184" lon="6.14874">
        <ele>1240.4</ele>
        <time>2020-08-26T10:02:11.000Z</time>
      </trkpt>
      <trkpt lat="45.06186" lon="6.14874">
        <ele>1240.6</ele>
        <time>2020-08-26T10:02:12.000Z</time>
      </trkpt>
      <trkpt lat="45.06188" lon="6.14874">
        <ele>1240.8</ele>
        <time>2020-08-26T10:02:13.000Z</time>
      </trkpt>
      <trkpt lat="45.0619" lon="6.14875">
        <ele>1241.2</ele>
        <time>2020-08-26T10:02:14.000Z</time>
      </trkpt>
      <trkpt lat="45.06191" lon="6.14876">
        <ele>1241.4</ele>
        <time>2020-08-26T10:02:15.000Z</time>
      </trkpt>
      <trkpt lat="45.06193" lon="6.14877">
        <ele>1241.8</ele>
        <time>2020-08-26T10:02:16.000Z</time>
      </trkpt>
      <trkpt lat="45.06195" lon="6.14878">
        <ele>1242</ele>
        <time>2020-08-26T10:02:17.000Z</time>
      </trkpt>
      <trkpt lat="45.06197" lon="6.14879">
        <ele>1242.2</ele>
        <time>2020-08-26T10:02:18.000Z</time>
      </trkpt>
      <trkpt lat="45.06199" lon="6.1488">
        <ele>1242.2</ele>
        <time>2020-08-26T10:02:19.000Z</time>
      </trkpt>
      <trkpt lat="45.06202" lon="6.14881">
        <ele>1242.6</ele>
        <time>2020-08-26T10:02:20.000Z</time>
      </trkpt>
      <trkpt lat="45.06204" lon="6.14882">
        <ele>1242.6</ele>
        <time>2020-08-26T10:02:21.000Z</time>
      </trkpt>
      <trkpt lat="45.06206" lon="6.14883">
        <ele>1242.8</ele>
        <time>2020-08-26T10:02:22.000Z</time>
      </trkpt>
      <trkpt lat="45.06209" lon="6.14885">
        <ele>1243</ele>
        <time>2020-08-26T10:02:23.000Z</time>
      </trkpt>
      <trkpt lat="45.06211" lon="6.14886">
        <ele>1243.2</ele>
        <time>2020-08-26T10:02:24.000Z</time>
      </trkpt>
      <trkpt lat="45.06213" lon="6.14888">
        <ele>1243.6</ele>
        <time>2020-08-26T10:02:25.000Z</time>
      </trkpt>
      <trkpt lat="45.06215" lon="6.14889">
        <ele>1243.8</ele>
        <time>2020-08-26T10:02:26.000Z</time>
      </trkpt>
      <trkpt lat="45.06216" lon="6.14891">
        <ele>1244</ele>
        <time>2020-08-26T10:02:27.000Z</time>
      </trkpt>
      <trkpt lat="45.06218" lon="6.14893">
        <ele>1244.4</ele>
        <time>2020-08-26T10:02:28.000Z</time>
      </trkpt>
      <trkpt lat="45.0622" lon="6.14895">
        <ele>1244.6</ele>
        <time>2020-08-26T10:02:29.000Z</time>
      </trkpt>
      <trkpt lat="45.06222" lon="6.14897">
        <ele>1244.8</ele>
        <time>2020-08-26T10:02:30.000Z</time>
      </trkpt>
      <trkpt lat="45.06224" lon="6.14899">
        <ele>1245</ele>
        <time>2020-08-26T10:02:31.000Z</time>
      </trkpt>
      <trkpt lat="45.06225" lon="6.149">
        <ele>1245.2</ele>
        <time>2020-08-26T10:02:32.000Z</time>
      </trkpt>
      <trkpt lat="45.06227" lon="6.14901">
        <ele>1245.6</ele>
        <time>2020-08-26T10:02:33.000Z</time>
      </trkpt>
      <trkpt lat="45.06229" lon="6.14902">
        <ele>1245.8</ele>
        <time>2020-08-26T10:02:34.000Z</time>
      </trkpt>
      <trkpt lat="45.06231" lon="6.14904">
        <ele>1246</ele>
        <time>2020-08-26T10:02:35.000Z</time>
      </trkpt>
      <trkpt lat="45.06233" lon="6.14906">
        <ele>1246.2</ele>
        <time>2020-08-26T10:02:36.000Z</time>
      </trkpt>
      <trkpt lat="45.06236" lon="6.14907">
        <ele>1246.6</ele>
        <time>2020-08-26T10:02:37.000Z</time>
      </trkpt>
      <trkpt lat="45.06238" lon="6.14909">
        <ele>1246.8</ele>
        <time>2020-08-26T10:02:38.000Z</time>
      </trkpt>
      <trkpt lat="45.0624" lon="6.14911">
        <ele>1247.2</ele>
        <time>2020-08-26T10:02:39.000Z</time>
      </trkpt>
      <trkpt lat="45.06242" lon="6.14913">
        <ele>1247.4</ele>
        <time>2020-08-26T10:02:40.000Z</time>
      </trkpt>
      <trkpt lat="45.06244" lon="6.14915">
        <ele>1247.6</ele>
        <time>2020-08-26T10:02:41.000Z</time>
      </trkpt>
      <trkpt lat="45.06247" lon="6.14917">
        <ele>1247.8</ele>
        <time>2020-08-26T10:02:42.000Z</time>
      </trkpt>
      <trkpt lat="45.06249" lon="6.14919">
        <ele>1248.2</ele>
        <time>2020-08-26T10:02:43.000Z</time>
      </trkpt>
      <trkpt lat="45.06252" lon="6.14921">
        <ele>1248.4</ele>
        <time>2020-08-26T10:02:44.000Z</time>
      </trkpt>
      <trkpt lat="45.06254" lon="6.14923">
        <ele>1248.6</ele>
        <time>2020-08-26T10:02:45.000Z</time>
      </trkpt>
      <trkpt lat="45.06257" lon="6.14924">
        <ele>1249</ele>
        <time>2020-08-26T10:02:46.000Z</time>
      </trkpt>
      <trkpt lat="45.0626" lon="6.14925">
        <ele>1249</ele>
        <time>2020-08-26T10:02:47.000Z</time>
      </trkpt>
      <trkpt lat="45.06262" lon="6.14926">
        <ele>1249.2</ele>
        <time>2020-08-26T10:02:48.000Z</time>
      </trkpt>
      <trkpt lat="45.06265" lon="6.14928">
        <ele>1249.4</ele>
        <time>2020-08-26T10:02:49.000Z</time>
      </trkpt>
      <trkpt lat="45.06268" lon="6.14929">
        <ele>1249.6</ele>
        <time>2020-08-26T10:02:50.000Z</time>
      </trkpt>
      <trkpt lat="45.0627" lon="6.1493">
        <ele>1249.8</ele>
        <time>2020-08-26T10:02:51.000Z</time>
      </trkpt>
      <trkpt lat="45.06273" lon="6.14931">
        <ele>1250</ele>
        <time>2020-08-26T10:02:52.000Z</time>
      </trkpt>
      <trkpt lat="45.06275" lon="6.14932">
        <ele>1250</ele>
        <time>2020-08-26T10:02:53.000Z</time>
      </trkpt>
      <trkpt lat="45.06277" lon="6.14933">
        <ele>1250.2</ele>
        <time>2020-08-26T10:02:54.000Z</time>
      </trkpt>
      <trkpt lat="45.0628" lon="6.14934">
        <ele>1250.4</ele>
        <time>2020-08-26T10:02:55.000Z</time>
      </trkpt>
      <trkpt lat="45.06282" lon="6.14935">
        <ele>1250.4</ele>
        <time>2020-08-26T10:02:56.000Z</time>
      </trkpt>
      <trkpt lat="45.06285" lon="6.14936">
        <ele>1251</ele>
        <time>2020-08-26T10:02:57.000Z</time>
      </trkpt>
      <trkpt lat="45.06287" lon="6.14937">
        <ele>1251.2</ele>
        <time>2020-08-26T10:02:58.000Z</time>
      </trkpt>
      <trkpt lat="45.06289" lon="6.14938">
        <ele>1251.2</ele>
        <time>2020-08-26T10:02:59.000Z</time>
      </trkpt>
      <trkpt lat="45.06292" lon="6.14939">
        <ele>1251.6</ele>
        <time>2020-08-26T10:03:00.000Z</time>
      </trkpt>
      <trkpt lat="45.06294" lon="6.1494">
        <ele>1251.6</ele>
        <time>2020-08-26T10:03:01.000Z</time>
      </trkpt>
      <trkpt lat="45.06296" lon="6.14941">
        <ele>1251.8</ele>
        <time>2020-08-26T10:03:02.000Z</time>
      </trkpt>
      <trkpt lat="45.06298" lon="6.14943">
        <ele>1252</ele>
        <time>2020-08-26T10:03:03.000Z</time>
      </trkpt>
      <trkpt lat="45.063" lon="6.14944">
        <ele>1252.2</ele>
        <time>2020-08-26T10:03:04.000Z</time>
      </trkpt>
      <trkpt lat="45.06302" lon="6.14945">
        <ele>1252.4</ele>
        <time>2020-08-26T10:03:05.000Z</time>
      </trkpt>
      <trkpt lat="45.06305" lon="6.14947">
        <ele>1252.6</ele>
        <time>2020-08-26T10:03:06.000Z</time>
      </trkpt>
      <trkpt lat="45.06307" lon="6.14948">
        <ele>1252.8</ele>
        <time>2020-08-26T10:03:07.000Z</time>
      </trkpt>
      <trkpt lat="45.06308" lon="6.1495">
        <ele>1253</ele>
        <time>2020-08-26T10:03:08.000Z</time>
      </trkpt>
      <trkpt lat="45.0631" lon="6.14951">
        <ele>1253.2</ele>
        <time>2020-08-26T10:03:09.000Z</time>
      </trkpt>
      <trkpt lat="45.06312" lon="6.14952">
        <ele>1253.6</ele>
        <time>2020-08-26T10:03:10.000Z</time>
      </trkpt>
      <trkpt lat="45.06314" lon="6.14953">
        <ele>1253.8</ele>
        <time>2020-08-26T10:03:11.000Z</time>
      </trkpt>
      <trkpt lat="45.06316" lon="6.14955">
        <ele>1254.2</ele>
        <time>2020-08-26T10:03:12.000Z</time>
      </trkpt>
      <trkpt lat="45.06318" lon="6.14956">
        <ele>1254.2</ele>
        <time>2020-08-26T10:03:13.000Z</time>
      </trkpt>
      <trkpt lat="45.0632" lon="6.14957">
        <ele>1254.6</ele>
        <time>2020-08-26T10:03:14.000Z</time>
      </trkpt>
      <trkpt lat="45.06322" lon="6.14959">
        <ele>1254.8</ele>
        <time>2020-08-26T10:03:15.000Z</time>
      </trkpt>
      <trkpt lat="45.06324" lon="6.1496">
        <ele>1255</ele>
        <time>2020-08-26T10:03:16.000Z</time>
      </trkpt>
      <trkpt lat="45.06326" lon="6.14962">
        <ele>1255.4</ele>
        <time>2020-08-26T10:03:17.000Z</time>
      </trkpt>
      <trkpt lat="45.06328" lon="6.14963">
        <ele>1255.6</ele>
        <time>2020-08-26T10:03:18.000Z</time>
      </trkpt>
      <trkpt lat="45.0633" lon="6.14965">
        <ele>1255.8</ele>
        <time>2020-08-26T10:03:19.000Z</time>
      </trkpt>
      <trkpt lat="45.06332" lon="6.14966">
        <ele>1256</ele>
        <time>2020-08-26T10:03:20.000Z</time>
      </trkpt>
      <trkpt lat="45.06334" lon="6.14968">
        <ele>1256.2</ele>
        <time>2020-08-26T10:03:21.000Z</time>
      </trkpt>
      <trkpt lat="45.06336" lon="6.1497">
        <ele>1256.4</ele>
        <time>2020-08-26T10:03:22.000Z</time>
      </trkpt>
      <trkpt lat="45.06338" lon="6.14971">
        <ele>1256.6</ele>
        <time>2020-08-26T10:03:23.000Z</time>
      </trkpt>
      <trkpt lat="45.06341" lon="6.14973">
        <ele>1256.8</ele>
        <time>2020-08-26T10:03:24.000Z</time>
      </trkpt>
      <trkpt lat="45.06343" lon="6.14975">
        <ele>1257.2</ele>
        <time>2020-08-26T10:03:25.000Z</time>
      </trkpt>
      <trkpt lat="45.06345" lon="6.14977">
        <ele>1257.6</ele>
        <time>2020-08-26T10:03:26.000Z</time>
      </trkpt>
      <trkpt lat="45.06347" lon="6.14979">
        <ele>1257.8</ele>
        <time>2020-08-26T10:03:27.000Z</time>
      </trkpt>
      <trkpt lat="45.06349" lon="6.14981">
        <ele>1258</ele>
        <time>2020-08-26T10:03:28.000Z</time>
      </trkpt>
      <trkpt lat="45.06351" lon="6.14983">
        <ele>1258</ele>
        <time>2020-08-26T10:03:29.000Z</time>
      </trkpt>
      <trkpt lat="45.06353" lon="6.14986">
        <ele>1258.2</ele>
        <time>2020-08-26T10:03:30.000Z</time>
      </trkpt>
      <trkpt lat="45.06355" lon="6.14988">
        <ele>1258.4</ele>
        <time>2020-08-26T10:03:31.000Z</time>
      </trkpt>
      <trkpt lat="45.06357" lon="6.1499">
        <ele>1258.4</ele>
        <time>2020-08-26T10:03:32.000Z</time>
      </trkpt>
      <trkpt lat="45.06359" lon="6.14992">
        <ele>1258.6</ele>
        <time>2020-08-26T10:03:33.000Z</time>
      </trkpt>
      <trkpt lat="45.06361" lon="6.14994">
        <ele>1259</ele>
        <time>2020-08-26T10:03:34.000Z</time>
      </trkpt>
      <trkpt lat="45.06364" lon="6.14995">
        <ele>1259.2</ele>
        <time>2020-08-26T10:03:35.000Z</time>
      </trkpt>
      <trkpt lat="45.06366" lon="6.14996">
        <ele>1259.4</ele>
        <time>2020-08-26T10:03:36.000Z</time>
      </trkpt>
      <trkpt lat="45.06368" lon="6.14998">
        <ele>1259.6</ele>
        <time>2020-08-26T10:03:37.000Z</time>
      </trkpt>
      <trkpt lat="45.0637" lon="6.15">
        <ele>1260</ele>
        <time>2020-08-26T10:03:38.000Z</time>
      </trkpt>
      <trkpt lat="45.06372" lon="6.15002">
        <ele>1260.2</ele>
        <time>2020-08-26T10:03:39.000Z</time>
      </trkpt>
      <trkpt lat="45.06374" lon="6.15003">
        <ele>1260.6</ele>
        <time>2020-08-26T10:03:40.000Z</time>
      </trkpt>
      <trkpt lat="45.06376" lon="6.15005">
        <ele>1260.8</ele>
        <time>2020-08-26T10:03:41.000Z</time>
      </trkpt>
      <trkpt lat="45.06377" lon="6.15007">
        <ele>1261.2</ele>
        <time>2020-08-26T10:03:42.000Z</time>
      </trkpt>
      <trkpt lat="45.06379" lon="6.1501">
        <ele>1261.2</ele>
        <time>2020-08-26T10:03:43.000Z</time>
      </trkpt>
      <trkpt lat="45.0638" lon="6.15012">
        <ele>1261.4</ele>
        <time>2020-08-26T10:03:44.000Z</time>
      </trkpt>
      <trkpt lat="45.06382" lon="6.15014">
        <ele>1261.6</ele>
        <time>2020-08-26T10:03:45.000Z</time>
      </trkpt>
      <trkpt lat="45.06384" lon="6.15016">
        <ele>1262</ele>
        <time>2020-08-26T10:03:46.000Z</time>
      </trkpt>
      <trkpt lat="45.06386" lon="6.15018">
        <ele>1262.2</ele>
        <time>2020-08-26T10:03:47.000Z</time>
      </trkpt>
      <trkpt lat="45.06388" lon="6.1502">
        <ele>1262.4</ele>
        <time>2020-08-26T10:03:48.000Z</time>
      </trkpt>
      <trkpt lat="45.0639" lon="6.15022">
        <ele>1262.8</ele>
        <time>2020-08-26T10:03:49.000Z</time>
      </trkpt>
      <trkpt lat="45.06391" lon="6.15024">
        <ele>1263</ele>
        <time>2020-08-26T10:03:50.000Z</time>
      </trkpt>
      <trkpt lat="45.06393" lon="6.15026">
        <ele>1263.2</ele>
        <time>2020-08-26T10:03:51.000Z</time>
      </trkpt>
      <trkpt lat="45.06395" lon="6.15028">
        <ele>1263.4</ele>
        <time>2020-08-26T10:03:52.000Z</time>
      </trkpt>
      <trkpt lat="45.06397" lon="6.1503">
        <ele>1263.6</ele>
        <time>2020-08-26T10:03:53.000Z</time>
      </trkpt>
      <trkpt lat="45.06399" lon="6.15032">
        <ele>1264</ele>
        <time>2020-08-26T10:03:54.000Z</time>
      </trkpt>
      <trkpt lat="45.06401" lon="6.15034">
        <ele>1264.2</ele>
        <time>2020-08-26T10:03:55.000Z</time>
      </trkpt>
      <trkpt lat="45.06403" lon="6.15036">
        <ele>1264.4</ele>
        <time>2020-08-26T10:03:56.000Z</time>
      </trkpt>
      <trkpt lat="45.06405" lon="6.15038">
        <ele>1264.8</ele>
        <time>2020-08-26T10:03:57.000Z</time>
      </trkpt>
      <trkpt lat="45.06407" lon="6.1504">
        <ele>1265</ele>
        <time>2020-08-26T10:03:58.000Z</time>
      </trkpt>
      <trkpt lat="45.06409" lon="6.15043">
        <ele>1265.2</ele>
        <time>2020-08-26T10:03:59.000Z</time>
      </trkpt>
      <trkpt lat="45.0641" lon="6.15045">
        <ele>1265.4</ele>
        <time>2020-08-26T10:04:00.000Z</time>
      </trkpt>
      <trkpt lat="45.06412" lon="6.15047">
        <ele>1265.6</ele>
        <time>2020-08-26T10:04:01.000Z</time>
      </trkpt>
      <trkpt lat="45.06414" lon="6.15049">
        <ele>1265.8</ele>
        <time>2020-08-26T10:04:02.000Z</time>
      </trkpt>
      <trkpt lat="45.06416" lon="6.15051">
        <ele>1266</ele>
        <time>2020-08-26T10:04:03.000Z</time>
      </trkpt>
      <trkpt lat="45.06418" lon="6.15053">
        <ele>1266.4</ele>
        <time>2020-08-26T10:04:04.000Z</time>
      </trkpt>
      <trkpt lat="45.0642" lon="6.15055">
        <ele>1266.6</ele>
        <time>2020-08-26T10:04:05.000Z</time>
      </trkpt>
      <trkpt lat="45.06422" lon="6.15057">
        <ele>1267</ele>
        <time>2020-08-26T10:04:06.000Z</time>
      </trkpt>
      <trkpt lat="45.06424" lon="6.15059">
        <ele>1267</ele>
        <time>2020-08-26T10:04:07.000Z</time>
      </trkpt>
      <trkpt lat="45.06426" lon="6.15061">
        <ele>1267.4</ele>
        <time>2020-08-26T10:04:08.000Z</time>
      </trkpt>
      <trkpt lat="45.06428" lon="6.15063">
        <ele>1267.4</ele>
        <time>2020-08-26T10:04:09.000Z</time>
      </trkpt>
      <trkpt lat="45.0643" lon="6.15065">
        <ele>1267.6</ele>
        <time>2020-08-26T10:04:10.000Z</time>
      </trkpt>
      <trkpt lat="45.06432" lon="6.15067">
        <ele>1268</ele>
        <time>2020-08-26T10:04:11.000Z</time>
      </trkpt>
      <trkpt lat="45.06435" lon="6.15069">
        <ele>1268.2</ele>
        <time>2020-08-26T10:04:12.000Z</time>
      </trkpt>
      <trkpt lat="45.06437" lon="6.1507">
        <ele>1268.6</ele>
        <time>2020-08-26T10:04:13.000Z</time>
      </trkpt>
      <trkpt lat="45.06439" lon="6.15072">
        <ele>1269.2</ele>
        <time>2020-08-26T10:04:14.000Z</time>
      </trkpt>
      <trkpt lat="45.06441" lon="6.15074">
        <ele>1269.6</ele>
        <time>2020-08-26T10:04:15.000Z</time>
      </trkpt>
      <trkpt lat="45.06443" lon="6.15076">
        <ele>1269.8</ele>
        <time>2020-08-26T10:04:16.000Z</time>
      </trkpt>
      <trkpt lat="45.06445" lon="6.15078">
        <ele>1270.2</ele>
        <time>2020-08-26T10:04:17.000Z</time>
      </trkpt>
      <trkpt lat="45.06447" lon="6.1508">
        <ele>1270.4</ele>
        <time>2020-08-26T10:04:18.000Z</time>
      </trkpt>
      <trkpt lat="45.06449" lon="6.15082">
        <ele>1270.6</ele>
        <time>2020-08-26T10:04:19.000Z</time>
      </trkpt>
      <trkpt lat="45.06451" lon="6.15084">
        <ele>1270.8</ele>
        <time>2020-08-26T10:04:20.000Z</time>
      </trkpt>
      <trkpt lat="45.06453" lon="6.15086">
        <ele>1271</ele>
        <time>2020-08-26T10:04:21.000Z</time>
      </trkpt>
      <trkpt lat="45.06455" lon="6.15088">
        <ele>1271</ele>
        <time>2020-08-26T10:04:22.000Z</time>
      </trkpt>
      <trkpt lat="45.06457" lon="6.1509">
        <ele>1271.4</ele>
        <time>2020-08-26T10:04:23.000Z</time>
      </trkpt>
      <trkpt lat="45.06459" lon="6.15091">
        <ele>1271.6</ele>
        <time>2020-08-26T10:04:24.000Z</time>
      </trkpt>
      <trkpt lat="45.06461" lon="6.15093">
        <ele>1271.8</ele>
        <time>2020-08-26T10:04:25.000Z</time>
      </trkpt>
      <trkpt lat="45.06463" lon="6.15095">
        <ele>1272</ele>
        <time>2020-08-26T10:04:26.000Z</time>
      </trkpt>
      <trkpt lat="45.06465" lon="6.15097">
        <ele>1272.2</ele>
        <time>2020-08-26T10:04:27.000Z</time>
      </trkpt>
      <trkpt lat="45.06468" lon="6.15099">
        <ele>1272.4</ele>
        <time>2020-08-26T10:04:28.000Z</time>
      </trkpt>
      <trkpt lat="45.0647" lon="6.151">
        <ele>1272.6</ele>
        <time>2020-08-26T10:04:29.000Z</time>
      </trkpt>
      <trkpt lat="45.06472" lon="6.15102">
        <ele>1272.8</ele>
        <time>2020-08-26T10:04:30.000Z</time>
      </trkpt>
      <trkpt lat="45.06474" lon="6.15103">
        <ele>1273</ele>
        <time>2020-08-26T10:04:31.000Z</time>
      </trkpt>
      <trkpt lat="45.06476" lon="6.15104">
        <ele>1273.2</ele>
        <time>2020-08-26T10:04:32.000Z</time>
      </trkpt>
      <trkpt lat="45.06478" lon="6.15106">
        <ele>1273.2</ele>
        <time>2020-08-26T10:04:33.000Z</time>
      </trkpt>
      <trkpt lat="45.0648" lon="6.15108">
        <ele>1273.4</ele>
        <time>2020-08-26T10:04:34.000Z</time>
      </trkpt>
      <trkpt lat="45.06482" lon="6.15109">
        <ele>1273.6</ele>
        <time>2020-08-26T10:04:35.000Z</time>
      </trkpt>
      <trkpt lat="45.06484" lon="6.15111">
        <ele>1273.6</ele>
        <time>2020-08-26T10:04:36.000Z</time>
      </trkpt>
      <trkpt lat="45.06486" lon="6.15112">
        <ele>1273.8</ele>
        <time>2020-08-26T10:04:37.000Z</time>
      </trkpt>
      <trkpt lat="45.06488" lon="6.15114">
        <ele>1273.8</ele>
        <time>2020-08-26T10:04:38.000Z</time>
      </trkpt>
      <trkpt lat="45.0649" lon="6.15116">
        <ele>1273.8</ele>
        <time>2020-08-26T10:04:39.000Z</time>
      </trkpt>
      <trkpt lat="45.06492" lon="6.15118">
        <ele>1274</ele>
        <time>2020-08-26T10:04:40.000Z</time>
      </trkpt>
      <trkpt lat="45.06494" lon="6.15119">
        <ele>1274.2</ele>
        <time>2020-08-26T10:04:41.000Z</time>
      </trkpt>
      <trkpt lat="45.06496" lon="6.15121">
        <ele>1274.4</ele>
        <time>2020-08-26T10:04:42.000Z</time>
      </trkpt>
      <trkpt lat="45.06498" lon="6.15123">
        <ele>1274.6</ele>
        <time>2020-08-26T10:04:43.000Z</time>
      </trkpt>
      <trkpt lat="45.065" lon="6.15125">
        <ele>1274.6</ele>
        <time>2020-08-26T10:04:44.000Z</time>
      </trkpt>
      <trkpt lat="45.06502" lon="6.15126">
        <ele>1274.8</ele>
        <time>2020-08-26T10:04:45.000Z</time>
      </trkpt>
      <trkpt lat="45.06504" lon="6.15128">
        <ele>1275</ele>
        <time>2020-08-26T10:04:46.000Z</time>
      </trkpt>
      <trkpt lat="45.06506" lon="6.1513">
        <ele>1275.2</ele>
        <time>2020-08-26T10:04:47.000Z</time>
      </trkpt>
      <trkpt lat="45.06508" lon="6.15132">
        <ele>1275.4</ele>
        <time>2020-08-26T10:04:48.000Z</time>
      </trkpt>
      <trkpt lat="45.0651" lon="6.15134">
        <ele>1275.6</ele>
        <time>2020-08-26T10:04:49.000Z</time>
      </trkpt>
      <trkpt lat="45.06512" lon="6.15136">
        <ele>1275.8</ele>
        <time>2020-08-26T10:04:50.000Z</time>
      </trkpt>
      <trkpt lat="45.06514" lon="6.15138">
        <ele>1276</ele>
        <time>2020-08-26T10:04:51.000Z</time>
      </trkpt>
      <trkpt lat="45.06515" lon="6.1514">
        <ele>1276.6</ele>
        <time>2020-08-26T10:04:52.000Z</time>
      </trkpt>
      <trkpt lat="45.06517" lon="6.15142">
        <ele>1276.6</ele>
        <time>2020-08-26T10:04:53.000Z</time>
      </trkpt>
      <trkpt lat="45.06519" lon="6.15144">
        <ele>1276.8</ele>
        <time>2020-08-26T10:04:54.000Z</time>
      </trkpt>
      <trkpt lat="45.06521" lon="6.15146">
        <ele>1277</ele>
        <time>2020-08-26T10:04:55.000Z</time>
      </trkpt>
      <trkpt lat="45.06523" lon="6.15148">
        <ele>1277.2</ele>
        <time>2020-08-26T10:04:56.000Z</time>
      </trkpt>
      <trkpt lat="45.06525" lon="6.1515">
        <ele>1277.4</ele>
        <time>2020-08-26T10:04:57.000Z</time>
      </trkpt>
      <trkpt lat="45.06526" lon="6.15152">
        <ele>1277.6</ele>
        <time>2020-08-26T10:04:58.000Z</time>
      </trkpt>
      <trkpt lat="45.06528" lon="6.15154">
        <ele>1278</ele>
        <time>2020-08-26T10:04:59.000Z</time>
      </trkpt>
      <trkpt lat="45.0653" lon="6.15155">
        <ele>1278.2</ele>
        <time>2020-08-26T10:05:00.000Z</time>
      </trkpt>
      <trkpt lat="45.06532" lon="6.15157">
        <ele>1278.4</ele>
        <time>2020-08-26T10:05:01.000Z</time>
      </trkpt>
      <trkpt lat="45.06534" lon="6.15159">
        <ele>1278.6</ele>
        <time>2020-08-26T10:05:02.000Z</time>
      </trkpt>
      <trkpt lat="45.06536" lon="6.15161">
        <ele>1278.8</ele>
        <time>2020-08-26T10:05:03.000Z</time>
      </trkpt>
      <trkpt lat="45.06538" lon="6.15163">
        <ele>1279</ele>
        <time>2020-08-26T10:05:04.000Z</time>
      </trkpt>
      <trkpt lat="45.06539" lon="6.15165">
        <ele>1279.4</ele>
        <time>2020-08-26T10:05:05.000Z</time>
      </trkpt>
      <trkpt lat="45.06541" lon="6.15167">
        <ele>1279.4</ele>
        <time>2020-08-26T10:05:06.000Z</time>
      </trkpt>
      <trkpt lat="45.06543" lon="6.15169">
        <ele>1279.6</ele>
        <time>2020-08-26T10:05:07.000Z</time>
      </trkpt>
      <trkpt lat="45.06545" lon="6.15171">
        <ele>1279.8</ele>
        <time>2020-08-26T10:05:08.000Z</time>
      </trkpt>
      <trkpt lat="45.06548" lon="6.15173">
        <ele>1280.2</ele>
        <time>2020-08-26T10:05:09.000Z</time>
      </trkpt>
      <trkpt lat="45.0655" lon="6.15175">
        <ele>1280.4</ele>
        <time>2020-08-26T10:05:10.000Z</time>
      </trkpt>
      <trkpt lat="45.06552" lon="6.15177">
        <ele>1280.6</ele>
        <time>2020-08-26T10:05:11.000Z</time>
      </trkpt>
      <trkpt lat="45.06555" lon="6.15179">
        <ele>1280.8</ele>
        <time>2020-08-26T10:05:12.000Z</time>
      </trkpt>
      <trkpt lat="45.06557" lon="6.15181">
        <ele>1281.2</ele>
        <time>2020-08-26T10:05:13.000Z</time>
      </trkpt>
      <trkpt lat="45.06559" lon="6.15183">
        <ele>1281.4</ele>
        <time>2020-08-26T10:05:14.000Z</time>
      </trkpt>
      <trkpt lat="45.06561" lon="6.15185">
        <ele>1281.6</ele>
        <time>2020-08-26T10:05:15.000Z</time>
      </trkpt>
      <trkpt lat="45.06563" lon="6.15187">
        <ele>1282</ele>
        <time>2020-08-26T10:05:16.000Z</time>
      </trkpt>
      <trkpt lat="45.06565" lon="6.15189">
        <ele>1282.4</ele>
        <time>2020-08-26T10:05:17.000Z</time>
      </trkpt>
      <trkpt lat="45.06566" lon="6.15191">
        <ele>1282.6</ele>
        <time>2020-08-26T10:05:18.000Z</time>
      </trkpt>
      <trkpt lat="45.06568" lon="6.15193">
        <ele>1282.8</ele>
        <time>2020-08-26T10:05:19.000Z</time>
      </trkpt>
      <trkpt lat="45.0657" lon="6.15195">
        <ele>1283</ele>
        <time>2020-08-26T10:05:20.000Z</time>
      </trkpt>
      <trkpt lat="45.06572" lon="6.15197">
        <ele>1283.4</ele>
        <time>2020-08-26T10:05:21.000Z</time>
      </trkpt>
      <trkpt lat="45.06574" lon="6.15199">
        <ele>1283.8</ele>
        <time>2020-08-26T10:05:22.000Z</time>
      </trkpt>
      <trkpt lat="45.06576" lon="6.15201">
        <ele>1284.2</ele>
        <time>2020-08-26T10:05:23.000Z</time>
      </trkpt>
      <trkpt lat="45.06578" lon="6.15203">
        <ele>1284.2</ele>
        <time>2020-08-26T10:05:24.000Z</time>
      </trkpt>
      <trkpt lat="45.0658" lon="6.15205">
        <ele>1284.6</ele>
        <time>2020-08-26T10:05:25.000Z</time>
      </trkpt>
      <trkpt lat="45.06582" lon="6.15207">
        <ele>1284.8</ele>
        <time>2020-08-26T10:05:26.000Z</time>
      </trkpt>
      <trkpt lat="45.06583" lon="6.15209">
        <ele>1285</ele>
        <time>2020-08-26T10:05:27.000Z</time>
      </trkpt>
      <trkpt lat="45.06585" lon="6.15211">
        <ele>1285.4</ele>
        <time>2020-08-26T10:05:28.000Z</time>
      </trkpt>
      <trkpt lat="45.06587" lon="6.15213">
        <ele>1285.6</ele>
        <time>2020-08-26T10:05:29.000Z</time>
      </trkpt>
      <trkpt lat="45.06589" lon="6.15215">
        <ele>1285.6</ele>
        <time>2020-08-26T10:05:30.000Z</time>
      </trkpt>
      <trkpt lat="45.06591" lon="6.15217">
        <ele>1286</ele>
        <time>2020-08-26T10:05:31.000Z</time>
      </trkpt>
      <trkpt lat="45.06592" lon="6.15219">
        <ele>1286.2</ele>
        <time>2020-08-26T10:05:32.000Z</time>
      </trkpt>
      <trkpt lat="45.06594" lon="6.15221">
        <ele>1286.4</ele>
        <time>2020-08-26T10:05:33.000Z</time>
      </trkpt>
      <trkpt lat="45.06597" lon="6.15223">
        <ele>1286.6</ele>
        <time>2020-08-26T10:05:34.000Z</time>
      </trkpt>
      <trkpt lat="45.06598" lon="6.15225">
        <ele>1286.8</ele>
        <time>2020-08-26T10:05:35.000Z</time>
      </trkpt>
      <trkpt lat="45.06601" lon="6.15227">
        <ele>1287</ele>
        <time>2020-08-26T10:05:36.000Z</time>
      </trkpt>
      <trkpt lat="45.06603" lon="6.15229">
        <ele>1287.2</ele>
        <time>2020-08-26T10:05:37.000Z</time>
      </trkpt>
      <trkpt lat="45.06605" lon="6.15231">
        <ele>1287.6</ele>
        <time>2020-08-26T10:05:38.000Z</time>
      </trkpt>
      <trkpt lat="45.06607" lon="6.15233">
        <ele>1287.8</ele>
        <time>2020-08-26T10:05:39.000Z</time>
      </trkpt>
      <trkpt lat="45.06609" lon="6.15234">
        <ele>1288</ele>
        <time>2020-08-26T10:05:40.000Z</time>
      </trkpt>
      <trkpt lat="45.06612" lon="6.15236">
        <ele>1288.4</ele>
        <time>2020-08-26T10:05:41.000Z</time>
      </trkpt>
      <trkpt lat="45.06614" lon="6.15237">
        <ele>1288.6</ele>
        <time>2020-08-26T10:05:42.000Z</time>
      </trkpt>
      <trkpt lat="45.06616" lon="6.15239">
        <ele>1288.8</ele>
        <time>2020-08-26T10:05:43.000Z</time>
      </trkpt>
      <trkpt lat="45.06618" lon="6.1524">
        <ele>1289</ele>
        <time>2020-08-26T10:05:44.000Z</time>
      </trkpt>
      <trkpt lat="45.0662" lon="6.15242">
        <ele>1289.2</ele>
        <time>2020-08-26T10:05:45.000Z</time>
      </trkpt>
      <trkpt lat="45.06622" lon="6.15243">
        <ele>1289.4</ele>
        <time>2020-08-26T10:05:46.000Z</time>
      </trkpt>
      <trkpt lat="45.06625" lon="6.15244">
        <ele>1289.6</ele>
        <time>2020-08-26T10:05:47.000Z</time>
      </trkpt>
      <trkpt lat="45.06627" lon="6.15246">
        <ele>1289.8</ele>
        <time>2020-08-26T10:05:48.000Z</time>
      </trkpt>
      <trkpt lat="45.06629" lon="6.15247">
        <ele>1290</ele>
        <time>2020-08-26T10:05:49.000Z</time>
      </trkpt>
      <trkpt lat="45.06631" lon="6.15249">
        <ele>1290.8</ele>
        <time>2020-08-26T10:05:50.000Z</time>
      </trkpt>
      <trkpt lat="45.06634" lon="6.1525">
        <ele>1291</ele>
        <time>2020-08-26T10:05:51.000Z</time>
      </trkpt>
      <trkpt lat="45.06636" lon="6.15251">
        <ele>1291.4</ele>
        <time>2020-08-26T10:05:52.000Z</time>
      </trkpt>
      <trkpt lat="45.06638" lon="6.15253">
        <ele>1291.8</ele>
        <time>2020-08-26T10:05:53.000Z</time>
      </trkpt>
      <trkpt lat="45.0664" lon="6.15254">
        <ele>1292</ele>
        <time>2020-08-26T10:05:54.000Z</time>
      </trkpt>
      <trkpt lat="45.06642" lon="6.15255">
        <ele>1292.2</ele>
        <time>2020-08-26T10:05:55.000Z</time>
      </trkpt>
      <trkpt lat="45.06645" lon="6.15256">
        <ele>1292.4</ele>
        <time>2020-08-26T10:05:56.000Z</time>
      </trkpt>
      <trkpt lat="45.06647" lon="6.15257">
        <ele>1292.8</ele>
        <time>2020-08-26T10:05:57.000Z</time>
      </trkpt>
      <trkpt lat="45.06649" lon="6.15258">
        <ele>1293</ele>
        <time>2020-08-26T10:05:58.000Z</time>
      </trkpt>
      <trkpt lat="45.06651" lon="6.1526">
        <ele>1293.2</ele>
        <time>2020-08-26T10:05:59.000Z</time>
      </trkpt>
      <trkpt lat="45.06654" lon="6.15261">
        <ele>1293.4</ele>
        <time>2020-08-26T10:06:00.000Z</time>
      </trkpt>
      <trkpt lat="45.06656" lon="6.15262">
        <ele>1293.4</ele>
        <time>2020-08-26T10:06:01.000Z</time>
      </trkpt>
      <trkpt lat="45.06658" lon="6.15263">
        <ele>1293.6</ele>
        <time>2020-08-26T10:06:02.000Z</time>
      </trkpt>
      <trkpt lat="45.0666" lon="6.15264">
        <ele>1294</ele>
        <time>2020-08-26T10:06:03.000Z</time>
      </trkpt>
      <trkpt lat="45.06662" lon="6.15266">
        <ele>1294.2</ele>
        <time>2020-08-26T10:06:04.000Z</time>
      </trkpt>
      <trkpt lat="45.06664" lon="6.15267">
        <ele>1294.2</ele>
        <time>2020-08-26T10:06:05.000Z</time>
      </trkpt>
      <trkpt lat="45.06667" lon="6.15269">
        <ele>1294.4</ele>
        <time>2020-08-26T10:06:06.000Z</time>
      </trkpt>
      <trkpt lat="45.06668" lon="6.1527">
        <ele>1294.6</ele>
        <time>2020-08-26T10:06:07.000Z</time>
      </trkpt>
      <trkpt lat="45.0667" lon="6.15272">
        <ele>1294.8</ele>
        <time>2020-08-26T10:06:08.000Z</time>
      </trkpt>
      <trkpt lat="45.06672" lon="6.15273">
        <ele>1295</ele>
        <time>2020-08-26T10:06:09.000Z</time>
      </trkpt>
      <trkpt lat="45.06675" lon="6.15275">
        <ele>1295.2</ele>
        <time>2020-08-26T10:06:10.000Z</time>
      </trkpt>
      <trkpt lat="45.06677" lon="6.15276">
        <ele>1295.4</ele>
        <time>2020-08-26T10:06:11.000Z</time>
      </trkpt>
      <trkpt lat="45.06679" lon="6.15278">
        <ele>1295.6</ele>
        <time>2020-08-26T10:06:12.000Z</time>
      </trkpt>
      <trkpt lat="45.06681" lon="6.1528">
        <ele>1296</ele>
        <time>2020-08-26T10:06:13.000Z</time>
      </trkpt>
      <trkpt lat="45.06683" lon="6.15282">
        <ele>1296.2</ele>
        <time>2020-08-26T10:06:14.000Z</time>
      </trkpt>
      <trkpt lat="45.06685" lon="6.15284">
        <ele>1296.6</ele>
        <time>2020-08-26T10:06:15.000Z</time>
      </trkpt>
      <trkpt lat="45.06687" lon="6.15286">
        <ele>1296.8</ele>
        <time>2020-08-26T10:06:16.000Z</time>
      </trkpt>
      <trkpt lat="45.06689" lon="6.15288">
        <ele>1297</ele>
        <time>2020-08-26T10:06:17.000Z</time>
      </trkpt>
      <trkpt lat="45.06691" lon="6.1529">
        <ele>1297.4</ele>
        <time>2020-08-26T10:06:18.000Z</time>
      </trkpt>
      <trkpt lat="45.06693" lon="6.15292">
        <ele>1297.8</ele>
        <time>2020-08-26T10:06:19.000Z</time>
      </trkpt>
      <trkpt lat="45.06695" lon="6.15293">
        <ele>1298</ele>
        <time>2020-08-26T10:06:20.000Z</time>
      </trkpt>
      <trkpt lat="45.06697" lon="6.15295">
        <ele>1298.2</ele>
        <time>2020-08-26T10:06:21.000Z</time>
      </trkpt>
      <trkpt lat="45.06699" lon="6.15297">
        <ele>1298.2</ele>
        <time>2020-08-26T10:06:22.000Z</time>
      </trkpt>
      <trkpt lat="45.06701" lon="6.15299">
        <ele>1298.4</ele>
        <time>2020-08-26T10:06:23.000Z</time>
      </trkpt>
      <trkpt lat="45.06703" lon="6.15301">
        <ele>1298.6</ele>
        <time>2020-08-26T10:06:24.000Z</time>
      </trkpt>
      <trkpt lat="45.06705" lon="6.15303">
        <ele>1299</ele>
        <time>2020-08-26T10:06:25.000Z</time>
      </trkpt>
      <trkpt lat="45.06707" lon="6.15305">
        <ele>1299.4</ele>
        <time>2020-08-26T10:06:26.000Z</time>
      </trkpt>
      <trkpt lat="45.06708" lon="6.15306">
        <ele>1299.6</ele>
        <time>2020-08-26T10:06:27.000Z</time>
      </trkpt>
      <trkpt lat="45.0671" lon="6.15308">
        <ele>1299.8</ele>
        <time>2020-08-26T10:06:28.000Z</time>
      </trkpt>
      <trkpt lat="45.06712" lon="6.1531">
        <ele>1300</ele>
        <time>2020-08-26T10:06:29.000Z</time>
      </trkpt>
      <trkpt lat="45.06714" lon="6.15312">
        <ele>1300.2</ele>
        <time>2020-08-26T10:06:30.000Z</time>
      </trkpt>
      <trkpt lat="45.06716" lon="6.15314">
        <ele>1300.2</ele>
        <time>2020-08-26T10:06:31.000Z</time>
      </trkpt>
      <trkpt lat="45.06718" lon="6.15316">
        <ele>1300.4</ele>
        <time>2020-08-26T10:06:32.000Z</time>
      </trkpt>
      <trkpt lat="45.0672" lon="6.15317">
        <ele>1300.6</ele>
        <time>2020-08-26T10:06:33.000Z</time>
      </trkpt>
      <trkpt lat="45.06722" lon="6.15319">
        <ele>1300.8</ele>
        <time>2020-08-26T10:06:34.000Z</time>
      </trkpt>
      <trkpt lat="45.06724" lon="6.15321">
        <ele>1301</ele>
        <time>2020-08-26T10:06:35.000Z</time>
      </trkpt>
      <trkpt lat="45.06725" lon="6.15323">
        <ele>1301.2</ele>
        <time>2020-08-26T10:06:36.000Z</time>
      </trkpt>
      <trkpt lat="45.06727" lon="6.15325">
        <ele>1301.4</ele>
        <time>2020-08-26T10:06:37.000Z</time>
      </trkpt>
      <trkpt lat="45.06729" lon="6.15327">
        <ele>1301.6</ele>
        <time>2020-08-26T10:06:38.000Z</time>
      </trkpt>
      <trkpt lat="45.06731" lon="6.15328">
        <ele>1301.8</ele>
        <time>2020-08-26T10:06:39.000Z</time>
      </trkpt>
      <trkpt lat="45.06733" lon="6.1533">
        <ele>1302</ele>
        <time>2020-08-26T10:06:40.000Z</time>
      </trkpt>
      <trkpt lat="45.06734" lon="6.15332">
        <ele>1302.2</ele>
        <time>2020-08-26T10:06:41.000Z</time>
      </trkpt>
      <trkpt lat="45.06736" lon="6.15333">
        <ele>1302.4</ele>
        <time>2020-08-26T10:06:42.000Z</time>
      </trkpt>
      <trkpt lat="45.06739" lon="6.15334">
        <ele>1302.6</ele>
        <time>2020-08-26T10:06:43.000Z</time>
      </trkpt>
      <trkpt lat="45.0674" lon="6.15336">
        <ele>1302.6</ele>
        <time>2020-08-26T10:06:44.000Z</time>
      </trkpt>
      <trkpt lat="45.06742" lon="6.15337">
        <ele>1302.8</ele>
        <time>2020-08-26T10:06:45.000Z</time>
      </trkpt>
      <trkpt lat="45.06744" lon="6.15338">
        <ele>1303.2</ele>
        <time>2020-08-26T10:06:46.000Z</time>
      </trkpt>
      <trkpt lat="45.06746" lon="6.1534">
        <ele>1303.4</ele>
        <time>2020-08-26T10:06:47.000Z</time>
      </trkpt>
      <trkpt lat="45.06748" lon="6.1534">
        <ele>1303.8</ele>
        <time>2020-08-26T10:06:48.000Z</time>
      </trkpt>
      <trkpt lat="45.0675" lon="6.15341">
        <ele>1304</ele>
        <time>2020-08-26T10:06:49.000Z</time>
      </trkpt>
      <trkpt lat="45.06752" lon="6.15342">
        <ele>1304.4</ele>
        <time>2020-08-26T10:06:50.000Z</time>
      </trkpt>
      <trkpt lat="45.06754" lon="6.15342">
        <ele>1304.8</ele>
        <time>2020-08-26T10:06:51.000Z</time>
      </trkpt>
      <trkpt lat="45.06755" lon="6.15343">
        <ele>1305.2</ele>
        <time>2020-08-26T10:06:52.000Z</time>
      </trkpt>
      <trkpt lat="45.06758" lon="6.15343">
        <ele>1305.4</ele>
        <time>2020-08-26T10:06:53.000Z</time>
      </trkpt>
      <trkpt lat="45.0676" lon="6.15344">
        <ele>1305.6</ele>
        <time>2020-08-26T10:06:54.000Z</time>
      </trkpt>
      <trkpt lat="45.06762" lon="6.15344">
        <ele>1306</ele>
        <time>2020-08-26T10:06:55.000Z</time>
      </trkpt>
      <trkpt lat="45.06764" lon="6.15344">
        <ele>1306.2</ele>
        <time>2020-08-26T10:06:56.000Z</time>
      </trkpt>
      <trkpt lat="45.06766" lon="6.15344">
        <ele>1306.4</ele>
        <time>2020-08-26T10:06:57.000Z</time>
      </trkpt>
      <trkpt lat="45.06768" lon="6.15344">
        <ele>1306.6</ele>
        <time>2020-08-26T10:06:58.000Z</time>
      </trkpt>
      <trkpt lat="45.0677" lon="6.15344">
        <ele>1306.8</ele>
        <time>2020-08-26T10:06:59.000Z</time>
      </trkpt>
      <trkpt lat="45.06773" lon="6.15344">
        <ele>1307.2</ele>
        <time>2020-08-26T10:07:00.000Z</time>
      </trkpt>
      <trkpt lat="45.06774" lon="6.15344">
        <ele>1307.4</ele>
        <time>2020-08-26T10:07:01.000Z</time>
      </trkpt>
      <trkpt lat="45.06777" lon="6.15343">
        <ele>1307.6</ele>
        <time>2020-08-26T10:07:02.000Z</time>
      </trkpt>
      <trkpt lat="45.06779" lon="6.15344">
        <ele>1307.8</ele>
        <time>2020-08-26T10:07:03.000Z</time>
      </trkpt>
      <trkpt lat="45.06781" lon="6.15344">
        <ele>1308</ele>
        <time>2020-08-26T10:07:04.000Z</time>
      </trkpt>
      <trkpt lat="45.06783" lon="6.15344">
        <ele>1308.4</ele>
        <time>2020-08-26T10:07:05.000Z</time>
      </trkpt>
      <trkpt lat="45.06785" lon="6.15344">
        <ele>1308.6</ele>
        <time>2020-08-26T10:07:06.000Z</time>
      </trkpt>
      <trkpt lat="45.06787" lon="6.15344">
        <ele>1309</ele>
        <time>2020-08-26T10:07:07.000Z</time>
      </trkpt>
      <trkpt lat="45.06789" lon="6.15344">
        <ele>1309.4</ele>
        <time>2020-08-26T10:07:08.000Z</time>
      </trkpt>
      <trkpt lat="45.06791" lon="6.15344">
        <ele>1309.6</ele>
        <time>2020-08-26T10:07:09.000Z</time>
      </trkpt>
      <trkpt lat="45.06793" lon="6.15344">
        <ele>1310</ele>
        <time>2020-08-26T10:07:10.000Z</time>
      </trkpt>
      <trkpt lat="45.06795" lon="6.15343">
        <ele>1310.2</ele>
        <time>2020-08-26T10:07:11.000Z</time>
      </trkpt>
      <trkpt lat="45.06797" lon="6.15343">
        <ele>1310.4</ele>
        <time>2020-08-26T10:07:12.000Z</time>
      </trkpt>
      <trkpt lat="45.068" lon="6.15344">
        <ele>1310.6</ele>
        <time>2020-08-26T10:07:13.000Z</time>
      </trkpt>
      <trkpt lat="45.06802" lon="6.15344">
        <ele>1310.8</ele>
        <time>2020-08-26T10:07:14.000Z</time>
      </trkpt>
      <trkpt lat="45.06804" lon="6.15344">
        <ele>1310.8</ele>
        <time>2020-08-26T10:07:15.000Z</time>
      </trkpt>
      <trkpt lat="45.06806" lon="6.15344">
        <ele>1311.4</ele>
        <time>2020-08-26T10:07:16.000Z</time>
      </trkpt>
      <trkpt lat="45.06809" lon="6.15344">
        <ele>1311.8</ele>
        <time>2020-08-26T10:07:17.000Z</time>
      </trkpt>
      <trkpt lat="45.06811" lon="6.15344">
        <ele>1311.8</ele>
        <time>2020-08-26T10:07:18.000Z</time>
      </trkpt>
      <trkpt lat="45.06813" lon="6.15345">
        <ele>1312.2</ele>
        <time>2020-08-26T10:07:19.000Z</time>
      </trkpt>
      <trkpt lat="45.06816" lon="6.15345">
        <ele>1312.4</ele>
        <time>2020-08-26T10:07:20.000Z</time>
      </trkpt>
      <trkpt lat="45.06818" lon="6.15345">
        <ele>1312.8</ele>
        <time>2020-08-26T10:07:21.000Z</time>
      </trkpt>
      <trkpt lat="45.06821" lon="6.15345">
        <ele>1312.8</ele>
        <time>2020-08-26T10:07:22.000Z</time>
      </trkpt>
      <trkpt lat="45.06823" lon="6.15345">
        <ele>1313.2</ele>
        <time>2020-08-26T10:07:23.000Z</time>
      </trkpt>
      <trkpt lat="45.06826" lon="6.15345">
        <ele>1313.4</ele>
        <time>2020-08-26T10:07:24.000Z</time>
      </trkpt>
      <trkpt lat="45.06829" lon="6.15344">
        <ele>1313.8</ele>
        <time>2020-08-26T10:07:25.000Z</time>
      </trkpt>
      <trkpt lat="45.06831" lon="6.15345">
        <ele>1314</ele>
        <time>2020-08-26T10:07:26.000Z</time>
      </trkpt>
      <trkpt lat="45.06834" lon="6.15346">
        <ele>1314.4</ele>
        <time>2020-08-26T10:07:27.000Z</time>
      </trkpt>
      <trkpt lat="45.06836" lon="6.15347">
        <ele>1314.6</ele>
        <time>2020-08-26T10:07:28.000Z</time>
      </trkpt>
      <trkpt lat="45.06839" lon="6.15348">
        <ele>1314.8</ele>
        <time>2020-08-26T10:07:29.000Z</time>
      </trkpt>
      <trkpt lat="45.06841" lon="6.15348">
        <ele>1315</ele>
        <time>2020-08-26T10:07:30.000Z</time>
      </trkpt>
      <trkpt lat="45.06843" lon="6.15349">
        <ele>1315.2</ele>
        <time>2020-08-26T10:07:31.000Z</time>
      </trkpt>
      <trkpt lat="45.06845" lon="6.1535">
        <ele>1315.6</ele>
        <time>2020-08-26T10:07:32.000Z</time>
      </trkpt>
      <trkpt lat="45.06847" lon="6.15351">
        <ele>1315.8</ele>
        <time>2020-08-26T10:07:33.000Z</time>
      </trkpt>
      <trkpt lat="45.0685" lon="6.15352">
        <ele>1316</ele>
        <time>2020-08-26T10:07:34.000Z</time>
      </trkpt>
      <trkpt lat="45.06852" lon="6.15353">
        <ele>1316</ele>
        <time>2020-08-26T10:07:35.000Z</time>
      </trkpt>
      <trkpt lat="45.06854" lon="6.15354">
        <ele>1316.2</ele>
        <time>2020-08-26T10:07:36.000Z</time>
      </trkpt>
      <trkpt lat="45.06856" lon="6.15355">
        <ele>1316.4</ele>
        <time>2020-08-26T10:07:37.000Z</time>
      </trkpt>
      <trkpt lat="45.06858" lon="6.15357">
        <ele>1316.6</ele>
        <time>2020-08-26T10:07:38.000Z</time>
      </trkpt>
      <trkpt lat="45.0686" lon="6.15358">
        <ele>1316.8</ele>
        <time>2020-08-26T10:07:39.000Z</time>
      </trkpt>
      <trkpt lat="45.06863" lon="6.15359">
        <ele>1316.8</ele>
        <time>2020-08-26T10:07:40.000Z</time>
      </trkpt>
      <trkpt lat="45.06864" lon="6.15361">
        <ele>1317</ele>
        <time>2020-08-26T10:07:41.000Z</time>
      </trkpt>
      <trkpt lat="45.06866" lon="6.15362">
        <ele>1317.4</ele>
        <time>2020-08-26T10:07:42.000Z</time>
      </trkpt>
      <trkpt lat="45.06868" lon="6.15363">
        <ele>1317.6</ele>
        <time>2020-08-26T10:07:43.000Z</time>
      </trkpt>
      <trkpt lat="45.0687" lon="6.15364">
        <ele>1317.8</ele>
        <time>2020-08-26T10:07:44.000Z</time>
      </trkpt>
      <trkpt lat="45.06873" lon="6.15366">
        <ele>1318.2</ele>
        <time>2020-08-26T10:07:45.000Z</time>
      </trkpt>
      <trkpt lat="45.06875" lon="6.15367">
        <ele>1318.6</ele>
        <time>2020-08-26T10:07:46.000Z</time>
      </trkpt>
      <trkpt lat="45.06877" lon="6.15368">
        <ele>1318.8</ele>
        <time>2020-08-26T10:07:47.000Z</time>
      </trkpt>
      <trkpt lat="45.06879" lon="6.15369">
        <ele>1319</ele>
        <time>2020-08-26T10:07:48.000Z</time>
      </trkpt>
      <trkpt lat="45.06881" lon="6.15371">
        <ele>1319.2</ele>
        <time>2020-08-26T10:07:49.000Z</time>
      </trkpt>
      <trkpt lat="45.06883" lon="6.15372">
        <ele>1319.6</ele>
        <time>2020-08-26T10:07:50.000Z</time>
      </trkpt>
      <trkpt lat="45.06885" lon="6.15373">
        <ele>1319.8</ele>
        <time>2020-08-26T10:07:51.000Z</time>
      </trkpt>
      <trkpt lat="45.06888" lon="6.15374">
        <ele>1320.2</ele>
        <time>2020-08-26T10:07:52.000Z</time>
      </trkpt>
      <trkpt lat="45.0689" lon="6.15375">
        <ele>1320.4</ele>
        <time>2020-08-26T10:07:53.000Z</time>
      </trkpt>
      <trkpt lat="45.06892" lon="6.15376">
        <ele>1320.6</ele>
        <time>2020-08-26T10:07:54.000Z</time>
      </trkpt>
      <trkpt lat="45.06894" lon="6.15376">
        <ele>1321</ele>
        <time>2020-08-26T10:07:55.000Z</time>
      </trkpt>
      <trkpt lat="45.06897" lon="6.15377">
        <ele>1321.2</ele>
        <time>2020-08-26T10:07:56.000Z</time>
      </trkpt>
      <trkpt lat="45.06899" lon="6.15378">
        <ele>1321.4</ele>
        <time>2020-08-26T10:07:57.000Z</time>
      </trkpt>
      <trkpt lat="45.06901" lon="6.15378">
        <ele>1321.6</ele>
        <time>2020-08-26T10:07:58.000Z</time>
      </trkpt>
      <trkpt lat="45.06904" lon="6.15379">
        <ele>1322</ele>
        <time>2020-08-26T10:07:59.000Z</time>
      </trkpt>
      <trkpt lat="45.06906" lon="6.1538">
        <ele>1322.4</ele>
        <time>2020-08-26T10:08:00.000Z</time>
      </trkpt>
      <trkpt lat="45.06908" lon="6.1538">
        <ele>1322.6</ele>
        <time>2020-08-26T10:08:01.000Z</time>
      </trkpt>
      <trkpt lat="45.0691" lon="6.15381">
        <ele>1322.8</ele>
        <time>2020-08-26T10:08:02.000Z</time>
      </trkpt>
      <trkpt lat="45.06913" lon="6.15381">
        <ele>1323</ele>
        <time>2020-08-26T10:08:03.000Z</time>
      </trkpt>
      <trkpt lat="45.06915" lon="6.15381">
        <ele>1323.2</ele>
        <time>2020-08-26T10:08:04.000Z</time>
      </trkpt>
      <trkpt lat="45.06917" lon="6.15381">
        <ele>1323.6</ele>
        <time>2020-08-26T10:08:05.000Z</time>
      </trkpt>
      <trkpt lat="45.06919" lon="6.15381">
        <ele>1323.8</ele>
        <time>2020-08-26T10:08:06.000Z</time>
      </trkpt>
      <trkpt lat="45.06921" lon="6.15381">
        <ele>1324</ele>
        <time>2020-08-26T10:08:07.000Z</time>
      </trkpt>
      <trkpt lat="45.06923" lon="6.1538">
        <ele>1324</ele>
        <time>2020-08-26T10:08:08.000Z</time>
      </trkpt>
      <trkpt lat="45.06926" lon="6.1538">
        <ele>1324.2</ele>
        <time>2020-08-26T10:08:09.000Z</time>
      </trkpt>
      <trkpt lat="45.06928" lon="6.15379">
        <ele>1324.4</ele>
        <time>2020-08-26T10:08:10.000Z</time>
      </trkpt>
      <trkpt lat="45.06931" lon="6.15379">
        <ele>1324.4</ele>
        <time>2020-08-26T10:08:11.000Z</time>
      </trkpt>
      <trkpt lat="45.06933" lon="6.15378">
        <ele>1324.6</ele>
        <time>2020-08-26T10:08:12.000Z</time>
      </trkpt>
      <trkpt lat="45.06936" lon="6.15377">
        <ele>1324.8</ele>
        <time>2020-08-26T10:08:13.000Z</time>
      </trkpt>
      <trkpt lat="45.06938" lon="6.15376">
        <ele>1325</ele>
        <time>2020-08-26T10:08:14.000Z</time>
      </trkpt>
      <trkpt lat="45.0694" lon="6.15375">
        <ele>1325.4</ele>
        <time>2020-08-26T10:08:15.000Z</time>
      </trkpt>
      <trkpt lat="45.06943" lon="6.15374">
        <ele>1326</ele>
        <time>2020-08-26T10:08:16.000Z</time>
      </trkpt>
      <trkpt lat="45.06945" lon="6.15373">
        <ele>1326</ele>
        <time>2020-08-26T10:08:17.000Z</time>
      </trkpt>
      <trkpt lat="45.06948" lon="6.15372">
        <ele>1326.2</ele>
        <time>2020-08-26T10:08:18.000Z</time>
      </trkpt>
      <trkpt lat="45.0695" lon="6.15371">
        <ele>1326.4</ele>
        <time>2020-08-26T10:08:19.000Z</time>
      </trkpt>
      <trkpt lat="45.06952" lon="6.1537">
        <ele>1326.6</ele>
        <time>2020-08-26T10:08:20.000Z</time>
      </trkpt>
      <trkpt lat="45.06954" lon="6.15369">
        <ele>1327</ele>
        <time>2020-08-26T10:08:21.000Z</time>
      </trkpt>
      <trkpt lat="45.06956" lon="6.15368">
        <ele>1327.2</ele>
        <time>2020-08-26T10:08:22.000Z</time>
      </trkpt>
      <trkpt lat="45.06958" lon="6.15367">
        <ele>1327.4</ele>
        <time>2020-08-26T10:08:23.000Z</time>
      </trkpt>
      <trkpt lat="45.06961" lon="6.15367">
        <ele>1327.6</ele>
        <time>2020-08-26T10:08:24.000Z</time>
      </trkpt>
      <trkpt lat="45.06963" lon="6.15366">
        <ele>1328</ele>
        <time>2020-08-26T10:08:25.000Z</time>
      </trkpt>
      <trkpt lat="45.06965" lon="6.15365">
        <ele>1328.2</ele>
        <time>2020-08-26T10:08:26.000Z</time>
      </trkpt>
      <trkpt lat="45.06967" lon="6.15364">
        <ele>1328.6</ele>
        <time>2020-08-26T10:08:27.000Z</time>
      </trkpt>
      <trkpt lat="45.06969" lon="6.15363">
        <ele>1328.6</ele>
        <time>2020-08-26T10:08:28.000Z</time>
      </trkpt>
      <trkpt lat="45.06972" lon="6.15362">
        <ele>1328.8</ele>
        <time>2020-08-26T10:08:29.000Z</time>
      </trkpt>
      <trkpt lat="45.06974" lon="6.15362">
        <ele>1329.2</ele>
        <time>2020-08-26T10:08:30.000Z</time>
      </trkpt>
      <trkpt lat="45.06976" lon="6.15361">
        <ele>1329.4</ele>
        <time>2020-08-26T10:08:31.000Z</time>
      </trkpt>
      <trkpt lat="45.06978" lon="6.1536">
        <ele>1329.8</ele>
        <time>2020-08-26T10:08:32.000Z</time>
      </trkpt>
      <trkpt lat="45.0698" lon="6.1536">
        <ele>1330</ele>
        <time>2020-08-26T10:08:33.000Z</time>
      </trkpt>
      <trkpt lat="45.06982" lon="6.15359">
        <ele>1330.2</ele>
        <time>2020-08-26T10:08:34.000Z</time>
      </trkpt>
      <trkpt lat="45.06984" lon="6.15359">
        <ele>1330.4</ele>
        <time>2020-08-26T10:08:35.000Z</time>
      </trkpt>
      <trkpt lat="45.06986" lon="6.15358">
        <ele>1330.6</ele>
        <time>2020-08-26T10:08:36.000Z</time>
      </trkpt>
      <trkpt lat="45.06988" lon="6.15358">
        <ele>1330.8</ele>
        <time>2020-08-26T10:08:37.000Z</time>
      </trkpt>
      <trkpt lat="45.06989" lon="6.15357">
        <ele>1330.8</ele>
        <time>2020-08-26T10:08:38.000Z</time>
      </trkpt>
      <trkpt lat="45.06991" lon="6.15357">
        <ele>1331</ele>
        <time>2020-08-26T10:08:39.000Z</time>
      </trkpt>
      <trkpt lat="45.06993" lon="6.15357">
        <ele>1331.2</ele>
        <time>2020-08-26T10:08:40.000Z</time>
      </trkpt>
      <trkpt lat="45.06995" lon="6.15357">
        <ele>1331.6</ele>
        <time>2020-08-26T10:08:41.000Z</time>
      </trkpt>
      <trkpt lat="45.06997" lon="6.15357">
        <ele>1331.8</ele>
        <time>2020-08-26T10:08:42.000Z</time>
      </trkpt>
      <trkpt lat="45.06999" lon="6.15356">
        <ele>1332</ele>
        <time>2020-08-26T10:08:43.000Z</time>
      </trkpt>
      <trkpt lat="45.07001" lon="6.15356">
        <ele>1332.6</ele>
        <time>2020-08-26T10:08:44.000Z</time>
      </trkpt>
      <trkpt lat="45.07003" lon="6.15356">
        <ele>1333</ele>
        <time>2020-08-26T10:08:45.000Z</time>
      </trkpt>
      <trkpt lat="45.07005" lon="6.15356">
        <ele>1333.4</ele>
        <time>2020-08-26T10:08:46.000Z</time>
      </trkpt>
      <trkpt lat="45.07007" lon="6.15356">
        <ele>1333.8</ele>
        <time>2020-08-26T10:08:47.000Z</time>
      </trkpt>
      <trkpt lat="45.07009" lon="6.15356">
        <ele>1333.8</ele>
        <time>2020-08-26T10:08:48.000Z</time>
      </trkpt>
      <trkpt lat="45.07011" lon="6.15356">
        <ele>1334.2</ele>
        <time>2020-08-26T10:08:49.000Z</time>
      </trkpt>
      <trkpt lat="45.07014" lon="6.15356">
        <ele>1334.4</ele>
        <time>2020-08-26T10:08:50.000Z</time>
      </trkpt>
      <trkpt lat="45.07016" lon="6.15356">
        <ele>1334.6</ele>
        <time>2020-08-26T10:08:51.000Z</time>
      </trkpt>
      <trkpt lat="45.07019" lon="6.15356">
        <ele>1334.8</ele>
        <time>2020-08-26T10:08:52.000Z</time>
      </trkpt>
      <trkpt lat="45.07021" lon="6.15356">
        <ele>1335</ele>
        <time>2020-08-26T10:08:53.000Z</time>
      </trkpt>
      <trkpt lat="45.07024" lon="6.15356">
        <ele>1335.2</ele>
        <time>2020-08-26T10:08:54.000Z</time>
      </trkpt>
      <trkpt lat="45.07026" lon="6.15356">
        <ele>1335.4</ele>
        <time>2020-08-26T10:08:55.000Z</time>
      </trkpt>
      <trkpt lat="45.07029" lon="6.15357">
        <ele>1335.6</ele>
        <time>2020-08-26T10:08:56.000Z</time>
      </trkpt>
      <trkpt lat="45.07032" lon="6.15357">
        <ele>1336</ele>
        <time>2020-08-26T10:08:57.000Z</time>
      </trkpt>
      <trkpt lat="45.07034" lon="6.15357">
        <ele>1336.2</ele>
        <time>2020-08-26T10:08:58.000Z</time>
      </trkpt>
      <trkpt lat="45.07037" lon="6.15358">
        <ele>1336.4</ele>
        <time>2020-08-26T10:08:59.000Z</time>
      </trkpt>
      <trkpt lat="45.07039" lon="6.15359">
        <ele>1336.6</ele>
        <time>2020-08-26T10:09:00.000Z</time>
      </trkpt>
      <trkpt lat="45.07041" lon="6.1536">
        <ele>1336.8</ele>
        <time>2020-08-26T10:09:01.000Z</time>
      </trkpt>
      <trkpt lat="45.07044" lon="6.15361">
        <ele>1337.2</ele>
        <time>2020-08-26T10:09:02.000Z</time>
      </trkpt>
      <trkpt lat="45.07047" lon="6.15362">
        <ele>1337.4</ele>
        <time>2020-08-26T10:09:03.000Z</time>
      </trkpt>
      <trkpt lat="45.0705" lon="6.15363">
        <ele>1337.8</ele>
        <time>2020-08-26T10:09:04.000Z</time>
      </trkpt>
      <trkpt lat="45.07052" lon="6.15364">
        <ele>1338</ele>
        <time>2020-08-26T10:09:05.000Z</time>
      </trkpt>
      <trkpt lat="45.07055" lon="6.15365">
        <ele>1338.2</ele>
        <time>2020-08-26T10:09:06.000Z</time>
      </trkpt>
      <trkpt lat="45.07057" lon="6.15367">
        <ele>1338.6</ele>
        <time>2020-08-26T10:09:07.000Z</time>
      </trkpt>
      <trkpt lat="45.07059" lon="6.15368">
        <ele>1338.6</ele>
        <time>2020-08-26T10:09:08.000Z</time>
      </trkpt>
      <trkpt lat="45.07062" lon="6.1537">
        <ele>1338.6</ele>
        <time>2020-08-26T10:09:09.000Z</time>
      </trkpt>
      <trkpt lat="45.07064" lon="6.15371">
        <ele>1339.2</ele>
        <time>2020-08-26T10:09:10.000Z</time>
      </trkpt>
      <trkpt lat="45.07066" lon="6.15373">
        <ele>1339.2</ele>
        <time>2020-08-26T10:09:11.000Z</time>
      </trkpt>
      <trkpt lat="45.07068" lon="6.15374">
        <ele>1339.6</ele>
        <time>2020-08-26T10:09:12.000Z</time>
      </trkpt>
      <trkpt lat="45.07071" lon="6.15376">
        <ele>1339.8</ele>
        <time>2020-08-26T10:09:13.000Z</time>
      </trkpt>
      <trkpt lat="45.07073" lon="6.15378">
        <ele>1340.2</ele>
        <time>2020-08-26T10:09:14.000Z</time>
      </trkpt>
      <trkpt lat="45.07075" lon="6.1538">
        <ele>1340.4</ele>
        <time>2020-08-26T10:09:15.000Z</time>
      </trkpt>
      <trkpt lat="45.07077" lon="6.15381">
        <ele>1340.4</ele>
        <time>2020-08-26T10:09:16.000Z</time>
      </trkpt>
      <trkpt lat="45.0708" lon="6.15383">
        <ele>1340.6</ele>
        <time>2020-08-26T10:09:17.000Z</time>
      </trkpt>
      <trkpt lat="45.07082" lon="6.15385">
        <ele>1340.8</ele>
        <time>2020-08-26T10:09:18.000Z</time>
      </trkpt>
      <trkpt lat="45.07084" lon="6.15386">
        <ele>1341.2</ele>
        <time>2020-08-26T10:09:19.000Z</time>
      </trkpt>
      <trkpt lat="45.07086" lon="6.15388">
        <ele>1341.4</ele>
        <time>2020-08-26T10:09:20.000Z</time>
      </trkpt>
      <trkpt lat="45.07088" lon="6.1539">
        <ele>1341.8</ele>
        <time>2020-08-26T10:09:21.000Z</time>
      </trkpt>
      <trkpt lat="45.07091" lon="6.15392">
        <ele>1342</ele>
        <time>2020-08-26T10:09:22.000Z</time>
      </trkpt>
      <trkpt lat="45.07093" lon="6.15394">
        <ele>1342.2</ele>
        <time>2020-08-26T10:09:23.000Z</time>
      </trkpt>
      <trkpt lat="45.07094" lon="6.15395">
        <ele>1342.6</ele>
        <time>2020-08-26T10:09:24.000Z</time>
      </trkpt>
      <trkpt lat="45.07097" lon="6.15397">
        <ele>1342.8</ele>
        <time>2020-08-26T10:09:25.000Z</time>
      </trkpt>
      <trkpt lat="45.07099" lon="6.15398">
        <ele>1343</ele>
        <time>2020-08-26T10:09:26.000Z</time>
      </trkpt>
      <trkpt lat="45.07101" lon="6.154">
        <ele>1343.4</ele>
        <time>2020-08-26T10:09:27.000Z</time>
      </trkpt>
      <trkpt lat="45.07103" lon="6.15401">
        <ele>1343.6</ele>
        <time>2020-08-26T10:09:28.000Z</time>
      </trkpt>
      <trkpt lat="45.07105" lon="6.15403">
        <ele>1343.8</ele>
        <time>2020-08-26T10:09:29.000Z</time>
      </trkpt>
      <trkpt lat="45.07107" lon="6.15404">
        <ele>1344.2</ele>
        <time>2020-08-26T10:09:30.000Z</time>
      </trkpt>
      <trkpt lat="45.07109" lon="6.15406">
        <ele>1344.4</ele>
        <time>2020-08-26T10:09:31.000Z</time>
      </trkpt>
      <trkpt lat="45.07112" lon="6.15408">
        <ele>1344.6</ele>
        <time>2020-08-26T10:09:32.000Z</time>
      </trkpt>
      <trkpt lat="45.07114" lon="6.1541">
        <ele>1344.8</ele>
        <time>2020-08-26T10:09:33.000Z</time>
      </trkpt>
      <trkpt lat="45.07116" lon="6.15412">
        <ele>1345</ele>
        <time>2020-08-26T10:09:34.000Z</time>
      </trkpt>
      <trkpt lat="45.07118" lon="6.15415">
        <ele>1345.4</ele>
        <time>2020-08-26T10:09:35.000Z</time>
      </trkpt>
      <trkpt lat="45.0712" lon="6.15417">
        <ele>1345.4</ele>
        <time>2020-08-26T10:09:36.000Z</time>
      </trkpt>
      <trkpt lat="45.07122" lon="6.15421">
        <ele>1345.6</ele>
        <time>2020-08-26T10:09:37.000Z</time>
      </trkpt>
      <trkpt lat="45.07124" lon="6.15424">
        <ele>1345.4</ele>
        <time>2020-08-26T10:09:38.000Z</time>
      </trkpt>
      <trkpt lat="45.07125" lon="6.15428">
        <ele>1345.6</ele>
        <time>2020-08-26T10:09:39.000Z</time>
      </trkpt>
      <trkpt lat="45.07127" lon="6.15432">
        <ele>1345.8</ele>
        <time>2020-08-26T10:09:40.000Z</time>
      </trkpt>
      <trkpt lat="45.07128" lon="6.15436">
        <ele>1345.8</ele>
        <time>2020-08-26T10:09:41.000Z</time>
      </trkpt>
      <trkpt lat="45.0713" lon="6.15441">
        <ele>1345.8</ele>
        <time>2020-08-26T10:09:42.000Z</time>
      </trkpt>
      <trkpt lat="45.07131" lon="6.15447">
        <ele>1346</ele>
        <time>2020-08-26T10:09:43.000Z</time>
      </trkpt>
      <trkpt lat="45.07132" lon="6.15453">
        <ele>1346</ele>
        <time>2020-08-26T10:09:44.000Z</time>
      </trkpt>
      <trkpt lat="45.07133" lon="6.15459">
        <ele>1346</ele>
        <time>2020-08-26T10:09:45.000Z</time>
      </trkpt>
      <trkpt lat="45.07135" lon="6.15466">
        <ele>1346</ele>
        <time>2020-08-26T10:09:46.000Z</time>
      </trkpt>
      <trkpt lat="45.07137" lon="6.15472">
        <ele>1346</ele>
        <time>2020-08-26T10:09:47.000Z</time>
      </trkpt>
      <trkpt lat="45.07139" lon="6.15479">
        <ele>1346</ele>
        <time>2020-08-26T10:09:48.000Z</time>
      </trkpt>
      <trkpt lat="45.07142" lon="6.15486">
        <ele>1345.8</ele>
        <time>2020-08-26T10:09:49.000Z</time>
      </trkpt>
      <trkpt lat="45.07145" lon="6.15493">
        <ele>1345.8</ele>
        <time>2020-08-26T10:09:50.000Z</time>
      </trkpt>
      <trkpt lat="45.07147" lon="6.155">
        <ele>1345.6</ele>
        <time>2020-08-26T10:09:51.000Z</time>
      </trkpt>
      <trkpt lat="45.07149" lon="6.15509">
        <ele>1345.4</ele>
        <time>2020-08-26T10:09:52.000Z</time>
      </trkpt>
      <trkpt lat="45.07152" lon="6.15518">
        <ele>1345.4</ele>
        <time>2020-08-26T10:09:53.000Z</time>
      </trkpt>
      <trkpt lat="45.07156" lon="6.15527">
        <ele>1345.2</ele>
        <time>2020-08-26T10:09:54.000Z</time>
      </trkpt>
      <trkpt lat="45.07159" lon="6.15538">
        <ele>1344.8</ele>
        <time>2020-08-26T10:09:55.000Z</time>
      </trkpt>
      <trkpt lat="45.07163" lon="6.15546">
        <ele>1344.2</ele>
        <time>2020-08-26T10:09:56.000Z</time>
      </trkpt>
      <trkpt lat="45.07168" lon="6.15552">
        <ele>1343.8</ele>
        <time>2020-08-26T10:09:57.000Z</time>
      </trkpt>
      <trkpt lat="45.07172" lon="6.15558">
        <ele>1343.8</ele>
        <time>2020-08-26T10:09:58.000Z</time>
      </trkpt>
      <trkpt lat="45.07176" lon="6.15562">
        <ele>1343.4</ele>
        <time>2020-08-26T10:09:59.000Z</time>
      </trkpt>
      <trkpt lat="45.07179" lon="6.15566">
        <ele>1343.4</ele>
        <time>2020-08-26T10:10:00.000Z</time>
      </trkpt>
      <trkpt lat="45.07182" lon="6.1557">
        <ele>1343.2</ele>
        <time>2020-08-26T10:10:01.000Z</time>
      </trkpt>
      <trkpt lat="45.07185" lon="6.15573">
        <ele>1343.2</ele>
        <time>2020-08-26T10:10:02.000Z</time>
      </trkpt>
      <trkpt lat="45.07188" lon="6.15576">
        <ele>1343.2</ele>
        <time>2020-08-26T10:10:03.000Z</time>
      </trkpt>
      <trkpt lat="45.07191" lon="6.15579">
        <ele>1343.2</ele>
        <time>2020-08-26T10:10:04.000Z</time>
      </trkpt>
      <trkpt lat="45.07194" lon="6.15582">
        <ele>1343.2</ele>
        <time>2020-08-26T10:10:05.000Z</time>
      </trkpt>
      <trkpt lat="45.07197" lon="6.15584">
        <ele>1343.2</ele>
        <time>2020-08-26T10:10:06.000Z</time>
      </trkpt>
      <trkpt lat="45.072" lon="6.15587">
        <ele>1343.2</ele>
        <time>2020-08-26T10:10:07.000Z</time>
      </trkpt>
      <trkpt lat="45.07203" lon="6.1559">
        <ele>1343.6</ele>
        <time>2020-08-26T10:10:08.000Z</time>
      </trkpt>
      <trkpt lat="45.07206" lon="6.15593">
        <ele>1344</ele>
        <time>2020-08-26T10:10:09.000Z</time>
      </trkpt>
      <trkpt lat="45.0721" lon="6.15595">
        <ele>1344.8</ele>
        <time>2020-08-26T10:10:10.000Z</time>
      </trkpt>
      <trkpt lat="45.07213" lon="6.15598">
        <ele>1345.6</ele>
        <time>2020-08-26T10:10:11.000Z</time>
      </trkpt>
      <trkpt lat="45.07216" lon="6.15601">
        <ele>1346.2</ele>
        <time>2020-08-26T10:10:12.000Z</time>
      </trkpt>
      <trkpt lat="45.07219" lon="6.15603">
        <ele>1346.4</ele>
        <time>2020-08-26T10:10:13.000Z</time>
      </trkpt>
      <trkpt lat="45.07222" lon="6.15605">
        <ele>1346.6</ele>
        <time>2020-08-26T10:10:14.000Z</time>
      </trkpt>
      <trkpt lat="45.07225" lon="6.15608">
        <ele>1346.8</ele>
        <time>2020-08-26T10:10:15.000Z</time>
      </trkpt>
      <trkpt lat="45.07228" lon="6.15611">
        <ele>1347</ele>
        <time>2020-08-26T10:10:16.000Z</time>
      </trkpt>
      <trkpt lat="45.07231" lon="6.15613">
        <ele>1347.2</ele>
        <time>2020-08-26T10:10:17.000Z</time>
      </trkpt>
      <trkpt lat="45.07233" lon="6.15616">
        <ele>1347.2</ele>
        <time>2020-08-26T10:10:18.000Z</time>
      </trkpt>
      <trkpt lat="45.07236" lon="6.15619">
        <ele>1347.2</ele>
        <time>2020-08-26T10:10:19.000Z</time>
      </trkpt>
      <trkpt lat="45.07239" lon="6.15622">
        <ele>1347.4</ele>
        <time>2020-08-26T10:10:20.000Z</time>
      </trkpt>
      <trkpt lat="45.07242" lon="6.15625">
        <ele>1347.6</ele>
        <time>2020-08-26T10:10:21.000Z</time>
      </trkpt>
      <trkpt lat="45.07245" lon="6.15628">
        <ele>1347.8</ele>
        <time>2020-08-26T10:10:22.000Z</time>
      </trkpt>
      <trkpt lat="45.07249" lon="6.15631">
        <ele>1348</ele>
        <time>2020-08-26T10:10:23.000Z</time>
      </trkpt>
      <trkpt lat="45.07253" lon="6.15633">
        <ele>1348.2</ele>
        <time>2020-08-26T10:10:24.000Z</time>
      </trkpt>
      <trkpt lat="45.07256" lon="6.15636">
        <ele>1348.2</ele>
        <time>2020-08-26T10:10:25.000Z</time>
      </trkpt>
      <trkpt lat="45.0726" lon="6.15639">
        <ele>1348.4</ele>
        <time>2020-08-26T10:10:26.000Z</time>
      </trkpt>
      <trkpt lat="45.07264" lon="6.15642">
        <ele>1348.4</ele>
        <time>2020-08-26T10:10:27.000Z</time>
      </trkpt>
      <trkpt lat="45.07268" lon="6.15645">
        <ele>1348.6</ele>
        <time>2020-08-26T10:10:28.000Z</time>
      </trkpt>
      <trkpt lat="45.07272" lon="6.15648">
        <ele>1348.6</ele>
        <time>2020-08-26T10:10:29.000Z</time>
      </trkpt>
      <trkpt lat="45.07276" lon="6.15651">
        <ele>1348.6</ele>
        <time>2020-08-26T10:10:30.000Z</time>
      </trkpt>
      <trkpt lat="45.0728" lon="6.15654">
        <ele>1348.8</ele>
        <time>2020-08-26T10:10:31.000Z</time>
      </trkpt>
      <trkpt lat="45.07284" lon="6.15658">
        <ele>1348.8</ele>
        <time>2020-08-26T10:10:32.000Z</time>
      </trkpt>
      <trkpt lat="45.07288" lon="6.15661">
        <ele>1348.8</ele>
        <time>2020-08-26T10:10:33.000Z</time>
      </trkpt>
      <trkpt lat="45.07292" lon="6.15664">
        <ele>1348.8</ele>
        <time>2020-08-26T10:10:34.000Z</time>
      </trkpt>
      <trkpt lat="45.07297" lon="6.15667">
        <ele>1348.8</ele>
        <time>2020-08-26T10:10:35.000Z</time>
      </trkpt>
      <trkpt lat="45.07301" lon="6.15669">
        <ele>1348.8</ele>
        <time>2020-08-26T10:10:36.000Z</time>
      </trkpt>
      <trkpt lat="45.07305" lon="6.15672">
        <ele>1349.2</ele>
        <time>2020-08-26T10:10:37.000Z</time>
      </trkpt>
      <trkpt lat="45.07309" lon="6.15674">
        <ele>1349.2</ele>
        <time>2020-08-26T10:10:38.000Z</time>
      </trkpt>
      <trkpt lat="45.07313" lon="6.15676">
        <ele>1349.2</ele>
        <time>2020-08-26T10:10:39.000Z</time>
      </trkpt>
      <trkpt lat="45.07317" lon="6.15679">
        <ele>1349.4</ele>
        <time>2020-08-26T10:10:40.000Z</time>
      </trkpt>
      <trkpt lat="45.07322" lon="6.15681">
        <ele>1349.4</ele>
        <time>2020-08-26T10:10:41.000Z</time>
      </trkpt>
      <trkpt lat="45.07326" lon="6.15683">
        <ele>1349.4</ele>
        <time>2020-08-26T10:10:42.000Z</time>
      </trkpt>
      <trkpt lat="45.0733" lon="6.15686">
        <ele>1349.4</ele>
        <time>2020-08-26T10:10:43.000Z</time>
      </trkpt>
      <trkpt lat="45.07335" lon="6.15689">
        <ele>1349.6</ele>
        <time>2020-08-26T10:10:44.000Z</time>
      </trkpt>
      <trkpt lat="45.07339" lon="6.15692">
        <ele>1349.6</ele>
        <time>2020-08-26T10:10:45.000Z</time>
      </trkpt>
      <trkpt lat="45.07343" lon="6.15695">
        <ele>1349.6</ele>
        <time>2020-08-26T10:10:46.000Z</time>
      </trkpt>
      <trkpt lat="45.07348" lon="6.15698">
        <ele>1349.6</ele>
        <time>2020-08-26T10:10:47.000Z</time>
      </trkpt>
      <trkpt lat="45.07352" lon="6.15702">
        <ele>1349.6</ele>
        <time>2020-08-26T10:10:48.000Z</time>
      </trkpt>
      <trkpt lat="45.07357" lon="6.15706">
        <ele>1349.8</ele>
        <time>2020-08-26T10:10:49.000Z</time>
      </trkpt>
      <trkpt lat="45.07361" lon="6.15711">
        <ele>1349.8</ele>
        <time>2020-08-26T10:10:50.000Z</time>
      </trkpt>
      <trkpt lat="45.07366" lon="6.15716">
        <ele>1349.8</ele>
        <time>2020-08-26T10:10:51.000Z</time>
      </trkpt>
      <trkpt lat="45.0737" lon="6.15721">
        <ele>1349.8</ele>
        <time>2020-08-26T10:10:52.000Z</time>
      </trkpt>
      <trkpt lat="45.07374" lon="6.15726">
        <ele>1350</ele>
        <time>2020-08-26T10:10:53.000Z</time>
      </trkpt>
      <trkpt lat="45.07378" lon="6.15731">
        <ele>1350</ele>
        <time>2020-08-26T10:10:54.000Z</time>
      </trkpt>
      <trkpt lat="45.07382" lon="6.15735">
        <ele>1349.8</ele>
        <time>2020-08-26T10:10:55.000Z</time>
      </trkpt>
      <trkpt lat="45.07386" lon="6.1574">
        <ele>1349.8</ele>
        <time>2020-08-26T10:10:56.000Z</time>
      </trkpt>
      <trkpt lat="45.07391" lon="6.15743">
        <ele>1350</ele>
        <time>2020-08-26T10:10:57.000Z</time>
      </trkpt>
      <trkpt lat="45.07395" lon="6.15746">
        <ele>1350</ele>
        <time>2020-08-26T10:10:58.000Z</time>
      </trkpt>
      <trkpt lat="45.074" lon="6.15749">
        <ele>1350</ele>
        <time>2020-08-26T10:10:59.000Z</time>
      </trkpt>
      <trkpt lat="45.07405" lon="6.15752">
        <ele>1350</ele>
        <time>2020-08-26T10:11:00.000Z</time>
      </trkpt>
      <trkpt lat="45.0741" lon="6.15754">
        <ele>1350</ele>
        <time>2020-08-26T10:11:01.000Z</time>
      </trkpt>
      <trkpt lat="45.07414" lon="6.15757">
        <ele>1350.2</ele>
        <time>2020-08-26T10:11:02.000Z</time>
      </trkpt>
      <trkpt lat="45.07419" lon="6.1576">
        <ele>1350.2</ele>
        <time>2020-08-26T10:11:03.000Z</time>
      </trkpt>
      <trkpt lat="45.07424" lon="6.15764">
        <ele>1350.4</ele>
        <time>2020-08-26T10:11:04.000Z</time>
      </trkpt>
      <trkpt lat="45.07429" lon="6.15768">
        <ele>1350.6</ele>
        <time>2020-08-26T10:11:05.000Z</time>
      </trkpt>
      <trkpt lat="45.07433" lon="6.15773">
        <ele>1350.8</ele>
        <time>2020-08-26T10:11:06.000Z</time>
      </trkpt>
      <trkpt lat="45.07437" lon="6.15778">
        <ele>1350.8</ele>
        <time>2020-08-26T10:11:07.000Z</time>
      </trkpt>
      <trkpt lat="45.07442" lon="6.15783">
        <ele>1350.8</ele>
        <time>2020-08-26T10:11:08.000Z</time>
      </trkpt>
      <trkpt lat="45.07446" lon="6.15788">
        <ele>1350.8</ele>
        <time>2020-08-26T10:11:09.000Z</time>
      </trkpt>
      <trkpt lat="45.0745" lon="6.15793">
        <ele>1350.8</ele>
        <time>2020-08-26T10:11:10.000Z</time>
      </trkpt>
      <trkpt lat="45.07454" lon="6.15798">
        <ele>1350.8</ele>
        <time>2020-08-26T10:11:11.000Z</time>
      </trkpt>
      <trkpt lat="45.07459" lon="6.15802">
        <ele>1350.8</ele>
        <time>2020-08-26T10:11:12.000Z</time>
      </trkpt>
      <trkpt lat="45.07463" lon="6.15805">
        <ele>1350.8</ele>
        <time>2020-08-26T10:11:13.000Z</time>
      </trkpt>
      <trkpt lat="45.07467" lon="6.15808">
        <ele>1350.8</ele>
        <time>2020-08-26T10:11:14.000Z</time>
      </trkpt>
      <trkpt lat="45.07472" lon="6.1581">
        <ele>1351</ele>
        <time>2020-08-26T10:11:15.000Z</time>
      </trkpt>
      <trkpt lat="45.07477" lon="6.15811">
        <ele>1351</ele>
        <time>2020-08-26T10:11:16.000Z</time>
      </trkpt>
      <trkpt lat="45.07482" lon="6.15812">
        <ele>1351</ele>
        <time>2020-08-26T10:11:17.000Z</time>
      </trkpt>
      <trkpt lat="45.07487" lon="6.15811">
        <ele>1351</ele>
        <time>2020-08-26T10:11:18.000Z</time>
      </trkpt>
      <trkpt lat="45.07492" lon="6.15811">
        <ele>1351.2</ele>
        <time>2020-08-26T10:11:19.000Z</time>
      </trkpt>
      <trkpt lat="45.07496" lon="6.1581">
        <ele>1351.2</ele>
        <time>2020-08-26T10:11:20.000Z</time>
      </trkpt>
      <trkpt lat="45.07502" lon="6.15809">
        <ele>1351.6</ele>
        <time>2020-08-26T10:11:21.000Z</time>
      </trkpt>
      <trkpt lat="45.07507" lon="6.15808">
        <ele>1351.8</ele>
        <time>2020-08-26T10:11:22.000Z</time>
      </trkpt>
      <trkpt lat="45.07512" lon="6.15807">
        <ele>1352</ele>
        <time>2020-08-26T10:11:23.000Z</time>
      </trkpt>
      <trkpt lat="45.07517" lon="6.15806">
        <ele>1352.2</ele>
        <time>2020-08-26T10:11:24.000Z</time>
      </trkpt>
      <trkpt lat="45.07522" lon="6.15806">
        <ele>1352.2</ele>
        <time>2020-08-26T10:11:25.000Z</time>
      </trkpt>
      <trkpt lat="45.07527" lon="6.15807">
        <ele>1352.2</ele>
        <time>2020-08-26T10:11:26.000Z</time>
      </trkpt>
      <trkpt lat="45.07532" lon="6.15808">
        <ele>1352.4</ele>
        <time>2020-08-26T10:11:27.000Z</time>
      </trkpt>
      <trkpt lat="45.07537" lon="6.15809">
        <ele>1352.4</ele>
        <time>2020-08-26T10:11:28.000Z</time>
      </trkpt>
      <trkpt lat="45.07541" lon="6.15811">
        <ele>1352.4</ele>
        <time>2020-08-26T10:11:29.000Z</time>
      </trkpt>
      <trkpt lat="45.07546" lon="6.15812">
        <ele>1352.6</ele>
        <time>2020-08-26T10:11:30.000Z</time>
      </trkpt>
      <trkpt lat="45.0755" lon="6.15814">
        <ele>1352.4</ele>
        <time>2020-08-26T10:11:31.000Z</time>
      </trkpt>
      <trkpt lat="45.07555" lon="6.15816">
        <ele>1352.8</ele>
        <time>2020-08-26T10:11:32.000Z</time>
      </trkpt>
      <trkpt lat="45.07559" lon="6.15818">
        <ele>1352.8</ele>
        <time>2020-08-26T10:11:33.000Z</time>
      </trkpt>
      <trkpt lat="45.07563" lon="6.1582">
        <ele>1352.8</ele>
        <time>2020-08-26T10:11:34.000Z</time>
      </trkpt>
      <trkpt lat="45.07568" lon="6.15823">
        <ele>1352.8</ele>
        <time>2020-08-26T10:11:35.000Z</time>
      </trkpt>
      <trkpt lat="45.07571" lon="6.15826">
        <ele>1352.8</ele>
        <time>2020-08-26T10:11:36.000Z</time>
      </trkpt>
      <trkpt lat="45.07575" lon="6.15828">
        <ele>1352.8</ele>
        <time>2020-08-26T10:11:37.000Z</time>
      </trkpt>
      <trkpt lat="45.07579" lon="6.1583">
        <ele>1352.8</ele>
        <time>2020-08-26T10:11:38.000Z</time>
      </trkpt>
      <trkpt lat="45.07583" lon="6.15832">
        <ele>1352.8</ele>
        <time>2020-08-26T10:11:39.000Z</time>
      </trkpt>
      <trkpt lat="45.07588" lon="6.15834">
        <ele>1353</ele>
        <time>2020-08-26T10:11:40.000Z</time>
      </trkpt>
      <trkpt lat="45.07592" lon="6.15835">
        <ele>1353</ele>
        <time>2020-08-26T10:11:41.000Z</time>
      </trkpt>
      <trkpt lat="45.07597" lon="6.15836">
        <ele>1353</ele>
        <time>2020-08-26T10:11:42.000Z</time>
      </trkpt>
      <trkpt lat="45.07602" lon="6.15837">
        <ele>1353.2</ele>
        <time>2020-08-26T10:11:43.000Z</time>
      </trkpt>
      <trkpt lat="45.07607" lon="6.15837">
        <ele>1353.4</ele>
        <time>2020-08-26T10:11:44.000Z</time>
      </trkpt>
      <trkpt lat="45.07612" lon="6.15836">
        <ele>1353.6</ele>
        <time>2020-08-26T10:11:45.000Z</time>
      </trkpt>
      <trkpt lat="45.07617" lon="6.15835">
        <ele>1353.8</ele>
        <time>2020-08-26T10:11:46.000Z</time>
      </trkpt>
      <trkpt lat="45.07622" lon="6.15834">
        <ele>1353.8</ele>
        <time>2020-08-26T10:11:47.000Z</time>
      </trkpt>
      <trkpt lat="45.07627" lon="6.15833">
        <ele>1353.8</ele>
        <time>2020-08-26T10:11:48.000Z</time>
      </trkpt>
      <trkpt lat="45.07632" lon="6.15832">
        <ele>1354</ele>
        <time>2020-08-26T10:11:49.000Z</time>
      </trkpt>
      <trkpt lat="45.07638" lon="6.15829">
        <ele>1354</ele>
        <time>2020-08-26T10:11:50.000Z</time>
      </trkpt>
      <trkpt lat="45.07644" lon="6.15827">
        <ele>1354</ele>
        <time>2020-08-26T10:11:51.000Z</time>
      </trkpt>
      <trkpt lat="45.07649" lon="6.15824">
        <ele>1354</ele>
        <time>2020-08-26T10:11:52.000Z</time>
      </trkpt>
      <trkpt lat="45.07654" lon="6.15821">
        <ele>1354.2</ele>
        <time>2020-08-26T10:11:53.000Z</time>
      </trkpt>
      <trkpt lat="45.07659" lon="6.15817">
        <ele>1354.2</ele>
        <time>2020-08-26T10:11:54.000Z</time>
      </trkpt>
      <trkpt lat="45.07664" lon="6.15813">
        <ele>1354.2</ele>
        <time>2020-08-26T10:11:55.000Z</time>
      </trkpt>
      <trkpt lat="45.07668" lon="6.15809">
        <ele>1354.4</ele>
        <time>2020-08-26T10:11:56.000Z</time>
      </trkpt>
      <trkpt lat="45.07673" lon="6.15806">
        <ele>1354.4</ele>
        <time>2020-08-26T10:11:57.000Z</time>
      </trkpt>
      <trkpt lat="45.07677" lon="6.15802">
        <ele>1354.4</ele>
        <time>2020-08-26T10:11:58.000Z</time>
      </trkpt>
      <trkpt lat="45.07682" lon="6.158">
        <ele>1354.6</ele>
        <time>2020-08-26T10:11:59.000Z</time>
      </trkpt>
      <trkpt lat="45.07686" lon="6.15798">
        <ele>1354.8</ele>
        <time>2020-08-26T10:12:00.000Z</time>
      </trkpt>
      <trkpt lat="45.0769" lon="6.15797">
        <ele>1355</ele>
        <time>2020-08-26T10:12:01.000Z</time>
      </trkpt>
      <trkpt lat="45.07695" lon="6.15797">
        <ele>1355</ele>
        <time>2020-08-26T10:12:02.000Z</time>
      </trkpt>
      <trkpt lat="45.077" lon="6.15797">
        <ele>1355.2</ele>
        <time>2020-08-26T10:12:03.000Z</time>
      </trkpt>
      <trkpt lat="45.07705" lon="6.15797">
        <ele>1355</ele>
        <time>2020-08-26T10:12:04.000Z</time>
      </trkpt>
      <trkpt lat="45.0771" lon="6.15797">
        <ele>1355.2</ele>
        <time>2020-08-26T10:12:05.000Z</time>
      </trkpt>
      <trkpt lat="45.07715" lon="6.15797">
        <ele>1355.2</ele>
        <time>2020-08-26T10:12:06.000Z</time>
      </trkpt>
      <trkpt lat="45.0772" lon="6.15798">
        <ele>1355.4</ele>
        <time>2020-08-26T10:12:07.000Z</time>
      </trkpt>
      <trkpt lat="45.07725" lon="6.15798">
        <ele>1355.4</ele>
        <time>2020-08-26T10:12:08.000Z</time>
      </trkpt>
      <trkpt lat="45.07729" lon="6.15798">
        <ele>1355.4</ele>
        <time>2020-08-26T10:12:09.000Z</time>
      </trkpt>
      <trkpt lat="45.07733" lon="6.15798">
        <ele>1355.4</ele>
        <time>2020-08-26T10:12:10.000Z</time>
      </trkpt>
      <trkpt lat="45.07738" lon="6.15799">
        <ele>1355.6</ele>
        <time>2020-08-26T10:12:11.000Z</time>
      </trkpt>
      <trkpt lat="45.07743" lon="6.15799">
        <ele>1355.6</ele>
        <time>2020-08-26T10:12:12.000Z</time>
      </trkpt>
      <trkpt lat="45.07748" lon="6.158">
        <ele>1355.6</ele>
        <time>2020-08-26T10:12:13.000Z</time>
      </trkpt>
      <trkpt lat="45.07754" lon="6.158">
        <ele>1355.8</ele>
        <time>2020-08-26T10:12:14.000Z</time>
      </trkpt>
      <trkpt lat="45.07758" lon="6.15801">
        <ele>1355.8</ele>
        <time>2020-08-26T10:12:15.000Z</time>
      </trkpt>
      <trkpt lat="45.07763" lon="6.15802">
        <ele>1355.8</ele>
        <time>2020-08-26T10:12:16.000Z</time>
      </trkpt>
      <trkpt lat="45.07767" lon="6.15803">
        <ele>1356</ele>
        <time>2020-08-26T10:12:17.000Z</time>
      </trkpt>
      <trkpt lat="45.07771" lon="6.15805">
        <ele>1356</ele>
        <time>2020-08-26T10:12:18.000Z</time>
      </trkpt>
      <trkpt lat="45.07776" lon="6.15806">
        <ele>1356.2</ele>
        <time>2020-08-26T10:12:19.000Z</time>
      </trkpt>
      <trkpt lat="45.0778" lon="6.15806">
        <ele>1356.4</ele>
        <time>2020-08-26T10:12:20.000Z</time>
      </trkpt>
      <trkpt lat="45.07785" lon="6.15806">
        <ele>1356.6</ele>
        <time>2020-08-26T10:12:21.000Z</time>
      </trkpt>
      <trkpt lat="45.0779" lon="6.15806">
        <ele>1356.6</ele>
        <time>2020-08-26T10:12:22.000Z</time>
      </trkpt>
      <trkpt lat="45.07795" lon="6.15806">
        <ele>1356.8</ele>
        <time>2020-08-26T10:12:23.000Z</time>
      </trkpt>
      <trkpt lat="45.078" lon="6.15806">
        <ele>1356.8</ele>
        <time>2020-08-26T10:12:24.000Z</time>
      </trkpt>
      <trkpt lat="45.07805" lon="6.15807">
        <ele>1357</ele>
        <time>2020-08-26T10:12:25.000Z</time>
      </trkpt>
      <trkpt lat="45.0781" lon="6.15808">
        <ele>1357</ele>
        <time>2020-08-26T10:12:26.000Z</time>
      </trkpt>
      <trkpt lat="45.07815" lon="6.1581">
        <ele>1357.2</ele>
        <time>2020-08-26T10:12:27.000Z</time>
      </trkpt>
      <trkpt lat="45.0782" lon="6.15813">
        <ele>1357.2</ele>
        <time>2020-08-26T10:12:28.000Z</time>
      </trkpt>
      <trkpt lat="45.07825" lon="6.15815">
        <ele>1357.4</ele>
        <time>2020-08-26T10:12:29.000Z</time>
      </trkpt>
      <trkpt lat="45.07831" lon="6.15818">
        <ele>1357.6</ele>
        <time>2020-08-26T10:12:30.000Z</time>
      </trkpt>
      <trkpt lat="45.07836" lon="6.1582">
        <ele>1357.8</ele>
        <time>2020-08-26T10:12:31.000Z</time>
      </trkpt>
      <trkpt lat="45.0784" lon="6.15824">
        <ele>1357.8</ele>
        <time>2020-08-26T10:12:32.000Z</time>
      </trkpt>
      <trkpt lat="45.07844" lon="6.15827">
        <ele>1357.8</ele>
        <time>2020-08-26T10:12:33.000Z</time>
      </trkpt>
      <trkpt lat="45.07848" lon="6.1583">
        <ele>1358</ele>
        <time>2020-08-26T10:12:34.000Z</time>
      </trkpt>
      <trkpt lat="45.07852" lon="6.15833">
        <ele>1358</ele>
        <time>2020-08-26T10:12:35.000Z</time>
      </trkpt>
      <trkpt lat="45.07857" lon="6.15836">
        <ele>1358.2</ele>
        <time>2020-08-26T10:12:36.000Z</time>
      </trkpt>
      <trkpt lat="45.07861" lon="6.15839">
        <ele>1358.2</ele>
        <time>2020-08-26T10:12:37.000Z</time>
      </trkpt>
      <trkpt lat="45.07866" lon="6.15843">
        <ele>1358.4</ele>
        <time>2020-08-26T10:12:38.000Z</time>
      </trkpt>
      <trkpt lat="45.07871" lon="6.15847">
        <ele>1358.4</ele>
        <time>2020-08-26T10:12:39.000Z</time>
      </trkpt>
      <trkpt lat="45.07875" lon="6.1585">
        <ele>1358.4</ele>
        <time>2020-08-26T10:12:40.000Z</time>
      </trkpt>
      <trkpt lat="45.0788" lon="6.15853">
        <ele>1358.4</ele>
        <time>2020-08-26T10:12:41.000Z</time>
      </trkpt>
      <trkpt lat="45.07884" lon="6.15857">
        <ele>1358.4</ele>
        <time>2020-08-26T10:12:42.000Z</time>
      </trkpt>
      <trkpt lat="45.07888" lon="6.15861">
        <ele>1358.4</ele>
        <time>2020-08-26T10:12:43.000Z</time>
      </trkpt>
      <trkpt lat="45.07892" lon="6.15865">
        <ele>1358.4</ele>
        <time>2020-08-26T10:12:44.000Z</time>
      </trkpt>
      <trkpt lat="45.07896" lon="6.15869">
        <ele>1358.4</ele>
        <time>2020-08-26T10:12:45.000Z</time>
      </trkpt>
      <trkpt lat="45.07899" lon="6.15872">
        <ele>1358.4</ele>
        <time>2020-08-26T10:12:46.000Z</time>
      </trkpt>
      <trkpt lat="45.07905" lon="6.15873">
        <ele>1358.6</ele>
        <time>2020-08-26T10:12:47.000Z</time>
      </trkpt>
      <trkpt lat="45.07909" lon="6.15875">
        <ele>1358.6</ele>
        <time>2020-08-26T10:12:48.000Z</time>
      </trkpt>
      <trkpt lat="45.07913" lon="6.15878">
        <ele>1358.8</ele>
        <time>2020-08-26T10:12:49.000Z</time>
      </trkpt>
      <trkpt lat="45.07917" lon="6.1588">
        <ele>1358.6</ele>
        <time>2020-08-26T10:12:50.000Z</time>
      </trkpt>
      <trkpt lat="45.07922" lon="6.15882">
        <ele>1358.8</ele>
        <time>2020-08-26T10:12:51.000Z</time>
      </trkpt>
      <trkpt lat="45.07927" lon="6.15884">
        <ele>1359</ele>
        <time>2020-08-26T10:12:52.000Z</time>
      </trkpt>
      <trkpt lat="45.07932" lon="6.15885">
        <ele>1359.2</ele>
        <time>2020-08-26T10:12:53.000Z</time>
      </trkpt>
      <trkpt lat="45.07937" lon="6.15887">
        <ele>1359.4</ele>
        <time>2020-08-26T10:12:54.000Z</time>
      </trkpt>
      <trkpt lat="45.07942" lon="6.1589">
        <ele>1359.8</ele>
        <time>2020-08-26T10:12:55.000Z</time>
      </trkpt>
      <trkpt lat="45.07947" lon="6.15892">
        <ele>1359.8</ele>
        <time>2020-08-26T10:12:56.000Z</time>
      </trkpt>
      <trkpt lat="45.07952" lon="6.15895">
        <ele>1360</ele>
        <time>2020-08-26T10:12:57.000Z</time>
      </trkpt>
      <trkpt lat="45.07957" lon="6.15897">
        <ele>1360</ele>
        <time>2020-08-26T10:12:58.000Z</time>
      </trkpt>
      <trkpt lat="45.07962" lon="6.159">
        <ele>1360.2</ele>
        <time>2020-08-26T10:12:59.000Z</time>
      </trkpt>
      <trkpt lat="45.07966" lon="6.15904">
        <ele>1360.2</ele>
        <time>2020-08-26T10:13:00.000Z</time>
      </trkpt>
      <trkpt lat="45.0797" lon="6.15907">
        <ele>1360.2</ele>
        <time>2020-08-26T10:13:01.000Z</time>
      </trkpt>
      <trkpt lat="45.07975" lon="6.15911">
        <ele>1360.6</ele>
        <time>2020-08-26T10:13:02.000Z</time>
      </trkpt>
      <trkpt lat="45.07979" lon="6.15914">
        <ele>1360.6</ele>
        <time>2020-08-26T10:13:03.000Z</time>
      </trkpt>
      <trkpt lat="45.07983" lon="6.15917">
        <ele>1360.8</ele>
        <time>2020-08-26T10:13:04.000Z</time>
      </trkpt>
      <trkpt lat="45.07987" lon="6.15921">
        <ele>1360.8</ele>
        <time>2020-08-26T10:13:05.000Z</time>
      </trkpt>
      <trkpt lat="45.07991" lon="6.15924">
        <ele>1361</ele>
        <time>2020-08-26T10:13:06.000Z</time>
      </trkpt>
      <trkpt lat="45.07995" lon="6.15928">
        <ele>1361</ele>
        <time>2020-08-26T10:13:07.000Z</time>
      </trkpt>
      <trkpt lat="45.07998" lon="6.15932">
        <ele>1361</ele>
        <time>2020-08-26T10:13:08.000Z</time>
      </trkpt>
      <trkpt lat="45.08002" lon="6.15936">
        <ele>1361.2</ele>
        <time>2020-08-26T10:13:09.000Z</time>
      </trkpt>
      <trkpt lat="45.08005" lon="6.1594">
        <ele>1361.2</ele>
        <time>2020-08-26T10:13:10.000Z</time>
      </trkpt>
      <trkpt lat="45.08009" lon="6.15944">
        <ele>1361.2</ele>
        <time>2020-08-26T10:13:11.000Z</time>
      </trkpt>
      <trkpt lat="45.08013" lon="6.15948">
        <ele>1361.2</ele>
        <time>2020-08-26T10:13:12.000Z</time>
      </trkpt>
      <trkpt lat="45.08016" lon="6.15952">
        <ele>1361.4</ele>
        <time>2020-08-26T10:13:13.000Z</time>
      </trkpt>
      <trkpt lat="45.08019" lon="6.15957">
        <ele>1361.4</ele>
        <time>2020-08-26T10:13:14.000Z</time>
      </trkpt>
      <trkpt lat="45.08023" lon="6.15961">
        <ele>1361.4</ele>
        <time>2020-08-26T10:13:15.000Z</time>
      </trkpt>
      <trkpt lat="45.08026" lon="6.15965">
        <ele>1361.4</ele>
        <time>2020-08-26T10:13:16.000Z</time>
      </trkpt>
      <trkpt lat="45.08031" lon="6.15969">
        <ele>1361.6</ele>
        <time>2020-08-26T10:13:17.000Z</time>
      </trkpt>
      <trkpt lat="45.08034" lon="6.15973">
        <ele>1361.6</ele>
        <time>2020-08-26T10:13:18.000Z</time>
      </trkpt>
      <trkpt lat="45.08038" lon="6.15976">
        <ele>1361.6</ele>
        <time>2020-08-26T10:13:19.000Z</time>
      </trkpt>
      <trkpt lat="45.08041" lon="6.1598">
        <ele>1361.8</ele>
        <time>2020-08-26T10:13:20.000Z</time>
      </trkpt>
      <trkpt lat="45.08046" lon="6.15984">
        <ele>1361.8</ele>
        <time>2020-08-26T10:13:21.000Z</time>
      </trkpt>
      <trkpt lat="45.0805" lon="6.15988">
        <ele>1362</ele>
        <time>2020-08-26T10:13:22.000Z</time>
      </trkpt>
      <trkpt lat="45.08056" lon="6.15992">
        <ele>1362.2</ele>
        <time>2020-08-26T10:13:23.000Z</time>
      </trkpt>
      <trkpt lat="45.0806" lon="6.15996">
        <ele>1362.4</ele>
        <time>2020-08-26T10:13:24.000Z</time>
      </trkpt>
      <trkpt lat="45.08064" lon="6.16">
        <ele>1362.6</ele>
        <time>2020-08-26T10:13:25.000Z</time>
      </trkpt>
      <trkpt lat="45.08068" lon="6.16003">
        <ele>1363</ele>
        <time>2020-08-26T10:13:26.000Z</time>
      </trkpt>
      <trkpt lat="45.08072" lon="6.16007">
        <ele>1363.2</ele>
        <time>2020-08-26T10:13:27.000Z</time>
      </trkpt>
      <trkpt lat="45.08077" lon="6.16011">
        <ele>1363.4</ele>
        <time>2020-08-26T10:13:28.000Z</time>
      </trkpt>
      <trkpt lat="45.08081" lon="6.16014">
        <ele>1363.6</ele>
        <time>2020-08-26T10:13:29.000Z</time>
      </trkpt>
      <trkpt lat="45.08085" lon="6.16018">
        <ele>1364</ele>
        <time>2020-08-26T10:13:30.000Z</time>
      </trkpt>
      <trkpt lat="45.08089" lon="6.16022">
        <ele>1364.2</ele>
        <time>2020-08-26T10:13:31.000Z</time>
      </trkpt>
      <trkpt lat="45.08093" lon="6.16026">
        <ele>1364.4</ele>
        <time>2020-08-26T10:13:32.000Z</time>
      </trkpt>
      <trkpt lat="45.08096" lon="6.1603">
        <ele>1364.4</ele>
        <time>2020-08-26T10:13:33.000Z</time>
      </trkpt>
      <trkpt lat="45.081" lon="6.16034">
        <ele>1364.6</ele>
        <time>2020-08-26T10:13:34.000Z</time>
      </trkpt>
      <trkpt lat="45.08105" lon="6.16038">
        <ele>1364.6</ele>
        <time>2020-08-26T10:13:35.000Z</time>
      </trkpt>
      <trkpt lat="45.08109" lon="6.16042">
        <ele>1364.8</ele>
        <time>2020-08-26T10:13:36.000Z</time>
      </trkpt>
      <trkpt lat="45.08113" lon="6.16046">
        <ele>1365</ele>
        <time>2020-08-26T10:13:37.000Z</time>
      </trkpt>
      <trkpt lat="45.08117" lon="6.16049">
        <ele>1365.2</ele>
        <time>2020-08-26T10:13:38.000Z</time>
      </trkpt>
      <trkpt lat="45.08122" lon="6.16053">
        <ele>1365.4</ele>
        <time>2020-08-26T10:13:39.000Z</time>
      </trkpt>
      <trkpt lat="45.08126" lon="6.16057">
        <ele>1365.6</ele>
        <time>2020-08-26T10:13:40.000Z</time>
      </trkpt>
      <trkpt lat="45.0813" lon="6.16061">
        <ele>1365.8</ele>
        <time>2020-08-26T10:13:41.000Z</time>
      </trkpt>
      <trkpt lat="45.08134" lon="6.16065">
        <ele>1365.8</ele>
        <time>2020-08-26T10:13:42.000Z</time>
      </trkpt>
      <trkpt lat="45.08138" lon="6.16069">
        <ele>1366</ele>
        <time>2020-08-26T10:13:43.000Z</time>
      </trkpt>
      <trkpt lat="45.08142" lon="6.16072">
        <ele>1366.2</ele>
        <time>2020-08-26T10:13:44.000Z</time>
      </trkpt>
      <trkpt lat="45.08146" lon="6.16076">
        <ele>1366.4</ele>
        <time>2020-08-26T10:13:45.000Z</time>
      </trkpt>
      <trkpt lat="45.08151" lon="6.16079">
        <ele>1366.6</ele>
        <time>2020-08-26T10:13:46.000Z</time>
      </trkpt>
      <trkpt lat="45.08155" lon="6.16082">
        <ele>1366.8</ele>
        <time>2020-08-26T10:13:47.000Z</time>
      </trkpt>
      <trkpt lat="45.08159" lon="6.16086">
        <ele>1366.8</ele>
        <time>2020-08-26T10:13:48.000Z</time>
      </trkpt>
      <trkpt lat="45.08163" lon="6.16089">
        <ele>1366.8</ele>
        <time>2020-08-26T10:13:49.000Z</time>
      </trkpt>
      <trkpt lat="45.08167" lon="6.16092">
        <ele>1367</ele>
        <time>2020-08-26T10:13:50.000Z</time>
      </trkpt>
      <trkpt lat="45.08171" lon="6.16095">
        <ele>1367.4</ele>
        <time>2020-08-26T10:13:51.000Z</time>
      </trkpt>
      <trkpt lat="45.08175" lon="6.16097">
        <ele>1367.6</ele>
        <time>2020-08-26T10:13:52.000Z</time>
      </trkpt>
      <trkpt lat="45.08179" lon="6.161">
        <ele>1367.6</ele>
        <time>2020-08-26T10:13:53.000Z</time>
      </trkpt>
      <trkpt lat="45.08183" lon="6.16103">
        <ele>1367.8</ele>
        <time>2020-08-26T10:13:54.000Z</time>
      </trkpt>
      <trkpt lat="45.08187" lon="6.16105">
        <ele>1367.8</ele>
        <time>2020-08-26T10:13:55.000Z</time>
      </trkpt>
      <trkpt lat="45.08191" lon="6.16108">
        <ele>1368</ele>
        <time>2020-08-26T10:13:56.000Z</time>
      </trkpt>
      <trkpt lat="45.08195" lon="6.16111">
        <ele>1368.2</ele>
        <time>2020-08-26T10:13:57.000Z</time>
      </trkpt>
      <trkpt lat="45.08199" lon="6.16115">
        <ele>1368.6</ele>
        <time>2020-08-26T10:13:58.000Z</time>
      </trkpt>
      <trkpt lat="45.08203" lon="6.16117">
        <ele>1368.8</ele>
        <time>2020-08-26T10:13:59.000Z</time>
      </trkpt>
      <trkpt lat="45.08207" lon="6.1612">
        <ele>1369</ele>
        <time>2020-08-26T10:14:00.000Z</time>
      </trkpt>
      <trkpt lat="45.08211" lon="6.16123">
        <ele>1369.2</ele>
        <time>2020-08-26T10:14:01.000Z</time>
      </trkpt>
      <trkpt lat="45.08214" lon="6.16126">
        <ele>1369.4</ele>
        <time>2020-08-26T10:14:02.000Z</time>
      </trkpt>
      <trkpt lat="45.08218" lon="6.16129">
        <ele>1369.6</ele>
        <time>2020-08-26T10:14:03.000Z</time>
      </trkpt>
      <trkpt lat="45.08223" lon="6.16132">
        <ele>1369.8</ele>
        <time>2020-08-26T10:14:04.000Z</time>
      </trkpt>
      <trkpt lat="45.08227" lon="6.16136">
        <ele>1370</ele>
        <time>2020-08-26T10:14:05.000Z</time>
      </trkpt>
      <trkpt lat="45.0823" lon="6.16139">
        <ele>1370</ele>
        <time>2020-08-26T10:14:06.000Z</time>
      </trkpt>
      <trkpt lat="45.08234" lon="6.16142">
        <ele>1370.2</ele>
        <time>2020-08-26T10:14:07.000Z</time>
      </trkpt>
      <trkpt lat="45.08238" lon="6.16142">
        <ele>1370.2</ele>
        <time>2020-08-26T10:14:08.000Z</time>
      </trkpt>
      <trkpt lat="45.08241" lon="6.1614">
        <ele>1370.4</ele>
        <time>2020-08-26T10:14:09.000Z</time>
      </trkpt>
      <trkpt lat="45.08243" lon="6.16136">
        <ele>1370.6</ele>
        <time>2020-08-26T10:14:10.000Z</time>
      </trkpt>
      <trkpt lat="45.08241" lon="6.16132">
        <ele>1370.6</ele>
        <time>2020-08-26T10:14:11.000Z</time>
      </trkpt>
      <trkpt lat="45.08238" lon="6.16129">
        <ele>1370.6</ele>
        <time>2020-08-26T10:14:12.000Z</time>
      </trkpt>
      <trkpt lat="45.08233" lon="6.16126">
        <ele>1370.8</ele>
        <time>2020-08-26T10:14:13.000Z</time>
      </trkpt>
      <trkpt lat="45.08229" lon="6.16124">
        <ele>1370.8</ele>
        <time>2020-08-26T10:14:14.000Z</time>
      </trkpt>
      <trkpt lat="45.08226" lon="6.16121">
        <ele>1370.8</ele>
        <time>2020-08-26T10:14:15.000Z</time>
      </trkpt>
      <trkpt lat="45.08223" lon="6.16118">
        <ele>1371</ele>
        <time>2020-08-26T10:14:16.000Z</time>
      </trkpt>
      <trkpt lat="45.0822" lon="6.16114">
        <ele>1371</ele>
        <time>2020-08-26T10:14:17.000Z</time>
      </trkpt>
      <trkpt lat="45.08217" lon="6.16111">
        <ele>1371.2</ele>
        <time>2020-08-26T10:14:18.000Z</time>
      </trkpt>
      <trkpt lat="45.08214" lon="6.16108">
        <ele>1371.4</ele>
        <time>2020-08-26T10:14:19.000Z</time>
      </trkpt>
      <trkpt lat="45.08211" lon="6.16105">
        <ele>1371.4</ele>
        <time>2020-08-26T10:14:20.000Z</time>
      </trkpt>
      <trkpt lat="45.08208" lon="6.16102">
        <ele>1371.6</ele>
        <time>2020-08-26T10:14:21.000Z</time>
      </trkpt>
      <trkpt lat="45.08205" lon="6.161">
        <ele>1371.6</ele>
        <time>2020-08-26T10:14:22.000Z</time>
      </trkpt>
      <trkpt lat="45.08203" lon="6.16097">
        <ele>1372</ele>
        <time>2020-08-26T10:14:23.000Z</time>
      </trkpt>
      <trkpt lat="45.082" lon="6.16094">
        <ele>1372.2</ele>
        <time>2020-08-26T10:14:24.000Z</time>
      </trkpt>
      <trkpt lat="45.08197" lon="6.16091">
        <ele>1372.4</ele>
        <time>2020-08-26T10:14:25.000Z</time>
      </trkpt>
      <trkpt lat="45.08195" lon="6.16088">
        <ele>1372.8</ele>
        <time>2020-08-26T10:14:26.000Z</time>
      </trkpt>
      <trkpt lat="45.08192" lon="6.16085">
        <ele>1373.2</ele>
        <time>2020-08-26T10:14:27.000Z</time>
      </trkpt>
      <trkpt lat="45.0819" lon="6.16081">
        <ele>1373.2</ele>
        <time>2020-08-26T10:14:28.000Z</time>
      </trkpt>
      <trkpt lat="45.08187" lon="6.16078">
        <ele>1373.8</ele>
        <time>2020-08-26T10:14:29.000Z</time>
      </trkpt>
      <trkpt lat="45.08185" lon="6.16074">
        <ele>1374</ele>
        <time>2020-08-26T10:14:30.000Z</time>
      </trkpt>
      <trkpt lat="45.08183" lon="6.16071">
        <ele>1374.4</ele>
        <time>2020-08-26T10:14:31.000Z</time>
      </trkpt>
      <trkpt lat="45.0818" lon="6.16067">
        <ele>1374.6</ele>
        <time>2020-08-26T10:14:32.000Z</time>
      </trkpt>
      <trkpt lat="45.08178" lon="6.16064">
        <ele>1374.8</ele>
        <time>2020-08-26T10:14:33.000Z</time>
      </trkpt>
      <trkpt lat="45.08176" lon="6.1606">
        <ele>1375</ele>
        <time>2020-08-26T10:14:34.000Z</time>
      </trkpt>
      <trkpt lat="45.08174" lon="6.16057">
        <ele>1375.2</ele>
        <time>2020-08-26T10:14:35.000Z</time>
      </trkpt>
      <trkpt lat="45.08172" lon="6.16053">
        <ele>1375.6</ele>
        <time>2020-08-26T10:14:36.000Z</time>
      </trkpt>
      <trkpt lat="45.0817" lon="6.1605">
        <ele>1375.8</ele>
        <time>2020-08-26T10:14:37.000Z</time>
      </trkpt>
      <trkpt lat="45.08168" lon="6.16046">
        <ele>1376.2</ele>
        <time>2020-08-26T10:14:38.000Z</time>
      </trkpt>
      <trkpt lat="45.08167" lon="6.16042">
        <ele>1376.4</ele>
        <time>2020-08-26T10:14:39.000Z</time>
      </trkpt>
      <trkpt lat="45.08165" lon="6.16037">
        <ele>1376.6</ele>
        <time>2020-08-26T10:14:40.000Z</time>
      </trkpt>
      <trkpt lat="45.08164" lon="6.16033">
        <ele>1376.6</ele>
        <time>2020-08-26T10:14:41.000Z</time>
      </trkpt>
      <trkpt lat="45.08162" lon="6.16029">
        <ele>1376.8</ele>
        <time>2020-08-26T10:14:42.000Z</time>
      </trkpt>
      <trkpt lat="45.08161" lon="6.16025">
        <ele>1377</ele>
        <time>2020-08-26T10:14:43.000Z</time>
      </trkpt>
      <trkpt lat="45.08159" lon="6.16021">
        <ele>1377.4</ele>
        <time>2020-08-26T10:14:44.000Z</time>
      </trkpt>
      <trkpt lat="45.08158" lon="6.16018">
        <ele>1377.6</ele>
        <time>2020-08-26T10:14:45.000Z</time>
      </trkpt>
      <trkpt lat="45.08157" lon="6.16014">
        <ele>1378</ele>
        <time>2020-08-26T10:14:46.000Z</time>
      </trkpt>
      <trkpt lat="45.08156" lon="6.1601">
        <ele>1378.4</ele>
        <time>2020-08-26T10:14:47.000Z</time>
      </trkpt>
      <trkpt lat="45.08155" lon="6.16006">
        <ele>1378.6</ele>
        <time>2020-08-26T10:14:48.000Z</time>
      </trkpt>
      <trkpt lat="45.08153" lon="6.16002">
        <ele>1378.8</ele>
        <time>2020-08-26T10:14:49.000Z</time>
      </trkpt>
      <trkpt lat="45.08152" lon="6.15999">
        <ele>1379</ele>
        <time>2020-08-26T10:14:50.000Z</time>
      </trkpt>
      <trkpt lat="45.08151" lon="6.15995">
        <ele>1379.2</ele>
        <time>2020-08-26T10:14:51.000Z</time>
      </trkpt>
      <trkpt lat="45.0815" lon="6.15991">
        <ele>1379.4</ele>
        <time>2020-08-26T10:14:52.000Z</time>
      </trkpt>
      <trkpt lat="45.08148" lon="6.15987">
        <ele>1379.8</ele>
        <time>2020-08-26T10:14:53.000Z</time>
      </trkpt>
      <trkpt lat="45.08147" lon="6.15983">
        <ele>1380</ele>
        <time>2020-08-26T10:14:54.000Z</time>
      </trkpt>
      <trkpt lat="45.08145" lon="6.1598">
        <ele>1380</ele>
        <time>2020-08-26T10:14:55.000Z</time>
      </trkpt>
      <trkpt lat="45.08144" lon="6.15977">
        <ele>1380.2</ele>
        <time>2020-08-26T10:14:56.000Z</time>
      </trkpt>
      <trkpt lat="45.08142" lon="6.15973">
        <ele>1380.4</ele>
        <time>2020-08-26T10:14:57.000Z</time>
      </trkpt>
      <trkpt lat="45.0814" lon="6.1597">
        <ele>1381</ele>
        <time>2020-08-26T10:14:58.000Z</time>
      </trkpt>
      <trkpt lat="45.08138" lon="6.15966">
        <ele>1381.6</ele>
        <time>2020-08-26T10:14:59.000Z</time>
      </trkpt>
      <trkpt lat="45.08136" lon="6.15963">
        <ele>1382.2</ele>
        <time>2020-08-26T10:15:00.000Z</time>
      </trkpt>
      <trkpt lat="45.08133" lon="6.1596">
        <ele>1382.4</ele>
        <time>2020-08-26T10:15:01.000Z</time>
      </trkpt>
      <trkpt lat="45.08131" lon="6.15957">
        <ele>1382.6</ele>
        <time>2020-08-26T10:15:02.000Z</time>
      </trkpt>
      <trkpt lat="45.08129" lon="6.15954">
        <ele>1383</ele>
        <time>2020-08-26T10:15:03.000Z</time>
      </trkpt>
      <trkpt lat="45.08129" lon="6.1595">
        <ele>1383</ele>
        <time>2020-08-26T10:15:04.000Z</time>
      </trkpt>
      <trkpt lat="45.08129" lon="6.15947">
        <ele>1383.2</ele>
        <time>2020-08-26T10:15:05.000Z</time>
      </trkpt>
      <trkpt lat="45.08131" lon="6.15943">
        <ele>1383.4</ele>
        <time>2020-08-26T10:15:06.000Z</time>
      </trkpt>
      <trkpt lat="45.08134" lon="6.15943">
        <ele>1383.6</ele>
        <time>2020-08-26T10:15:07.000Z</time>
      </trkpt>
      <trkpt lat="45.08137" lon="6.15944">
        <ele>1383.6</ele>
        <time>2020-08-26T10:15:08.000Z</time>
      </trkpt>
      <trkpt lat="45.0814" lon="6.15946">
        <ele>1383.8</ele>
        <time>2020-08-26T10:15:09.000Z</time>
      </trkpt>
      <trkpt lat="45.08142" lon="6.15949">
        <ele>1384.2</ele>
        <time>2020-08-26T10:15:10.000Z</time>
      </trkpt>
      <trkpt lat="45.08144" lon="6.15952">
        <ele>1384.6</ele>
        <time>2020-08-26T10:15:11.000Z</time>
      </trkpt>
      <trkpt lat="45.08146" lon="6.15955">
        <ele>1384.8</ele>
        <time>2020-08-26T10:15:12.000Z</time>
      </trkpt>
      <trkpt lat="45.08149" lon="6.15959">
        <ele>1385.2</ele>
        <time>2020-08-26T10:15:13.000Z</time>
      </trkpt>
      <trkpt lat="45.08151" lon="6.15962">
        <ele>1385.4</ele>
        <time>2020-08-26T10:15:14.000Z</time>
      </trkpt>
      <trkpt lat="45.08153" lon="6.15966">
        <ele>1385.6</ele>
        <time>2020-08-26T10:15:15.000Z</time>
      </trkpt>
      <trkpt lat="45.08155" lon="6.15969">
        <ele>1385.8</ele>
        <time>2020-08-26T10:15:16.000Z</time>
      </trkpt>
      <trkpt lat="45.08157" lon="6.15973">
        <ele>1385.8</ele>
        <time>2020-08-26T10:15:17.000Z</time>
      </trkpt>
      <trkpt lat="45.08159" lon="6.15976">
        <ele>1385.8</ele>
        <time>2020-08-26T10:15:18.000Z</time>
      </trkpt>
      <trkpt lat="45.08161" lon="6.15979">
        <ele>1386</ele>
        <time>2020-08-26T10:15:19.000Z</time>
      </trkpt>
      <trkpt lat="45.08163" lon="6.15983">
        <ele>1386</ele>
        <time>2020-08-26T10:15:20.000Z</time>
      </trkpt>
      <trkpt lat="45.08165" lon="6.15986">
        <ele>1386.2</ele>
        <time>2020-08-26T10:15:21.000Z</time>
      </trkpt>
      <trkpt lat="45.08167" lon="6.15989">
        <ele>1386.4</ele>
        <time>2020-08-26T10:15:22.000Z</time>
      </trkpt>
      <trkpt lat="45.08169" lon="6.15993">
        <ele>1386.4</ele>
        <time>2020-08-26T10:15:23.000Z</time>
      </trkpt>
      <trkpt lat="45.08172" lon="6.15996">
        <ele>1386.4</ele>
        <time>2020-08-26T10:15:24.000Z</time>
      </trkpt>
      <trkpt lat="45.08174" lon="6.15999">
        <ele>1386.6</ele>
        <time>2020-08-26T10:15:25.000Z</time>
      </trkpt>
      <trkpt lat="45.08176" lon="6.16001">
        <ele>1387.2</ele>
        <time>2020-08-26T10:15:26.000Z</time>
      </trkpt>
      <trkpt lat="45.08179" lon="6.16004">
        <ele>1387.6</ele>
        <time>2020-08-26T10:15:27.000Z</time>
      </trkpt>
      <trkpt lat="45.08181" lon="6.16007">
        <ele>1387.8</ele>
        <time>2020-08-26T10:15:28.000Z</time>
      </trkpt>
      <trkpt lat="45.08184" lon="6.16009">
        <ele>1388.2</ele>
        <time>2020-08-26T10:15:29.000Z</time>
      </trkpt>
      <trkpt lat="45.08186" lon="6.16011">
        <ele>1388.4</ele>
        <time>2020-08-26T10:15:30.000Z</time>
      </trkpt>
      <trkpt lat="45.08189" lon="6.16013">
        <ele>1388.8</ele>
        <time>2020-08-26T10:15:31.000Z</time>
      </trkpt>
      <trkpt lat="45.08192" lon="6.16015">
        <ele>1389</ele>
        <time>2020-08-26T10:15:32.000Z</time>
      </trkpt>
      <trkpt lat="45.08195" lon="6.16016">
        <ele>1389.2</ele>
        <time>2020-08-26T10:15:33.000Z</time>
      </trkpt>
      <trkpt lat="45.08197" lon="6.16018">
        <ele>1389.4</ele>
        <time>2020-08-26T10:15:34.000Z</time>
      </trkpt>
      <trkpt lat="45.082" lon="6.16019">
        <ele>1389.6</ele>
        <time>2020-08-26T10:15:35.000Z</time>
      </trkpt>
      <trkpt lat="45.08203" lon="6.16021">
        <ele>1390</ele>
        <time>2020-08-26T10:15:36.000Z</time>
      </trkpt>
      <trkpt lat="45.08206" lon="6.16022">
        <ele>1390.2</ele>
        <time>2020-08-26T10:15:37.000Z</time>
      </trkpt>
      <trkpt lat="45.08209" lon="6.16024">
        <ele>1390.4</ele>
        <time>2020-08-26T10:15:38.000Z</time>
      </trkpt>
      <trkpt lat="45.08211" lon="6.16025">
        <ele>1390.6</ele>
        <time>2020-08-26T10:15:39.000Z</time>
      </trkpt>
      <trkpt lat="45.08214" lon="6.16026">
        <ele>1390.8</ele>
        <time>2020-08-26T10:15:40.000Z</time>
      </trkpt>
      <trkpt lat="45.08217" lon="6.16026">
        <ele>1390.8</ele>
        <time>2020-08-26T10:15:41.000Z</time>
      </trkpt>
      <trkpt lat="45.0822" lon="6.16027">
        <ele>1391</ele>
        <time>2020-08-26T10:15:42.000Z</time>
      </trkpt>
      <trkpt lat="45.08223" lon="6.16027">
        <ele>1391.2</ele>
        <time>2020-08-26T10:15:43.000Z</time>
      </trkpt>
      <trkpt lat="45.08226" lon="6.16028">
        <ele>1391.6</ele>
        <time>2020-08-26T10:15:44.000Z</time>
      </trkpt>
      <trkpt lat="45.08229" lon="6.16028">
        <ele>1392</ele>
        <time>2020-08-26T10:15:45.000Z</time>
      </trkpt>
      <trkpt lat="45.08232" lon="6.16029">
        <ele>1392.2</ele>
        <time>2020-08-26T10:15:46.000Z</time>
      </trkpt>
      <trkpt lat="45.08235" lon="6.16029">
        <ele>1392.6</ele>
        <time>2020-08-26T10:15:47.000Z</time>
      </trkpt>
      <trkpt lat="45.08238" lon="6.16029">
        <ele>1393</ele>
        <time>2020-08-26T10:15:48.000Z</time>
      </trkpt>
      <trkpt lat="45.08241" lon="6.16029">
        <ele>1393.2</ele>
        <time>2020-08-26T10:15:49.000Z</time>
      </trkpt>
      <trkpt lat="45.08244" lon="6.16029">
        <ele>1393.4</ele>
        <time>2020-08-26T10:15:50.000Z</time>
      </trkpt>
      <trkpt lat="45.08246" lon="6.16029">
        <ele>1393.8</ele>
        <time>2020-08-26T10:15:51.000Z</time>
      </trkpt>
      <trkpt lat="45.08249" lon="6.16029">
        <ele>1394</ele>
        <time>2020-08-26T10:15:52.000Z</time>
      </trkpt>
      <trkpt lat="45.08252" lon="6.16029">
        <ele>1394.2</ele>
        <time>2020-08-26T10:15:53.000Z</time>
      </trkpt>
      <trkpt lat="45.08255" lon="6.16029">
        <ele>1394.4</ele>
        <time>2020-08-26T10:15:54.000Z</time>
      </trkpt>
      <trkpt lat="45.08258" lon="6.16029">
        <ele>1394.8</ele>
        <time>2020-08-26T10:15:55.000Z</time>
      </trkpt>
      <trkpt lat="45.08261" lon="6.16029">
        <ele>1395</ele>
        <time>2020-08-26T10:15:56.000Z</time>
      </trkpt>
      <trkpt lat="45.08264" lon="6.16029">
        <ele>1395.2</ele>
        <time>2020-08-26T10:15:57.000Z</time>
      </trkpt>
      <trkpt lat="45.08267" lon="6.16029">
        <ele>1395.4</ele>
        <time>2020-08-26T10:15:58.000Z</time>
      </trkpt>
      <trkpt lat="45.0827" lon="6.1603">
        <ele>1395.6</ele>
        <time>2020-08-26T10:15:59.000Z</time>
      </trkpt>
      <trkpt lat="45.08273" lon="6.1603">
        <ele>1395.8</ele>
        <time>2020-08-26T10:16:00.000Z</time>
      </trkpt>
      <trkpt lat="45.08276" lon="6.16031">
        <ele>1396</ele>
        <time>2020-08-26T10:16:01.000Z</time>
      </trkpt>
      <trkpt lat="45.08278" lon="6.16032">
        <ele>1396</ele>
        <time>2020-08-26T10:16:02.000Z</time>
      </trkpt>
      <trkpt lat="45.08281" lon="6.16032">
        <ele>1396</ele>
        <time>2020-08-26T10:16:03.000Z</time>
      </trkpt>
      <trkpt lat="45.08284" lon="6.16033">
        <ele>1396.2</ele>
        <time>2020-08-26T10:16:04.000Z</time>
      </trkpt>
      <trkpt lat="45.08287" lon="6.16034">
        <ele>1396.4</ele>
        <time>2020-08-26T10:16:05.000Z</time>
      </trkpt>
      <trkpt lat="45.08289" lon="6.16036">
        <ele>1396.8</ele>
        <time>2020-08-26T10:16:06.000Z</time>
      </trkpt>
      <trkpt lat="45.08292" lon="6.16037">
        <ele>1397.2</ele>
        <time>2020-08-26T10:16:07.000Z</time>
      </trkpt>
      <trkpt lat="45.08295" lon="6.16039">
        <ele>1397.4</ele>
        <time>2020-08-26T10:16:08.000Z</time>
      </trkpt>
      <trkpt lat="45.08298" lon="6.1604">
        <ele>1397.6</ele>
        <time>2020-08-26T10:16:09.000Z</time>
      </trkpt>
      <trkpt lat="45.08301" lon="6.16042">
        <ele>1398</ele>
        <time>2020-08-26T10:16:10.000Z</time>
      </trkpt>
      <trkpt lat="45.08304" lon="6.16044">
        <ele>1398.2</ele>
        <time>2020-08-26T10:16:11.000Z</time>
      </trkpt>
      <trkpt lat="45.08306" lon="6.16046">
        <ele>1398.4</ele>
        <time>2020-08-26T10:16:12.000Z</time>
      </trkpt>
      <trkpt lat="45.08309" lon="6.16048">
        <ele>1398.8</ele>
        <time>2020-08-26T10:16:13.000Z</time>
      </trkpt>
      <trkpt lat="45.08312" lon="6.1605">
        <ele>1399</ele>
        <time>2020-08-26T10:16:14.000Z</time>
      </trkpt>
      <trkpt lat="45.08315" lon="6.16052">
        <ele>1399.2</ele>
        <time>2020-08-26T10:16:15.000Z</time>
      </trkpt>
      <trkpt lat="45.08318" lon="6.16055">
        <ele>1399.4</ele>
        <time>2020-08-26T10:16:16.000Z</time>
      </trkpt>
      <trkpt lat="45.08321" lon="6.16057">
        <ele>1399.6</ele>
        <time>2020-08-26T10:16:17.000Z</time>
      </trkpt>
      <trkpt lat="45.08323" lon="6.1606">
        <ele>1400</ele>
        <time>2020-08-26T10:16:18.000Z</time>
      </trkpt>
      <trkpt lat="45.08326" lon="6.16062">
        <ele>1400.2</ele>
        <time>2020-08-26T10:16:19.000Z</time>
      </trkpt>
      <trkpt lat="45.08329" lon="6.16064">
        <ele>1400.4</ele>
        <time>2020-08-26T10:16:20.000Z</time>
      </trkpt>
      <trkpt lat="45.08331" lon="6.16067">
        <ele>1400.6</ele>
        <time>2020-08-26T10:16:21.000Z</time>
      </trkpt>
      <trkpt lat="45.08334" lon="6.16069">
        <ele>1400.8</ele>
        <time>2020-08-26T10:16:22.000Z</time>
      </trkpt>
      <trkpt lat="45.08336" lon="6.16072">
        <ele>1401.4</ele>
        <time>2020-08-26T10:16:23.000Z</time>
      </trkpt>
      <trkpt lat="45.08339" lon="6.16074">
        <ele>1401.6</ele>
        <time>2020-08-26T10:16:24.000Z</time>
      </trkpt>
      <trkpt lat="45.08342" lon="6.16077">
        <ele>1401.8</ele>
        <time>2020-08-26T10:16:25.000Z</time>
      </trkpt>
      <trkpt lat="45.08344" lon="6.1608">
        <ele>1402</ele>
        <time>2020-08-26T10:16:26.000Z</time>
      </trkpt>
      <trkpt lat="45.08347" lon="6.16082">
        <ele>1402</ele>
        <time>2020-08-26T10:16:27.000Z</time>
      </trkpt>
      <trkpt lat="45.08349" lon="6.16085">
        <ele>1402.4</ele>
        <time>2020-08-26T10:16:28.000Z</time>
      </trkpt>
      <trkpt lat="45.08352" lon="6.16087">
        <ele>1402.6</ele>
        <time>2020-08-26T10:16:29.000Z</time>
      </trkpt>
      <trkpt lat="45.08355" lon="6.1609">
        <ele>1402.6</ele>
        <time>2020-08-26T10:16:30.000Z</time>
      </trkpt>
      <trkpt lat="45.08357" lon="6.16092">
        <ele>1402.8</ele>
        <time>2020-08-26T10:16:31.000Z</time>
      </trkpt>
      <trkpt lat="45.0836" lon="6.16095">
        <ele>1403</ele>
        <time>2020-08-26T10:16:32.000Z</time>
      </trkpt>
      <trkpt lat="45.08363" lon="6.16097">
        <ele>1403.2</ele>
        <time>2020-08-26T10:16:33.000Z</time>
      </trkpt>
      <trkpt lat="45.08366" lon="6.161">
        <ele>1403.4</ele>
        <time>2020-08-26T10:16:34.000Z</time>
      </trkpt>
      <trkpt lat="45.08369" lon="6.16103">
        <ele>1403.4</ele>
        <time>2020-08-26T10:16:35.000Z</time>
      </trkpt>
      <trkpt lat="45.08372" lon="6.16105">
        <ele>1403.6</ele>
        <time>2020-08-26T10:16:36.000Z</time>
      </trkpt>
      <trkpt lat="45.08375" lon="6.16108">
        <ele>1404</ele>
        <time>2020-08-26T10:16:37.000Z</time>
      </trkpt>
      <trkpt lat="45.08378" lon="6.1611">
        <ele>1404</ele>
        <time>2020-08-26T10:16:38.000Z</time>
      </trkpt>
      <trkpt lat="45.08381" lon="6.16112">
        <ele>1404.2</ele>
        <time>2020-08-26T10:16:39.000Z</time>
      </trkpt>
      <trkpt lat="45.08384" lon="6.16114">
        <ele>1404.4</ele>
        <time>2020-08-26T10:16:40.000Z</time>
      </trkpt>
      <trkpt lat="45.08387" lon="6.16116">
        <ele>1404.4</ele>
        <time>2020-08-26T10:16:41.000Z</time>
      </trkpt>
      <trkpt lat="45.0839" lon="6.16118">
        <ele>1404.6</ele>
        <time>2020-08-26T10:16:42.000Z</time>
      </trkpt>
      <trkpt lat="45.08393" lon="6.1612">
        <ele>1404.6</ele>
        <time>2020-08-26T10:16:43.000Z</time>
      </trkpt>
      <trkpt lat="45.08396" lon="6.16121">
        <ele>1404.8</ele>
        <time>2020-08-26T10:16:44.000Z</time>
      </trkpt>
      <trkpt lat="45.08399" lon="6.16122">
        <ele>1405</ele>
        <time>2020-08-26T10:16:45.000Z</time>
      </trkpt>
      <trkpt lat="45.08402" lon="6.16123">
        <ele>1405</ele>
        <time>2020-08-26T10:16:46.000Z</time>
      </trkpt>
      <trkpt lat="45.08405" lon="6.16123">
        <ele>1405.2</ele>
        <time>2020-08-26T10:16:47.000Z</time>
      </trkpt>
      <trkpt lat="45.08408" lon="6.16124">
        <ele>1405.4</ele>
        <time>2020-08-26T10:16:48.000Z</time>
      </trkpt>
      <trkpt lat="45.08411" lon="6.16125">
        <ele>1405.6</ele>
        <time>2020-08-26T10:16:49.000Z</time>
      </trkpt>
      <trkpt lat="45.08414" lon="6.16125">
        <ele>1405.8</ele>
        <time>2020-08-26T10:16:50.000Z</time>
      </trkpt>
      <trkpt lat="45.08417" lon="6.16126">
        <ele>1406.2</ele>
        <time>2020-08-26T10:16:51.000Z</time>
      </trkpt>
      <trkpt lat="45.08419" lon="6.16127">
        <ele>1406.6</ele>
        <time>2020-08-26T10:16:52.000Z</time>
      </trkpt>
      <trkpt lat="45.08422" lon="6.16128">
        <ele>1407</ele>
        <time>2020-08-26T10:16:53.000Z</time>
      </trkpt>
      <trkpt lat="45.08425" lon="6.16128">
        <ele>1407.4</ele>
        <time>2020-08-26T10:16:54.000Z</time>
      </trkpt>
      <trkpt lat="45.08428" lon="6.16128">
        <ele>1407.6</ele>
        <time>2020-08-26T10:16:55.000Z</time>
      </trkpt>
      <trkpt lat="45.08431" lon="6.16129">
        <ele>1408</ele>
        <time>2020-08-26T10:16:56.000Z</time>
      </trkpt>
      <trkpt lat="45.08434" lon="6.16128">
        <ele>1408.2</ele>
        <time>2020-08-26T10:16:57.000Z</time>
      </trkpt>
      <trkpt lat="45.08437" lon="6.16128">
        <ele>1408.6</ele>
        <time>2020-08-26T10:16:58.000Z</time>
      </trkpt>
      <trkpt lat="45.0844" lon="6.16128">
        <ele>1409</ele>
        <time>2020-08-26T10:16:59.000Z</time>
      </trkpt>
      <trkpt lat="45.08443" lon="6.16127">
        <ele>1409.2</ele>
        <time>2020-08-26T10:17:00.000Z</time>
      </trkpt>
      <trkpt lat="45.08446" lon="6.16127">
        <ele>1409.4</ele>
        <time>2020-08-26T10:17:01.000Z</time>
      </trkpt>
      <trkpt lat="45.08449" lon="6.16127">
        <ele>1409.6</ele>
        <time>2020-08-26T10:17:02.000Z</time>
      </trkpt>
      <trkpt lat="45.08452" lon="6.16127">
        <ele>1410</ele>
        <time>2020-08-26T10:17:03.000Z</time>
      </trkpt>
      <trkpt lat="45.08455" lon="6.16126">
        <ele>1410.2</ele>
        <time>2020-08-26T10:17:04.000Z</time>
      </trkpt>
      <trkpt lat="45.08458" lon="6.16126">
        <ele>1410.6</ele>
        <time>2020-08-26T10:17:05.000Z</time>
      </trkpt>
      <trkpt lat="45.08461" lon="6.16125">
        <ele>1410.8</ele>
        <time>2020-08-26T10:17:06.000Z</time>
      </trkpt>
      <trkpt lat="45.08464" lon="6.16125">
        <ele>1411</ele>
        <time>2020-08-26T10:17:07.000Z</time>
      </trkpt>
      <trkpt lat="45.08467" lon="6.16124">
        <ele>1411.2</ele>
        <time>2020-08-26T10:17:08.000Z</time>
      </trkpt>
      <trkpt lat="45.0847" lon="6.16123">
        <ele>1411.4</ele>
        <time>2020-08-26T10:17:09.000Z</time>
      </trkpt>
      <trkpt lat="45.08473" lon="6.16123">
        <ele>1411.6</ele>
        <time>2020-08-26T10:17:10.000Z</time>
      </trkpt>
      <trkpt lat="45.08476" lon="6.16122">
        <ele>1412</ele>
        <time>2020-08-26T10:17:11.000Z</time>
      </trkpt>
      <trkpt lat="45.08479" lon="6.16121">
        <ele>1412.2</ele>
        <time>2020-08-26T10:17:12.000Z</time>
      </trkpt>
      <trkpt lat="45.08482" lon="6.16121">
        <ele>1412.6</ele>
        <time>2020-08-26T10:17:13.000Z</time>
      </trkpt>
      <trkpt lat="45.08485" lon="6.1612">
        <ele>1412.8</ele>
        <time>2020-08-26T10:17:14.000Z</time>
      </trkpt>
      <trkpt lat="45.08488" lon="6.16119">
        <ele>1412.8</ele>
        <time>2020-08-26T10:17:15.000Z</time>
      </trkpt>
      <trkpt lat="45.08491" lon="6.16119">
        <ele>1413</ele>
        <time>2020-08-26T10:17:16.000Z</time>
      </trkpt>
      <trkpt lat="45.08494" lon="6.16118">
        <ele>1413.4</ele>
        <time>2020-08-26T10:17:17.000Z</time>
      </trkpt>
      <trkpt lat="45.08497" lon="6.16117">
        <ele>1413.4</ele>
        <time>2020-08-26T10:17:18.000Z</time>
      </trkpt>
      <trkpt lat="45.085" lon="6.16116">
        <ele>1413.8</ele>
        <time>2020-08-26T10:17:19.000Z</time>
      </trkpt>
      <trkpt lat="45.08503" lon="6.16116">
        <ele>1414</ele>
        <time>2020-08-26T10:17:20.000Z</time>
      </trkpt>
      <trkpt lat="45.08506" lon="6.16115">
        <ele>1414.2</ele>
        <time>2020-08-26T10:17:21.000Z</time>
      </trkpt>
      <trkpt lat="45.08509" lon="6.16114">
        <ele>1414.4</ele>
        <time>2020-08-26T10:17:22.000Z</time>
      </trkpt>
      <trkpt lat="45.08512" lon="6.16113">
        <ele>1414.8</ele>
        <time>2020-08-26T10:17:23.000Z</time>
      </trkpt>
      <trkpt lat="45.08515" lon="6.16113">
        <ele>1415</ele>
        <time>2020-08-26T10:17:24.000Z</time>
      </trkpt>
      <trkpt lat="45.08518" lon="6.16112">
        <ele>1415.2</ele>
        <time>2020-08-26T10:17:25.000Z</time>
      </trkpt>
      <trkpt lat="45.08521" lon="6.16111">
        <ele>1415.2</ele>
        <time>2020-08-26T10:17:26.000Z</time>
      </trkpt>
      <trkpt lat="45.08524" lon="6.16111">
        <ele>1415.6</ele>
        <time>2020-08-26T10:17:27.000Z</time>
      </trkpt>
      <trkpt lat="45.08527" lon="6.1611">
        <ele>1415.8</ele>
        <time>2020-08-26T10:17:28.000Z</time>
      </trkpt>
      <trkpt lat="45.0853" lon="6.1611">
        <ele>1416</ele>
        <time>2020-08-26T10:17:29.000Z</time>
      </trkpt>
      <trkpt lat="45.08532" lon="6.16109">
        <ele>1416.4</ele>
        <time>2020-08-26T10:17:30.000Z</time>
      </trkpt>
      <trkpt lat="45.08535" lon="6.16109">
        <ele>1416.6</ele>
        <time>2020-08-26T10:17:31.000Z</time>
      </trkpt>
      <trkpt lat="45.08538" lon="6.16108">
        <ele>1416.8</ele>
        <time>2020-08-26T10:17:32.000Z</time>
      </trkpt>
      <trkpt lat="45.08542" lon="6.16108">
        <ele>1417</ele>
        <time>2020-08-26T10:17:33.000Z</time>
      </trkpt>
      <trkpt lat="45.08545" lon="6.16108">
        <ele>1417.2</ele>
        <time>2020-08-26T10:17:34.000Z</time>
      </trkpt>
      <trkpt lat="45.08548" lon="6.16108">
        <ele>1417.4</ele>
        <time>2020-08-26T10:17:35.000Z</time>
      </trkpt>
      <trkpt lat="45.08551" lon="6.16108">
        <ele>1417.6</ele>
        <time>2020-08-26T10:17:36.000Z</time>
      </trkpt>
      <trkpt lat="45.08554" lon="6.16108">
        <ele>1417.8</ele>
        <time>2020-08-26T10:17:37.000Z</time>
      </trkpt>
      <trkpt lat="45.08557" lon="6.16108">
        <ele>1418</ele>
        <time>2020-08-26T10:17:38.000Z</time>
      </trkpt>
      <trkpt lat="45.0856" lon="6.16108">
        <ele>1418.2</ele>
        <time>2020-08-26T10:17:39.000Z</time>
      </trkpt>
      <trkpt lat="45.08563" lon="6.16109">
        <ele>1418.6</ele>
        <time>2020-08-26T10:17:40.000Z</time>
      </trkpt>
      <trkpt lat="45.08566" lon="6.16109">
        <ele>1418.6</ele>
        <time>2020-08-26T10:17:41.000Z</time>
      </trkpt>
      <trkpt lat="45.08569" lon="6.1611">
        <ele>1418.6</ele>
        <time>2020-08-26T10:17:42.000Z</time>
      </trkpt>
      <trkpt lat="45.08572" lon="6.1611">
        <ele>1419</ele>
        <time>2020-08-26T10:17:43.000Z</time>
      </trkpt>
      <trkpt lat="45.08575" lon="6.16111">
        <ele>1419.2</ele>
        <time>2020-08-26T10:17:44.000Z</time>
      </trkpt>
      <trkpt lat="45.08578" lon="6.16112">
        <ele>1419.4</ele>
        <time>2020-08-26T10:17:45.000Z</time>
      </trkpt>
      <trkpt lat="45.08581" lon="6.16113">
        <ele>1419.8</ele>
        <time>2020-08-26T10:17:46.000Z</time>
      </trkpt>
      <trkpt lat="45.08584" lon="6.16114">
        <ele>1419.8</ele>
        <time>2020-08-26T10:17:47.000Z</time>
      </trkpt>
      <trkpt lat="45.08586" lon="6.16115">
        <ele>1420</ele>
        <time>2020-08-26T10:17:48.000Z</time>
      </trkpt>
      <trkpt lat="45.08589" lon="6.16116">
        <ele>1420.4</ele>
        <time>2020-08-26T10:17:49.000Z</time>
      </trkpt>
      <trkpt lat="45.08592" lon="6.16117">
        <ele>1420.6</ele>
        <time>2020-08-26T10:17:50.000Z</time>
      </trkpt>
      <trkpt lat="45.08595" lon="6.16118">
        <ele>1420.8</ele>
        <time>2020-08-26T10:17:51.000Z</time>
      </trkpt>
      <trkpt lat="45.08598" lon="6.16119">
        <ele>1421.2</ele>
        <time>2020-08-26T10:17:52.000Z</time>
      </trkpt>
      <trkpt lat="45.08601" lon="6.16121">
        <ele>1421.4</ele>
        <time>2020-08-26T10:17:53.000Z</time>
      </trkpt>
      <trkpt lat="45.08603" lon="6.16123">
        <ele>1421.6</ele>
        <time>2020-08-26T10:17:54.000Z</time>
      </trkpt>
      <trkpt lat="45.08606" lon="6.16124">
        <ele>1421.8</ele>
        <time>2020-08-26T10:17:55.000Z</time>
      </trkpt>
      <trkpt lat="45.08608" lon="6.16126">
        <ele>1422</ele>
        <time>2020-08-26T10:17:56.000Z</time>
      </trkpt>
      <trkpt lat="45.0861" lon="6.16128">
        <ele>1422.4</ele>
        <time>2020-08-26T10:17:57.000Z</time>
      </trkpt>
      <trkpt lat="45.08612" lon="6.1613">
        <ele>1422.6</ele>
        <time>2020-08-26T10:17:58.000Z</time>
      </trkpt>
      <trkpt lat="45.08614" lon="6.16132">
        <ele>1423</ele>
        <time>2020-08-26T10:17:59.000Z</time>
      </trkpt>
      <trkpt lat="45.08617" lon="6.16134">
        <ele>1423.4</ele>
        <time>2020-08-26T10:18:00.000Z</time>
      </trkpt>
      <trkpt lat="45.08619" lon="6.16136">
        <ele>1423.6</ele>
        <time>2020-08-26T10:18:01.000Z</time>
      </trkpt>
      <trkpt lat="45.08621" lon="6.16138">
        <ele>1424</ele>
        <time>2020-08-26T10:18:02.000Z</time>
      </trkpt>
      <trkpt lat="45.08624" lon="6.16139">
        <ele>1424.2</ele>
        <time>2020-08-26T10:18:03.000Z</time>
      </trkpt>
      <trkpt lat="45.08626" lon="6.1614">
        <ele>1424.6</ele>
        <time>2020-08-26T10:18:04.000Z</time>
      </trkpt>
      <trkpt lat="45.08628" lon="6.1614">
        <ele>1425</ele>
        <time>2020-08-26T10:18:05.000Z</time>
      </trkpt>
      <trkpt lat="45.0863" lon="6.1614">
        <ele>1425.2</ele>
        <time>2020-08-26T10:18:06.000Z</time>
      </trkpt>
      <trkpt lat="45.08633" lon="6.1614">
        <ele>1425.4</ele>
        <time>2020-08-26T10:18:07.000Z</time>
      </trkpt>
      <trkpt lat="45.08636" lon="6.16139">
        <ele>1425.8</ele>
        <time>2020-08-26T10:18:08.000Z</time>
      </trkpt>
      <trkpt lat="45.08638" lon="6.16138">
        <ele>1426</ele>
        <time>2020-08-26T10:18:09.000Z</time>
      </trkpt>
      <trkpt lat="45.08641" lon="6.16137">
        <ele>1426.2</ele>
        <time>2020-08-26T10:18:10.000Z</time>
      </trkpt>
      <trkpt lat="45.08643" lon="6.16136">
        <ele>1426.6</ele>
        <time>2020-08-26T10:18:11.000Z</time>
      </trkpt>
      <trkpt lat="45.08645" lon="6.16134">
        <ele>1426.6</ele>
        <time>2020-08-26T10:18:12.000Z</time>
      </trkpt>
      <trkpt lat="45.08647" lon="6.16133">
        <ele>1426.8</ele>
        <time>2020-08-26T10:18:13.000Z</time>
      </trkpt>
      <trkpt lat="45.08649" lon="6.16131">
        <ele>1427</ele>
        <time>2020-08-26T10:18:14.000Z</time>
      </trkpt>
      <trkpt lat="45.08651" lon="6.16129">
        <ele>1427.4</ele>
        <time>2020-08-26T10:18:15.000Z</time>
      </trkpt>
      <trkpt lat="45.08653" lon="6.16128">
        <ele>1427.6</ele>
        <time>2020-08-26T10:18:16.000Z</time>
      </trkpt>
      <trkpt lat="45.08654" lon="6.16127">
        <ele>1427.8</ele>
        <time>2020-08-26T10:18:17.000Z</time>
      </trkpt>
      <trkpt lat="45.08656" lon="6.16126">
        <ele>1428</ele>
        <time>2020-08-26T10:18:18.000Z</time>
      </trkpt>
      <trkpt lat="45.08658" lon="6.16126">
        <ele>1428.2</ele>
        <time>2020-08-26T10:18:19.000Z</time>
      </trkpt>
      <trkpt lat="45.08661" lon="6.16124">
        <ele>1428.6</ele>
        <time>2020-08-26T10:18:20.000Z</time>
      </trkpt>
      <trkpt lat="45.08664" lon="6.16123">
        <ele>1428.8</ele>
        <time>2020-08-26T10:18:21.000Z</time>
      </trkpt>
      <trkpt lat="45.08666" lon="6.16122">
        <ele>1429</ele>
        <time>2020-08-26T10:18:22.000Z</time>
      </trkpt>
      <trkpt lat="45.08669" lon="6.16122">
        <ele>1429.2</ele>
        <time>2020-08-26T10:18:23.000Z</time>
      </trkpt>
      <trkpt lat="45.08672" lon="6.16122">
        <ele>1429.6</ele>
        <time>2020-08-26T10:18:24.000Z</time>
      </trkpt>
      <trkpt lat="45.08675" lon="6.16121">
        <ele>1429.8</ele>
        <time>2020-08-26T10:18:25.000Z</time>
      </trkpt>
      <trkpt lat="45.08679" lon="6.16121">
        <ele>1430.2</ele>
        <time>2020-08-26T10:18:26.000Z</time>
      </trkpt>
      <trkpt lat="45.08682" lon="6.16121">
        <ele>1430.4</ele>
        <time>2020-08-26T10:18:27.000Z</time>
      </trkpt>
      <trkpt lat="45.08685" lon="6.16121">
        <ele>1430.6</ele>
        <time>2020-08-26T10:18:28.000Z</time>
      </trkpt>
      <trkpt lat="45.08688" lon="6.16122">
        <ele>1430.8</ele>
        <time>2020-08-26T10:18:29.000Z</time>
      </trkpt>
      <trkpt lat="45.08691" lon="6.16122">
        <ele>1431</ele>
        <time>2020-08-26T10:18:30.000Z</time>
      </trkpt>
      <trkpt lat="45.08694" lon="6.16123">
        <ele>1431</ele>
        <time>2020-08-26T10:18:31.000Z</time>
      </trkpt>
      <trkpt lat="45.08697" lon="6.16123">
        <ele>1431.2</ele>
        <time>2020-08-26T10:18:32.000Z</time>
      </trkpt>
      <trkpt lat="45.087" lon="6.16124">
        <ele>1431.4</ele>
        <time>2020-08-26T10:18:33.000Z</time>
      </trkpt>
      <trkpt lat="45.08703" lon="6.16124">
        <ele>1431.8</ele>
        <time>2020-08-26T10:18:34.000Z</time>
      </trkpt>
      <trkpt lat="45.08706" lon="6.16125">
        <ele>1432</ele>
        <time>2020-08-26T10:18:35.000Z</time>
      </trkpt>
      <trkpt lat="45.08708" lon="6.16126">
        <ele>1432</ele>
        <time>2020-08-26T10:18:36.000Z</time>
      </trkpt>
      <trkpt lat="45.08711" lon="6.16127">
        <ele>1432.2</ele>
        <time>2020-08-26T10:18:37.000Z</time>
      </trkpt>
      <trkpt lat="45.08714" lon="6.16128">
        <ele>1432.4</ele>
        <time>2020-08-26T10:18:38.000Z</time>
      </trkpt>
      <trkpt lat="45.08717" lon="6.16128">
        <ele>1432.6</ele>
        <time>2020-08-26T10:18:39.000Z</time>
      </trkpt>
      <trkpt lat="45.08719" lon="6.16129">
        <ele>1432.8</ele>
        <time>2020-08-26T10:18:40.000Z</time>
      </trkpt>
      <trkpt lat="45.08722" lon="6.1613">
        <ele>1433.2</ele>
        <time>2020-08-26T10:18:41.000Z</time>
      </trkpt>
      <trkpt lat="45.08725" lon="6.16131">
        <ele>1433.4</ele>
        <time>2020-08-26T10:18:42.000Z</time>
      </trkpt>
      <trkpt lat="45.08728" lon="6.16132">
        <ele>1433.8</ele>
        <time>2020-08-26T10:18:43.000Z</time>
      </trkpt>
      <trkpt lat="45.08731" lon="6.16132">
        <ele>1434.2</ele>
        <time>2020-08-26T10:18:44.000Z</time>
      </trkpt>
      <trkpt lat="45.08733" lon="6.16132">
        <ele>1434.4</ele>
        <time>2020-08-26T10:18:45.000Z</time>
      </trkpt>
      <trkpt lat="45.08735" lon="6.16133">
        <ele>1434.6</ele>
        <time>2020-08-26T10:18:46.000Z</time>
      </trkpt>
      <trkpt lat="45.08738" lon="6.16133">
        <ele>1435</ele>
        <time>2020-08-26T10:18:47.000Z</time>
      </trkpt>
      <trkpt lat="45.0874" lon="6.16134">
        <ele>1435.4</ele>
        <time>2020-08-26T10:18:48.000Z</time>
      </trkpt>
      <trkpt lat="45.08742" lon="6.16135">
        <ele>1435.6</ele>
        <time>2020-08-26T10:18:49.000Z</time>
      </trkpt>
      <trkpt lat="45.08744" lon="6.16135">
        <ele>1435.8</ele>
        <time>2020-08-26T10:18:50.000Z</time>
      </trkpt>
      <trkpt lat="45.08747" lon="6.16136">
        <ele>1436</ele>
        <time>2020-08-26T10:18:51.000Z</time>
      </trkpt>
      <trkpt lat="45.08749" lon="6.16137">
        <ele>1436.2</ele>
        <time>2020-08-26T10:18:52.000Z</time>
      </trkpt>
      <trkpt lat="45.08752" lon="6.16137">
        <ele>1436.4</ele>
        <time>2020-08-26T10:18:53.000Z</time>
      </trkpt>
      <trkpt lat="45.08753" lon="6.16138">
        <ele>1436.4</ele>
        <time>2020-08-26T10:18:54.000Z</time>
      </trkpt>
      <trkpt lat="45.08755" lon="6.16139">
        <ele>1436.6</ele>
        <time>2020-08-26T10:18:55.000Z</time>
      </trkpt>
      <trkpt lat="45.08757" lon="6.16139">
        <ele>1437</ele>
        <time>2020-08-26T10:18:56.000Z</time>
      </trkpt>
      <trkpt lat="45.08759" lon="6.16141">
        <ele>1437.2</ele>
        <time>2020-08-26T10:18:57.000Z</time>
      </trkpt>
      <trkpt lat="45.08761" lon="6.16141">
        <ele>1437.4</ele>
        <time>2020-08-26T10:18:58.000Z</time>
      </trkpt>
      <trkpt lat="45.08763" lon="6.16143">
        <ele>1437.6</ele>
        <time>2020-08-26T10:18:59.000Z</time>
      </trkpt>
      <trkpt lat="45.08765" lon="6.16144">
        <ele>1438</ele>
        <time>2020-08-26T10:19:00.000Z</time>
      </trkpt>
      <trkpt lat="45.08766" lon="6.16146">
        <ele>1438</ele>
        <time>2020-08-26T10:19:01.000Z</time>
      </trkpt>
      <trkpt lat="45.08769" lon="6.16147">
        <ele>1438.2</ele>
        <time>2020-08-26T10:19:02.000Z</time>
      </trkpt>
      <trkpt lat="45.08772" lon="6.16148">
        <ele>1438.4</ele>
        <time>2020-08-26T10:19:03.000Z</time>
      </trkpt>
      <trkpt lat="45.08774" lon="6.16148">
        <ele>1438.6</ele>
        <time>2020-08-26T10:19:04.000Z</time>
      </trkpt>
      <trkpt lat="45.08777" lon="6.1615">
        <ele>1438.8</ele>
        <time>2020-08-26T10:19:05.000Z</time>
      </trkpt>
      <trkpt lat="45.08779" lon="6.16152">
        <ele>1439</ele>
        <time>2020-08-26T10:19:06.000Z</time>
      </trkpt>
      <trkpt lat="45.08782" lon="6.16153">
        <ele>1439.4</ele>
        <time>2020-08-26T10:19:07.000Z</time>
      </trkpt>
      <trkpt lat="45.08784" lon="6.16154">
        <ele>1439.6</ele>
        <time>2020-08-26T10:19:08.000Z</time>
      </trkpt>
      <trkpt lat="45.08786" lon="6.16156">
        <ele>1439.8</ele>
        <time>2020-08-26T10:19:09.000Z</time>
      </trkpt>
      <trkpt lat="45.08789" lon="6.16158">
        <ele>1440.2</ele>
        <time>2020-08-26T10:19:10.000Z</time>
      </trkpt>
      <trkpt lat="45.08791" lon="6.1616">
        <ele>1440.4</ele>
        <time>2020-08-26T10:19:11.000Z</time>
      </trkpt>
      <trkpt lat="45.08794" lon="6.16161">
        <ele>1440.6</ele>
        <time>2020-08-26T10:19:12.000Z</time>
      </trkpt>
      <trkpt lat="45.08797" lon="6.16163">
        <ele>1441</ele>
        <time>2020-08-26T10:19:13.000Z</time>
      </trkpt>
      <trkpt lat="45.088" lon="6.16165">
        <ele>1441.2</ele>
        <time>2020-08-26T10:19:14.000Z</time>
      </trkpt>
      <trkpt lat="45.08803" lon="6.16167">
        <ele>1441.4</ele>
        <time>2020-08-26T10:19:15.000Z</time>
      </trkpt>
      <trkpt lat="45.08806" lon="6.16169">
        <ele>1441.6</ele>
        <time>2020-08-26T10:19:16.000Z</time>
      </trkpt>
      <trkpt lat="45.08809" lon="6.16171">
        <ele>1442</ele>
        <time>2020-08-26T10:19:17.000Z</time>
      </trkpt>
      <trkpt lat="45.08812" lon="6.16173">
        <ele>1442.6</ele>
        <time>2020-08-26T10:19:18.000Z</time>
      </trkpt>
      <trkpt lat="45.08815" lon="6.16175">
        <ele>1442.8</ele>
        <time>2020-08-26T10:19:19.000Z</time>
      </trkpt>
      <trkpt lat="45.08818" lon="6.16179">
        <ele>1443.2</ele>
        <time>2020-08-26T10:19:20.000Z</time>
      </trkpt>
      <trkpt lat="45.08821" lon="6.16182">
        <ele>1443.4</ele>
        <time>2020-08-26T10:19:21.000Z</time>
      </trkpt>
      <trkpt lat="45.08824" lon="6.16185">
        <ele>1443.6</ele>
        <time>2020-08-26T10:19:22.000Z</time>
      </trkpt>
      <trkpt lat="45.08827" lon="6.16188">
        <ele>1444</ele>
        <time>2020-08-26T10:19:23.000Z</time>
      </trkpt>
      <trkpt lat="45.08829" lon="6.16191">
        <ele>1444.2</ele>
        <time>2020-08-26T10:19:24.000Z</time>
      </trkpt>
      <trkpt lat="45.08832" lon="6.16194">
        <ele>1444.6</ele>
        <time>2020-08-26T10:19:25.000Z</time>
      </trkpt>
      <trkpt lat="45.08834" lon="6.16198">
        <ele>1444.8</ele>
        <time>2020-08-26T10:19:26.000Z</time>
      </trkpt>
      <trkpt lat="45.08837" lon="6.16201">
        <ele>1445</ele>
        <time>2020-08-26T10:19:27.000Z</time>
      </trkpt>
      <trkpt lat="45.08839" lon="6.16204">
        <ele>1445.2</ele>
        <time>2020-08-26T10:19:28.000Z</time>
      </trkpt>
      <trkpt lat="45.08843" lon="6.16207">
        <ele>1445.2</ele>
        <time>2020-08-26T10:19:29.000Z</time>
      </trkpt>
      <trkpt lat="45.08845" lon="6.1621">
        <ele>1445.4</ele>
        <time>2020-08-26T10:19:30.000Z</time>
      </trkpt>
      <trkpt lat="45.08847" lon="6.16213">
        <ele>1445.6</ele>
        <time>2020-08-26T10:19:31.000Z</time>
      </trkpt>
      <trkpt lat="45.0885" lon="6.16215">
        <ele>1446</ele>
        <time>2020-08-26T10:19:32.000Z</time>
      </trkpt>
      <trkpt lat="45.08852" lon="6.16218">
        <ele>1446.2</ele>
        <time>2020-08-26T10:19:33.000Z</time>
      </trkpt>
      <trkpt lat="45.08855" lon="6.1622">
        <ele>1446.6</ele>
        <time>2020-08-26T10:19:34.000Z</time>
      </trkpt>
      <trkpt lat="45.08858" lon="6.16223">
        <ele>1446.8</ele>
        <time>2020-08-26T10:19:35.000Z</time>
      </trkpt>
      <trkpt lat="45.0886" lon="6.16226">
        <ele>1447</ele>
        <time>2020-08-26T10:19:36.000Z</time>
      </trkpt>
      <trkpt lat="45.08863" lon="6.16229">
        <ele>1447.2</ele>
        <time>2020-08-26T10:19:37.000Z</time>
      </trkpt>
      <trkpt lat="45.08865" lon="6.16231">
        <ele>1447.6</ele>
        <time>2020-08-26T10:19:38.000Z</time>
      </trkpt>
      <trkpt lat="45.08867" lon="6.16234">
        <ele>1447.8</ele>
        <time>2020-08-26T10:19:39.000Z</time>
      </trkpt>
      <trkpt lat="45.08869" lon="6.16237">
        <ele>1448</ele>
        <time>2020-08-26T10:19:40.000Z</time>
      </trkpt>
      <trkpt lat="45.08871" lon="6.1624">
        <ele>1448.4</ele>
        <time>2020-08-26T10:19:41.000Z</time>
      </trkpt>
      <trkpt lat="45.08873" lon="6.16243">
        <ele>1448.6</ele>
        <time>2020-08-26T10:19:42.000Z</time>
      </trkpt>
      <trkpt lat="45.08875" lon="6.16246">
        <ele>1448.8</ele>
        <time>2020-08-26T10:19:43.000Z</time>
      </trkpt>
      <trkpt lat="45.08877" lon="6.16248">
        <ele>1449</ele>
        <time>2020-08-26T10:19:44.000Z</time>
      </trkpt>
      <trkpt lat="45.08879" lon="6.16251">
        <ele>1449.2</ele>
        <time>2020-08-26T10:19:45.000Z</time>
      </trkpt>
      <trkpt lat="45.08882" lon="6.16254">
        <ele>1449.4</ele>
        <time>2020-08-26T10:19:46.000Z</time>
      </trkpt>
      <trkpt lat="45.08884" lon="6.16256">
        <ele>1450</ele>
        <time>2020-08-26T10:19:47.000Z</time>
      </trkpt>
      <trkpt lat="45.08886" lon="6.16258">
        <ele>1450.2</ele>
        <time>2020-08-26T10:19:48.000Z</time>
      </trkpt>
      <trkpt lat="45.08889" lon="6.16259">
        <ele>1450.6</ele>
        <time>2020-08-26T10:19:49.000Z</time>
      </trkpt>
      <trkpt lat="45.08891" lon="6.16261">
        <ele>1450.8</ele>
        <time>2020-08-26T10:19:50.000Z</time>
      </trkpt>
      <trkpt lat="45.08893" lon="6.16263">
        <ele>1450.8</ele>
        <time>2020-08-26T10:19:51.000Z</time>
      </trkpt>
      <trkpt lat="45.08894" lon="6.16265">
        <ele>1451.2</ele>
        <time>2020-08-26T10:19:52.000Z</time>
      </trkpt>
      <trkpt lat="45.08896" lon="6.16268">
        <ele>1451.4</ele>
        <time>2020-08-26T10:19:53.000Z</time>
      </trkpt>
      <trkpt lat="45.08899" lon="6.1627">
        <ele>1451.6</ele>
        <time>2020-08-26T10:19:54.000Z</time>
      </trkpt>
      <trkpt lat="45.08901" lon="6.16271">
        <ele>1451.8</ele>
        <time>2020-08-26T10:19:55.000Z</time>
      </trkpt>
      <trkpt lat="45.08903" lon="6.16273">
        <ele>1452</ele>
        <time>2020-08-26T10:19:56.000Z</time>
      </trkpt>
      <trkpt lat="45.08905" lon="6.16275">
        <ele>1452.2</ele>
        <time>2020-08-26T10:19:57.000Z</time>
      </trkpt>
      <trkpt lat="45.08908" lon="6.16277">
        <ele>1452.6</ele>
        <time>2020-08-26T10:19:58.000Z</time>
      </trkpt>
      <trkpt lat="45.0891" lon="6.16279">
        <ele>1452.8</ele>
        <time>2020-08-26T10:19:59.000Z</time>
      </trkpt>
      <trkpt lat="45.08912" lon="6.16281">
        <ele>1453</ele>
        <time>2020-08-26T10:20:00.000Z</time>
      </trkpt>
      <trkpt lat="45.08914" lon="6.16282">
        <ele>1453.2</ele>
        <time>2020-08-26T10:20:01.000Z</time>
      </trkpt>
      <trkpt lat="45.08916" lon="6.16284">
        <ele>1453.4</ele>
        <time>2020-08-26T10:20:02.000Z</time>
      </trkpt>
      <trkpt lat="45.08919" lon="6.16286">
        <ele>1453.8</ele>
        <time>2020-08-26T10:20:03.000Z</time>
      </trkpt>
      <trkpt lat="45.08921" lon="6.16288">
        <ele>1454</ele>
        <time>2020-08-26T10:20:04.000Z</time>
      </trkpt>
      <trkpt lat="45.08924" lon="6.1629">
        <ele>1454.2</ele>
        <time>2020-08-26T10:20:05.000Z</time>
      </trkpt>
      <trkpt lat="45.08926" lon="6.16292">
        <ele>1454.4</ele>
        <time>2020-08-26T10:20:06.000Z</time>
      </trkpt>
      <trkpt lat="45.08928" lon="6.16295">
        <ele>1454.6</ele>
        <time>2020-08-26T10:20:07.000Z</time>
      </trkpt>
      <trkpt lat="45.0893" lon="6.16297">
        <ele>1455</ele>
        <time>2020-08-26T10:20:08.000Z</time>
      </trkpt>
      <trkpt lat="45.08932" lon="6.163">
        <ele>1455.2</ele>
        <time>2020-08-26T10:20:09.000Z</time>
      </trkpt>
      <trkpt lat="45.08934" lon="6.16302">
        <ele>1455.4</ele>
        <time>2020-08-26T10:20:10.000Z</time>
      </trkpt>
      <trkpt lat="45.08937" lon="6.16305">
        <ele>1455.6</ele>
        <time>2020-08-26T10:20:11.000Z</time>
      </trkpt>
      <trkpt lat="45.08939" lon="6.16307">
        <ele>1455.8</ele>
        <time>2020-08-26T10:20:12.000Z</time>
      </trkpt>
      <trkpt lat="45.08942" lon="6.16309">
        <ele>1456</ele>
        <time>2020-08-26T10:20:13.000Z</time>
      </trkpt>
      <trkpt lat="45.08944" lon="6.16312">
        <ele>1456.2</ele>
        <time>2020-08-26T10:20:14.000Z</time>
      </trkpt>
      <trkpt lat="45.08946" lon="6.16314">
        <ele>1456.4</ele>
        <time>2020-08-26T10:20:15.000Z</time>
      </trkpt>
      <trkpt lat="45.08949" lon="6.16316">
        <ele>1456.8</ele>
        <time>2020-08-26T10:20:16.000Z</time>
      </trkpt>
      <trkpt lat="45.08951" lon="6.16317">
        <ele>1457</ele>
        <time>2020-08-26T10:20:17.000Z</time>
      </trkpt>
      <trkpt lat="45.08953" lon="6.16319">
        <ele>1457.2</ele>
        <time>2020-08-26T10:20:18.000Z</time>
      </trkpt>
      <trkpt lat="45.08955" lon="6.16321">
        <ele>1457.4</ele>
        <time>2020-08-26T10:20:19.000Z</time>
      </trkpt>
      <trkpt lat="45.08957" lon="6.16322">
        <ele>1457.8</ele>
        <time>2020-08-26T10:20:20.000Z</time>
      </trkpt>
      <trkpt lat="45.0896" lon="6.16324">
        <ele>1457.8</ele>
        <time>2020-08-26T10:20:21.000Z</time>
      </trkpt>
      <trkpt lat="45.08962" lon="6.16324">
        <ele>1458</ele>
        <time>2020-08-26T10:20:22.000Z</time>
      </trkpt>
      <trkpt lat="45.08964" lon="6.16325">
        <ele>1458.2</ele>
        <time>2020-08-26T10:20:23.000Z</time>
      </trkpt>
      <trkpt lat="45.08966" lon="6.16326">
        <ele>1458.4</ele>
        <time>2020-08-26T10:20:24.000Z</time>
      </trkpt>
      <trkpt lat="45.08968" lon="6.16327">
        <ele>1458.8</ele>
        <time>2020-08-26T10:20:25.000Z</time>
      </trkpt>
      <trkpt lat="45.0897" lon="6.16328">
        <ele>1459</ele>
        <time>2020-08-26T10:20:26.000Z</time>
      </trkpt>
      <trkpt lat="45.08973" lon="6.16329">
        <ele>1459.2</ele>
        <time>2020-08-26T10:20:27.000Z</time>
      </trkpt>
      <trkpt lat="45.08975" lon="6.1633">
        <ele>1459.2</ele>
        <time>2020-08-26T10:20:28.000Z</time>
      </trkpt>
      <trkpt lat="45.08977" lon="6.16332">
        <ele>1459.4</ele>
        <time>2020-08-26T10:20:29.000Z</time>
      </trkpt>
      <trkpt lat="45.0898" lon="6.16333">
        <ele>1459.6</ele>
        <time>2020-08-26T10:20:30.000Z</time>
      </trkpt>
      <trkpt lat="45.08982" lon="6.16335">
        <ele>1459.6</ele>
        <time>2020-08-26T10:20:31.000Z</time>
      </trkpt>
      <trkpt lat="45.08985" lon="6.16337">
        <ele>1459.8</ele>
        <time>2020-08-26T10:20:32.000Z</time>
      </trkpt>
      <trkpt lat="45.08987" lon="6.16339">
        <ele>1460</ele>
        <time>2020-08-26T10:20:33.000Z</time>
      </trkpt>
      <trkpt lat="45.08989" lon="6.16342">
        <ele>1460.2</ele>
        <time>2020-08-26T10:20:34.000Z</time>
      </trkpt>
      <trkpt lat="45.08992" lon="6.16345">
        <ele>1460.6</ele>
        <time>2020-08-26T10:20:35.000Z</time>
      </trkpt>
      <trkpt lat="45.08995" lon="6.16348">
        <ele>1460.8</ele>
        <time>2020-08-26T10:20:36.000Z</time>
      </trkpt>
      <trkpt lat="45.08998" lon="6.16352">
        <ele>1461</ele>
        <time>2020-08-26T10:20:37.000Z</time>
      </trkpt>
      <trkpt lat="45.09001" lon="6.16355">
        <ele>1461.4</ele>
        <time>2020-08-26T10:20:38.000Z</time>
      </trkpt>
      <trkpt lat="45.09004" lon="6.16358">
        <ele>1461.6</ele>
        <time>2020-08-26T10:20:39.000Z</time>
      </trkpt>
      <trkpt lat="45.09007" lon="6.16361">
        <ele>1461.8</ele>
        <time>2020-08-26T10:20:40.000Z</time>
      </trkpt>
      <trkpt lat="45.0901" lon="6.16363">
        <ele>1462</ele>
        <time>2020-08-26T10:20:41.000Z</time>
      </trkpt>
      <trkpt lat="45.09013" lon="6.16365">
        <ele>1462.4</ele>
        <time>2020-08-26T10:20:42.000Z</time>
      </trkpt>
      <trkpt lat="45.09015" lon="6.16366">
        <ele>1462.6</ele>
        <time>2020-08-26T10:20:43.000Z</time>
      </trkpt>
      <trkpt lat="45.09018" lon="6.16367">
        <ele>1462.8</ele>
        <time>2020-08-26T10:20:44.000Z</time>
      </trkpt>
      <trkpt lat="45.09021" lon="6.16366">
        <ele>1463</ele>
        <time>2020-08-26T10:20:45.000Z</time>
      </trkpt>
      <trkpt lat="45.09023" lon="6.16365">
        <ele>1463.2</ele>
        <time>2020-08-26T10:20:46.000Z</time>
      </trkpt>
      <trkpt lat="45.09026" lon="6.16363">
        <ele>1463.4</ele>
        <time>2020-08-26T10:20:47.000Z</time>
      </trkpt>
      <trkpt lat="45.09029" lon="6.16362">
        <ele>1463.6</ele>
        <time>2020-08-26T10:20:48.000Z</time>
      </trkpt>
      <trkpt lat="45.09031" lon="6.1636">
        <ele>1463.8</ele>
        <time>2020-08-26T10:20:49.000Z</time>
      </trkpt>
      <trkpt lat="45.09034" lon="6.16357">
        <ele>1464.2</ele>
        <time>2020-08-26T10:20:50.000Z</time>
      </trkpt>
      <trkpt lat="45.09036" lon="6.16355">
        <ele>1464.4</ele>
        <time>2020-08-26T10:20:51.000Z</time>
      </trkpt>
      <trkpt lat="45.09038" lon="6.16352">
        <ele>1464.6</ele>
        <time>2020-08-26T10:20:52.000Z</time>
      </trkpt>
      <trkpt lat="45.09041" lon="6.1635">
        <ele>1464.8</ele>
        <time>2020-08-26T10:20:53.000Z</time>
      </trkpt>
      <trkpt lat="45.09043" lon="6.16347">
        <ele>1465</ele>
        <time>2020-08-26T10:20:54.000Z</time>
      </trkpt>
      <trkpt lat="45.09045" lon="6.16344">
        <ele>1465.4</ele>
        <time>2020-08-26T10:20:55.000Z</time>
      </trkpt>
      <trkpt lat="45.09047" lon="6.16341">
        <ele>1465.8</ele>
        <time>2020-08-26T10:20:56.000Z</time>
      </trkpt>
      <trkpt lat="45.0905" lon="6.16338">
        <ele>1466.2</ele>
        <time>2020-08-26T10:20:57.000Z</time>
      </trkpt>
      <trkpt lat="45.09052" lon="6.16336">
        <ele>1466.4</ele>
        <time>2020-08-26T10:20:58.000Z</time>
      </trkpt>
      <trkpt lat="45.09054" lon="6.16333">
        <ele>1466.6</ele>
        <time>2020-08-26T10:20:59.000Z</time>
      </trkpt>
      <trkpt lat="45.09057" lon="6.16331">
        <ele>1466.8</ele>
        <time>2020-08-26T10:21:00.000Z</time>
      </trkpt>
      <trkpt lat="45.09059" lon="6.16329">
        <ele>1467</ele>
        <time>2020-08-26T10:21:01.000Z</time>
      </trkpt>
      <trkpt lat="45.09061" lon="6.16329">
        <ele>1467</ele>
        <time>2020-08-26T10:21:02.000Z</time>
      </trkpt>
      <trkpt lat="45.09063" lon="6.16328">
        <ele>1467.2</ele>
        <time>2020-08-26T10:21:03.000Z</time>
      </trkpt>
      <trkpt lat="45.09065" lon="6.16328">
        <ele>1467.4</ele>
        <time>2020-08-26T10:21:04.000Z</time>
      </trkpt>
      <trkpt lat="45.09068" lon="6.16329">
        <ele>1467.6</ele>
        <time>2020-08-26T10:21:05.000Z</time>
      </trkpt>
      <trkpt lat="45.0907" lon="6.16329">
        <ele>1467.8</ele>
        <time>2020-08-26T10:21:06.000Z</time>
      </trkpt>
      <trkpt lat="45.09073" lon="6.1633">
        <ele>1467.8</ele>
        <time>2020-08-26T10:21:07.000Z</time>
      </trkpt>
      <trkpt lat="45.09075" lon="6.16332">
        <ele>1468</ele>
        <time>2020-08-26T10:21:08.000Z</time>
      </trkpt>
      <trkpt lat="45.09077" lon="6.16333">
        <ele>1468</ele>
        <time>2020-08-26T10:21:09.000Z</time>
      </trkpt>
      <trkpt lat="45.09079" lon="6.16334">
        <ele>1468.4</ele>
        <time>2020-08-26T10:21:10.000Z</time>
      </trkpt>
      <trkpt lat="45.09081" lon="6.16336">
        <ele>1468.6</ele>
        <time>2020-08-26T10:21:11.000Z</time>
      </trkpt>
      <trkpt lat="45.09083" lon="6.16337">
        <ele>1468.8</ele>
        <time>2020-08-26T10:21:12.000Z</time>
      </trkpt>
      <trkpt lat="45.09085" lon="6.16339">
        <ele>1469.4</ele>
        <time>2020-08-26T10:21:13.000Z</time>
      </trkpt>
      <trkpt lat="45.09087" lon="6.1634">
        <ele>1469.6</ele>
        <time>2020-08-26T10:21:14.000Z</time>
      </trkpt>
      <trkpt lat="45.09089" lon="6.16341">
        <ele>1469.8</ele>
        <time>2020-08-26T10:21:15.000Z</time>
      </trkpt>
      <trkpt lat="45.09092" lon="6.16342">
        <ele>1470</ele>
        <time>2020-08-26T10:21:16.000Z</time>
      </trkpt>
      <trkpt lat="45.09094" lon="6.16343">
        <ele>1470.4</ele>
        <time>2020-08-26T10:21:17.000Z</time>
      </trkpt>
      <trkpt lat="45.09096" lon="6.16345">
        <ele>1470.6</ele>
        <time>2020-08-26T10:21:18.000Z</time>
      </trkpt>
      <trkpt lat="45.09098" lon="6.16347">
        <ele>1470.8</ele>
        <time>2020-08-26T10:21:19.000Z</time>
      </trkpt>
      <trkpt lat="45.091" lon="6.16348">
        <ele>1471.2</ele>
        <time>2020-08-26T10:21:20.000Z</time>
      </trkpt>
      <trkpt lat="45.09102" lon="6.16349">
        <ele>1471.6</ele>
        <time>2020-08-26T10:21:21.000Z</time>
      </trkpt>
      <trkpt lat="45.09105" lon="6.1635">
        <ele>1472</ele>
        <time>2020-08-26T10:21:22.000Z</time>
      </trkpt>
      <trkpt lat="45.09107" lon="6.16352">
        <ele>1472.2</ele>
        <time>2020-08-26T10:21:23.000Z</time>
      </trkpt>
      <trkpt lat="45.09109" lon="6.16353">
        <ele>1472.6</ele>
        <time>2020-08-26T10:21:24.000Z</time>
      </trkpt>
      <trkpt lat="45.09112" lon="6.16353">
        <ele>1472.8</ele>
        <time>2020-08-26T10:21:25.000Z</time>
      </trkpt>
      <trkpt lat="45.09114" lon="6.16353">
        <ele>1473</ele>
        <time>2020-08-26T10:21:26.000Z</time>
      </trkpt>
      <trkpt lat="45.09117" lon="6.16354">
        <ele>1473.4</ele>
        <time>2020-08-26T10:21:27.000Z</time>
      </trkpt>
      <trkpt lat="45.0912" lon="6.16355">
        <ele>1473.8</ele>
        <time>2020-08-26T10:21:28.000Z</time>
      </trkpt>
      <trkpt lat="45.09123" lon="6.16356">
        <ele>1474</ele>
        <time>2020-08-26T10:21:29.000Z</time>
      </trkpt>
      <trkpt lat="45.09126" lon="6.16357">
        <ele>1474.2</ele>
        <time>2020-08-26T10:21:30.000Z</time>
      </trkpt>
      <trkpt lat="45.09128" lon="6.16358">
        <ele>1474.4</ele>
        <time>2020-08-26T10:21:31.000Z</time>
      </trkpt>
      <trkpt lat="45.0913" lon="6.16359">
        <ele>1474.6</ele>
        <time>2020-08-26T10:21:32.000Z</time>
      </trkpt>
      <trkpt lat="45.09133" lon="6.16361">
        <ele>1475</ele>
        <time>2020-08-26T10:21:33.000Z</time>
      </trkpt>
      <trkpt lat="45.09136" lon="6.16362">
        <ele>1475.2</ele>
        <time>2020-08-26T10:21:34.000Z</time>
      </trkpt>
      <trkpt lat="45.09139" lon="6.16363">
        <ele>1475.4</ele>
        <time>2020-08-26T10:21:35.000Z</time>
      </trkpt>
      <trkpt lat="45.09141" lon="6.16365">
        <ele>1475.8</ele>
        <time>2020-08-26T10:21:36.000Z</time>
      </trkpt>
      <trkpt lat="45.09144" lon="6.16367">
        <ele>1476</ele>
        <time>2020-08-26T10:21:37.000Z</time>
      </trkpt>
      <trkpt lat="45.09146" lon="6.16368">
        <ele>1476.2</ele>
        <time>2020-08-26T10:21:38.000Z</time>
      </trkpt>
      <trkpt lat="45.09149" lon="6.1637">
        <ele>1476.6</ele>
        <time>2020-08-26T10:21:39.000Z</time>
      </trkpt>
      <trkpt lat="45.09151" lon="6.16373">
        <ele>1476.8</ele>
        <time>2020-08-26T10:21:40.000Z</time>
      </trkpt>
      <trkpt lat="45.09154" lon="6.16375">
        <ele>1476.8</ele>
        <time>2020-08-26T10:21:41.000Z</time>
      </trkpt>
      <trkpt lat="45.09156" lon="6.16377">
        <ele>1477.4</ele>
        <time>2020-08-26T10:21:42.000Z</time>
      </trkpt>
      <trkpt lat="45.09158" lon="6.16379">
        <ele>1477.6</ele>
        <time>2020-08-26T10:21:43.000Z</time>
      </trkpt>
      <trkpt lat="45.09162" lon="6.16381">
        <ele>1478</ele>
        <time>2020-08-26T10:21:44.000Z</time>
      </trkpt>
      <trkpt lat="45.09164" lon="6.16383">
        <ele>1478.2</ele>
        <time>2020-08-26T10:21:45.000Z</time>
      </trkpt>
      <trkpt lat="45.09167" lon="6.16385">
        <ele>1478.6</ele>
        <time>2020-08-26T10:21:46.000Z</time>
      </trkpt>
      <trkpt lat="45.09169" lon="6.16388">
        <ele>1478.8</ele>
        <time>2020-08-26T10:21:47.000Z</time>
      </trkpt>
      <trkpt lat="45.09172" lon="6.16391">
        <ele>1479</ele>
        <time>2020-08-26T10:21:48.000Z</time>
      </trkpt>
      <trkpt lat="45.09174" lon="6.16393">
        <ele>1479.2</ele>
        <time>2020-08-26T10:21:49.000Z</time>
      </trkpt>
      <trkpt lat="45.09176" lon="6.16395">
        <ele>1479.6</ele>
        <time>2020-08-26T10:21:50.000Z</time>
      </trkpt>
      <trkpt lat="45.09178" lon="6.16397">
        <ele>1479.8</ele>
        <time>2020-08-26T10:21:51.000Z</time>
      </trkpt>
      <trkpt lat="45.0918" lon="6.16399">
        <ele>1480.2</ele>
        <time>2020-08-26T10:21:52.000Z</time>
      </trkpt>
      <trkpt lat="45.09183" lon="6.164">
        <ele>1480.4</ele>
        <time>2020-08-26T10:21:53.000Z</time>
      </trkpt>
      <trkpt lat="45.09184" lon="6.16402">
        <ele>1480.6</ele>
        <time>2020-08-26T10:21:54.000Z</time>
      </trkpt>
      <trkpt lat="45.09186" lon="6.16405">
        <ele>1481</ele>
        <time>2020-08-26T10:21:55.000Z</time>
      </trkpt>
      <trkpt lat="45.09189" lon="6.16407">
        <ele>1481.2</ele>
        <time>2020-08-26T10:21:56.000Z</time>
      </trkpt>
      <trkpt lat="45.09192" lon="6.16408">
        <ele>1481.4</ele>
        <time>2020-08-26T10:21:57.000Z</time>
      </trkpt>
      <trkpt lat="45.09194" lon="6.16409">
        <ele>1481.8</ele>
        <time>2020-08-26T10:21:58.000Z</time>
      </trkpt>
      <trkpt lat="45.09196" lon="6.1641">
        <ele>1481.8</ele>
        <time>2020-08-26T10:21:59.000Z</time>
      </trkpt>
      <trkpt lat="45.09198" lon="6.16411">
        <ele>1482</ele>
        <time>2020-08-26T10:22:00.000Z</time>
      </trkpt>
      <trkpt lat="45.09201" lon="6.16412">
        <ele>1482.4</ele>
        <time>2020-08-26T10:22:01.000Z</time>
      </trkpt>
      <trkpt lat="45.09203" lon="6.16412">
        <ele>1482.4</ele>
        <time>2020-08-26T10:22:02.000Z</time>
      </trkpt>
      <trkpt lat="45.09205" lon="6.16411">
        <ele>1482.6</ele>
        <time>2020-08-26T10:22:03.000Z</time>
      </trkpt>
      <trkpt lat="45.09208" lon="6.1641">
        <ele>1482.8</ele>
        <time>2020-08-26T10:22:04.000Z</time>
      </trkpt>
      <trkpt lat="45.09211" lon="6.16407">
        <ele>1483</ele>
        <time>2020-08-26T10:22:05.000Z</time>
      </trkpt>
      <trkpt lat="45.09213" lon="6.16404">
        <ele>1483.2</ele>
        <time>2020-08-26T10:22:06.000Z</time>
      </trkpt>
      <trkpt lat="45.09215" lon="6.16402">
        <ele>1483.4</ele>
        <time>2020-08-26T10:22:07.000Z</time>
      </trkpt>
      <trkpt lat="45.09217" lon="6.16399">
        <ele>1483.4</ele>
        <time>2020-08-26T10:22:08.000Z</time>
      </trkpt>
      <trkpt lat="45.09218" lon="6.16396">
        <ele>1483.6</ele>
        <time>2020-08-26T10:22:09.000Z</time>
      </trkpt>
      <trkpt lat="45.0922" lon="6.16393">
        <ele>1483.8</ele>
        <time>2020-08-26T10:22:10.000Z</time>
      </trkpt>
      <trkpt lat="45.09221" lon="6.16389">
        <ele>1484.4</ele>
        <time>2020-08-26T10:22:11.000Z</time>
      </trkpt>
      <trkpt lat="45.09222" lon="6.16386">
        <ele>1484.6</ele>
        <time>2020-08-26T10:22:12.000Z</time>
      </trkpt>
      <trkpt lat="45.09223" lon="6.16383">
        <ele>1484.8</ele>
        <time>2020-08-26T10:22:13.000Z</time>
      </trkpt>
      <trkpt lat="45.09224" lon="6.1638">
        <ele>1485.2</ele>
        <time>2020-08-26T10:22:14.000Z</time>
      </trkpt>
      <trkpt lat="45.09225" lon="6.16377">
        <ele>1485.4</ele>
        <time>2020-08-26T10:22:15.000Z</time>
      </trkpt>
      <trkpt lat="45.09226" lon="6.16374">
        <ele>1485.6</ele>
        <time>2020-08-26T10:22:16.000Z</time>
      </trkpt>
      <trkpt lat="45.09227" lon="6.16371">
        <ele>1485.8</ele>
        <time>2020-08-26T10:22:17.000Z</time>
      </trkpt>
      <trkpt lat="45.09228" lon="6.16367">
        <ele>1486</ele>
        <time>2020-08-26T10:22:18.000Z</time>
      </trkpt>
      <trkpt lat="45.09229" lon="6.16364">
        <ele>1486.2</ele>
        <time>2020-08-26T10:22:19.000Z</time>
      </trkpt>
      <trkpt lat="45.0923" lon="6.16361">
        <ele>1486.6</ele>
        <time>2020-08-26T10:22:20.000Z</time>
      </trkpt>
      <trkpt lat="45.09232" lon="6.16358">
        <ele>1486.8</ele>
        <time>2020-08-26T10:22:21.000Z</time>
      </trkpt>
      <trkpt lat="45.09233" lon="6.16354">
        <ele>1487</ele>
        <time>2020-08-26T10:22:22.000Z</time>
      </trkpt>
      <trkpt lat="45.09233" lon="6.1635">
        <ele>1487.2</ele>
        <time>2020-08-26T10:22:23.000Z</time>
      </trkpt>
      <trkpt lat="45.09234" lon="6.16346">
        <ele>1487.4</ele>
        <time>2020-08-26T10:22:24.000Z</time>
      </trkpt>
      <trkpt lat="45.09235" lon="6.16342">
        <ele>1487.6</ele>
        <time>2020-08-26T10:22:25.000Z</time>
      </trkpt>
      <trkpt lat="45.09235" lon="6.16339">
        <ele>1487.8</ele>
        <time>2020-08-26T10:22:26.000Z</time>
      </trkpt>
      <trkpt lat="45.09236" lon="6.16335">
        <ele>1488</ele>
        <time>2020-08-26T10:22:27.000Z</time>
      </trkpt>
      <trkpt lat="45.09236" lon="6.16331">
        <ele>1488.2</ele>
        <time>2020-08-26T10:22:28.000Z</time>
      </trkpt>
      <trkpt lat="45.09237" lon="6.16327">
        <ele>1488.4</ele>
        <time>2020-08-26T10:22:29.000Z</time>
      </trkpt>
      <trkpt lat="45.09237" lon="6.16323">
        <ele>1488.6</ele>
        <time>2020-08-26T10:22:30.000Z</time>
      </trkpt>
      <trkpt lat="45.09238" lon="6.16319">
        <ele>1488.8</ele>
        <time>2020-08-26T10:22:31.000Z</time>
      </trkpt>
      <trkpt lat="45.09239" lon="6.16315">
        <ele>1489</ele>
        <time>2020-08-26T10:22:32.000Z</time>
      </trkpt>
      <trkpt lat="45.0924" lon="6.16312">
        <ele>1489.2</ele>
        <time>2020-08-26T10:22:33.000Z</time>
      </trkpt>
      <trkpt lat="45.09241" lon="6.16308">
        <ele>1489.4</ele>
        <time>2020-08-26T10:22:34.000Z</time>
      </trkpt>
      <trkpt lat="45.09243" lon="6.16306">
        <ele>1489.6</ele>
        <time>2020-08-26T10:22:35.000Z</time>
      </trkpt>
      <trkpt lat="45.09244" lon="6.16304">
        <ele>1489.8</ele>
        <time>2020-08-26T10:22:36.000Z</time>
      </trkpt>
      <trkpt lat="45.09245" lon="6.16303">
        <ele>1490</ele>
        <time>2020-08-26T10:22:37.000Z</time>
      </trkpt>
      <trkpt lat="45.09247" lon="6.16304">
        <ele>1490.4</ele>
        <time>2020-08-26T10:22:38.000Z</time>
      </trkpt>
      <trkpt lat="45.09249" lon="6.16305">
        <ele>1490.6</ele>
        <time>2020-08-26T10:22:39.000Z</time>
      </trkpt>
      <trkpt lat="45.09251" lon="6.16306">
        <ele>1491</ele>
        <time>2020-08-26T10:22:40.000Z</time>
      </trkpt>
      <trkpt lat="45.09253" lon="6.16306">
        <ele>1491.2</ele>
        <time>2020-08-26T10:22:41.000Z</time>
      </trkpt>
      <trkpt lat="45.09256" lon="6.16307">
        <ele>1491.4</ele>
        <time>2020-08-26T10:22:42.000Z</time>
      </trkpt>
      <trkpt lat="45.09258" lon="6.16309">
        <ele>1491.8</ele>
        <time>2020-08-26T10:22:43.000Z</time>
      </trkpt>
      <trkpt lat="45.0926" lon="6.1631">
        <ele>1492</ele>
        <time>2020-08-26T10:22:44.000Z</time>
      </trkpt>
      <trkpt lat="45.09262" lon="6.16311">
        <ele>1492.4</ele>
        <time>2020-08-26T10:22:45.000Z</time>
      </trkpt>
      <trkpt lat="45.09264" lon="6.16313">
        <ele>1492.8</ele>
        <time>2020-08-26T10:22:46.000Z</time>
      </trkpt>
      <trkpt lat="45.09265" lon="6.16315">
        <ele>1493.2</ele>
        <time>2020-08-26T10:22:47.000Z</time>
      </trkpt>
      <trkpt lat="45.09267" lon="6.16317">
        <ele>1493.6</ele>
        <time>2020-08-26T10:22:48.000Z</time>
      </trkpt>
      <trkpt lat="45.09269" lon="6.16318">
        <ele>1493.8</ele>
        <time>2020-08-26T10:22:49.000Z</time>
      </trkpt>
      <trkpt lat="45.09271" lon="6.16319">
        <ele>1494</ele>
        <time>2020-08-26T10:22:50.000Z</time>
      </trkpt>
      <trkpt lat="45.09273" lon="6.1632">
        <ele>1494.2</ele>
        <time>2020-08-26T10:22:51.000Z</time>
      </trkpt>
      <trkpt lat="45.09276" lon="6.16322">
        <ele>1494.4</ele>
        <time>2020-08-26T10:22:52.000Z</time>
      </trkpt>
      <trkpt lat="45.09279" lon="6.16323">
        <ele>1494.8</ele>
        <time>2020-08-26T10:22:53.000Z</time>
      </trkpt>
      <trkpt lat="45.09281" lon="6.16324">
        <ele>1495</ele>
        <time>2020-08-26T10:22:54.000Z</time>
      </trkpt>
      <trkpt lat="45.09283" lon="6.16326">
        <ele>1495.4</ele>
        <time>2020-08-26T10:22:55.000Z</time>
      </trkpt>
      <trkpt lat="45.09285" lon="6.16327">
        <ele>1495.6</ele>
        <time>2020-08-26T10:22:56.000Z</time>
      </trkpt>
      <trkpt lat="45.09287" lon="6.16329">
        <ele>1495.8</ele>
        <time>2020-08-26T10:22:57.000Z</time>
      </trkpt>
      <trkpt lat="45.09289" lon="6.1633">
        <ele>1496.2</ele>
        <time>2020-08-26T10:22:58.000Z</time>
      </trkpt>
      <trkpt lat="45.09292" lon="6.1633">
        <ele>1496.4</ele>
        <time>2020-08-26T10:22:59.000Z</time>
      </trkpt>
      <trkpt lat="45.09295" lon="6.16331">
        <ele>1496.6</ele>
        <time>2020-08-26T10:23:00.000Z</time>
      </trkpt>
      <trkpt lat="45.09297" lon="6.16332">
        <ele>1496.8</ele>
        <time>2020-08-26T10:23:01.000Z</time>
      </trkpt>
      <trkpt lat="45.093" lon="6.16333">
        <ele>1497</ele>
        <time>2020-08-26T10:23:02.000Z</time>
      </trkpt>
      <trkpt lat="45.09302" lon="6.16333">
        <ele>1497.4</ele>
        <time>2020-08-26T10:23:03.000Z</time>
      </trkpt>
      <trkpt lat="45.09305" lon="6.16334">
        <ele>1497.4</ele>
        <time>2020-08-26T10:23:04.000Z</time>
      </trkpt>
      <trkpt lat="45.09307" lon="6.16334">
        <ele>1497.6</ele>
        <time>2020-08-26T10:23:05.000Z</time>
      </trkpt>
      <trkpt lat="45.0931" lon="6.16335">
        <ele>1497.8</ele>
        <time>2020-08-26T10:23:06.000Z</time>
      </trkpt>
      <trkpt lat="45.09313" lon="6.16334">
        <ele>1498</ele>
        <time>2020-08-26T10:23:07.000Z</time>
      </trkpt>
      <trkpt lat="45.09316" lon="6.16334">
        <ele>1498.2</ele>
        <time>2020-08-26T10:23:08.000Z</time>
      </trkpt>
      <trkpt lat="45.09319" lon="6.16335">
        <ele>1498.4</ele>
        <time>2020-08-26T10:23:09.000Z</time>
      </trkpt>
      <trkpt lat="45.09322" lon="6.16335">
        <ele>1498.8</ele>
        <time>2020-08-26T10:23:10.000Z</time>
      </trkpt>
      <trkpt lat="45.09326" lon="6.16336">
        <ele>1499.2</ele>
        <time>2020-08-26T10:23:11.000Z</time>
      </trkpt>
      <trkpt lat="45.09328" lon="6.16337">
        <ele>1499.2</ele>
        <time>2020-08-26T10:23:12.000Z</time>
      </trkpt>
      <trkpt lat="45.09331" lon="6.16337">
        <ele>1499.6</ele>
        <time>2020-08-26T10:23:13.000Z</time>
      </trkpt>
      <trkpt lat="45.09333" lon="6.16338">
        <ele>1499.8</ele>
        <time>2020-08-26T10:23:14.000Z</time>
      </trkpt>
      <trkpt lat="45.09336" lon="6.16338">
        <ele>1500.2</ele>
        <time>2020-08-26T10:23:15.000Z</time>
      </trkpt>
      <trkpt lat="45.09338" lon="6.16339">
        <ele>1500.4</ele>
        <time>2020-08-26T10:23:16.000Z</time>
      </trkpt>
      <trkpt lat="45.0934" lon="6.16339">
        <ele>1500.6</ele>
        <time>2020-08-26T10:23:17.000Z</time>
      </trkpt>
      <trkpt lat="45.09343" lon="6.1634">
        <ele>1500.6</ele>
        <time>2020-08-26T10:23:18.000Z</time>
      </trkpt>
      <trkpt lat="45.09346" lon="6.16341">
        <ele>1500.8</ele>
        <time>2020-08-26T10:23:19.000Z</time>
      </trkpt>
      <trkpt lat="45.09348" lon="6.16342">
        <ele>1501</ele>
        <time>2020-08-26T10:23:20.000Z</time>
      </trkpt>
      <trkpt lat="45.0935" lon="6.16343">
        <ele>1501.4</ele>
        <time>2020-08-26T10:23:21.000Z</time>
      </trkpt>
      <trkpt lat="45.09352" lon="6.16344">
        <ele>1501.6</ele>
        <time>2020-08-26T10:23:22.000Z</time>
      </trkpt>
      <trkpt lat="45.09355" lon="6.16345">
        <ele>1501.8</ele>
        <time>2020-08-26T10:23:23.000Z</time>
      </trkpt>
      <trkpt lat="45.09357" lon="6.16345">
        <ele>1502.2</ele>
        <time>2020-08-26T10:23:24.000Z</time>
      </trkpt>
      <trkpt lat="45.09359" lon="6.16346">
        <ele>1502.6</ele>
        <time>2020-08-26T10:23:25.000Z</time>
      </trkpt>
      <trkpt lat="45.09361" lon="6.16347">
        <ele>1502.8</ele>
        <time>2020-08-26T10:23:26.000Z</time>
      </trkpt>
      <trkpt lat="45.09364" lon="6.16348">
        <ele>1503</ele>
        <time>2020-08-26T10:23:27.000Z</time>
      </trkpt>
      <trkpt lat="45.09366" lon="6.16349">
        <ele>1503.4</ele>
        <time>2020-08-26T10:23:28.000Z</time>
      </trkpt>
      <trkpt lat="45.09369" lon="6.1635">
        <ele>1503.6</ele>
        <time>2020-08-26T10:23:29.000Z</time>
      </trkpt>
      <trkpt lat="45.09371" lon="6.16351">
        <ele>1503.8</ele>
        <time>2020-08-26T10:23:30.000Z</time>
      </trkpt>
      <trkpt lat="45.09374" lon="6.16352">
        <ele>1504</ele>
        <time>2020-08-26T10:23:31.000Z</time>
      </trkpt>
      <trkpt lat="45.09376" lon="6.16353">
        <ele>1504.2</ele>
        <time>2020-08-26T10:23:32.000Z</time>
      </trkpt>
      <trkpt lat="45.09379" lon="6.16353">
        <ele>1504.6</ele>
        <time>2020-08-26T10:23:33.000Z</time>
      </trkpt>
      <trkpt lat="45.09382" lon="6.16353">
        <ele>1504.8</ele>
        <time>2020-08-26T10:23:34.000Z</time>
      </trkpt>
      <trkpt lat="45.09385" lon="6.16352">
        <ele>1504.8</ele>
        <time>2020-08-26T10:23:35.000Z</time>
      </trkpt>
      <trkpt lat="45.09388" lon="6.16352">
        <ele>1505</ele>
        <time>2020-08-26T10:23:36.000Z</time>
      </trkpt>
      <trkpt lat="45.09391" lon="6.16351">
        <ele>1505</ele>
        <time>2020-08-26T10:23:37.000Z</time>
      </trkpt>
      <trkpt lat="45.09394" lon="6.1635">
        <ele>1505.2</ele>
        <time>2020-08-26T10:23:38.000Z</time>
      </trkpt>
      <trkpt lat="45.09397" lon="6.16349">
        <ele>1505.6</ele>
        <time>2020-08-26T10:23:39.000Z</time>
      </trkpt>
      <trkpt lat="45.09399" lon="6.16347">
        <ele>1505.8</ele>
        <time>2020-08-26T10:23:40.000Z</time>
      </trkpt>
      <trkpt lat="45.09402" lon="6.16344">
        <ele>1505.8</ele>
        <time>2020-08-26T10:23:41.000Z</time>
      </trkpt>
      <trkpt lat="45.09405" lon="6.16341">
        <ele>1506</ele>
        <time>2020-08-26T10:23:42.000Z</time>
      </trkpt>
      <trkpt lat="45.09407" lon="6.16338">
        <ele>1506.2</ele>
        <time>2020-08-26T10:23:43.000Z</time>
      </trkpt>
      <trkpt lat="45.0941" lon="6.16335">
        <ele>1506.4</ele>
        <time>2020-08-26T10:23:44.000Z</time>
      </trkpt>
      <trkpt lat="45.09413" lon="6.16332">
        <ele>1506.6</ele>
        <time>2020-08-26T10:23:45.000Z</time>
      </trkpt>
      <trkpt lat="45.09416" lon="6.16329">
        <ele>1506.8</ele>
        <time>2020-08-26T10:23:46.000Z</time>
      </trkpt>
      <trkpt lat="45.09418" lon="6.16326">
        <ele>1507</ele>
        <time>2020-08-26T10:23:47.000Z</time>
      </trkpt>
      <trkpt lat="45.09421" lon="6.16324">
        <ele>1507.2</ele>
        <time>2020-08-26T10:23:48.000Z</time>
      </trkpt>
      <trkpt lat="45.09424" lon="6.16322">
        <ele>1507.2</ele>
        <time>2020-08-26T10:23:49.000Z</time>
      </trkpt>
      <trkpt lat="45.09427" lon="6.1632">
        <ele>1507.4</ele>
        <time>2020-08-26T10:23:50.000Z</time>
      </trkpt>
      <trkpt lat="45.0943" lon="6.16318">
        <ele>1507.4</ele>
        <time>2020-08-26T10:23:51.000Z</time>
      </trkpt>
      <trkpt lat="45.09433" lon="6.16316">
        <ele>1507.6</ele>
        <time>2020-08-26T10:23:52.000Z</time>
      </trkpt>
      <trkpt lat="45.09436" lon="6.16315">
        <ele>1507.8</ele>
        <time>2020-08-26T10:23:53.000Z</time>
      </trkpt>
      <trkpt lat="45.0944" lon="6.16314">
        <ele>1507.8</ele>
        <time>2020-08-26T10:23:54.000Z</time>
      </trkpt>
      <trkpt lat="45.09443" lon="6.16313">
        <ele>1507.8</ele>
        <time>2020-08-26T10:23:55.000Z</time>
      </trkpt>
      <trkpt lat="45.09445" lon="6.16312">
        <ele>1508</ele>
        <time>2020-08-26T10:23:56.000Z</time>
      </trkpt>
      <trkpt lat="45.09448" lon="6.16312">
        <ele>1508.4</ele>
        <time>2020-08-26T10:23:57.000Z</time>
      </trkpt>
      <trkpt lat="45.0945" lon="6.16312">
        <ele>1508.6</ele>
        <time>2020-08-26T10:23:58.000Z</time>
      </trkpt>
      <trkpt lat="45.09453" lon="6.16311">
        <ele>1508.6</ele>
        <time>2020-08-26T10:23:59.000Z</time>
      </trkpt>
      <trkpt lat="45.09455" lon="6.16311">
        <ele>1509</ele>
        <time>2020-08-26T10:24:00.000Z</time>
      </trkpt>
      <trkpt lat="45.09458" lon="6.16311">
        <ele>1509.2</ele>
        <time>2020-08-26T10:24:01.000Z</time>
      </trkpt>
      <trkpt lat="45.0946" lon="6.16311">
        <ele>1509.6</ele>
        <time>2020-08-26T10:24:02.000Z</time>
      </trkpt>
      <trkpt lat="45.09463" lon="6.16312">
        <ele>1509.8</ele>
        <time>2020-08-26T10:24:03.000Z</time>
      </trkpt>
      <trkpt lat="45.09466" lon="6.16313">
        <ele>1510.2</ele>
        <time>2020-08-26T10:24:04.000Z</time>
      </trkpt>
      <trkpt lat="45.09468" lon="6.16314">
        <ele>1510.6</ele>
        <time>2020-08-26T10:24:05.000Z</time>
      </trkpt>
      <trkpt lat="45.09471" lon="6.16314">
        <ele>1511</ele>
        <time>2020-08-26T10:24:06.000Z</time>
      </trkpt>
      <trkpt lat="45.09473" lon="6.16315">
        <ele>1511</ele>
        <time>2020-08-26T10:24:07.000Z</time>
      </trkpt>
      <trkpt lat="45.09475" lon="6.16316">
        <ele>1511.8</ele>
        <time>2020-08-26T10:24:08.000Z</time>
      </trkpt>
      <trkpt lat="45.09478" lon="6.16316">
        <ele>1512.2</ele>
        <time>2020-08-26T10:24:09.000Z</time>
      </trkpt>
      <trkpt lat="45.0948" lon="6.16317">
        <ele>1512.4</ele>
        <time>2020-08-26T10:24:10.000Z</time>
      </trkpt>
      <trkpt lat="45.09483" lon="6.16317">
        <ele>1512.4</ele>
        <time>2020-08-26T10:24:11.000Z</time>
      </trkpt>
      <trkpt lat="45.09485" lon="6.16317">
        <ele>1512.8</ele>
        <time>2020-08-26T10:24:12.000Z</time>
      </trkpt>
      <trkpt lat="45.09488" lon="6.16318">
        <ele>1513</ele>
        <time>2020-08-26T10:24:13.000Z</time>
      </trkpt>
      <trkpt lat="45.0949" lon="6.16318">
        <ele>1513.2</ele>
        <time>2020-08-26T10:24:14.000Z</time>
      </trkpt>
      <trkpt lat="45.09493" lon="6.16318">
        <ele>1513.6</ele>
        <time>2020-08-26T10:24:15.000Z</time>
      </trkpt>
      <trkpt lat="45.09496" lon="6.16318">
        <ele>1513.8</ele>
        <time>2020-08-26T10:24:16.000Z</time>
      </trkpt>
      <trkpt lat="45.09499" lon="6.16318">
        <ele>1514.2</ele>
        <time>2020-08-26T10:24:17.000Z</time>
      </trkpt>
      <trkpt lat="45.09502" lon="6.16318">
        <ele>1514.6</ele>
        <time>2020-08-26T10:24:18.000Z</time>
      </trkpt>
      <trkpt lat="45.09505" lon="6.16318">
        <ele>1514.8</ele>
        <time>2020-08-26T10:24:19.000Z</time>
      </trkpt>
      <trkpt lat="45.09508" lon="6.16318">
        <ele>1515.2</ele>
        <time>2020-08-26T10:24:20.000Z</time>
      </trkpt>
      <trkpt lat="45.0951" lon="6.16319">
        <ele>1515.4</ele>
        <time>2020-08-26T10:24:21.000Z</time>
      </trkpt>
      <trkpt lat="45.09513" lon="6.16319">
        <ele>1515.4</ele>
        <time>2020-08-26T10:24:22.000Z</time>
      </trkpt>
      <trkpt lat="45.09515" lon="6.1632">
        <ele>1515.8</ele>
        <time>2020-08-26T10:24:23.000Z</time>
      </trkpt>
      <trkpt lat="45.09518" lon="6.1632">
        <ele>1516</ele>
        <time>2020-08-26T10:24:24.000Z</time>
      </trkpt>
      <trkpt lat="45.09521" lon="6.1632">
        <ele>1516.2</ele>
        <time>2020-08-26T10:24:25.000Z</time>
      </trkpt>
      <trkpt lat="45.09523" lon="6.1632">
        <ele>1516.4</ele>
        <time>2020-08-26T10:24:26.000Z</time>
      </trkpt>
      <trkpt lat="45.09526" lon="6.1632">
        <ele>1516.6</ele>
        <time>2020-08-26T10:24:27.000Z</time>
      </trkpt>
      <trkpt lat="45.09528" lon="6.1632">
        <ele>1517</ele>
        <time>2020-08-26T10:24:28.000Z</time>
      </trkpt>
      <trkpt lat="45.0953" lon="6.16321">
        <ele>1517.2</ele>
        <time>2020-08-26T10:24:29.000Z</time>
      </trkpt>
      <trkpt lat="45.09533" lon="6.16321">
        <ele>1517.4</ele>
        <time>2020-08-26T10:24:30.000Z</time>
      </trkpt>
      <trkpt lat="45.09536" lon="6.1632">
        <ele>1517.6</ele>
        <time>2020-08-26T10:24:31.000Z</time>
      </trkpt>
      <trkpt lat="45.09539" lon="6.16321">
        <ele>1517.6</ele>
        <time>2020-08-26T10:24:32.000Z</time>
      </trkpt>
      <trkpt lat="45.09542" lon="6.16321">
        <ele>1518</ele>
        <time>2020-08-26T10:24:33.000Z</time>
      </trkpt>
      <trkpt lat="45.09544" lon="6.16321">
        <ele>1518.2</ele>
        <time>2020-08-26T10:24:34.000Z</time>
      </trkpt>
      <trkpt lat="45.09547" lon="6.16321">
        <ele>1518.6</ele>
        <time>2020-08-26T10:24:35.000Z</time>
      </trkpt>
      <trkpt lat="45.09549" lon="6.16321">
        <ele>1519</ele>
        <time>2020-08-26T10:24:36.000Z</time>
      </trkpt>
      <trkpt lat="45.09552" lon="6.16321">
        <ele>1519.4</ele>
        <time>2020-08-26T10:24:37.000Z</time>
      </trkpt>
      <trkpt lat="45.09554" lon="6.16322">
        <ele>1519.6</ele>
        <time>2020-08-26T10:24:38.000Z</time>
      </trkpt>
      <trkpt lat="45.09556" lon="6.16321">
        <ele>1519.8</ele>
        <time>2020-08-26T10:24:39.000Z</time>
      </trkpt>
      <trkpt lat="45.09559" lon="6.16322">
        <ele>1519.8</ele>
        <time>2020-08-26T10:24:40.000Z</time>
      </trkpt>
      <trkpt lat="45.09561" lon="6.16322">
        <ele>1520</ele>
        <time>2020-08-26T10:24:41.000Z</time>
      </trkpt>
      <trkpt lat="45.09564" lon="6.16322">
        <ele>1520.2</ele>
        <time>2020-08-26T10:24:42.000Z</time>
      </trkpt>
      <trkpt lat="45.09566" lon="6.16323">
        <ele>1520.6</ele>
        <time>2020-08-26T10:24:43.000Z</time>
      </trkpt>
      <trkpt lat="45.09569" lon="6.16323">
        <ele>1520.8</ele>
        <time>2020-08-26T10:24:44.000Z</time>
      </trkpt>
      <trkpt lat="45.09571" lon="6.16324">
        <ele>1521.2</ele>
        <time>2020-08-26T10:24:45.000Z</time>
      </trkpt>
      <trkpt lat="45.09574" lon="6.16324">
        <ele>1521.4</ele>
        <time>2020-08-26T10:24:46.000Z</time>
      </trkpt>
      <trkpt lat="45.09576" lon="6.16325">
        <ele>1521.6</ele>
        <time>2020-08-26T10:24:47.000Z</time>
      </trkpt>
      <trkpt lat="45.09579" lon="6.16326">
        <ele>1521.6</ele>
        <time>2020-08-26T10:24:48.000Z</time>
      </trkpt>
      <trkpt lat="45.09582" lon="6.16327">
        <ele>1522</ele>
        <time>2020-08-26T10:24:49.000Z</time>
      </trkpt>
      <trkpt lat="45.09584" lon="6.16328">
        <ele>1522.2</ele>
        <time>2020-08-26T10:24:50.000Z</time>
      </trkpt>
      <trkpt lat="45.09587" lon="6.16329">
        <ele>1522.2</ele>
        <time>2020-08-26T10:24:51.000Z</time>
      </trkpt>
      <trkpt lat="45.09589" lon="6.16331">
        <ele>1522.4</ele>
        <time>2020-08-26T10:24:52.000Z</time>
      </trkpt>
      <trkpt lat="45.09591" lon="6.16333">
        <ele>1522.6</ele>
        <time>2020-08-26T10:24:53.000Z</time>
      </trkpt>
      <trkpt lat="45.09594" lon="6.16335">
        <ele>1522.8</ele>
        <time>2020-08-26T10:24:54.000Z</time>
      </trkpt>
      <trkpt lat="45.09596" lon="6.16336">
        <ele>1523.2</ele>
        <time>2020-08-26T10:24:55.000Z</time>
      </trkpt>
      <trkpt lat="45.09599" lon="6.16338">
        <ele>1523.4</ele>
        <time>2020-08-26T10:24:56.000Z</time>
      </trkpt>
      <trkpt lat="45.09601" lon="6.16339">
        <ele>1523.6</ele>
        <time>2020-08-26T10:24:57.000Z</time>
      </trkpt>
      <trkpt lat="45.09604" lon="6.16341">
        <ele>1524</ele>
        <time>2020-08-26T10:24:58.000Z</time>
      </trkpt>
      <trkpt lat="45.09607" lon="6.16342">
        <ele>1524.2</ele>
        <time>2020-08-26T10:24:59.000Z</time>
      </trkpt>
      <trkpt lat="45.0961" lon="6.16343">
        <ele>1524.4</ele>
        <time>2020-08-26T10:25:00.000Z</time>
      </trkpt>
      <trkpt lat="45.09612" lon="6.16345">
        <ele>1524.4</ele>
        <time>2020-08-26T10:25:01.000Z</time>
      </trkpt>
      <trkpt lat="45.09615" lon="6.16347">
        <ele>1524.8</ele>
        <time>2020-08-26T10:25:02.000Z</time>
      </trkpt>
      <trkpt lat="45.09617" lon="6.16348">
        <ele>1525</ele>
        <time>2020-08-26T10:25:03.000Z</time>
      </trkpt>
      <trkpt lat="45.09619" lon="6.16351">
        <ele>1525.2</ele>
        <time>2020-08-26T10:25:04.000Z</time>
      </trkpt>
      <trkpt lat="45.09622" lon="6.16353">
        <ele>1525.4</ele>
        <time>2020-08-26T10:25:05.000Z</time>
      </trkpt>
      <trkpt lat="45.09624" lon="6.16355">
        <ele>1526</ele>
        <time>2020-08-26T10:25:06.000Z</time>
      </trkpt>
      <trkpt lat="45.09627" lon="6.16357">
        <ele>1526</ele>
        <time>2020-08-26T10:25:07.000Z</time>
      </trkpt>
      <trkpt lat="45.09629" lon="6.16359">
        <ele>1526.2</ele>
        <time>2020-08-26T10:25:08.000Z</time>
      </trkpt>
      <trkpt lat="45.09631" lon="6.16362">
        <ele>1526.6</ele>
        <time>2020-08-26T10:25:09.000Z</time>
      </trkpt>
      <trkpt lat="45.09634" lon="6.16364">
        <ele>1526.6</ele>
        <time>2020-08-26T10:25:10.000Z</time>
      </trkpt>
      <trkpt lat="45.09636" lon="6.16366">
        <ele>1526.8</ele>
        <time>2020-08-26T10:25:11.000Z</time>
      </trkpt>
      <trkpt lat="45.09638" lon="6.16368">
        <ele>1527</ele>
        <time>2020-08-26T10:25:12.000Z</time>
      </trkpt>
      <trkpt lat="45.0964" lon="6.16371">
        <ele>1527.2</ele>
        <time>2020-08-26T10:25:13.000Z</time>
      </trkpt>
      <trkpt lat="45.09642" lon="6.16374">
        <ele>1527.4</ele>
        <time>2020-08-26T10:25:14.000Z</time>
      </trkpt>
      <trkpt lat="45.09644" lon="6.16377">
        <ele>1527.6</ele>
        <time>2020-08-26T10:25:15.000Z</time>
      </trkpt>
      <trkpt lat="45.09646" lon="6.1638">
        <ele>1528</ele>
        <time>2020-08-26T10:25:16.000Z</time>
      </trkpt>
      <trkpt lat="45.09648" lon="6.16383">
        <ele>1528.4</ele>
        <time>2020-08-26T10:25:17.000Z</time>
      </trkpt>
      <trkpt lat="45.0965" lon="6.16387">
        <ele>1528.8</ele>
        <time>2020-08-26T10:25:18.000Z</time>
      </trkpt>
      <trkpt lat="45.09652" lon="6.16391">
        <ele>1529.2</ele>
        <time>2020-08-26T10:25:19.000Z</time>
      </trkpt>
      <trkpt lat="45.09655" lon="6.16395">
        <ele>1529.6</ele>
        <time>2020-08-26T10:25:20.000Z</time>
      </trkpt>
      <trkpt lat="45.09657" lon="6.16397">
        <ele>1529.8</ele>
        <time>2020-08-26T10:25:21.000Z</time>
      </trkpt>
      <trkpt lat="45.0966" lon="6.16399">
        <ele>1530</ele>
        <time>2020-08-26T10:25:22.000Z</time>
      </trkpt>
      <trkpt lat="45.09662" lon="6.164">
        <ele>1530.4</ele>
        <time>2020-08-26T10:25:23.000Z</time>
      </trkpt>
      <trkpt lat="45.09665" lon="6.16401">
        <ele>1530.4</ele>
        <time>2020-08-26T10:25:24.000Z</time>
      </trkpt>
      <trkpt lat="45.09668" lon="6.16401">
        <ele>1530.6</ele>
        <time>2020-08-26T10:25:25.000Z</time>
      </trkpt>
      <trkpt lat="45.0967" lon="6.164">
        <ele>1530.8</ele>
        <time>2020-08-26T10:25:26.000Z</time>
      </trkpt>
      <trkpt lat="45.09672" lon="6.16399">
        <ele>1531</ele>
        <time>2020-08-26T10:25:27.000Z</time>
      </trkpt>
      <trkpt lat="45.09675" lon="6.16398">
        <ele>1531.2</ele>
        <time>2020-08-26T10:25:28.000Z</time>
      </trkpt>
      <trkpt lat="45.09677" lon="6.16397">
        <ele>1531.4</ele>
        <time>2020-08-26T10:25:29.000Z</time>
      </trkpt>
      <trkpt lat="45.0968" lon="6.16396">
        <ele>1531.6</ele>
        <time>2020-08-26T10:25:30.000Z</time>
      </trkpt>
      <trkpt lat="45.09682" lon="6.16394">
        <ele>1532</ele>
        <time>2020-08-26T10:25:31.000Z</time>
      </trkpt>
      <trkpt lat="45.09685" lon="6.16393">
        <ele>1532.2</ele>
        <time>2020-08-26T10:25:32.000Z</time>
      </trkpt>
      <trkpt lat="45.09688" lon="6.16391">
        <ele>1532.4</ele>
        <time>2020-08-26T10:25:33.000Z</time>
      </trkpt>
      <trkpt lat="45.09691" lon="6.1639">
        <ele>1532.6</ele>
        <time>2020-08-26T10:25:34.000Z</time>
      </trkpt>
      <trkpt lat="45.09693" lon="6.16389">
        <ele>1532.8</ele>
        <time>2020-08-26T10:25:35.000Z</time>
      </trkpt>
      <trkpt lat="45.09696" lon="6.16388">
        <ele>1533</ele>
        <time>2020-08-26T10:25:36.000Z</time>
      </trkpt>
      <trkpt lat="45.09699" lon="6.16387">
        <ele>1533</ele>
        <time>2020-08-26T10:25:37.000Z</time>
      </trkpt>
      <trkpt lat="45.09701" lon="6.16385">
        <ele>1533.2</ele>
        <time>2020-08-26T10:25:38.000Z</time>
      </trkpt>
      <trkpt lat="45.09704" lon="6.16384">
        <ele>1533.4</ele>
        <time>2020-08-26T10:25:39.000Z</time>
      </trkpt>
      <trkpt lat="45.09706" lon="6.16383">
        <ele>1533.4</ele>
        <time>2020-08-26T10:25:40.000Z</time>
      </trkpt>
      <trkpt lat="45.09709" lon="6.16382">
        <ele>1533.6</ele>
        <time>2020-08-26T10:25:41.000Z</time>
      </trkpt>
      <trkpt lat="45.09712" lon="6.16381">
        <ele>1533.8</ele>
        <time>2020-08-26T10:25:42.000Z</time>
      </trkpt>
      <trkpt lat="45.09714" lon="6.16381">
        <ele>1534</ele>
        <time>2020-08-26T10:25:43.000Z</time>
      </trkpt>
      <trkpt lat="45.09717" lon="6.16381">
        <ele>1534.2</ele>
        <time>2020-08-26T10:25:44.000Z</time>
      </trkpt>
      <trkpt lat="45.09719" lon="6.16381">
        <ele>1534.4</ele>
        <time>2020-08-26T10:25:45.000Z</time>
      </trkpt>
      <trkpt lat="45.09722" lon="6.16382">
        <ele>1534.6</ele>
        <time>2020-08-26T10:25:46.000Z</time>
      </trkpt>
      <trkpt lat="45.09724" lon="6.16383">
        <ele>1534.8</ele>
        <time>2020-08-26T10:25:47.000Z</time>
      </trkpt>
      <trkpt lat="45.09726" lon="6.16385">
        <ele>1534.8</ele>
        <time>2020-08-26T10:25:48.000Z</time>
      </trkpt>
      <trkpt lat="45.09729" lon="6.16387">
        <ele>1535</ele>
        <time>2020-08-26T10:25:49.000Z</time>
      </trkpt>
      <trkpt lat="45.09731" lon="6.16389">
        <ele>1535</ele>
        <time>2020-08-26T10:25:50.000Z</time>
      </trkpt>
      <trkpt lat="45.09732" lon="6.16391">
        <ele>1535.2</ele>
        <time>2020-08-26T10:25:51.000Z</time>
      </trkpt>
      <trkpt lat="45.09734" lon="6.16393">
        <ele>1535.4</ele>
        <time>2020-08-26T10:25:52.000Z</time>
      </trkpt>
      <trkpt lat="45.09736" lon="6.16395">
        <ele>1535.6</ele>
        <time>2020-08-26T10:25:53.000Z</time>
      </trkpt>
      <trkpt lat="45.09738" lon="6.16397">
        <ele>1536</ele>
        <time>2020-08-26T10:25:54.000Z</time>
      </trkpt>
      <trkpt lat="45.09739" lon="6.164">
        <ele>1536.4</ele>
        <time>2020-08-26T10:25:55.000Z</time>
      </trkpt>
      <trkpt lat="45.09741" lon="6.16402">
        <ele>1536.6</ele>
        <time>2020-08-26T10:25:56.000Z</time>
      </trkpt>
      <trkpt lat="45.09743" lon="6.16405">
        <ele>1537</ele>
        <time>2020-08-26T10:25:57.000Z</time>
      </trkpt>
      <trkpt lat="45.09745" lon="6.16407">
        <ele>1537.2</ele>
        <time>2020-08-26T10:25:58.000Z</time>
      </trkpt>
      <trkpt lat="45.09747" lon="6.16411">
        <ele>1537.6</ele>
        <time>2020-08-26T10:25:59.000Z</time>
      </trkpt>
      <trkpt lat="45.09748" lon="6.16414">
        <ele>1537.8</ele>
        <time>2020-08-26T10:26:00.000Z</time>
      </trkpt>
      <trkpt lat="45.0975" lon="6.16417">
        <ele>1538</ele>
        <time>2020-08-26T10:26:01.000Z</time>
      </trkpt>
      <trkpt lat="45.09752" lon="6.1642">
        <ele>1538.4</ele>
        <time>2020-08-26T10:26:02.000Z</time>
      </trkpt>
      <trkpt lat="45.09754" lon="6.16423">
        <ele>1538.6</ele>
        <time>2020-08-26T10:26:03.000Z</time>
      </trkpt>
      <trkpt lat="45.09756" lon="6.16425">
        <ele>1539.2</ele>
        <time>2020-08-26T10:26:04.000Z</time>
      </trkpt>
      <trkpt lat="45.09758" lon="6.16426">
        <ele>1539.4</ele>
        <time>2020-08-26T10:26:05.000Z</time>
      </trkpt>
      <trkpt lat="45.09761" lon="6.16426">
        <ele>1539.6</ele>
        <time>2020-08-26T10:26:06.000Z</time>
      </trkpt>
      <trkpt lat="45.09764" lon="6.16424">
        <ele>1539.8</ele>
        <time>2020-08-26T10:26:07.000Z</time>
      </trkpt>
      <trkpt lat="45.09766" lon="6.16422">
        <ele>1540</ele>
        <time>2020-08-26T10:26:08.000Z</time>
      </trkpt>
      <trkpt lat="45.09766" lon="6.16418">
        <ele>1540.2</ele>
        <time>2020-08-26T10:26:09.000Z</time>
      </trkpt>
      <trkpt lat="45.09765" lon="6.16415">
        <ele>1540.4</ele>
        <time>2020-08-26T10:26:10.000Z</time>
      </trkpt>
      <trkpt lat="45.09764" lon="6.16412">
        <ele>1540.6</ele>
        <time>2020-08-26T10:26:11.000Z</time>
      </trkpt>
      <trkpt lat="45.09763" lon="6.16409">
        <ele>1540.8</ele>
        <time>2020-08-26T10:26:12.000Z</time>
      </trkpt>
      <trkpt lat="45.09761" lon="6.16406">
        <ele>1541</ele>
        <time>2020-08-26T10:26:13.000Z</time>
      </trkpt>
      <trkpt lat="45.09761" lon="6.16403">
        <ele>1541.2</ele>
        <time>2020-08-26T10:26:14.000Z</time>
      </trkpt>
      <trkpt lat="45.0976" lon="6.16399">
        <ele>1541.4</ele>
        <time>2020-08-26T10:26:15.000Z</time>
      </trkpt>
      <trkpt lat="45.0976" lon="6.16396">
        <ele>1541.4</ele>
        <time>2020-08-26T10:26:16.000Z</time>
      </trkpt>
      <trkpt lat="45.09759" lon="6.16393">
        <ele>1541.6</ele>
        <time>2020-08-26T10:26:17.000Z</time>
      </trkpt>
      <trkpt lat="45.09759" lon="6.1639">
        <ele>1541.6</ele>
        <time>2020-08-26T10:26:18.000Z</time>
      </trkpt>
      <trkpt lat="45.09758" lon="6.16386">
        <ele>1541.8</ele>
        <time>2020-08-26T10:26:19.000Z</time>
      </trkpt>
      <trkpt lat="45.09758" lon="6.16383">
        <ele>1541.8</ele>
        <time>2020-08-26T10:26:20.000Z</time>
      </trkpt>
      <trkpt lat="45.09757" lon="6.16379">
        <ele>1541.8</ele>
        <time>2020-08-26T10:26:21.000Z</time>
      </trkpt>
      <trkpt lat="45.09757" lon="6.16376">
        <ele>1541.8</ele>
        <time>2020-08-26T10:26:22.000Z</time>
      </trkpt>
      <trkpt lat="45.09757" lon="6.16372">
        <ele>1542</ele>
        <time>2020-08-26T10:26:23.000Z</time>
      </trkpt>
      <trkpt lat="45.09756" lon="6.16369">
        <ele>1542.4</ele>
        <time>2020-08-26T10:26:24.000Z</time>
      </trkpt>
      <trkpt lat="45.09756" lon="6.16366">
        <ele>1542.6</ele>
        <time>2020-08-26T10:26:25.000Z</time>
      </trkpt>
      <trkpt lat="45.09756" lon="6.16362">
        <ele>1543</ele>
        <time>2020-08-26T10:26:26.000Z</time>
      </trkpt>
      <trkpt lat="45.09755" lon="6.16358">
        <ele>1543.2</ele>
        <time>2020-08-26T10:26:27.000Z</time>
      </trkpt>
      <trkpt lat="45.09754" lon="6.16355">
        <ele>1543.4</ele>
        <time>2020-08-26T10:26:28.000Z</time>
      </trkpt>
      <trkpt lat="45.09754" lon="6.16351">
        <ele>1543.8</ele>
        <time>2020-08-26T10:26:29.000Z</time>
      </trkpt>
      <trkpt lat="45.09753" lon="6.16347">
        <ele>1544</ele>
        <time>2020-08-26T10:26:30.000Z</time>
      </trkpt>
      <trkpt lat="45.09752" lon="6.16344">
        <ele>1544.2</ele>
        <time>2020-08-26T10:26:31.000Z</time>
      </trkpt>
      <trkpt lat="45.0975" lon="6.16341">
        <ele>1544.6</ele>
        <time>2020-08-26T10:26:32.000Z</time>
      </trkpt>
      <trkpt lat="45.09749" lon="6.16339">
        <ele>1544.8</ele>
        <time>2020-08-26T10:26:33.000Z</time>
      </trkpt>
      <trkpt lat="45.09748" lon="6.16336">
        <ele>1545.2</ele>
        <time>2020-08-26T10:26:34.000Z</time>
      </trkpt>
      <trkpt lat="45.09746" lon="6.16333">
        <ele>1545.6</ele>
        <time>2020-08-26T10:26:35.000Z</time>
      </trkpt>
      <trkpt lat="45.09745" lon="6.16329">
        <ele>1545.8</ele>
        <time>2020-08-26T10:26:36.000Z</time>
      </trkpt>
      <trkpt lat="45.09744" lon="6.16326">
        <ele>1546.2</ele>
        <time>2020-08-26T10:26:37.000Z</time>
      </trkpt>
      <trkpt lat="45.09743" lon="6.16322">
        <ele>1546.4</ele>
        <time>2020-08-26T10:26:38.000Z</time>
      </trkpt>
      <trkpt lat="45.09742" lon="6.16318">
        <ele>1546.6</ele>
        <time>2020-08-26T10:26:39.000Z</time>
      </trkpt>
      <trkpt lat="45.0974" lon="6.16315">
        <ele>1546.6</ele>
        <time>2020-08-26T10:26:40.000Z</time>
      </trkpt>
      <trkpt lat="45.09739" lon="6.16311">
        <ele>1546.8</ele>
        <time>2020-08-26T10:26:41.000Z</time>
      </trkpt>
      <trkpt lat="45.09738" lon="6.16308">
        <ele>1547</ele>
        <time>2020-08-26T10:26:42.000Z</time>
      </trkpt>
      <trkpt lat="45.09736" lon="6.16305">
        <ele>1547.2</ele>
        <time>2020-08-26T10:26:43.000Z</time>
      </trkpt>
      <trkpt lat="45.09734" lon="6.16301">
        <ele>1547.4</ele>
        <time>2020-08-26T10:26:44.000Z</time>
      </trkpt>
      <trkpt lat="45.09732" lon="6.16298">
        <ele>1547.6</ele>
        <time>2020-08-26T10:26:45.000Z</time>
      </trkpt>
      <trkpt lat="45.0973" lon="6.16294">
        <ele>1547.8</ele>
        <time>2020-08-26T10:26:46.000Z</time>
      </trkpt>
      <trkpt lat="45.09728" lon="6.16291">
        <ele>1548</ele>
        <time>2020-08-26T10:26:47.000Z</time>
      </trkpt>
      <trkpt lat="45.09726" lon="6.16287">
        <ele>1548</ele>
        <time>2020-08-26T10:26:48.000Z</time>
      </trkpt>
      <trkpt lat="45.09724" lon="6.16284">
        <ele>1548.4</ele>
        <time>2020-08-26T10:26:49.000Z</time>
      </trkpt>
      <trkpt lat="45.09722" lon="6.16281">
        <ele>1548.6</ele>
        <time>2020-08-26T10:26:50.000Z</time>
      </trkpt>
      <trkpt lat="45.0972" lon="6.16278">
        <ele>1548.8</ele>
        <time>2020-08-26T10:26:51.000Z</time>
      </trkpt>
      <trkpt lat="45.09718" lon="6.16275">
        <ele>1549</ele>
        <time>2020-08-26T10:26:52.000Z</time>
      </trkpt>
      <trkpt lat="45.09716" lon="6.16272">
        <ele>1549.2</ele>
        <time>2020-08-26T10:26:53.000Z</time>
      </trkpt>
      <trkpt lat="45.09714" lon="6.16269">
        <ele>1549.2</ele>
        <time>2020-08-26T10:26:54.000Z</time>
      </trkpt>
      <trkpt lat="45.09712" lon="6.16266">
        <ele>1549.2</ele>
        <time>2020-08-26T10:26:55.000Z</time>
      </trkpt>
      <trkpt lat="45.0971" lon="6.16264">
        <ele>1549.4</ele>
        <time>2020-08-26T10:26:56.000Z</time>
      </trkpt>
      <trkpt lat="45.09708" lon="6.16261">
        <ele>1549.4</ele>
        <time>2020-08-26T10:26:57.000Z</time>
      </trkpt>
      <trkpt lat="45.09706" lon="6.16258">
        <ele>1549.6</ele>
        <time>2020-08-26T10:26:58.000Z</time>
      </trkpt>
      <trkpt lat="45.09704" lon="6.16255">
        <ele>1549.8</ele>
        <time>2020-08-26T10:26:59.000Z</time>
      </trkpt>
      <trkpt lat="45.09703" lon="6.16251">
        <ele>1549.8</ele>
        <time>2020-08-26T10:27:00.000Z</time>
      </trkpt>
      <trkpt lat="45.09703" lon="6.16248">
        <ele>1550</ele>
        <time>2020-08-26T10:27:01.000Z</time>
      </trkpt>
      <trkpt lat="45.09705" lon="6.16246">
        <ele>1550.4</ele>
        <time>2020-08-26T10:27:02.000Z</time>
      </trkpt>
      <trkpt lat="45.09707" lon="6.16245">
        <ele>1550.6</ele>
        <time>2020-08-26T10:27:03.000Z</time>
      </trkpt>
      <trkpt lat="45.09709" lon="6.16246">
        <ele>1550.8</ele>
        <time>2020-08-26T10:27:04.000Z</time>
      </trkpt>
      <trkpt lat="45.09711" lon="6.16248">
        <ele>1550.8</ele>
        <time>2020-08-26T10:27:05.000Z</time>
      </trkpt>
      <trkpt lat="45.09712" lon="6.16251">
        <ele>1551</ele>
        <time>2020-08-26T10:27:06.000Z</time>
      </trkpt>
      <trkpt lat="45.09713" lon="6.16254">
        <ele>1551.2</ele>
        <time>2020-08-26T10:27:07.000Z</time>
      </trkpt>
      <trkpt lat="45.09714" lon="6.16257">
        <ele>1551.4</ele>
        <time>2020-08-26T10:27:08.000Z</time>
      </trkpt>
      <trkpt lat="45.09716" lon="6.1626">
        <ele>1551.6</ele>
        <time>2020-08-26T10:27:09.000Z</time>
      </trkpt>
      <trkpt lat="45.09718" lon="6.16262">
        <ele>1551.8</ele>
        <time>2020-08-26T10:27:10.000Z</time>
      </trkpt>
      <trkpt lat="45.09719" lon="6.16265">
        <ele>1552.2</ele>
        <time>2020-08-26T10:27:11.000Z</time>
      </trkpt>
      <trkpt lat="45.09721" lon="6.16267">
        <ele>1552.6</ele>
        <time>2020-08-26T10:27:12.000Z</time>
      </trkpt>
      <trkpt lat="45.09723" lon="6.16269">
        <ele>1552.8</ele>
        <time>2020-08-26T10:27:13.000Z</time>
      </trkpt>
      <trkpt lat="45.09725" lon="6.16272">
        <ele>1553</ele>
        <time>2020-08-26T10:27:14.000Z</time>
      </trkpt>
      <trkpt lat="45.09727" lon="6.16274">
        <ele>1553.2</ele>
        <time>2020-08-26T10:27:15.000Z</time>
      </trkpt>
      <trkpt lat="45.09729" lon="6.16276">
        <ele>1553.6</ele>
        <time>2020-08-26T10:27:16.000Z</time>
      </trkpt>
      <trkpt lat="45.09731" lon="6.16279">
        <ele>1553.8</ele>
        <time>2020-08-26T10:27:17.000Z</time>
      </trkpt>
      <trkpt lat="45.09732" lon="6.16282">
        <ele>1554.2</ele>
        <time>2020-08-26T10:27:18.000Z</time>
      </trkpt>
      <trkpt lat="45.09734" lon="6.16285">
        <ele>1554.4</ele>
        <time>2020-08-26T10:27:19.000Z</time>
      </trkpt>
      <trkpt lat="45.09735" lon="6.16287">
        <ele>1554.6</ele>
        <time>2020-08-26T10:27:20.000Z</time>
      </trkpt>
      <trkpt lat="45.09737" lon="6.1629">
        <ele>1555</ele>
        <time>2020-08-26T10:27:21.000Z</time>
      </trkpt>
      <trkpt lat="45.09739" lon="6.16293">
        <ele>1555</ele>
        <time>2020-08-26T10:27:22.000Z</time>
      </trkpt>
      <trkpt lat="45.0974" lon="6.16295">
        <ele>1555.2</ele>
        <time>2020-08-26T10:27:23.000Z</time>
      </trkpt>
      <trkpt lat="45.09742" lon="6.16298">
        <ele>1555.4</ele>
        <time>2020-08-26T10:27:24.000Z</time>
      </trkpt>
      <trkpt lat="45.09743" lon="6.16301">
        <ele>1555.6</ele>
        <time>2020-08-26T10:27:25.000Z</time>
      </trkpt>
      <trkpt lat="45.09745" lon="6.16303">
        <ele>1555.8</ele>
        <time>2020-08-26T10:27:26.000Z</time>
      </trkpt>
      <trkpt lat="45.09747" lon="6.16306">
        <ele>1556</ele>
        <time>2020-08-26T10:27:27.000Z</time>
      </trkpt>
      <trkpt lat="45.09749" lon="6.16309">
        <ele>1556.2</ele>
        <time>2020-08-26T10:27:28.000Z</time>
      </trkpt>
      <trkpt lat="45.09751" lon="6.16311">
        <ele>1556.4</ele>
        <time>2020-08-26T10:27:29.000Z</time>
      </trkpt>
      <trkpt lat="45.09753" lon="6.16314">
        <ele>1557</ele>
        <time>2020-08-26T10:27:30.000Z</time>
      </trkpt>
      <trkpt lat="45.09755" lon="6.16316">
        <ele>1557.2</ele>
        <time>2020-08-26T10:27:31.000Z</time>
      </trkpt>
      <trkpt lat="45.09756" lon="6.16318">
        <ele>1557.6</ele>
        <time>2020-08-26T10:27:32.000Z</time>
      </trkpt>
      <trkpt lat="45.09758" lon="6.1632">
        <ele>1558</ele>
        <time>2020-08-26T10:27:33.000Z</time>
      </trkpt>
      <trkpt lat="45.0976" lon="6.16323">
        <ele>1558.2</ele>
        <time>2020-08-26T10:27:34.000Z</time>
      </trkpt>
      <trkpt lat="45.09762" lon="6.16325">
        <ele>1558.4</ele>
        <time>2020-08-26T10:27:35.000Z</time>
      </trkpt>
      <trkpt lat="45.09763" lon="6.16327">
        <ele>1558.6</ele>
        <time>2020-08-26T10:27:36.000Z</time>
      </trkpt>
      <trkpt lat="45.09766" lon="6.16329">
        <ele>1559</ele>
        <time>2020-08-26T10:27:37.000Z</time>
      </trkpt>
      <trkpt lat="45.09768" lon="6.16331">
        <ele>1559.2</ele>
        <time>2020-08-26T10:27:38.000Z</time>
      </trkpt>
      <trkpt lat="45.0977" lon="6.16333">
        <ele>1559.6</ele>
        <time>2020-08-26T10:27:39.000Z</time>
      </trkpt>
      <trkpt lat="45.09772" lon="6.16336">
        <ele>1559.8</ele>
        <time>2020-08-26T10:27:40.000Z</time>
      </trkpt>
      <trkpt lat="45.09774" lon="6.16338">
        <ele>1560.2</ele>
        <time>2020-08-26T10:27:41.000Z</time>
      </trkpt>
      <trkpt lat="45.09776" lon="6.16339">
        <ele>1560.4</ele>
        <time>2020-08-26T10:27:42.000Z</time>
      </trkpt>
      <trkpt lat="45.09778" lon="6.16342">
        <ele>1560.8</ele>
        <time>2020-08-26T10:27:43.000Z</time>
      </trkpt>
      <trkpt lat="45.0978" lon="6.16344">
        <ele>1561</ele>
        <time>2020-08-26T10:27:44.000Z</time>
      </trkpt>
      <trkpt lat="45.09782" lon="6.16346">
        <ele>1561.2</ele>
        <time>2020-08-26T10:27:45.000Z</time>
      </trkpt>
      <trkpt lat="45.09785" lon="6.16348">
        <ele>1561.4</ele>
        <time>2020-08-26T10:27:46.000Z</time>
      </trkpt>
      <trkpt lat="45.09787" lon="6.1635">
        <ele>1561.6</ele>
        <time>2020-08-26T10:27:47.000Z</time>
      </trkpt>
      <trkpt lat="45.09789" lon="6.16352">
        <ele>1561.8</ele>
        <time>2020-08-26T10:27:48.000Z</time>
      </trkpt>
      <trkpt lat="45.09791" lon="6.16354">
        <ele>1562</ele>
        <time>2020-08-26T10:27:49.000Z</time>
      </trkpt>
      <trkpt lat="45.09794" lon="6.16356">
        <ele>1562</ele>
        <time>2020-08-26T10:27:50.000Z</time>
      </trkpt>
      <trkpt lat="45.09796" lon="6.16358">
        <ele>1562.2</ele>
        <time>2020-08-26T10:27:51.000Z</time>
      </trkpt>
      <trkpt lat="45.09798" lon="6.1636">
        <ele>1562.4</ele>
        <time>2020-08-26T10:27:52.000Z</time>
      </trkpt>
      <trkpt lat="45.098" lon="6.16362">
        <ele>1562.6</ele>
        <time>2020-08-26T10:27:53.000Z</time>
      </trkpt>
      <trkpt lat="45.09802" lon="6.16364">
        <ele>1562.8</ele>
        <time>2020-08-26T10:27:54.000Z</time>
      </trkpt>
      <trkpt lat="45.09805" lon="6.16367">
        <ele>1563</ele>
        <time>2020-08-26T10:27:55.000Z</time>
      </trkpt>
      <trkpt lat="45.09806" lon="6.16369">
        <ele>1563.2</ele>
        <time>2020-08-26T10:27:56.000Z</time>
      </trkpt>
      <trkpt lat="45.09809" lon="6.16371">
        <ele>1563.4</ele>
        <time>2020-08-26T10:27:57.000Z</time>
      </trkpt>
      <trkpt lat="45.09811" lon="6.16373">
        <ele>1563.6</ele>
        <time>2020-08-26T10:27:58.000Z</time>
      </trkpt>
      <trkpt lat="45.09813" lon="6.16376">
        <ele>1563.6</ele>
        <time>2020-08-26T10:27:59.000Z</time>
      </trkpt>
      <trkpt lat="45.09815" lon="6.16378">
        <ele>1563.8</ele>
        <time>2020-08-26T10:28:00.000Z</time>
      </trkpt>
      <trkpt lat="45.09816" lon="6.1638">
        <ele>1564</ele>
        <time>2020-08-26T10:28:01.000Z</time>
      </trkpt>
      <trkpt lat="45.09818" lon="6.16382">
        <ele>1564.2</ele>
        <time>2020-08-26T10:28:02.000Z</time>
      </trkpt>
      <trkpt lat="45.09821" lon="6.16384">
        <ele>1564.4</ele>
        <time>2020-08-26T10:28:03.000Z</time>
      </trkpt>
      <trkpt lat="45.09823" lon="6.16386">
        <ele>1564.6</ele>
        <time>2020-08-26T10:28:04.000Z</time>
      </trkpt>
      <trkpt lat="45.09825" lon="6.16388">
        <ele>1565</ele>
        <time>2020-08-26T10:28:05.000Z</time>
      </trkpt>
      <trkpt lat="45.09827" lon="6.16391">
        <ele>1565.2</ele>
        <time>2020-08-26T10:28:06.000Z</time>
      </trkpt>
      <trkpt lat="45.09829" lon="6.16393">
        <ele>1565.4</ele>
        <time>2020-08-26T10:28:07.000Z</time>
      </trkpt>
      <trkpt lat="45.09832" lon="6.16395">
        <ele>1565.8</ele>
        <time>2020-08-26T10:28:08.000Z</time>
      </trkpt>
      <trkpt lat="45.09834" lon="6.16397">
        <ele>1566</ele>
        <time>2020-08-26T10:28:09.000Z</time>
      </trkpt>
      <trkpt lat="45.09837" lon="6.164">
        <ele>1566.2</ele>
        <time>2020-08-26T10:28:10.000Z</time>
      </trkpt>
      <trkpt lat="45.09839" lon="6.16402">
        <ele>1566.6</ele>
        <time>2020-08-26T10:28:11.000Z</time>
      </trkpt>
      <trkpt lat="45.09842" lon="6.16404">
        <ele>1566.8</ele>
        <time>2020-08-26T10:28:12.000Z</time>
      </trkpt>
      <trkpt lat="45.09845" lon="6.16406">
        <ele>1567.2</ele>
        <time>2020-08-26T10:28:13.000Z</time>
      </trkpt>
      <trkpt lat="45.09847" lon="6.16407">
        <ele>1567.4</ele>
        <time>2020-08-26T10:28:14.000Z</time>
      </trkpt>
      <trkpt lat="45.0985" lon="6.1641">
        <ele>1567.4</ele>
        <time>2020-08-26T10:28:15.000Z</time>
      </trkpt>
      <trkpt lat="45.09852" lon="6.16412">
        <ele>1567.6</ele>
        <time>2020-08-26T10:28:16.000Z</time>
      </trkpt>
      <trkpt lat="45.09855" lon="6.16414">
        <ele>1567.8</ele>
        <time>2020-08-26T10:28:17.000Z</time>
      </trkpt>
      <trkpt lat="45.09857" lon="6.16416">
        <ele>1568</ele>
        <time>2020-08-26T10:28:18.000Z</time>
      </trkpt>
      <trkpt lat="45.0986" lon="6.16418">
        <ele>1568.2</ele>
        <time>2020-08-26T10:28:19.000Z</time>
      </trkpt>
      <trkpt lat="45.09862" lon="6.1642">
        <ele>1568.4</ele>
        <time>2020-08-26T10:28:20.000Z</time>
      </trkpt>
      <trkpt lat="45.09864" lon="6.16422">
        <ele>1568.6</ele>
        <time>2020-08-26T10:28:21.000Z</time>
      </trkpt>
      <trkpt lat="45.09867" lon="6.16423">
        <ele>1568.8</ele>
        <time>2020-08-26T10:28:22.000Z</time>
      </trkpt>
      <trkpt lat="45.09869" lon="6.16425">
        <ele>1568.8</ele>
        <time>2020-08-26T10:28:23.000Z</time>
      </trkpt>
      <trkpt lat="45.09871" lon="6.16427">
        <ele>1569</ele>
        <time>2020-08-26T10:28:24.000Z</time>
      </trkpt>
      <trkpt lat="45.09874" lon="6.16429">
        <ele>1569.4</ele>
        <time>2020-08-26T10:28:25.000Z</time>
      </trkpt>
      <trkpt lat="45.09876" lon="6.16431">
        <ele>1569.4</ele>
        <time>2020-08-26T10:28:26.000Z</time>
      </trkpt>
      <trkpt lat="45.09878" lon="6.16433">
        <ele>1569.6</ele>
        <time>2020-08-26T10:28:27.000Z</time>
      </trkpt>
      <trkpt lat="45.0988" lon="6.16435">
        <ele>1570.2</ele>
        <time>2020-08-26T10:28:28.000Z</time>
      </trkpt>
      <trkpt lat="45.09883" lon="6.16437">
        <ele>1570.6</ele>
        <time>2020-08-26T10:28:29.000Z</time>
      </trkpt>
      <trkpt lat="45.09885" lon="6.16439">
        <ele>1570.8</ele>
        <time>2020-08-26T10:28:30.000Z</time>
      </trkpt>
      <trkpt lat="45.09887" lon="6.1644">
        <ele>1571</ele>
        <time>2020-08-26T10:28:31.000Z</time>
      </trkpt>
      <trkpt lat="45.0989" lon="6.16442">
        <ele>1571.2</ele>
        <time>2020-08-26T10:28:32.000Z</time>
      </trkpt>
      <trkpt lat="45.09893" lon="6.16443">
        <ele>1571.4</ele>
        <time>2020-08-26T10:28:33.000Z</time>
      </trkpt>
      <trkpt lat="45.09895" lon="6.16445">
        <ele>1571.6</ele>
        <time>2020-08-26T10:28:34.000Z</time>
      </trkpt>
      <trkpt lat="45.09897" lon="6.16447">
        <ele>1571.8</ele>
        <time>2020-08-26T10:28:35.000Z</time>
      </trkpt>
      <trkpt lat="45.099" lon="6.16449">
        <ele>1572</ele>
        <time>2020-08-26T10:28:36.000Z</time>
      </trkpt>
      <trkpt lat="45.09902" lon="6.16451">
        <ele>1572.2</ele>
        <time>2020-08-26T10:28:37.000Z</time>
      </trkpt>
      <trkpt lat="45.09904" lon="6.16453">
        <ele>1572.6</ele>
        <time>2020-08-26T10:28:38.000Z</time>
      </trkpt>
      <trkpt lat="45.09907" lon="6.16455">
        <ele>1573</ele>
        <time>2020-08-26T10:28:39.000Z</time>
      </trkpt>
      <trkpt lat="45.09909" lon="6.16457">
        <ele>1573.2</ele>
        <time>2020-08-26T10:28:40.000Z</time>
      </trkpt>
      <trkpt lat="45.09911" lon="6.16459">
        <ele>1573.4</ele>
        <time>2020-08-26T10:28:41.000Z</time>
      </trkpt>
      <trkpt lat="45.09913" lon="6.1646">
        <ele>1573.8</ele>
        <time>2020-08-26T10:28:42.000Z</time>
      </trkpt>
      <trkpt lat="45.09915" lon="6.16462">
        <ele>1574</ele>
        <time>2020-08-26T10:28:43.000Z</time>
      </trkpt>
      <trkpt lat="45.09917" lon="6.16464">
        <ele>1574</ele>
        <time>2020-08-26T10:28:44.000Z</time>
      </trkpt>
      <trkpt lat="45.0992" lon="6.16465">
        <ele>1574.2</ele>
        <time>2020-08-26T10:28:45.000Z</time>
      </trkpt>
      <trkpt lat="45.09922" lon="6.16467">
        <ele>1574.4</ele>
        <time>2020-08-26T10:28:46.000Z</time>
      </trkpt>
      <trkpt lat="45.09924" lon="6.16468">
        <ele>1574.8</ele>
        <time>2020-08-26T10:28:47.000Z</time>
      </trkpt>
      <trkpt lat="45.09926" lon="6.16469">
        <ele>1575</ele>
        <time>2020-08-26T10:28:48.000Z</time>
      </trkpt>
      <trkpt lat="45.09929" lon="6.1647">
        <ele>1575.2</ele>
        <time>2020-08-26T10:28:49.000Z</time>
      </trkpt>
      <trkpt lat="45.09931" lon="6.16471">
        <ele>1575.2</ele>
        <time>2020-08-26T10:28:50.000Z</time>
      </trkpt>
      <trkpt lat="45.09933" lon="6.16471">
        <ele>1575.4</ele>
        <time>2020-08-26T10:28:51.000Z</time>
      </trkpt>
      <trkpt lat="45.09936" lon="6.16472">
        <ele>1575.6</ele>
        <time>2020-08-26T10:28:52.000Z</time>
      </trkpt>
      <trkpt lat="45.09939" lon="6.16472">
        <ele>1575.8</ele>
        <time>2020-08-26T10:28:53.000Z</time>
      </trkpt>
      <trkpt lat="45.09941" lon="6.16472">
        <ele>1576</ele>
        <time>2020-08-26T10:28:54.000Z</time>
      </trkpt>
      <trkpt lat="45.09943" lon="6.16472">
        <ele>1576.2</ele>
        <time>2020-08-26T10:28:55.000Z</time>
      </trkpt>
      <trkpt lat="45.09946" lon="6.16472">
        <ele>1576.4</ele>
        <time>2020-08-26T10:28:56.000Z</time>
      </trkpt>
      <trkpt lat="45.09948" lon="6.16472">
        <ele>1576.8</ele>
        <time>2020-08-26T10:28:57.000Z</time>
      </trkpt>
      <trkpt lat="45.09951" lon="6.16472">
        <ele>1577.2</ele>
        <time>2020-08-26T10:28:58.000Z</time>
      </trkpt>
      <trkpt lat="45.09953" lon="6.16471">
        <ele>1577.2</ele>
        <time>2020-08-26T10:28:59.000Z</time>
      </trkpt>
      <trkpt lat="45.09955" lon="6.16471">
        <ele>1577.4</ele>
        <time>2020-08-26T10:29:00.000Z</time>
      </trkpt>
      <trkpt lat="45.09957" lon="6.16471">
        <ele>1577.6</ele>
        <time>2020-08-26T10:29:01.000Z</time>
      </trkpt>
      <trkpt lat="45.09959" lon="6.16471">
        <ele>1577.8</ele>
        <time>2020-08-26T10:29:02.000Z</time>
      </trkpt>
      <trkpt lat="45.09961" lon="6.16471">
        <ele>1578</ele>
        <time>2020-08-26T10:29:03.000Z</time>
      </trkpt>
      <trkpt lat="45.09963" lon="6.16471">
        <ele>1578.4</ele>
        <time>2020-08-26T10:29:04.000Z</time>
      </trkpt>
      <trkpt lat="45.09965" lon="6.16471">
        <ele>1578.6</ele>
        <time>2020-08-26T10:29:05.000Z</time>
      </trkpt>
      <trkpt lat="45.09967" lon="6.1647">
        <ele>1578.8</ele>
        <time>2020-08-26T10:29:06.000Z</time>
      </trkpt>
      <trkpt lat="45.09969" lon="6.1647">
        <ele>1579</ele>
        <time>2020-08-26T10:29:07.000Z</time>
      </trkpt>
      <trkpt lat="45.09971" lon="6.1647">
        <ele>1579.2</ele>
        <time>2020-08-26T10:29:08.000Z</time>
      </trkpt>
      <trkpt lat="45.09973" lon="6.1647">
        <ele>1579.6</ele>
        <time>2020-08-26T10:29:09.000Z</time>
      </trkpt>
      <trkpt lat="45.09976" lon="6.1647">
        <ele>1579.8</ele>
        <time>2020-08-26T10:29:10.000Z</time>
      </trkpt>
      <trkpt lat="45.09978" lon="6.1647">
        <ele>1580</ele>
        <time>2020-08-26T10:29:11.000Z</time>
      </trkpt>
      <trkpt lat="45.09981" lon="6.1647">
        <ele>1580.2</ele>
        <time>2020-08-26T10:29:12.000Z</time>
      </trkpt>
      <trkpt lat="45.09983" lon="6.1647">
        <ele>1580.4</ele>
        <time>2020-08-26T10:29:13.000Z</time>
      </trkpt>
      <trkpt lat="45.09986" lon="6.1647">
        <ele>1580.4</ele>
        <time>2020-08-26T10:29:14.000Z</time>
      </trkpt>
      <trkpt lat="45.09988" lon="6.16471">
        <ele>1580.8</ele>
        <time>2020-08-26T10:29:15.000Z</time>
      </trkpt>
      <trkpt lat="45.09991" lon="6.16472">
        <ele>1581</ele>
        <time>2020-08-26T10:29:16.000Z</time>
      </trkpt>
      <trkpt lat="45.09993" lon="6.16472">
        <ele>1581</ele>
        <time>2020-08-26T10:29:17.000Z</time>
      </trkpt>
      <trkpt lat="45.09996" lon="6.16472">
        <ele>1581.2</ele>
        <time>2020-08-26T10:29:18.000Z</time>
      </trkpt>
      <trkpt lat="45.09998" lon="6.16472">
        <ele>1581.4</ele>
        <time>2020-08-26T10:29:19.000Z</time>
      </trkpt>
      <trkpt lat="45.10001" lon="6.16472">
        <ele>1581.6</ele>
        <time>2020-08-26T10:29:20.000Z</time>
      </trkpt>
      <trkpt lat="45.10003" lon="6.16471">
        <ele>1581.8</ele>
        <time>2020-08-26T10:29:21.000Z</time>
      </trkpt>
      <trkpt lat="45.10006" lon="6.16469">
        <ele>1582</ele>
        <time>2020-08-26T10:29:22.000Z</time>
      </trkpt>
      <trkpt lat="45.10008" lon="6.16467">
        <ele>1582.2</ele>
        <time>2020-08-26T10:29:23.000Z</time>
      </trkpt>
      <trkpt lat="45.10009" lon="6.16464">
        <ele>1582.6</ele>
        <time>2020-08-26T10:29:24.000Z</time>
      </trkpt>
      <trkpt lat="45.10009" lon="6.16461">
        <ele>1582.8</ele>
        <time>2020-08-26T10:29:25.000Z</time>
      </trkpt>
      <trkpt lat="45.10008" lon="6.16458">
        <ele>1583.2</ele>
        <time>2020-08-26T10:29:26.000Z</time>
      </trkpt>
      <trkpt lat="45.10007" lon="6.16455">
        <ele>1583.4</ele>
        <time>2020-08-26T10:29:27.000Z</time>
      </trkpt>
      <trkpt lat="45.10005" lon="6.16453">
        <ele>1583.8</ele>
        <time>2020-08-26T10:29:28.000Z</time>
      </trkpt>
      <trkpt lat="45.10003" lon="6.16451">
        <ele>1584</ele>
        <time>2020-08-26T10:29:29.000Z</time>
      </trkpt>
      <trkpt lat="45.1" lon="6.16449">
        <ele>1584.2</ele>
        <time>2020-08-26T10:29:30.000Z</time>
      </trkpt>
      <trkpt lat="45.09998" lon="6.16448">
        <ele>1584.6</ele>
        <time>2020-08-26T10:29:31.000Z</time>
      </trkpt>
      <trkpt lat="45.09995" lon="6.16446">
        <ele>1584.8</ele>
        <time>2020-08-26T10:29:32.000Z</time>
      </trkpt>
      <trkpt lat="45.09993" lon="6.16445">
        <ele>1585</ele>
        <time>2020-08-26T10:29:33.000Z</time>
      </trkpt>
      <trkpt lat="45.0999" lon="6.16444">
        <ele>1585.2</ele>
        <time>2020-08-26T10:29:34.000Z</time>
      </trkpt>
      <trkpt lat="45.09987" lon="6.16444">
        <ele>1585.2</ele>
        <time>2020-08-26T10:29:35.000Z</time>
      </trkpt>
      <trkpt lat="45.09984" lon="6.16444">
        <ele>1585.4</ele>
        <time>2020-08-26T10:29:36.000Z</time>
      </trkpt>
      <trkpt lat="45.09981" lon="6.16443">
        <ele>1585.6</ele>
        <time>2020-08-26T10:29:37.000Z</time>
      </trkpt>
      <trkpt lat="45.09978" lon="6.16443">
        <ele>1585.8</ele>
        <time>2020-08-26T10:29:38.000Z</time>
      </trkpt>
      <trkpt lat="45.09975" lon="6.16443">
        <ele>1586</ele>
        <time>2020-08-26T10:29:39.000Z</time>
      </trkpt>
      <trkpt lat="45.09972" lon="6.16443">
        <ele>1586.2</ele>
        <time>2020-08-26T10:29:40.000Z</time>
      </trkpt>
      <trkpt lat="45.09969" lon="6.16443">
        <ele>1586.4</ele>
        <time>2020-08-26T10:29:41.000Z</time>
      </trkpt>
      <trkpt lat="45.09965" lon="6.16443">
        <ele>1586.6</ele>
        <time>2020-08-26T10:29:42.000Z</time>
      </trkpt>
      <trkpt lat="45.09962" lon="6.16443">
        <ele>1586.6</ele>
        <time>2020-08-26T10:29:43.000Z</time>
      </trkpt>
      <trkpt lat="45.09959" lon="6.16443">
        <ele>1586.8</ele>
        <time>2020-08-26T10:29:44.000Z</time>
      </trkpt>
      <trkpt lat="45.09956" lon="6.16443">
        <ele>1587</ele>
        <time>2020-08-26T10:29:45.000Z</time>
      </trkpt>
      <trkpt lat="45.09952" lon="6.16442">
        <ele>1587.2</ele>
        <time>2020-08-26T10:29:46.000Z</time>
      </trkpt>
      <trkpt lat="45.09949" lon="6.16441">
        <ele>1587.4</ele>
        <time>2020-08-26T10:29:47.000Z</time>
      </trkpt>
      <trkpt lat="45.09946" lon="6.16441">
        <ele>1587.4</ele>
        <time>2020-08-26T10:29:48.000Z</time>
      </trkpt>
      <trkpt lat="45.09942" lon="6.1644">
        <ele>1587.6</ele>
        <time>2020-08-26T10:29:49.000Z</time>
      </trkpt>
      <trkpt lat="45.09939" lon="6.16438">
        <ele>1587.6</ele>
        <time>2020-08-26T10:29:50.000Z</time>
      </trkpt>
      <trkpt lat="45.09936" lon="6.16437">
        <ele>1587.8</ele>
        <time>2020-08-26T10:29:51.000Z</time>
      </trkpt>
      <trkpt lat="45.09933" lon="6.16436">
        <ele>1587.8</ele>
        <time>2020-08-26T10:29:52.000Z</time>
      </trkpt>
      <trkpt lat="45.0993" lon="6.16433">
        <ele>1587.8</ele>
        <time>2020-08-26T10:29:53.000Z</time>
      </trkpt>
      <trkpt lat="45.09927" lon="6.16431">
        <ele>1587.8</ele>
        <time>2020-08-26T10:29:54.000Z</time>
      </trkpt>
      <trkpt lat="45.09925" lon="6.16429">
        <ele>1588</ele>
        <time>2020-08-26T10:29:55.000Z</time>
      </trkpt>
      <trkpt lat="45.09922" lon="6.16427">
        <ele>1588</ele>
        <time>2020-08-26T10:29:56.000Z</time>
      </trkpt>
      <trkpt lat="45.0992" lon="6.16425">
        <ele>1588</ele>
        <time>2020-08-26T10:29:57.000Z</time>
      </trkpt>
      <trkpt lat="45.09917" lon="6.16422">
        <ele>1588</ele>
        <time>2020-08-26T10:29:58.000Z</time>
      </trkpt>
      <trkpt lat="45.09915" lon="6.1642">
        <ele>1588.2</ele>
        <time>2020-08-26T10:29:59.000Z</time>
      </trkpt>
      <trkpt lat="45.09913" lon="6.16417">
        <ele>1588.2</ele>
        <time>2020-08-26T10:30:00.000Z</time>
      </trkpt>
      <trkpt lat="45.0991" lon="6.16415">
        <ele>1588.4</ele>
        <time>2020-08-26T10:30:01.000Z</time>
      </trkpt>
      <trkpt lat="45.09908" lon="6.16412">
        <ele>1588.4</ele>
        <time>2020-08-26T10:30:02.000Z</time>
      </trkpt>
      <trkpt lat="45.09906" lon="6.16409">
        <ele>1588.4</ele>
        <time>2020-08-26T10:30:03.000Z</time>
      </trkpt>
      <trkpt lat="45.09905" lon="6.16405">
        <ele>1588.8</ele>
        <time>2020-08-26T10:30:04.000Z</time>
      </trkpt>
      <trkpt lat="45.09904" lon="6.16402">
        <ele>1589</ele>
        <time>2020-08-26T10:30:05.000Z</time>
      </trkpt>
      <trkpt lat="45.09903" lon="6.16398">
        <ele>1589</ele>
        <time>2020-08-26T10:30:06.000Z</time>
      </trkpt>
      <trkpt lat="45.09903" lon="6.16394">
        <ele>1589.6</ele>
        <time>2020-08-26T10:30:07.000Z</time>
      </trkpt>
      <trkpt lat="45.09903" lon="6.16391">
        <ele>1589.8</ele>
        <time>2020-08-26T10:30:08.000Z</time>
      </trkpt>
      <trkpt lat="45.09903" lon="6.16387">
        <ele>1589.8</ele>
        <time>2020-08-26T10:30:09.000Z</time>
      </trkpt>
      <trkpt lat="45.09903" lon="6.16383">
        <ele>1590.2</ele>
        <time>2020-08-26T10:30:10.000Z</time>
      </trkpt>
      <trkpt lat="45.09903" lon="6.16379">
        <ele>1590.4</ele>
        <time>2020-08-26T10:30:11.000Z</time>
      </trkpt>
      <trkpt lat="45.09902" lon="6.16375">
        <ele>1590.6</ele>
        <time>2020-08-26T10:30:12.000Z</time>
      </trkpt>
      <trkpt lat="45.09902" lon="6.16371">
        <ele>1590.8</ele>
        <time>2020-08-26T10:30:13.000Z</time>
      </trkpt>
      <trkpt lat="45.09901" lon="6.16367">
        <ele>1591</ele>
        <time>2020-08-26T10:30:14.000Z</time>
      </trkpt>
      <trkpt lat="45.09901" lon="6.16363">
        <ele>1591.2</ele>
        <time>2020-08-26T10:30:15.000Z</time>
      </trkpt>
      <trkpt lat="45.099" lon="6.16359">
        <ele>1591.4</ele>
        <time>2020-08-26T10:30:16.000Z</time>
      </trkpt>
      <trkpt lat="45.09899" lon="6.16355">
        <ele>1591.8</ele>
        <time>2020-08-26T10:30:17.000Z</time>
      </trkpt>
      <trkpt lat="45.09898" lon="6.16351">
        <ele>1592</ele>
        <time>2020-08-26T10:30:18.000Z</time>
      </trkpt>
      <trkpt lat="45.09896" lon="6.16348">
        <ele>1592.2</ele>
        <time>2020-08-26T10:30:19.000Z</time>
      </trkpt>
      <trkpt lat="45.09894" lon="6.16345">
        <ele>1592.4</ele>
        <time>2020-08-26T10:30:20.000Z</time>
      </trkpt>
      <trkpt lat="45.09892" lon="6.16342">
        <ele>1592.8</ele>
        <time>2020-08-26T10:30:21.000Z</time>
      </trkpt>
      <trkpt lat="45.0989" lon="6.1634">
        <ele>1593.2</ele>
        <time>2020-08-26T10:30:22.000Z</time>
      </trkpt>
      <trkpt lat="45.09888" lon="6.16337">
        <ele>1593.4</ele>
        <time>2020-08-26T10:30:23.000Z</time>
      </trkpt>
      <trkpt lat="45.09886" lon="6.16334">
        <ele>1593.8</ele>
        <time>2020-08-26T10:30:24.000Z</time>
      </trkpt>
      <trkpt lat="45.09884" lon="6.16331">
        <ele>1594</ele>
        <time>2020-08-26T10:30:25.000Z</time>
      </trkpt>
      <trkpt lat="45.09882" lon="6.16328">
        <ele>1594.2</ele>
        <time>2020-08-26T10:30:26.000Z</time>
      </trkpt>
      <trkpt lat="45.09881" lon="6.16325">
        <ele>1594.4</ele>
        <time>2020-08-26T10:30:27.000Z</time>
      </trkpt>
      <trkpt lat="45.0988" lon="6.16321">
        <ele>1594.8</ele>
        <time>2020-08-26T10:30:28.000Z</time>
      </trkpt>
      <trkpt lat="45.09878" lon="6.16318">
        <ele>1595</ele>
        <time>2020-08-26T10:30:29.000Z</time>
      </trkpt>
      <trkpt lat="45.09876" lon="6.16316">
        <ele>1595.2</ele>
        <time>2020-08-26T10:30:30.000Z</time>
      </trkpt>
      <trkpt lat="45.09874" lon="6.16313">
        <ele>1595.4</ele>
        <time>2020-08-26T10:30:31.000Z</time>
      </trkpt>
      <trkpt lat="45.09873" lon="6.1631">
        <ele>1595.8</ele>
        <time>2020-08-26T10:30:32.000Z</time>
      </trkpt>
      <trkpt lat="45.09871" lon="6.16307">
        <ele>1596.2</ele>
        <time>2020-08-26T10:30:33.000Z</time>
      </trkpt>
      <trkpt lat="45.09869" lon="6.16304">
        <ele>1596.6</ele>
        <time>2020-08-26T10:30:34.000Z</time>
      </trkpt>
      <trkpt lat="45.09868" lon="6.16302">
        <ele>1597</ele>
        <time>2020-08-26T10:30:35.000Z</time>
      </trkpt>
      <trkpt lat="45.09866" lon="6.16299">
        <ele>1597.2</ele>
        <time>2020-08-26T10:30:36.000Z</time>
      </trkpt>
      <trkpt lat="45.09864" lon="6.16296">
        <ele>1597.4</ele>
        <time>2020-08-26T10:30:37.000Z</time>
      </trkpt>
      <trkpt lat="45.09862" lon="6.16293">
        <ele>1597.6</ele>
        <time>2020-08-26T10:30:38.000Z</time>
      </trkpt>
      <trkpt lat="45.0986" lon="6.1629">
        <ele>1597.8</ele>
        <time>2020-08-26T10:30:39.000Z</time>
      </trkpt>
      <trkpt lat="45.09859" lon="6.16287">
        <ele>1598</ele>
        <time>2020-08-26T10:30:40.000Z</time>
      </trkpt>
      <trkpt lat="45.09857" lon="6.16285">
        <ele>1598.2</ele>
        <time>2020-08-26T10:30:41.000Z</time>
      </trkpt>
      <trkpt lat="45.09855" lon="6.16282">
        <ele>1598.2</ele>
        <time>2020-08-26T10:30:42.000Z</time>
      </trkpt>
      <trkpt lat="45.09853" lon="6.16279">
        <ele>1598.6</ele>
        <time>2020-08-26T10:30:43.000Z</time>
      </trkpt>
      <trkpt lat="45.09852" lon="6.16276">
        <ele>1598.6</ele>
        <time>2020-08-26T10:30:44.000Z</time>
      </trkpt>
      <trkpt lat="45.0985" lon="6.16273">
        <ele>1598.8</ele>
        <time>2020-08-26T10:30:45.000Z</time>
      </trkpt>
      <trkpt lat="45.09848" lon="6.1627">
        <ele>1598.8</ele>
        <time>2020-08-26T10:30:46.000Z</time>
      </trkpt>
      <trkpt lat="45.09847" lon="6.16267">
        <ele>1599</ele>
        <time>2020-08-26T10:30:47.000Z</time>
      </trkpt>
      <trkpt lat="45.09845" lon="6.16264">
        <ele>1599.2</ele>
        <time>2020-08-26T10:30:48.000Z</time>
      </trkpt>
      <trkpt lat="45.09844" lon="6.16261">
        <ele>1599.4</ele>
        <time>2020-08-26T10:30:49.000Z</time>
      </trkpt>
      <trkpt lat="45.09842" lon="6.16259">
        <ele>1599.6</ele>
        <time>2020-08-26T10:30:50.000Z</time>
      </trkpt>
      <trkpt lat="45.09841" lon="6.16256">
        <ele>1599.8</ele>
        <time>2020-08-26T10:30:51.000Z</time>
      </trkpt>
      <trkpt lat="45.09839" lon="6.16253">
        <ele>1600.4</ele>
        <time>2020-08-26T10:30:52.000Z</time>
      </trkpt>
      <trkpt lat="45.09837" lon="6.1625">
        <ele>1600.6</ele>
        <time>2020-08-26T10:30:53.000Z</time>
      </trkpt>
      <trkpt lat="45.09836" lon="6.16248">
        <ele>1600.8</ele>
        <time>2020-08-26T10:30:54.000Z</time>
      </trkpt>
      <trkpt lat="45.09834" lon="6.16245">
        <ele>1601</ele>
        <time>2020-08-26T10:30:55.000Z</time>
      </trkpt>
      <trkpt lat="45.09833" lon="6.16241">
        <ele>1601.4</ele>
        <time>2020-08-26T10:30:56.000Z</time>
      </trkpt>
      <trkpt lat="45.09831" lon="6.16238">
        <ele>1601.6</ele>
        <time>2020-08-26T10:30:57.000Z</time>
      </trkpt>
      <trkpt lat="45.0983" lon="6.16235">
        <ele>1601.8</ele>
        <time>2020-08-26T10:30:58.000Z</time>
      </trkpt>
      <trkpt lat="45.09828" lon="6.16232">
        <ele>1602</ele>
        <time>2020-08-26T10:30:59.000Z</time>
      </trkpt>
      <trkpt lat="45.09827" lon="6.16229">
        <ele>1602.4</ele>
        <time>2020-08-26T10:31:00.000Z</time>
      </trkpt>
      <trkpt lat="45.09826" lon="6.16226">
        <ele>1602.6</ele>
        <time>2020-08-26T10:31:01.000Z</time>
      </trkpt>
      <trkpt lat="45.09825" lon="6.16222">
        <ele>1603</ele>
        <time>2020-08-26T10:31:02.000Z</time>
      </trkpt>
      <trkpt lat="45.09824" lon="6.16219">
        <ele>1603.4</ele>
        <time>2020-08-26T10:31:03.000Z</time>
      </trkpt>
      <trkpt lat="45.09823" lon="6.16215">
        <ele>1603.6</ele>
        <time>2020-08-26T10:31:04.000Z</time>
      </trkpt>
      <trkpt lat="45.09822" lon="6.16212">
        <ele>1604</ele>
        <time>2020-08-26T10:31:05.000Z</time>
      </trkpt>
      <trkpt lat="45.09821" lon="6.16208">
        <ele>1604.2</ele>
        <time>2020-08-26T10:31:06.000Z</time>
      </trkpt>
      <trkpt lat="45.0982" lon="6.16204">
        <ele>1604.4</ele>
        <time>2020-08-26T10:31:07.000Z</time>
      </trkpt>
      <trkpt lat="45.0982" lon="6.16201">
        <ele>1604.6</ele>
        <time>2020-08-26T10:31:08.000Z</time>
      </trkpt>
      <trkpt lat="45.09819" lon="6.16197">
        <ele>1605</ele>
        <time>2020-08-26T10:31:09.000Z</time>
      </trkpt>
      <trkpt lat="45.09818" lon="6.16193">
        <ele>1605.4</ele>
        <time>2020-08-26T10:31:10.000Z</time>
      </trkpt>
      <trkpt lat="45.09818" lon="6.1619">
        <ele>1605.6</ele>
        <time>2020-08-26T10:31:11.000Z</time>
      </trkpt>
      <trkpt lat="45.09817" lon="6.16186">
        <ele>1605.8</ele>
        <time>2020-08-26T10:31:12.000Z</time>
      </trkpt>
      <trkpt lat="45.09816" lon="6.16182">
        <ele>1606</ele>
        <time>2020-08-26T10:31:13.000Z</time>
      </trkpt>
      <trkpt lat="45.09816" lon="6.16179">
        <ele>1606</ele>
        <time>2020-08-26T10:31:14.000Z</time>
      </trkpt>
      <trkpt lat="45.09815" lon="6.16175">
        <ele>1606.2</ele>
        <time>2020-08-26T10:31:15.000Z</time>
      </trkpt>
      <trkpt lat="45.09815" lon="6.16171">
        <ele>1606.4</ele>
        <time>2020-08-26T10:31:16.000Z</time>
      </trkpt>
      <trkpt lat="45.09814" lon="6.16167">
        <ele>1606.6</ele>
        <time>2020-08-26T10:31:17.000Z</time>
      </trkpt>
      <trkpt lat="45.09814" lon="6.16164">
        <ele>1606.8</ele>
        <time>2020-08-26T10:31:18.000Z</time>
      </trkpt>
      <trkpt lat="45.09813" lon="6.1616">
        <ele>1607</ele>
        <time>2020-08-26T10:31:19.000Z</time>
      </trkpt>
      <trkpt lat="45.09812" lon="6.16156">
        <ele>1607.2</ele>
        <time>2020-08-26T10:31:20.000Z</time>
      </trkpt>
      <trkpt lat="45.09811" lon="6.16152">
        <ele>1607.6</ele>
        <time>2020-08-26T10:31:21.000Z</time>
      </trkpt>
      <trkpt lat="45.0981" lon="6.16148">
        <ele>1607.8</ele>
        <time>2020-08-26T10:31:22.000Z</time>
      </trkpt>
      <trkpt lat="45.09809" lon="6.16145">
        <ele>1607.8</ele>
        <time>2020-08-26T10:31:23.000Z</time>
      </trkpt>
      <trkpt lat="45.09808" lon="6.16141">
        <ele>1608</ele>
        <time>2020-08-26T10:31:24.000Z</time>
      </trkpt>
      <trkpt lat="45.09807" lon="6.16138">
        <ele>1608.2</ele>
        <time>2020-08-26T10:31:25.000Z</time>
      </trkpt>
      <trkpt lat="45.09805" lon="6.16134">
        <ele>1608.2</ele>
        <time>2020-08-26T10:31:26.000Z</time>
      </trkpt>
      <trkpt lat="45.09805" lon="6.1613">
        <ele>1608.2</ele>
        <time>2020-08-26T10:31:27.000Z</time>
      </trkpt>
      <trkpt lat="45.09804" lon="6.16126">
        <ele>1608.4</ele>
        <time>2020-08-26T10:31:28.000Z</time>
      </trkpt>
      <trkpt lat="45.09804" lon="6.16123">
        <ele>1608.6</ele>
        <time>2020-08-26T10:31:29.000Z</time>
      </trkpt>
      <trkpt lat="45.09805" lon="6.16119">
        <ele>1608.6</ele>
        <time>2020-08-26T10:31:30.000Z</time>
      </trkpt>
      <trkpt lat="45.09806" lon="6.16116">
        <ele>1608.6</ele>
        <time>2020-08-26T10:31:31.000Z</time>
      </trkpt>
      <trkpt lat="45.09809" lon="6.16114">
        <ele>1608.8</ele>
        <time>2020-08-26T10:31:32.000Z</time>
      </trkpt>
      <trkpt lat="45.09812" lon="6.16113">
        <ele>1608.8</ele>
        <time>2020-08-26T10:31:33.000Z</time>
      </trkpt>
      <trkpt lat="45.09814" lon="6.16113">
        <ele>1608.8</ele>
        <time>2020-08-26T10:31:34.000Z</time>
      </trkpt>
      <trkpt lat="45.09817" lon="6.16115">
        <ele>1609</ele>
        <time>2020-08-26T10:31:35.000Z</time>
      </trkpt>
      <trkpt lat="45.09819" lon="6.16117">
        <ele>1609.2</ele>
        <time>2020-08-26T10:31:36.000Z</time>
      </trkpt>
      <trkpt lat="45.09821" lon="6.16119">
        <ele>1609.6</ele>
        <time>2020-08-26T10:31:37.000Z</time>
      </trkpt>
      <trkpt lat="45.09823" lon="6.16123">
        <ele>1609.8</ele>
        <time>2020-08-26T10:31:38.000Z</time>
      </trkpt>
      <trkpt lat="45.09824" lon="6.16126">
        <ele>1610</ele>
        <time>2020-08-26T10:31:39.000Z</time>
      </trkpt>
      <trkpt lat="45.09825" lon="6.1613">
        <ele>1610.2</ele>
        <time>2020-08-26T10:31:40.000Z</time>
      </trkpt>
      <trkpt lat="45.09826" lon="6.16134">
        <ele>1610.6</ele>
        <time>2020-08-26T10:31:41.000Z</time>
      </trkpt>
      <trkpt lat="45.09827" lon="6.16137">
        <ele>1610.8</ele>
        <time>2020-08-26T10:31:42.000Z</time>
      </trkpt>
      <trkpt lat="45.09827" lon="6.16141">
        <ele>1610.8</ele>
        <time>2020-08-26T10:31:43.000Z</time>
      </trkpt>
      <trkpt lat="45.09828" lon="6.16145">
        <ele>1611</ele>
        <time>2020-08-26T10:31:44.000Z</time>
      </trkpt>
      <trkpt lat="45.09828" lon="6.16149">
        <ele>1611.2</ele>
        <time>2020-08-26T10:31:45.000Z</time>
      </trkpt>
      <trkpt lat="45.09829" lon="6.16153">
        <ele>1611.4</ele>
        <time>2020-08-26T10:31:46.000Z</time>
      </trkpt>
      <trkpt lat="45.09829" lon="6.16157">
        <ele>1611.6</ele>
        <time>2020-08-26T10:31:47.000Z</time>
      </trkpt>
      <trkpt lat="45.0983" lon="6.1616">
        <ele>1611.8</ele>
        <time>2020-08-26T10:31:48.000Z</time>
      </trkpt>
      <trkpt lat="45.0983" lon="6.16164">
        <ele>1612</ele>
        <time>2020-08-26T10:31:49.000Z</time>
      </trkpt>
      <trkpt lat="45.09831" lon="6.16167">
        <ele>1612.4</ele>
        <time>2020-08-26T10:31:50.000Z</time>
      </trkpt>
      <trkpt lat="45.09832" lon="6.16171">
        <ele>1612.6</ele>
        <time>2020-08-26T10:31:51.000Z</time>
      </trkpt>
      <trkpt lat="45.09834" lon="6.16174">
        <ele>1613</ele>
        <time>2020-08-26T10:31:52.000Z</time>
      </trkpt>
      <trkpt lat="45.09835" lon="6.16178">
        <ele>1613</ele>
        <time>2020-08-26T10:31:53.000Z</time>
      </trkpt>
      <trkpt lat="45.09836" lon="6.16181">
        <ele>1613.2</ele>
        <time>2020-08-26T10:31:54.000Z</time>
      </trkpt>
      <trkpt lat="45.09838" lon="6.16184">
        <ele>1613.4</ele>
        <time>2020-08-26T10:31:55.000Z</time>
      </trkpt>
      <trkpt lat="45.0984" lon="6.16187">
        <ele>1613.8</ele>
        <time>2020-08-26T10:31:56.000Z</time>
      </trkpt>
      <trkpt lat="45.09842" lon="6.16189">
        <ele>1614</ele>
        <time>2020-08-26T10:31:57.000Z</time>
      </trkpt>
      <trkpt lat="45.09844" lon="6.16192">
        <ele>1614.4</ele>
        <time>2020-08-26T10:31:58.000Z</time>
      </trkpt>
      <trkpt lat="45.09846" lon="6.16194">
        <ele>1614.6</ele>
        <time>2020-08-26T10:31:59.000Z</time>
      </trkpt>
      <trkpt lat="45.09848" lon="6.16197">
        <ele>1615</ele>
        <time>2020-08-26T10:32:00.000Z</time>
      </trkpt>
      <trkpt lat="45.0985" lon="6.16199">
        <ele>1615.4</ele>
        <time>2020-08-26T10:32:01.000Z</time>
      </trkpt>
      <trkpt lat="45.09852" lon="6.16201">
        <ele>1615.6</ele>
        <time>2020-08-26T10:32:02.000Z</time>
      </trkpt>
      <trkpt lat="45.09854" lon="6.16203">
        <ele>1615.8</ele>
        <time>2020-08-26T10:32:03.000Z</time>
      </trkpt>
      <trkpt lat="45.09856" lon="6.16205">
        <ele>1615.8</ele>
        <time>2020-08-26T10:32:04.000Z</time>
      </trkpt>
      <trkpt lat="45.09858" lon="6.16207">
        <ele>1616.2</ele>
        <time>2020-08-26T10:32:05.000Z</time>
      </trkpt>
      <trkpt lat="45.0986" lon="6.16209">
        <ele>1616.4</ele>
        <time>2020-08-26T10:32:06.000Z</time>
      </trkpt>
      <trkpt lat="45.09863" lon="6.16211">
        <ele>1616.8</ele>
        <time>2020-08-26T10:32:07.000Z</time>
      </trkpt>
      <trkpt lat="45.09865" lon="6.16213">
        <ele>1617.2</ele>
        <time>2020-08-26T10:32:08.000Z</time>
      </trkpt>
      <trkpt lat="45.09867" lon="6.16214">
        <ele>1617.4</ele>
        <time>2020-08-26T10:32:09.000Z</time>
      </trkpt>
      <trkpt lat="45.0987" lon="6.16216">
        <ele>1617.6</ele>
        <time>2020-08-26T10:32:10.000Z</time>
      </trkpt>
      <trkpt lat="45.09872" lon="6.16217">
        <ele>1617.8</ele>
        <time>2020-08-26T10:32:11.000Z</time>
      </trkpt>
      <trkpt lat="45.09874" lon="6.16218">
        <ele>1618</ele>
        <time>2020-08-26T10:32:12.000Z</time>
      </trkpt>
      <trkpt lat="45.09876" lon="6.16218">
        <ele>1618.2</ele>
        <time>2020-08-26T10:32:13.000Z</time>
      </trkpt>
      <trkpt lat="45.09879" lon="6.16219">
        <ele>1618.4</ele>
        <time>2020-08-26T10:32:14.000Z</time>
      </trkpt>
      <trkpt lat="45.09882" lon="6.16219">
        <ele>1618.8</ele>
        <time>2020-08-26T10:32:15.000Z</time>
      </trkpt>
      <trkpt lat="45.09884" lon="6.1622">
        <ele>1619</ele>
        <time>2020-08-26T10:32:16.000Z</time>
      </trkpt>
      <trkpt lat="45.09887" lon="6.1622">
        <ele>1619.2</ele>
        <time>2020-08-26T10:32:17.000Z</time>
      </trkpt>
      <trkpt lat="45.09889" lon="6.1622">
        <ele>1619.8</ele>
        <time>2020-08-26T10:32:18.000Z</time>
      </trkpt>
      <trkpt lat="45.09892" lon="6.1622">
        <ele>1620</ele>
        <time>2020-08-26T10:32:19.000Z</time>
      </trkpt>
      <trkpt lat="45.09894" lon="6.1622">
        <ele>1620.2</ele>
        <time>2020-08-26T10:32:20.000Z</time>
      </trkpt>
      <trkpt lat="45.09896" lon="6.1622">
        <ele>1620.6</ele>
        <time>2020-08-26T10:32:21.000Z</time>
      </trkpt>
      <trkpt lat="45.09899" lon="6.16219">
        <ele>1621</ele>
        <time>2020-08-26T10:32:22.000Z</time>
      </trkpt>
      <trkpt lat="45.09901" lon="6.16219">
        <ele>1621.2</ele>
        <time>2020-08-26T10:32:23.000Z</time>
      </trkpt>
      <trkpt lat="45.09903" lon="6.16218">
        <ele>1621.4</ele>
        <time>2020-08-26T10:32:24.000Z</time>
      </trkpt>
      <trkpt lat="45.09905" lon="6.16217">
        <ele>1621.8</ele>
        <time>2020-08-26T10:32:25.000Z</time>
      </trkpt>
      <trkpt lat="45.09907" lon="6.16216">
        <ele>1622</ele>
        <time>2020-08-26T10:32:26.000Z</time>
      </trkpt>
      <trkpt lat="45.0991" lon="6.16215">
        <ele>1622.4</ele>
        <time>2020-08-26T10:32:27.000Z</time>
      </trkpt>
      <trkpt lat="45.09912" lon="6.16214">
        <ele>1622.6</ele>
        <time>2020-08-26T10:32:28.000Z</time>
      </trkpt>
      <trkpt lat="45.09914" lon="6.16213">
        <ele>1623</ele>
        <time>2020-08-26T10:32:29.000Z</time>
      </trkpt>
      <trkpt lat="45.09916" lon="6.16211">
        <ele>1623.2</ele>
        <time>2020-08-26T10:32:30.000Z</time>
      </trkpt>
      <trkpt lat="45.09918" lon="6.1621">
        <ele>1623.6</ele>
        <time>2020-08-26T10:32:31.000Z</time>
      </trkpt>
      <trkpt lat="45.0992" lon="6.16209">
        <ele>1623.8</ele>
        <time>2020-08-26T10:32:32.000Z</time>
      </trkpt>
      <trkpt lat="45.09922" lon="6.16207">
        <ele>1624.4</ele>
        <time>2020-08-26T10:32:33.000Z</time>
      </trkpt>
      <trkpt lat="45.09924" lon="6.16206">
        <ele>1624.6</ele>
        <time>2020-08-26T10:32:34.000Z</time>
      </trkpt>
      <trkpt lat="45.09926" lon="6.16204">
        <ele>1624.8</ele>
        <time>2020-08-26T10:32:35.000Z</time>
      </trkpt>
      <trkpt lat="45.09927" lon="6.16203">
        <ele>1625.2</ele>
        <time>2020-08-26T10:32:36.000Z</time>
      </trkpt>
      <trkpt lat="45.0993" lon="6.16201">
        <ele>1625.4</ele>
        <time>2020-08-26T10:32:37.000Z</time>
      </trkpt>
      <trkpt lat="45.09932" lon="6.162">
        <ele>1625.8</ele>
        <time>2020-08-26T10:32:38.000Z</time>
      </trkpt>
      <trkpt lat="45.09933" lon="6.16199">
        <ele>1626.2</ele>
        <time>2020-08-26T10:32:39.000Z</time>
      </trkpt>
      <trkpt lat="45.09935" lon="6.16197">
        <ele>1626.6</ele>
        <time>2020-08-26T10:32:40.000Z</time>
      </trkpt>
      <trkpt lat="45.09937" lon="6.16196">
        <ele>1626.8</ele>
        <time>2020-08-26T10:32:41.000Z</time>
      </trkpt>
      <trkpt lat="45.09939" lon="6.16195">
        <ele>1626.8</ele>
        <time>2020-08-26T10:32:42.000Z</time>
      </trkpt>
      <trkpt lat="45.09941" lon="6.16194">
        <ele>1627</ele>
        <time>2020-08-26T10:32:43.000Z</time>
      </trkpt>
      <trkpt lat="45.09943" lon="6.16192">
        <ele>1627.4</ele>
        <time>2020-08-26T10:32:44.000Z</time>
      </trkpt>
      <trkpt lat="45.09945" lon="6.16191">
        <ele>1627.6</ele>
        <time>2020-08-26T10:32:45.000Z</time>
      </trkpt>
      <trkpt lat="45.09947" lon="6.1619">
        <ele>1627.8</ele>
        <time>2020-08-26T10:32:46.000Z</time>
      </trkpt>
      <trkpt lat="45.0995" lon="6.16189">
        <ele>1628</ele>
        <time>2020-08-26T10:32:47.000Z</time>
      </trkpt>
      <trkpt lat="45.09952" lon="6.16189">
        <ele>1628.6</ele>
        <time>2020-08-26T10:32:48.000Z</time>
      </trkpt>
      <trkpt lat="45.09954" lon="6.16188">
        <ele>1628.8</ele>
        <time>2020-08-26T10:32:49.000Z</time>
      </trkpt>
      <trkpt lat="45.09956" lon="6.16188">
        <ele>1629</ele>
        <time>2020-08-26T10:32:50.000Z</time>
      </trkpt>
      <trkpt lat="45.09958" lon="6.16188">
        <ele>1629.2</ele>
        <time>2020-08-26T10:32:51.000Z</time>
      </trkpt>
      <trkpt lat="45.0996" lon="6.16188">
        <ele>1629.4</ele>
        <time>2020-08-26T10:32:52.000Z</time>
      </trkpt>
      <trkpt lat="45.09962" lon="6.16188">
        <ele>1629.8</ele>
        <time>2020-08-26T10:32:53.000Z</time>
      </trkpt>
      <trkpt lat="45.09964" lon="6.16188">
        <ele>1630</ele>
        <time>2020-08-26T10:32:54.000Z</time>
      </trkpt>
      <trkpt lat="45.09966" lon="6.16188">
        <ele>1630.2</ele>
        <time>2020-08-26T10:32:55.000Z</time>
      </trkpt>
      <trkpt lat="45.09969" lon="6.16189">
        <ele>1630.6</ele>
        <time>2020-08-26T10:32:56.000Z</time>
      </trkpt>
      <trkpt lat="45.09971" lon="6.1619">
        <ele>1631</ele>
        <time>2020-08-26T10:32:57.000Z</time>
      </trkpt>
      <trkpt lat="45.09973" lon="6.1619">
        <ele>1631.2</ele>
        <time>2020-08-26T10:32:58.000Z</time>
      </trkpt>
      <trkpt lat="45.09975" lon="6.16189">
        <ele>1631.4</ele>
        <time>2020-08-26T10:32:59.000Z</time>
      </trkpt>
      <trkpt lat="45.09977" lon="6.16188">
        <ele>1631.6</ele>
        <time>2020-08-26T10:33:00.000Z</time>
      </trkpt>
      <trkpt lat="45.09978" lon="6.16186">
        <ele>1631.8</ele>
        <time>2020-08-26T10:33:01.000Z</time>
      </trkpt>
      <trkpt lat="45.0998" lon="6.16184">
        <ele>1632.2</ele>
        <time>2020-08-26T10:33:02.000Z</time>
      </trkpt>
      <trkpt lat="45.09981" lon="6.16181">
        <ele>1632.4</ele>
        <time>2020-08-26T10:33:03.000Z</time>
      </trkpt>
      <trkpt lat="45.09981" lon="6.16178">
        <ele>1632.6</ele>
        <time>2020-08-26T10:33:04.000Z</time>
      </trkpt>
      <trkpt lat="45.09981" lon="6.16175">
        <ele>1632.8</ele>
        <time>2020-08-26T10:33:05.000Z</time>
      </trkpt>
      <trkpt lat="45.0998" lon="6.16173">
        <ele>1633</ele>
        <time>2020-08-26T10:33:06.000Z</time>
      </trkpt>
      <trkpt lat="45.09979" lon="6.16171">
        <ele>1633.2</ele>
        <time>2020-08-26T10:33:07.000Z</time>
      </trkpt>
      <trkpt lat="45.09977" lon="6.16169">
        <ele>1633.6</ele>
        <time>2020-08-26T10:33:08.000Z</time>
      </trkpt>
      <trkpt lat="45.09975" lon="6.16167">
        <ele>1633.8</ele>
        <time>2020-08-26T10:33:09.000Z</time>
      </trkpt>
      <trkpt lat="45.09973" lon="6.16166">
        <ele>1634</ele>
        <time>2020-08-26T10:33:10.000Z</time>
      </trkpt>
      <trkpt lat="45.09971" lon="6.16166">
        <ele>1634.2</ele>
        <time>2020-08-26T10:33:11.000Z</time>
      </trkpt>
      <trkpt lat="45.09969" lon="6.16165">
        <ele>1634.4</ele>
        <time>2020-08-26T10:33:12.000Z</time>
      </trkpt>
      <trkpt lat="45.09967" lon="6.16164">
        <ele>1634.6</ele>
        <time>2020-08-26T10:33:13.000Z</time>
      </trkpt>
      <trkpt lat="45.09964" lon="6.16163">
        <ele>1634.8</ele>
        <time>2020-08-26T10:33:14.000Z</time>
      </trkpt>
      <trkpt lat="45.09962" lon="6.16163">
        <ele>1635</ele>
        <time>2020-08-26T10:33:15.000Z</time>
      </trkpt>
      <trkpt lat="45.0996" lon="6.16162">
        <ele>1635.2</ele>
        <time>2020-08-26T10:33:16.000Z</time>
      </trkpt>
      <trkpt lat="45.09958" lon="6.16161">
        <ele>1635.4</ele>
        <time>2020-08-26T10:33:17.000Z</time>
      </trkpt>
      <trkpt lat="45.09956" lon="6.16159">
        <ele>1635.6</ele>
        <time>2020-08-26T10:33:18.000Z</time>
      </trkpt>
      <trkpt lat="45.09954" lon="6.16158">
        <ele>1635.8</ele>
        <time>2020-08-26T10:33:19.000Z</time>
      </trkpt>
      <trkpt lat="45.09952" lon="6.16156">
        <ele>1636.2</ele>
        <time>2020-08-26T10:33:20.000Z</time>
      </trkpt>
      <trkpt lat="45.0995" lon="6.16155">
        <ele>1636.4</ele>
        <time>2020-08-26T10:33:21.000Z</time>
      </trkpt>
      <trkpt lat="45.09948" lon="6.16153">
        <ele>1636.6</ele>
        <time>2020-08-26T10:33:22.000Z</time>
      </trkpt>
      <trkpt lat="45.09946" lon="6.16152">
        <ele>1636.6</ele>
        <time>2020-08-26T10:33:23.000Z</time>
      </trkpt>
      <trkpt lat="45.09944" lon="6.1615">
        <ele>1636.6</ele>
        <time>2020-08-26T10:33:24.000Z</time>
      </trkpt>
      <trkpt lat="45.09943" lon="6.16148">
        <ele>1636.8</ele>
        <time>2020-08-26T10:33:25.000Z</time>
      </trkpt>
      <trkpt lat="45.09941" lon="6.16147">
        <ele>1637</ele>
        <time>2020-08-26T10:33:26.000Z</time>
      </trkpt>
      <trkpt lat="45.09939" lon="6.16145">
        <ele>1637</ele>
        <time>2020-08-26T10:33:27.000Z</time>
      </trkpt>
      <trkpt lat="45.09937" lon="6.16143">
        <ele>1637.4</ele>
        <time>2020-08-26T10:33:28.000Z</time>
      </trkpt>
      <trkpt lat="45.09935" lon="6.16142">
        <ele>1637.4</ele>
        <time>2020-08-26T10:33:29.000Z</time>
      </trkpt>
      <trkpt lat="45.09934" lon="6.1614">
        <ele>1637.6</ele>
        <time>2020-08-26T10:33:30.000Z</time>
      </trkpt>
      <trkpt lat="45.09932" lon="6.16138">
        <ele>1637.8</ele>
        <time>2020-08-26T10:33:31.000Z</time>
      </trkpt>
      <trkpt lat="45.0993" lon="6.16136">
        <ele>1638</ele>
        <time>2020-08-26T10:33:32.000Z</time>
      </trkpt>
      <trkpt lat="45.09928" lon="6.16134">
        <ele>1638.2</ele>
        <time>2020-08-26T10:33:33.000Z</time>
      </trkpt>
      <trkpt lat="45.09926" lon="6.16132">
        <ele>1638.4</ele>
        <time>2020-08-26T10:33:34.000Z</time>
      </trkpt>
      <trkpt lat="45.09925" lon="6.1613">
        <ele>1638.8</ele>
        <time>2020-08-26T10:33:35.000Z</time>
      </trkpt>
      <trkpt lat="45.09923" lon="6.16128">
        <ele>1639</ele>
        <time>2020-08-26T10:33:36.000Z</time>
      </trkpt>
      <trkpt lat="45.09922" lon="6.16126">
        <ele>1639.2</ele>
        <time>2020-08-26T10:33:37.000Z</time>
      </trkpt>
      <trkpt lat="45.0992" lon="6.16123">
        <ele>1639.4</ele>
        <time>2020-08-26T10:33:38.000Z</time>
      </trkpt>
      <trkpt lat="45.09919" lon="6.16121">
        <ele>1639.6</ele>
        <time>2020-08-26T10:33:39.000Z</time>
      </trkpt>
      <trkpt lat="45.09917" lon="6.16118">
        <ele>1639.8</ele>
        <time>2020-08-26T10:33:40.000Z</time>
      </trkpt>
      <trkpt lat="45.09916" lon="6.16116">
        <ele>1640</ele>
        <time>2020-08-26T10:33:41.000Z</time>
      </trkpt>
      <trkpt lat="45.09914" lon="6.16113">
        <ele>1640.2</ele>
        <time>2020-08-26T10:33:42.000Z</time>
      </trkpt>
      <trkpt lat="45.09913" lon="6.16111">
        <ele>1640.4</ele>
        <time>2020-08-26T10:33:43.000Z</time>
      </trkpt>
      <trkpt lat="45.09911" lon="6.16108">
        <ele>1640.8</ele>
        <time>2020-08-26T10:33:44.000Z</time>
      </trkpt>
      <trkpt lat="45.0991" lon="6.16106">
        <ele>1641</ele>
        <time>2020-08-26T10:33:45.000Z</time>
      </trkpt>
      <trkpt lat="45.09908" lon="6.16103">
        <ele>1641.4</ele>
        <time>2020-08-26T10:33:46.000Z</time>
      </trkpt>
      <trkpt lat="45.09907" lon="6.16101">
        <ele>1641.8</ele>
        <time>2020-08-26T10:33:47.000Z</time>
      </trkpt>
      <trkpt lat="45.09905" lon="6.16099">
        <ele>1641.8</ele>
        <time>2020-08-26T10:33:48.000Z</time>
      </trkpt>
      <trkpt lat="45.09904" lon="6.16096">
        <ele>1642</ele>
        <time>2020-08-26T10:33:49.000Z</time>
      </trkpt>
      <trkpt lat="45.09902" lon="6.16094">
        <ele>1642.2</ele>
        <time>2020-08-26T10:33:50.000Z</time>
      </trkpt>
      <trkpt lat="45.099" lon="6.16091">
        <ele>1642.2</ele>
        <time>2020-08-26T10:33:51.000Z</time>
      </trkpt>
      <trkpt lat="45.09899" lon="6.16089">
        <ele>1642.6</ele>
        <time>2020-08-26T10:33:52.000Z</time>
      </trkpt>
      <trkpt lat="45.09897" lon="6.16087">
        <ele>1642.8</ele>
        <time>2020-08-26T10:33:53.000Z</time>
      </trkpt>
      <trkpt lat="45.09895" lon="6.16085">
        <ele>1643</ele>
        <time>2020-08-26T10:33:54.000Z</time>
      </trkpt>
      <trkpt lat="45.09893" lon="6.16084">
        <ele>1643.2</ele>
        <time>2020-08-26T10:33:55.000Z</time>
      </trkpt>
      <trkpt lat="45.09891" lon="6.16082">
        <ele>1643.4</ele>
        <time>2020-08-26T10:33:56.000Z</time>
      </trkpt>
      <trkpt lat="45.09889" lon="6.1608">
        <ele>1643.6</ele>
        <time>2020-08-26T10:33:57.000Z</time>
      </trkpt>
      <trkpt lat="45.09887" lon="6.16079">
        <ele>1643.8</ele>
        <time>2020-08-26T10:33:58.000Z</time>
      </trkpt>
      <trkpt lat="45.09885" lon="6.16078">
        <ele>1644.2</ele>
        <time>2020-08-26T10:33:59.000Z</time>
      </trkpt>
      <trkpt lat="45.09883" lon="6.16077">
        <ele>1644.4</ele>
        <time>2020-08-26T10:34:00.000Z</time>
      </trkpt>
      <trkpt lat="45.09881" lon="6.16076">
        <ele>1644.6</ele>
        <time>2020-08-26T10:34:01.000Z</time>
      </trkpt>
      <trkpt lat="45.09879" lon="6.16076">
        <ele>1644.8</ele>
        <time>2020-08-26T10:34:02.000Z</time>
      </trkpt>
      <trkpt lat="45.09877" lon="6.16075">
        <ele>1645.2</ele>
        <time>2020-08-26T10:34:03.000Z</time>
      </trkpt>
      <trkpt lat="45.09874" lon="6.16073">
        <ele>1645.4</ele>
        <time>2020-08-26T10:34:04.000Z</time>
      </trkpt>
      <trkpt lat="45.09872" lon="6.16072">
        <ele>1645.8</ele>
        <time>2020-08-26T10:34:05.000Z</time>
      </trkpt>
      <trkpt lat="45.0987" lon="6.16071">
        <ele>1646</ele>
        <time>2020-08-26T10:34:06.000Z</time>
      </trkpt>
      <trkpt lat="45.09868" lon="6.1607">
        <ele>1646</ele>
        <time>2020-08-26T10:34:07.000Z</time>
      </trkpt>
      <trkpt lat="45.09865" lon="6.16068">
        <ele>1646.2</ele>
        <time>2020-08-26T10:34:08.000Z</time>
      </trkpt>
      <trkpt lat="45.09863" lon="6.16067">
        <ele>1646.6</ele>
        <time>2020-08-26T10:34:09.000Z</time>
      </trkpt>
      <trkpt lat="45.09861" lon="6.16066">
        <ele>1647</ele>
        <time>2020-08-26T10:34:10.000Z</time>
      </trkpt>
      <trkpt lat="45.09859" lon="6.16065">
        <ele>1647.2</ele>
        <time>2020-08-26T10:34:11.000Z</time>
      </trkpt>
      <trkpt lat="45.09857" lon="6.16062">
        <ele>1647.4</ele>
        <time>2020-08-26T10:34:12.000Z</time>
      </trkpt>
      <trkpt lat="45.09855" lon="6.1606">
        <ele>1647.6</ele>
        <time>2020-08-26T10:34:13.000Z</time>
      </trkpt>
      <trkpt lat="45.09855" lon="6.16057">
        <ele>1647.8</ele>
        <time>2020-08-26T10:34:14.000Z</time>
      </trkpt>
      <trkpt lat="45.09856" lon="6.16054">
        <ele>1648.2</ele>
        <time>2020-08-26T10:34:15.000Z</time>
      </trkpt>
      <trkpt lat="45.09858" lon="6.16052">
        <ele>1648.4</ele>
        <time>2020-08-26T10:34:16.000Z</time>
      </trkpt>
      <trkpt lat="45.0986" lon="6.16051">
        <ele>1648.6</ele>
        <time>2020-08-26T10:34:17.000Z</time>
      </trkpt>
      <trkpt lat="45.09863" lon="6.16051">
        <ele>1648.6</ele>
        <time>2020-08-26T10:34:18.000Z</time>
      </trkpt>
      <trkpt lat="45.09865" lon="6.16052">
        <ele>1648.8</ele>
        <time>2020-08-26T10:34:19.000Z</time>
      </trkpt>
      <trkpt lat="45.09868" lon="6.16054">
        <ele>1648.8</ele>
        <time>2020-08-26T10:34:20.000Z</time>
      </trkpt>
      <trkpt lat="45.0987" lon="6.16056">
        <ele>1649</ele>
        <time>2020-08-26T10:34:21.000Z</time>
      </trkpt>
      <trkpt lat="45.09872" lon="6.16058">
        <ele>1649.2</ele>
        <time>2020-08-26T10:34:22.000Z</time>
      </trkpt>
      <trkpt lat="45.09875" lon="6.16059">
        <ele>1649.2</ele>
        <time>2020-08-26T10:34:23.000Z</time>
      </trkpt>
      <trkpt lat="45.09877" lon="6.16061">
        <ele>1649.4</ele>
        <time>2020-08-26T10:34:24.000Z</time>
      </trkpt>
      <trkpt lat="45.09879" lon="6.16062">
        <ele>1649.4</ele>
        <time>2020-08-26T10:34:25.000Z</time>
      </trkpt>
      <trkpt lat="45.09882" lon="6.16062">
        <ele>1649.6</ele>
        <time>2020-08-26T10:34:26.000Z</time>
      </trkpt>
      <trkpt lat="45.09884" lon="6.16062">
        <ele>1649.8</ele>
        <time>2020-08-26T10:34:27.000Z</time>
      </trkpt>
      <trkpt lat="45.09886" lon="6.16062">
        <ele>1649.8</ele>
        <time>2020-08-26T10:34:28.000Z</time>
      </trkpt>
      <trkpt lat="45.09889" lon="6.16061">
        <ele>1650</ele>
        <time>2020-08-26T10:34:29.000Z</time>
      </trkpt>
      <trkpt lat="45.09891" lon="6.1606">
        <ele>1650.2</ele>
        <time>2020-08-26T10:34:30.000Z</time>
      </trkpt>
      <trkpt lat="45.09893" lon="6.16058">
        <ele>1650.4</ele>
        <time>2020-08-26T10:34:31.000Z</time>
      </trkpt>
      <trkpt lat="45.09896" lon="6.16057">
        <ele>1650.6</ele>
        <time>2020-08-26T10:34:32.000Z</time>
      </trkpt>
      <trkpt lat="45.09898" lon="6.16056">
        <ele>1650.8</ele>
        <time>2020-08-26T10:34:33.000Z</time>
      </trkpt>
      <trkpt lat="45.099" lon="6.16055">
        <ele>1651</ele>
        <time>2020-08-26T10:34:34.000Z</time>
      </trkpt>
      <trkpt lat="45.09903" lon="6.16054">
        <ele>1651.2</ele>
        <time>2020-08-26T10:34:35.000Z</time>
      </trkpt>
      <trkpt lat="45.09905" lon="6.16053">
        <ele>1651.2</ele>
        <time>2020-08-26T10:34:36.000Z</time>
      </trkpt>
      <trkpt lat="45.09907" lon="6.16052">
        <ele>1651.4</ele>
        <time>2020-08-26T10:34:37.000Z</time>
      </trkpt>
      <trkpt lat="45.09909" lon="6.16051">
        <ele>1651.8</ele>
        <time>2020-08-26T10:34:38.000Z</time>
      </trkpt>
      <trkpt lat="45.09912" lon="6.1605">
        <ele>1652.2</ele>
        <time>2020-08-26T10:34:39.000Z</time>
      </trkpt>
      <trkpt lat="45.09914" lon="6.16049">
        <ele>1652.4</ele>
        <time>2020-08-26T10:34:40.000Z</time>
      </trkpt>
      <trkpt lat="45.09917" lon="6.16048">
        <ele>1652.6</ele>
        <time>2020-08-26T10:34:41.000Z</time>
      </trkpt>
      <trkpt lat="45.09919" lon="6.16047">
        <ele>1652.8</ele>
        <time>2020-08-26T10:34:42.000Z</time>
      </trkpt>
      <trkpt lat="45.09921" lon="6.16046">
        <ele>1653.2</ele>
        <time>2020-08-26T10:34:43.000Z</time>
      </trkpt>
      <trkpt lat="45.09923" lon="6.16045">
        <ele>1653.2</ele>
        <time>2020-08-26T10:34:44.000Z</time>
      </trkpt>
      <trkpt lat="45.09926" lon="6.16045">
        <ele>1653.4</ele>
        <time>2020-08-26T10:34:45.000Z</time>
      </trkpt>
      <trkpt lat="45.09928" lon="6.16044">
        <ele>1653.6</ele>
        <time>2020-08-26T10:34:46.000Z</time>
      </trkpt>
      <trkpt lat="45.0993" lon="6.16044">
        <ele>1654</ele>
        <time>2020-08-26T10:34:47.000Z</time>
      </trkpt>
      <trkpt lat="45.09933" lon="6.16043">
        <ele>1654.2</ele>
        <time>2020-08-26T10:34:48.000Z</time>
      </trkpt>
      <trkpt lat="45.09935" lon="6.16043">
        <ele>1654.6</ele>
        <time>2020-08-26T10:34:49.000Z</time>
      </trkpt>
      <trkpt lat="45.09938" lon="6.16043">
        <ele>1654.8</ele>
        <time>2020-08-26T10:34:50.000Z</time>
      </trkpt>
      <trkpt lat="45.0994" lon="6.16043">
        <ele>1655</ele>
        <time>2020-08-26T10:34:51.000Z</time>
      </trkpt>
      <trkpt lat="45.09942" lon="6.16044">
        <ele>1655.4</ele>
        <time>2020-08-26T10:34:52.000Z</time>
      </trkpt>
      <trkpt lat="45.09945" lon="6.16044">
        <ele>1655.6</ele>
        <time>2020-08-26T10:34:53.000Z</time>
      </trkpt>
      <trkpt lat="45.09947" lon="6.16045">
        <ele>1656</ele>
        <time>2020-08-26T10:34:54.000Z</time>
      </trkpt>
      <trkpt lat="45.0995" lon="6.16046">
        <ele>1656.4</ele>
        <time>2020-08-26T10:34:55.000Z</time>
      </trkpt>
      <trkpt lat="45.09952" lon="6.16046">
        <ele>1656.8</ele>
        <time>2020-08-26T10:34:56.000Z</time>
      </trkpt>
      <trkpt lat="45.09955" lon="6.16047">
        <ele>1657.2</ele>
        <time>2020-08-26T10:34:57.000Z</time>
      </trkpt>
      <trkpt lat="45.09957" lon="6.16048">
        <ele>1657.6</ele>
        <time>2020-08-26T10:34:58.000Z</time>
      </trkpt>
      <trkpt lat="45.0996" lon="6.1605">
        <ele>1657.8</ele>
        <time>2020-08-26T10:34:59.000Z</time>
      </trkpt>
      <trkpt lat="45.09962" lon="6.16051">
        <ele>1658</ele>
        <time>2020-08-26T10:35:00.000Z</time>
      </trkpt>
      <trkpt lat="45.09964" lon="6.16052">
        <ele>1658.4</ele>
        <time>2020-08-26T10:35:01.000Z</time>
      </trkpt>
      <trkpt lat="45.09966" lon="6.16053">
        <ele>1658.6</ele>
        <time>2020-08-26T10:35:02.000Z</time>
      </trkpt>
      <trkpt lat="45.09969" lon="6.16054">
        <ele>1658.8</ele>
        <time>2020-08-26T10:35:03.000Z</time>
      </trkpt>
      <trkpt lat="45.09971" lon="6.16055">
        <ele>1659</ele>
        <time>2020-08-26T10:35:04.000Z</time>
      </trkpt>
      <trkpt lat="45.09973" lon="6.16057">
        <ele>1659.2</ele>
        <time>2020-08-26T10:35:05.000Z</time>
      </trkpt>
      <trkpt lat="45.09975" lon="6.16058">
        <ele>1659.4</ele>
        <time>2020-08-26T10:35:06.000Z</time>
      </trkpt>
      <trkpt lat="45.09978" lon="6.1606">
        <ele>1659.4</ele>
        <time>2020-08-26T10:35:07.000Z</time>
      </trkpt>
      <trkpt lat="45.0998" lon="6.16061">
        <ele>1659.6</ele>
        <time>2020-08-26T10:35:08.000Z</time>
      </trkpt>
      <trkpt lat="45.09983" lon="6.16062">
        <ele>1659.8</ele>
        <time>2020-08-26T10:35:09.000Z</time>
      </trkpt>
      <trkpt lat="45.09985" lon="6.16063">
        <ele>1660</ele>
        <time>2020-08-26T10:35:10.000Z</time>
      </trkpt>
      <trkpt lat="45.09987" lon="6.16064">
        <ele>1660.2</ele>
        <time>2020-08-26T10:35:11.000Z</time>
      </trkpt>
      <trkpt lat="45.0999" lon="6.16065">
        <ele>1660.4</ele>
        <time>2020-08-26T10:35:12.000Z</time>
      </trkpt>
      <trkpt lat="45.09992" lon="6.16065">
        <ele>1660.8</ele>
        <time>2020-08-26T10:35:13.000Z</time>
      </trkpt>
      <trkpt lat="45.09994" lon="6.16065">
        <ele>1661</ele>
        <time>2020-08-26T10:35:14.000Z</time>
      </trkpt>
      <trkpt lat="45.09996" lon="6.16063">
        <ele>1661.2</ele>
        <time>2020-08-26T10:35:15.000Z</time>
      </trkpt>
      <trkpt lat="45.09997" lon="6.16061">
        <ele>1661.2</ele>
        <time>2020-08-26T10:35:16.000Z</time>
      </trkpt>
      <trkpt lat="45.09998" lon="6.16058">
        <ele>1661.4</ele>
        <time>2020-08-26T10:35:17.000Z</time>
      </trkpt>
      <trkpt lat="45.09997" lon="6.16055">
        <ele>1661.6</ele>
        <time>2020-08-26T10:35:18.000Z</time>
      </trkpt>
      <trkpt lat="45.09995" lon="6.16052">
        <ele>1661.8</ele>
        <time>2020-08-26T10:35:19.000Z</time>
      </trkpt>
      <trkpt lat="45.09993" lon="6.1605">
        <ele>1662</ele>
        <time>2020-08-26T10:35:20.000Z</time>
      </trkpt>
      <trkpt lat="45.09991" lon="6.16048">
        <ele>1662</ele>
        <time>2020-08-26T10:35:21.000Z</time>
      </trkpt>
      <trkpt lat="45.09989" lon="6.16046">
        <ele>1662.2</ele>
        <time>2020-08-26T10:35:22.000Z</time>
      </trkpt>
      <trkpt lat="45.09987" lon="6.16045">
        <ele>1662.4</ele>
        <time>2020-08-26T10:35:23.000Z</time>
      </trkpt>
      <trkpt lat="45.09984" lon="6.16043">
        <ele>1662.6</ele>
        <time>2020-08-26T10:35:24.000Z</time>
      </trkpt>
      <trkpt lat="45.09982" lon="6.16042">
        <ele>1662.6</ele>
        <time>2020-08-26T10:35:25.000Z</time>
      </trkpt>
      <trkpt lat="45.0998" lon="6.16041">
        <ele>1662.8</ele>
        <time>2020-08-26T10:35:26.000Z</time>
      </trkpt>
      <trkpt lat="45.09977" lon="6.16039">
        <ele>1663</ele>
        <time>2020-08-26T10:35:27.000Z</time>
      </trkpt>
      <trkpt lat="45.09975" lon="6.16037">
        <ele>1663.4</ele>
        <time>2020-08-26T10:35:28.000Z</time>
      </trkpt>
      <trkpt lat="45.09973" lon="6.16035">
        <ele>1663.6</ele>
        <time>2020-08-26T10:35:29.000Z</time>
      </trkpt>
      <trkpt lat="45.0997" lon="6.16033">
        <ele>1663.8</ele>
        <time>2020-08-26T10:35:30.000Z</time>
      </trkpt>
      <trkpt lat="45.09968" lon="6.16031">
        <ele>1663.8</ele>
        <time>2020-08-26T10:35:31.000Z</time>
      </trkpt>
      <trkpt lat="45.09965" lon="6.16029">
        <ele>1664</ele>
        <time>2020-08-26T10:35:32.000Z</time>
      </trkpt>
      <trkpt lat="45.09963" lon="6.16027">
        <ele>1664</ele>
        <time>2020-08-26T10:35:33.000Z</time>
      </trkpt>
      <trkpt lat="45.0996" lon="6.16025">
        <ele>1664.2</ele>
        <time>2020-08-26T10:35:34.000Z</time>
      </trkpt>
      <trkpt lat="45.09958" lon="6.16022">
        <ele>1664.4</ele>
        <time>2020-08-26T10:35:35.000Z</time>
      </trkpt>
      <trkpt lat="45.09956" lon="6.1602">
        <ele>1664.6</ele>
        <time>2020-08-26T10:35:36.000Z</time>
      </trkpt>
      <trkpt lat="45.09954" lon="6.16018">
        <ele>1664.8</ele>
        <time>2020-08-26T10:35:37.000Z</time>
      </trkpt>
      <trkpt lat="45.09951" lon="6.16016">
        <ele>1665</ele>
        <time>2020-08-26T10:35:38.000Z</time>
      </trkpt>
      <trkpt lat="45.09949" lon="6.16014">
        <ele>1665.2</ele>
        <time>2020-08-26T10:35:39.000Z</time>
      </trkpt>
      <trkpt lat="45.09947" lon="6.16012">
        <ele>1665.4</ele>
        <time>2020-08-26T10:35:40.000Z</time>
      </trkpt>
      <trkpt lat="45.09945" lon="6.1601">
        <ele>1665.6</ele>
        <time>2020-08-26T10:35:41.000Z</time>
      </trkpt>
      <trkpt lat="45.09942" lon="6.16009">
        <ele>1666.2</ele>
        <time>2020-08-26T10:35:42.000Z</time>
      </trkpt>
      <trkpt lat="45.0994" lon="6.16008">
        <ele>1666.6</ele>
        <time>2020-08-26T10:35:43.000Z</time>
      </trkpt>
      <trkpt lat="45.09937" lon="6.16007">
        <ele>1666.8</ele>
        <time>2020-08-26T10:35:44.000Z</time>
      </trkpt>
      <trkpt lat="45.09935" lon="6.16006">
        <ele>1667</ele>
        <time>2020-08-26T10:35:45.000Z</time>
      </trkpt>
      <trkpt lat="45.09932" lon="6.16006">
        <ele>1667.2</ele>
        <time>2020-08-26T10:35:46.000Z</time>
      </trkpt>
      <trkpt lat="45.09929" lon="6.16005">
        <ele>1667.4</ele>
        <time>2020-08-26T10:35:47.000Z</time>
      </trkpt>
      <trkpt lat="45.09927" lon="6.16004">
        <ele>1667.6</ele>
        <time>2020-08-26T10:35:48.000Z</time>
      </trkpt>
      <trkpt lat="45.09925" lon="6.16002">
        <ele>1668</ele>
        <time>2020-08-26T10:35:49.000Z</time>
      </trkpt>
      <trkpt lat="45.09922" lon="6.16">
        <ele>1668.2</ele>
        <time>2020-08-26T10:35:50.000Z</time>
      </trkpt>
      <trkpt lat="45.09921" lon="6.15998">
        <ele>1668.6</ele>
        <time>2020-08-26T10:35:51.000Z</time>
      </trkpt>
      <trkpt lat="45.0992" lon="6.15995">
        <ele>1668.8</ele>
        <time>2020-08-26T10:35:52.000Z</time>
      </trkpt>
      <trkpt lat="45.0992" lon="6.15992">
        <ele>1668.8</ele>
        <time>2020-08-26T10:35:53.000Z</time>
      </trkpt>
      <trkpt lat="45.09921" lon="6.15989">
        <ele>1669</ele>
        <time>2020-08-26T10:35:54.000Z</time>
      </trkpt>
      <trkpt lat="45.09923" lon="6.15986">
        <ele>1669.2</ele>
        <time>2020-08-26T10:35:55.000Z</time>
      </trkpt>
      <trkpt lat="45.09925" lon="6.15984">
        <ele>1669.2</ele>
        <time>2020-08-26T10:35:56.000Z</time>
      </trkpt>
      <trkpt lat="45.09927" lon="6.15983">
        <ele>1669.4</ele>
        <time>2020-08-26T10:35:57.000Z</time>
      </trkpt>
      <trkpt lat="45.09929" lon="6.15982">
        <ele>1669.8</ele>
        <time>2020-08-26T10:35:58.000Z</time>
      </trkpt>
      <trkpt lat="45.09932" lon="6.15983">
        <ele>1669.8</ele>
        <time>2020-08-26T10:35:59.000Z</time>
      </trkpt>
      <trkpt lat="45.09935" lon="6.15983">
        <ele>1670</ele>
        <time>2020-08-26T10:36:00.000Z</time>
      </trkpt>
      <trkpt lat="45.09937" lon="6.15984">
        <ele>1670</ele>
        <time>2020-08-26T10:36:01.000Z</time>
      </trkpt>
      <trkpt lat="45.0994" lon="6.15986">
        <ele>1670.2</ele>
        <time>2020-08-26T10:36:02.000Z</time>
      </trkpt>
      <trkpt lat="45.09942" lon="6.15987">
        <ele>1670.4</ele>
        <time>2020-08-26T10:36:03.000Z</time>
      </trkpt>
      <trkpt lat="45.09945" lon="6.15989">
        <ele>1670.6</ele>
        <time>2020-08-26T10:36:04.000Z</time>
      </trkpt>
      <trkpt lat="45.09947" lon="6.1599">
        <ele>1670.8</ele>
        <time>2020-08-26T10:36:05.000Z</time>
      </trkpt>
      <trkpt lat="45.09949" lon="6.15992">
        <ele>1671</ele>
        <time>2020-08-26T10:36:06.000Z</time>
      </trkpt>
      <trkpt lat="45.09952" lon="6.15993">
        <ele>1671</ele>
        <time>2020-08-26T10:36:07.000Z</time>
      </trkpt>
      <trkpt lat="45.09954" lon="6.15994">
        <ele>1671.2</ele>
        <time>2020-08-26T10:36:08.000Z</time>
      </trkpt>
      <trkpt lat="45.09956" lon="6.15995">
        <ele>1671.4</ele>
        <time>2020-08-26T10:36:09.000Z</time>
      </trkpt>
      <trkpt lat="45.09959" lon="6.15996">
        <ele>1671.8</ele>
        <time>2020-08-26T10:36:10.000Z</time>
      </trkpt>
      <trkpt lat="45.09961" lon="6.15997">
        <ele>1672.2</ele>
        <time>2020-08-26T10:36:11.000Z</time>
      </trkpt>
      <trkpt lat="45.09963" lon="6.15997">
        <ele>1672.4</ele>
        <time>2020-08-26T10:36:12.000Z</time>
      </trkpt>
      <trkpt lat="45.09966" lon="6.15998">
        <ele>1672.8</ele>
        <time>2020-08-26T10:36:13.000Z</time>
      </trkpt>
      <trkpt lat="45.09968" lon="6.15999">
        <ele>1673.2</ele>
        <time>2020-08-26T10:36:14.000Z</time>
      </trkpt>
      <trkpt lat="45.09971" lon="6.16">
        <ele>1673.4</ele>
        <time>2020-08-26T10:36:15.000Z</time>
      </trkpt>
      <trkpt lat="45.09973" lon="6.16001">
        <ele>1673.4</ele>
        <time>2020-08-26T10:36:16.000Z</time>
      </trkpt>
      <trkpt lat="45.09976" lon="6.16001">
        <ele>1673.8</ele>
        <time>2020-08-26T10:36:17.000Z</time>
      </trkpt>
      <trkpt lat="45.09978" lon="6.16002">
        <ele>1674</ele>
        <time>2020-08-26T10:36:18.000Z</time>
      </trkpt>
      <trkpt lat="45.0998" lon="6.16003">
        <ele>1674.4</ele>
        <time>2020-08-26T10:36:19.000Z</time>
      </trkpt>
      <trkpt lat="45.09982" lon="6.16004">
        <ele>1674.8</ele>
        <time>2020-08-26T10:36:20.000Z</time>
      </trkpt>
      <trkpt lat="45.09984" lon="6.16005">
        <ele>1675</ele>
        <time>2020-08-26T10:36:21.000Z</time>
      </trkpt>
      <trkpt lat="45.09987" lon="6.16006">
        <ele>1675.4</ele>
        <time>2020-08-26T10:36:22.000Z</time>
      </trkpt>
      <trkpt lat="45.09989" lon="6.16008">
        <ele>1675.6</ele>
        <time>2020-08-26T10:36:23.000Z</time>
      </trkpt>
      <trkpt lat="45.09991" lon="6.16009">
        <ele>1676</ele>
        <time>2020-08-26T10:36:24.000Z</time>
      </trkpt>
      <trkpt lat="45.09993" lon="6.16011">
        <ele>1676.2</ele>
        <time>2020-08-26T10:36:25.000Z</time>
      </trkpt>
      <trkpt lat="45.09995" lon="6.16013">
        <ele>1676.4</ele>
        <time>2020-08-26T10:36:26.000Z</time>
      </trkpt>
      <trkpt lat="45.09997" lon="6.16014">
        <ele>1676.8</ele>
        <time>2020-08-26T10:36:27.000Z</time>
      </trkpt>
      <trkpt lat="45.09999" lon="6.16015">
        <ele>1677.2</ele>
        <time>2020-08-26T10:36:28.000Z</time>
      </trkpt>
      <trkpt lat="45.10001" lon="6.16016">
        <ele>1677.4</ele>
        <time>2020-08-26T10:36:29.000Z</time>
      </trkpt>
      <trkpt lat="45.10003" lon="6.16017">
        <ele>1677.6</ele>
        <time>2020-08-26T10:36:30.000Z</time>
      </trkpt>
      <trkpt lat="45.10006" lon="6.16017">
        <ele>1678</ele>
        <time>2020-08-26T10:36:31.000Z</time>
      </trkpt>
      <trkpt lat="45.10008" lon="6.16015">
        <ele>1678.2</ele>
        <time>2020-08-26T10:36:32.000Z</time>
      </trkpt>
      <trkpt lat="45.1001" lon="6.16013">
        <ele>1678.4</ele>
        <time>2020-08-26T10:36:33.000Z</time>
      </trkpt>
      <trkpt lat="45.10011" lon="6.16011">
        <ele>1678.8</ele>
        <time>2020-08-26T10:36:34.000Z</time>
      </trkpt>
      <trkpt lat="45.10012" lon="6.16007">
        <ele>1679</ele>
        <time>2020-08-26T10:36:35.000Z</time>
      </trkpt>
      <trkpt lat="45.10012" lon="6.16004">
        <ele>1679.2</ele>
        <time>2020-08-26T10:36:36.000Z</time>
      </trkpt>
      <trkpt lat="45.10011" lon="6.16001">
        <ele>1679.4</ele>
        <time>2020-08-26T10:36:37.000Z</time>
      </trkpt>
      <trkpt lat="45.1001" lon="6.15998">
        <ele>1679.6</ele>
        <time>2020-08-26T10:36:38.000Z</time>
      </trkpt>
      <trkpt lat="45.10009" lon="6.15996">
        <ele>1679.6</ele>
        <time>2020-08-26T10:36:39.000Z</time>
      </trkpt>
      <trkpt lat="45.10007" lon="6.15993">
        <ele>1680.4</ele>
        <time>2020-08-26T10:36:40.000Z</time>
      </trkpt>
      <trkpt lat="45.10006" lon="6.15991">
        <ele>1680.6</ele>
        <time>2020-08-26T10:36:41.000Z</time>
      </trkpt>
      <trkpt lat="45.10004" lon="6.15989">
        <ele>1680.6</ele>
        <time>2020-08-26T10:36:42.000Z</time>
      </trkpt>
      <trkpt lat="45.10002" lon="6.15988">
        <ele>1680.8</ele>
        <time>2020-08-26T10:36:43.000Z</time>
      </trkpt>
      <trkpt lat="45.1" lon="6.15986">
        <ele>1681</ele>
        <time>2020-08-26T10:36:44.000Z</time>
      </trkpt>
      <trkpt lat="45.09997" lon="6.15985">
        <ele>1681.2</ele>
        <time>2020-08-26T10:36:45.000Z</time>
      </trkpt>
      <trkpt lat="45.09995" lon="6.15984">
        <ele>1681.4</ele>
        <time>2020-08-26T10:36:46.000Z</time>
      </trkpt>
      <trkpt lat="45.09993" lon="6.15983">
        <ele>1681.4</ele>
        <time>2020-08-26T10:36:47.000Z</time>
      </trkpt>
      <trkpt lat="45.09991" lon="6.15982">
        <ele>1681.8</ele>
        <time>2020-08-26T10:36:48.000Z</time>
      </trkpt>
      <trkpt lat="45.09988" lon="6.1598">
        <ele>1682</ele>
        <time>2020-08-26T10:36:49.000Z</time>
      </trkpt>
      <trkpt lat="45.09986" lon="6.15978">
        <ele>1682.2</ele>
        <time>2020-08-26T10:36:50.000Z</time>
      </trkpt>
      <trkpt lat="45.09984" lon="6.15976">
        <ele>1682.4</ele>
        <time>2020-08-26T10:36:51.000Z</time>
      </trkpt>
      <trkpt lat="45.09982" lon="6.15974">
        <ele>1682.6</ele>
        <time>2020-08-26T10:36:52.000Z</time>
      </trkpt>
      <trkpt lat="45.0998" lon="6.15972">
        <ele>1682.8</ele>
        <time>2020-08-26T10:36:53.000Z</time>
      </trkpt>
      <trkpt lat="45.09978" lon="6.15971">
        <ele>1683</ele>
        <time>2020-08-26T10:36:54.000Z</time>
      </trkpt>
      <trkpt lat="45.09975" lon="6.15969">
        <ele>1683.2</ele>
        <time>2020-08-26T10:36:55.000Z</time>
      </trkpt>
      <trkpt lat="45.09973" lon="6.15967">
        <ele>1683.6</ele>
        <time>2020-08-26T10:36:56.000Z</time>
      </trkpt>
      <trkpt lat="45.09971" lon="6.15965">
        <ele>1683.6</ele>
        <time>2020-08-26T10:36:57.000Z</time>
      </trkpt>
      <trkpt lat="45.09969" lon="6.15963">
        <ele>1683.6</ele>
        <time>2020-08-26T10:36:58.000Z</time>
      </trkpt>
      <trkpt lat="45.09968" lon="6.15961">
        <ele>1683.8</ele>
        <time>2020-08-26T10:36:59.000Z</time>
      </trkpt>
      <trkpt lat="45.09966" lon="6.15959">
        <ele>1684.2</ele>
        <time>2020-08-26T10:37:00.000Z</time>
      </trkpt>
      <trkpt lat="45.09964" lon="6.15957">
        <ele>1684.4</ele>
        <time>2020-08-26T10:37:01.000Z</time>
      </trkpt>
      <trkpt lat="45.09962" lon="6.15955">
        <ele>1684.6</ele>
        <time>2020-08-26T10:37:02.000Z</time>
      </trkpt>
      <trkpt lat="45.0996" lon="6.15953">
        <ele>1685</ele>
        <time>2020-08-26T10:37:03.000Z</time>
      </trkpt>
      <trkpt lat="45.09959" lon="6.15951">
        <ele>1685.2</ele>
        <time>2020-08-26T10:37:04.000Z</time>
      </trkpt>
      <trkpt lat="45.09957" lon="6.15949">
        <ele>1685.4</ele>
        <time>2020-08-26T10:37:05.000Z</time>
      </trkpt>
      <trkpt lat="45.09955" lon="6.15947">
        <ele>1685.8</ele>
        <time>2020-08-26T10:37:06.000Z</time>
      </trkpt>
      <trkpt lat="45.09954" lon="6.15945">
        <ele>1686</ele>
        <time>2020-08-26T10:37:07.000Z</time>
      </trkpt>
      <trkpt lat="45.09952" lon="6.15943">
        <ele>1686.2</ele>
        <time>2020-08-26T10:37:08.000Z</time>
      </trkpt>
      <trkpt lat="45.0995" lon="6.15941">
        <ele>1686.6</ele>
        <time>2020-08-26T10:37:09.000Z</time>
      </trkpt>
      <trkpt lat="45.09948" lon="6.15939">
        <ele>1686.8</ele>
        <time>2020-08-26T10:37:10.000Z</time>
      </trkpt>
      <trkpt lat="45.09947" lon="6.15937">
        <ele>1687.2</ele>
        <time>2020-08-26T10:37:11.000Z</time>
      </trkpt>
      <trkpt lat="45.09945" lon="6.15935">
        <ele>1687.4</ele>
        <time>2020-08-26T10:37:12.000Z</time>
      </trkpt>
      <trkpt lat="45.09943" lon="6.15933">
        <ele>1687.8</ele>
        <time>2020-08-26T10:37:13.000Z</time>
      </trkpt>
      <trkpt lat="45.09941" lon="6.15931">
        <ele>1688</ele>
        <time>2020-08-26T10:37:14.000Z</time>
      </trkpt>
      <trkpt lat="45.0994" lon="6.15929">
        <ele>1688.2</ele>
        <time>2020-08-26T10:37:15.000Z</time>
      </trkpt>
      <trkpt lat="45.09938" lon="6.15927">
        <ele>1688.4</ele>
        <time>2020-08-26T10:37:16.000Z</time>
      </trkpt>
      <trkpt lat="45.09936" lon="6.15925">
        <ele>1688.6</ele>
        <time>2020-08-26T10:37:17.000Z</time>
      </trkpt>
      <trkpt lat="45.09935" lon="6.15923">
        <ele>1688.8</ele>
        <time>2020-08-26T10:37:18.000Z</time>
      </trkpt>
      <trkpt lat="45.09933" lon="6.15921">
        <ele>1689.2</ele>
        <time>2020-08-26T10:37:19.000Z</time>
      </trkpt>
      <trkpt lat="45.09931" lon="6.15919">
        <ele>1689.4</ele>
        <time>2020-08-26T10:37:20.000Z</time>
      </trkpt>
      <trkpt lat="45.09929" lon="6.15917">
        <ele>1689.6</ele>
        <time>2020-08-26T10:37:21.000Z</time>
      </trkpt>
      <trkpt lat="45.09928" lon="6.15914">
        <ele>1689.6</ele>
        <time>2020-08-26T10:37:22.000Z</time>
      </trkpt>
      <trkpt lat="45.09926" lon="6.15912">
        <ele>1689.8</ele>
        <time>2020-08-26T10:37:23.000Z</time>
      </trkpt>
      <trkpt lat="45.09924" lon="6.1591">
        <ele>1690</ele>
        <time>2020-08-26T10:37:24.000Z</time>
      </trkpt>
      <trkpt lat="45.09922" lon="6.15908">
        <ele>1690.2</ele>
        <time>2020-08-26T10:37:25.000Z</time>
      </trkpt>
      <trkpt lat="45.0992" lon="6.15906">
        <ele>1690.6</ele>
        <time>2020-08-26T10:37:26.000Z</time>
      </trkpt>
      <trkpt lat="45.09918" lon="6.15904">
        <ele>1691</ele>
        <time>2020-08-26T10:37:27.000Z</time>
      </trkpt>
      <trkpt lat="45.09916" lon="6.15902">
        <ele>1691.2</ele>
        <time>2020-08-26T10:37:28.000Z</time>
      </trkpt>
      <trkpt lat="45.09914" lon="6.159">
        <ele>1691.6</ele>
        <time>2020-08-26T10:37:29.000Z</time>
      </trkpt>
      <trkpt lat="45.09912" lon="6.15898">
        <ele>1691.8</ele>
        <time>2020-08-26T10:37:30.000Z</time>
      </trkpt>
      <trkpt lat="45.0991" lon="6.15896">
        <ele>1692</ele>
        <time>2020-08-26T10:37:31.000Z</time>
      </trkpt>
      <trkpt lat="45.09908" lon="6.15895">
        <ele>1692.2</ele>
        <time>2020-08-26T10:37:32.000Z</time>
      </trkpt>
      <trkpt lat="45.09906" lon="6.15893">
        <ele>1692.6</ele>
        <time>2020-08-26T10:37:33.000Z</time>
      </trkpt>
      <trkpt lat="45.09904" lon="6.15892">
        <ele>1692.8</ele>
        <time>2020-08-26T10:37:34.000Z</time>
      </trkpt>
      <trkpt lat="45.09902" lon="6.15891">
        <ele>1693.2</ele>
        <time>2020-08-26T10:37:35.000Z</time>
      </trkpt>
      <trkpt lat="45.099" lon="6.15889">
        <ele>1693.4</ele>
        <time>2020-08-26T10:37:36.000Z</time>
      </trkpt>
      <trkpt lat="45.09898" lon="6.15889">
        <ele>1693.6</ele>
        <time>2020-08-26T10:37:37.000Z</time>
      </trkpt>
      <trkpt lat="45.09896" lon="6.15888">
        <ele>1694.2</ele>
        <time>2020-08-26T10:37:38.000Z</time>
      </trkpt>
      <trkpt lat="45.09893" lon="6.15887">
        <ele>1694.4</ele>
        <time>2020-08-26T10:37:39.000Z</time>
      </trkpt>
      <trkpt lat="45.09891" lon="6.15887">
        <ele>1694.6</ele>
        <time>2020-08-26T10:37:40.000Z</time>
      </trkpt>
      <trkpt lat="45.09889" lon="6.15886">
        <ele>1694.6</ele>
        <time>2020-08-26T10:37:41.000Z</time>
      </trkpt>
      <trkpt lat="45.09887" lon="6.15884">
        <ele>1694.8</ele>
        <time>2020-08-26T10:37:42.000Z</time>
      </trkpt>
      <trkpt lat="45.09884" lon="6.15883">
        <ele>1695</ele>
        <time>2020-08-26T10:37:43.000Z</time>
      </trkpt>
      <trkpt lat="45.09882" lon="6.15881">
        <ele>1695.2</ele>
        <time>2020-08-26T10:37:44.000Z</time>
      </trkpt>
      <trkpt lat="45.0988" lon="6.1588">
        <ele>1695.4</ele>
        <time>2020-08-26T10:37:45.000Z</time>
      </trkpt>
      <trkpt lat="45.09878" lon="6.15878">
        <ele>1695.6</ele>
        <time>2020-08-26T10:37:46.000Z</time>
      </trkpt>
      <trkpt lat="45.09876" lon="6.15875">
        <ele>1695.8</ele>
        <time>2020-08-26T10:37:47.000Z</time>
      </trkpt>
      <trkpt lat="45.09875" lon="6.15873">
        <ele>1696</ele>
        <time>2020-08-26T10:37:48.000Z</time>
      </trkpt>
      <trkpt lat="45.09873" lon="6.1587">
        <ele>1696.2</ele>
        <time>2020-08-26T10:37:49.000Z</time>
      </trkpt>
      <trkpt lat="45.09872" lon="6.15867">
        <ele>1696.4</ele>
        <time>2020-08-26T10:37:50.000Z</time>
      </trkpt>
      <trkpt lat="45.09871" lon="6.15864">
        <ele>1696.6</ele>
        <time>2020-08-26T10:37:51.000Z</time>
      </trkpt>
      <trkpt lat="45.0987" lon="6.15861">
        <ele>1696.8</ele>
        <time>2020-08-26T10:37:52.000Z</time>
      </trkpt>
      <trkpt lat="45.09869" lon="6.15858">
        <ele>1697</ele>
        <time>2020-08-26T10:37:53.000Z</time>
      </trkpt>
      <trkpt lat="45.09869" lon="6.15855">
        <ele>1697.2</ele>
        <time>2020-08-26T10:37:54.000Z</time>
      </trkpt>
      <trkpt lat="45.09868" lon="6.15852">
        <ele>1697.4</ele>
        <time>2020-08-26T10:37:55.000Z</time>
      </trkpt>
      <trkpt lat="45.09868" lon="6.15849">
        <ele>1697.6</ele>
        <time>2020-08-26T10:37:56.000Z</time>
      </trkpt>
      <trkpt lat="45.09867" lon="6.15845">
        <ele>1697.8</ele>
        <time>2020-08-26T10:37:57.000Z</time>
      </trkpt>
      <trkpt lat="45.09866" lon="6.15842">
        <ele>1698</ele>
        <time>2020-08-26T10:37:58.000Z</time>
      </trkpt>
      <trkpt lat="45.09865" lon="6.15839">
        <ele>1698.2</ele>
        <time>2020-08-26T10:37:59.000Z</time>
      </trkpt>
      <trkpt lat="45.09864" lon="6.15836">
        <ele>1698.4</ele>
        <time>2020-08-26T10:38:00.000Z</time>
      </trkpt>
      <trkpt lat="45.09863" lon="6.15833">
        <ele>1698.6</ele>
        <time>2020-08-26T10:38:01.000Z</time>
      </trkpt>
      <trkpt lat="45.09863" lon="6.1583">
        <ele>1698.8</ele>
        <time>2020-08-26T10:38:02.000Z</time>
      </trkpt>
      <trkpt lat="45.09862" lon="6.15827">
        <ele>1699.2</ele>
        <time>2020-08-26T10:38:03.000Z</time>
      </trkpt>
      <trkpt lat="45.09861" lon="6.15824">
        <ele>1699.4</ele>
        <time>2020-08-26T10:38:04.000Z</time>
      </trkpt>
      <trkpt lat="45.0986" lon="6.15821">
        <ele>1699.8</ele>
        <time>2020-08-26T10:38:05.000Z</time>
      </trkpt>
      <trkpt lat="45.0986" lon="6.15819">
        <ele>1700</ele>
        <time>2020-08-26T10:38:06.000Z</time>
      </trkpt>
      <trkpt lat="45.09859" lon="6.15816">
        <ele>1700.6</ele>
        <time>2020-08-26T10:38:07.000Z</time>
      </trkpt>
      <trkpt lat="45.09858" lon="6.15813">
        <ele>1700.8</ele>
        <time>2020-08-26T10:38:08.000Z</time>
      </trkpt>
      <trkpt lat="45.09856" lon="6.15811">
        <ele>1701.2</ele>
        <time>2020-08-26T10:38:09.000Z</time>
      </trkpt>
      <trkpt lat="45.09855" lon="6.15809">
        <ele>1701.6</ele>
        <time>2020-08-26T10:38:10.000Z</time>
      </trkpt>
      <trkpt lat="45.09853" lon="6.15807">
        <ele>1702</ele>
        <time>2020-08-26T10:38:11.000Z</time>
      </trkpt>
      <trkpt lat="45.09851" lon="6.15805">
        <ele>1702.2</ele>
        <time>2020-08-26T10:38:12.000Z</time>
      </trkpt>
      <trkpt lat="45.0985" lon="6.15802">
        <ele>1702.6</ele>
        <time>2020-08-26T10:38:13.000Z</time>
      </trkpt>
      <trkpt lat="45.09849" lon="6.15799">
        <ele>1702.8</ele>
        <time>2020-08-26T10:38:14.000Z</time>
      </trkpt>
      <trkpt lat="45.09848" lon="6.15797">
        <ele>1703.2</ele>
        <time>2020-08-26T10:38:15.000Z</time>
      </trkpt>
      <trkpt lat="45.09846" lon="6.15795">
        <ele>1703.4</ele>
        <time>2020-08-26T10:38:16.000Z</time>
      </trkpt>
      <trkpt lat="45.09845" lon="6.15792">
        <ele>1703.8</ele>
        <time>2020-08-26T10:38:17.000Z</time>
      </trkpt>
      <trkpt lat="45.09843" lon="6.1579">
        <ele>1704.2</ele>
        <time>2020-08-26T10:38:18.000Z</time>
      </trkpt>
      <trkpt lat="45.09842" lon="6.15788">
        <ele>1704.2</ele>
        <time>2020-08-26T10:38:19.000Z</time>
      </trkpt>
      <trkpt lat="45.0984" lon="6.15786">
        <ele>1704.4</ele>
        <time>2020-08-26T10:38:20.000Z</time>
      </trkpt>
      <trkpt lat="45.09839" lon="6.15784">
        <ele>1704.6</ele>
        <time>2020-08-26T10:38:21.000Z</time>
      </trkpt>
      <trkpt lat="45.09837" lon="6.15782">
        <ele>1705</ele>
        <time>2020-08-26T10:38:22.000Z</time>
      </trkpt>
      <trkpt lat="45.09835" lon="6.1578">
        <ele>1705.2</ele>
        <time>2020-08-26T10:38:23.000Z</time>
      </trkpt>
      <trkpt lat="45.09833" lon="6.15779">
        <ele>1705.4</ele>
        <time>2020-08-26T10:38:24.000Z</time>
      </trkpt>
      <trkpt lat="45.09832" lon="6.15777">
        <ele>1705.6</ele>
        <time>2020-08-26T10:38:25.000Z</time>
      </trkpt>
      <trkpt lat="45.0983" lon="6.15775">
        <ele>1705.8</ele>
        <time>2020-08-26T10:38:26.000Z</time>
      </trkpt>
      <trkpt lat="45.09828" lon="6.15773">
        <ele>1706</ele>
        <time>2020-08-26T10:38:27.000Z</time>
      </trkpt>
      <trkpt lat="45.09826" lon="6.15772">
        <ele>1706.4</ele>
        <time>2020-08-26T10:38:28.000Z</time>
      </trkpt>
      <trkpt lat="45.09824" lon="6.1577">
        <ele>1706.6</ele>
        <time>2020-08-26T10:38:29.000Z</time>
      </trkpt>
      <trkpt lat="45.09822" lon="6.15768">
        <ele>1706.8</ele>
        <time>2020-08-26T10:38:30.000Z</time>
      </trkpt>
      <trkpt lat="45.0982" lon="6.15766">
        <ele>1707</ele>
        <time>2020-08-26T10:38:31.000Z</time>
      </trkpt>
      <trkpt lat="45.09818" lon="6.15765">
        <ele>1707.2</ele>
        <time>2020-08-26T10:38:32.000Z</time>
      </trkpt>
      <trkpt lat="45.09816" lon="6.15763">
        <ele>1707.4</ele>
        <time>2020-08-26T10:38:33.000Z</time>
      </trkpt>
      <trkpt lat="45.09814" lon="6.15761">
        <ele>1707.6</ele>
        <time>2020-08-26T10:38:34.000Z</time>
      </trkpt>
      <trkpt lat="45.09812" lon="6.1576">
        <ele>1707.8</ele>
        <time>2020-08-26T10:38:35.000Z</time>
      </trkpt>
      <trkpt lat="45.0981" lon="6.15758">
        <ele>1708.2</ele>
        <time>2020-08-26T10:38:36.000Z</time>
      </trkpt>
      <trkpt lat="45.09808" lon="6.15756">
        <ele>1708.4</ele>
        <time>2020-08-26T10:38:37.000Z</time>
      </trkpt>
      <trkpt lat="45.09807" lon="6.15754">
        <ele>1708.6</ele>
        <time>2020-08-26T10:38:38.000Z</time>
      </trkpt>
      <trkpt lat="45.09805" lon="6.15753">
        <ele>1708.8</ele>
        <time>2020-08-26T10:38:39.000Z</time>
      </trkpt>
      <trkpt lat="45.09803" lon="6.15751">
        <ele>1709</ele>
        <time>2020-08-26T10:38:40.000Z</time>
      </trkpt>
      <trkpt lat="45.09801" lon="6.15749">
        <ele>1709.2</ele>
        <time>2020-08-26T10:38:41.000Z</time>
      </trkpt>
      <trkpt lat="45.09799" lon="6.15747">
        <ele>1709.4</ele>
        <time>2020-08-26T10:38:42.000Z</time>
      </trkpt>
      <trkpt lat="45.09798" lon="6.15745">
        <ele>1709.6</ele>
        <time>2020-08-26T10:38:43.000Z</time>
      </trkpt>
      <trkpt lat="45.09796" lon="6.15743">
        <ele>1709.8</ele>
        <time>2020-08-26T10:38:44.000Z</time>
      </trkpt>
      <trkpt lat="45.09794" lon="6.15741">
        <ele>1710</ele>
        <time>2020-08-26T10:38:45.000Z</time>
      </trkpt>
      <trkpt lat="45.09793" lon="6.15739">
        <ele>1710.4</ele>
        <time>2020-08-26T10:38:46.000Z</time>
      </trkpt>
      <trkpt lat="45.09791" lon="6.15737">
        <ele>1710.6</ele>
        <time>2020-08-26T10:38:47.000Z</time>
      </trkpt>
      <trkpt lat="45.09789" lon="6.15734">
        <ele>1710.8</ele>
        <time>2020-08-26T10:38:48.000Z</time>
      </trkpt>
      <trkpt lat="45.09788" lon="6.15732">
        <ele>1711</ele>
        <time>2020-08-26T10:38:49.000Z</time>
      </trkpt>
      <trkpt lat="45.09786" lon="6.15729">
        <ele>1711.2</ele>
        <time>2020-08-26T10:38:50.000Z</time>
      </trkpt>
      <trkpt lat="45.09785" lon="6.15727">
        <ele>1711.4</ele>
        <time>2020-08-26T10:38:51.000Z</time>
      </trkpt>
      <trkpt lat="45.09783" lon="6.15725">
        <ele>1711.6</ele>
        <time>2020-08-26T10:38:52.000Z</time>
      </trkpt>
      <trkpt lat="45.09781" lon="6.15723">
        <ele>1712</ele>
        <time>2020-08-26T10:38:53.000Z</time>
      </trkpt>
      <trkpt lat="45.0978" lon="6.1572">
        <ele>1712.2</ele>
        <time>2020-08-26T10:38:54.000Z</time>
      </trkpt>
      <trkpt lat="45.09778" lon="6.15718">
        <ele>1712.6</ele>
        <time>2020-08-26T10:38:55.000Z</time>
      </trkpt>
      <trkpt lat="45.09776" lon="6.15716">
        <ele>1713.2</ele>
        <time>2020-08-26T10:38:56.000Z</time>
      </trkpt>
      <trkpt lat="45.09775" lon="6.15714">
        <ele>1713.6</ele>
        <time>2020-08-26T10:38:57.000Z</time>
      </trkpt>
      <trkpt lat="45.09773" lon="6.15711">
        <ele>1713.8</ele>
        <time>2020-08-26T10:38:58.000Z</time>
      </trkpt>
      <trkpt lat="45.09771" lon="6.15709">
        <ele>1713.8</ele>
        <time>2020-08-26T10:38:59.000Z</time>
      </trkpt>
      <trkpt lat="45.0977" lon="6.15707">
        <ele>1714.2</ele>
        <time>2020-08-26T10:39:00.000Z</time>
      </trkpt>
      <trkpt lat="45.09768" lon="6.15705">
        <ele>1714.4</ele>
        <time>2020-08-26T10:39:01.000Z</time>
      </trkpt>
      <trkpt lat="45.09766" lon="6.15702">
        <ele>1714.6</ele>
        <time>2020-08-26T10:39:02.000Z</time>
      </trkpt>
      <trkpt lat="45.09765" lon="6.157">
        <ele>1714.8</ele>
        <time>2020-08-26T10:39:03.000Z</time>
      </trkpt>
      <trkpt lat="45.09763" lon="6.15698">
        <ele>1715</ele>
        <time>2020-08-26T10:39:04.000Z</time>
      </trkpt>
      <trkpt lat="45.09761" lon="6.15696">
        <ele>1715.2</ele>
        <time>2020-08-26T10:39:05.000Z</time>
      </trkpt>
      <trkpt lat="45.09759" lon="6.15694">
        <ele>1715.6</ele>
        <time>2020-08-26T10:39:06.000Z</time>
      </trkpt>
      <trkpt lat="45.09757" lon="6.15692">
        <ele>1716</ele>
        <time>2020-08-26T10:39:07.000Z</time>
      </trkpt>
      <trkpt lat="45.09755" lon="6.1569">
        <ele>1716.2</ele>
        <time>2020-08-26T10:39:08.000Z</time>
      </trkpt>
      <trkpt lat="45.09754" lon="6.15689">
        <ele>1716.4</ele>
        <time>2020-08-26T10:39:09.000Z</time>
      </trkpt>
      <trkpt lat="45.09752" lon="6.15687">
        <ele>1716.6</ele>
        <time>2020-08-26T10:39:10.000Z</time>
      </trkpt>
      <trkpt lat="45.0975" lon="6.15685">
        <ele>1716.8</ele>
        <time>2020-08-26T10:39:11.000Z</time>
      </trkpt>
      <trkpt lat="45.09748" lon="6.15684">
        <ele>1717</ele>
        <time>2020-08-26T10:39:12.000Z</time>
      </trkpt>
      <trkpt lat="45.09746" lon="6.15682">
        <ele>1717.4</ele>
        <time>2020-08-26T10:39:13.000Z</time>
      </trkpt>
      <trkpt lat="45.09744" lon="6.1568">
        <ele>1717.6</ele>
        <time>2020-08-26T10:39:14.000Z</time>
      </trkpt>
      <trkpt lat="45.09741" lon="6.15679">
        <ele>1717.8</ele>
        <time>2020-08-26T10:39:15.000Z</time>
      </trkpt>
      <trkpt lat="45.09739" lon="6.15678">
        <ele>1718</ele>
        <time>2020-08-26T10:39:16.000Z</time>
      </trkpt>
      <trkpt lat="45.09737" lon="6.15676">
        <ele>1718.2</ele>
        <time>2020-08-26T10:39:17.000Z</time>
      </trkpt>
      <trkpt lat="45.09735" lon="6.15675">
        <ele>1718.4</ele>
        <time>2020-08-26T10:39:18.000Z</time>
      </trkpt>
      <trkpt lat="45.09733" lon="6.15674">
        <ele>1718.6</ele>
        <time>2020-08-26T10:39:19.000Z</time>
      </trkpt>
      <trkpt lat="45.09731" lon="6.15672">
        <ele>1718.6</ele>
        <time>2020-08-26T10:39:20.000Z</time>
      </trkpt>
      <trkpt lat="45.09729" lon="6.15671">
        <ele>1718.8</ele>
        <time>2020-08-26T10:39:21.000Z</time>
      </trkpt>
      <trkpt lat="45.09727" lon="6.15669">
        <ele>1719</ele>
        <time>2020-08-26T10:39:22.000Z</time>
      </trkpt>
      <trkpt lat="45.09725" lon="6.15668">
        <ele>1719</ele>
        <time>2020-08-26T10:39:23.000Z</time>
      </trkpt>
      <trkpt lat="45.09723" lon="6.15666">
        <ele>1719.2</ele>
        <time>2020-08-26T10:39:24.000Z</time>
      </trkpt>
      <trkpt lat="45.09721" lon="6.15664">
        <ele>1719.6</ele>
        <time>2020-08-26T10:39:25.000Z</time>
      </trkpt>
      <trkpt lat="45.09719" lon="6.15663">
        <ele>1719.8</ele>
        <time>2020-08-26T10:39:26.000Z</time>
      </trkpt>
      <trkpt lat="45.09717" lon="6.15661">
        <ele>1720</ele>
        <time>2020-08-26T10:39:27.000Z</time>
      </trkpt>
      <trkpt lat="45.09715" lon="6.1566">
        <ele>1720.4</ele>
        <time>2020-08-26T10:39:28.000Z</time>
      </trkpt>
      <trkpt lat="45.09713" lon="6.15658">
        <ele>1720.6</ele>
        <time>2020-08-26T10:39:29.000Z</time>
      </trkpt>
      <trkpt lat="45.0971" lon="6.15657">
        <ele>1720.6</ele>
        <time>2020-08-26T10:39:30.000Z</time>
      </trkpt>
      <trkpt lat="45.09708" lon="6.15655">
        <ele>1720.8</ele>
        <time>2020-08-26T10:39:31.000Z</time>
      </trkpt>
      <trkpt lat="45.09706" lon="6.15654">
        <ele>1721</ele>
        <time>2020-08-26T10:39:32.000Z</time>
      </trkpt>
      <trkpt lat="45.09704" lon="6.15652">
        <ele>1721.2</ele>
        <time>2020-08-26T10:39:33.000Z</time>
      </trkpt>
      <trkpt lat="45.09702" lon="6.15651">
        <ele>1721.2</ele>
        <time>2020-08-26T10:39:34.000Z</time>
      </trkpt>
      <trkpt lat="45.097" lon="6.15649">
        <ele>1721.6</ele>
        <time>2020-08-26T10:39:35.000Z</time>
      </trkpt>
      <trkpt lat="45.09698" lon="6.15647">
        <ele>1721.6</ele>
        <time>2020-08-26T10:39:36.000Z</time>
      </trkpt>
      <trkpt lat="45.09696" lon="6.15646">
        <ele>1721.8</ele>
        <time>2020-08-26T10:39:37.000Z</time>
      </trkpt>
      <trkpt lat="45.09694" lon="6.15644">
        <ele>1722</ele>
        <time>2020-08-26T10:39:38.000Z</time>
      </trkpt>
      <trkpt lat="45.09692" lon="6.15643">
        <ele>1722.2</ele>
        <time>2020-08-26T10:39:39.000Z</time>
      </trkpt>
      <trkpt lat="45.0969" lon="6.15642">
        <ele>1722.4</ele>
        <time>2020-08-26T10:39:40.000Z</time>
      </trkpt>
      <trkpt lat="45.09687" lon="6.15641">
        <ele>1722.6</ele>
        <time>2020-08-26T10:39:41.000Z</time>
      </trkpt>
      <trkpt lat="45.09685" lon="6.1564">
        <ele>1722.8</ele>
        <time>2020-08-26T10:39:42.000Z</time>
      </trkpt>
      <trkpt lat="45.09683" lon="6.15639">
        <ele>1723</ele>
        <time>2020-08-26T10:39:43.000Z</time>
      </trkpt>
      <trkpt lat="45.09681" lon="6.15639">
        <ele>1723.2</ele>
        <time>2020-08-26T10:39:44.000Z</time>
      </trkpt>
      <trkpt lat="45.09679" lon="6.15638">
        <ele>1723.4</ele>
        <time>2020-08-26T10:39:45.000Z</time>
      </trkpt>
      <trkpt lat="45.09676" lon="6.15638">
        <ele>1723.6</ele>
        <time>2020-08-26T10:39:46.000Z</time>
      </trkpt>
      <trkpt lat="45.09674" lon="6.15637">
        <ele>1723.8</ele>
        <time>2020-08-26T10:39:47.000Z</time>
      </trkpt>
      <trkpt lat="45.09671" lon="6.15637">
        <ele>1724</ele>
        <time>2020-08-26T10:39:48.000Z</time>
      </trkpt>
      <trkpt lat="45.09669" lon="6.15637">
        <ele>1724.4</ele>
        <time>2020-08-26T10:39:49.000Z</time>
      </trkpt>
      <trkpt lat="45.09666" lon="6.15636">
        <ele>1724.6</ele>
        <time>2020-08-26T10:39:50.000Z</time>
      </trkpt>
      <trkpt lat="45.09664" lon="6.15636">
        <ele>1724.4</ele>
        <time>2020-08-26T10:39:51.000Z</time>
      </trkpt>
      <trkpt lat="45.09662" lon="6.15635">
        <ele>1724.8</ele>
        <time>2020-08-26T10:39:52.000Z</time>
      </trkpt>
      <trkpt lat="45.0966" lon="6.15634">
        <ele>1725.2</ele>
        <time>2020-08-26T10:39:53.000Z</time>
      </trkpt>
      <trkpt lat="45.09657" lon="6.15633">
        <ele>1725.4</ele>
        <time>2020-08-26T10:39:54.000Z</time>
      </trkpt>
      <trkpt lat="45.09655" lon="6.15633">
        <ele>1725.8</ele>
        <time>2020-08-26T10:39:55.000Z</time>
      </trkpt>
      <trkpt lat="45.09652" lon="6.15632">
        <ele>1726.2</ele>
        <time>2020-08-26T10:39:56.000Z</time>
      </trkpt>
      <trkpt lat="45.0965" lon="6.15631">
        <ele>1726.4</ele>
        <time>2020-08-26T10:39:57.000Z</time>
      </trkpt>
      <trkpt lat="45.09648" lon="6.15629">
        <ele>1726.6</ele>
        <time>2020-08-26T10:39:58.000Z</time>
      </trkpt>
      <trkpt lat="45.09645" lon="6.15628">
        <ele>1726.6</ele>
        <time>2020-08-26T10:39:59.000Z</time>
      </trkpt>
      <trkpt lat="45.09643" lon="6.15626">
        <ele>1726.8</ele>
        <time>2020-08-26T10:40:00.000Z</time>
      </trkpt>
      <trkpt lat="45.09641" lon="6.15625">
        <ele>1727.2</ele>
        <time>2020-08-26T10:40:01.000Z</time>
      </trkpt>
      <trkpt lat="45.09638" lon="6.15624">
        <ele>1727.4</ele>
        <time>2020-08-26T10:40:02.000Z</time>
      </trkpt>
      <trkpt lat="45.09636" lon="6.15622">
        <ele>1727.6</ele>
        <time>2020-08-26T10:40:03.000Z</time>
      </trkpt>
      <trkpt lat="45.09633" lon="6.15621">
        <ele>1727.8</ele>
        <time>2020-08-26T10:40:04.000Z</time>
      </trkpt>
      <trkpt lat="45.09631" lon="6.1562">
        <ele>1728</ele>
        <time>2020-08-26T10:40:05.000Z</time>
      </trkpt>
      <trkpt lat="45.09629" lon="6.15619">
        <ele>1728.2</ele>
        <time>2020-08-26T10:40:06.000Z</time>
      </trkpt>
      <trkpt lat="45.09627" lon="6.15618">
        <ele>1728.6</ele>
        <time>2020-08-26T10:40:07.000Z</time>
      </trkpt>
      <trkpt lat="45.09625" lon="6.15616">
        <ele>1728.8</ele>
        <time>2020-08-26T10:40:08.000Z</time>
      </trkpt>
      <trkpt lat="45.09622" lon="6.15615">
        <ele>1729</ele>
        <time>2020-08-26T10:40:09.000Z</time>
      </trkpt>
      <trkpt lat="45.0962" lon="6.15613">
        <ele>1729.4</ele>
        <time>2020-08-26T10:40:10.000Z</time>
      </trkpt>
      <trkpt lat="45.09618" lon="6.15612">
        <ele>1729.6</ele>
        <time>2020-08-26T10:40:11.000Z</time>
      </trkpt>
      <trkpt lat="45.09616" lon="6.1561">
        <ele>1729.8</ele>
        <time>2020-08-26T10:40:12.000Z</time>
      </trkpt>
      <trkpt lat="45.09614" lon="6.15609">
        <ele>1730.2</ele>
        <time>2020-08-26T10:40:13.000Z</time>
      </trkpt>
      <trkpt lat="45.09612" lon="6.15607">
        <ele>1730.6</ele>
        <time>2020-08-26T10:40:14.000Z</time>
      </trkpt>
      <trkpt lat="45.0961" lon="6.15606">
        <ele>1730.8</ele>
        <time>2020-08-26T10:40:15.000Z</time>
      </trkpt>
      <trkpt lat="45.09609" lon="6.15604">
        <ele>1731.2</ele>
        <time>2020-08-26T10:40:16.000Z</time>
      </trkpt>
      <trkpt lat="45.09607" lon="6.15602">
        <ele>1731.4</ele>
        <time>2020-08-26T10:40:17.000Z</time>
      </trkpt>
      <trkpt lat="45.09605" lon="6.156">
        <ele>1731.8</ele>
        <time>2020-08-26T10:40:18.000Z</time>
      </trkpt>
      <trkpt lat="45.09603" lon="6.15598">
        <ele>1732</ele>
        <time>2020-08-26T10:40:19.000Z</time>
      </trkpt>
      <trkpt lat="45.09602" lon="6.15595">
        <ele>1732.2</ele>
        <time>2020-08-26T10:40:20.000Z</time>
      </trkpt>
      <trkpt lat="45.096" lon="6.15593">
        <ele>1732.4</ele>
        <time>2020-08-26T10:40:21.000Z</time>
      </trkpt>
      <trkpt lat="45.09599" lon="6.1559">
        <ele>1732.6</ele>
        <time>2020-08-26T10:40:22.000Z</time>
      </trkpt>
      <trkpt lat="45.09597" lon="6.15588">
        <ele>1733</ele>
        <time>2020-08-26T10:40:23.000Z</time>
      </trkpt>
      <trkpt lat="45.09596" lon="6.15585">
        <ele>1733.2</ele>
        <time>2020-08-26T10:40:24.000Z</time>
      </trkpt>
      <trkpt lat="45.09595" lon="6.15583">
        <ele>1733.4</ele>
        <time>2020-08-26T10:40:25.000Z</time>
      </trkpt>
      <trkpt lat="45.09593" lon="6.1558">
        <ele>1733.6</ele>
        <time>2020-08-26T10:40:26.000Z</time>
      </trkpt>
      <trkpt lat="45.09592" lon="6.15578">
        <ele>1734</ele>
        <time>2020-08-26T10:40:27.000Z</time>
      </trkpt>
      <trkpt lat="45.0959" lon="6.15576">
        <ele>1734.2</ele>
        <time>2020-08-26T10:40:28.000Z</time>
      </trkpt>
      <trkpt lat="45.09589" lon="6.15573">
        <ele>1734.4</ele>
        <time>2020-08-26T10:40:29.000Z</time>
      </trkpt>
      <trkpt lat="45.09588" lon="6.1557">
        <ele>1734.8</ele>
        <time>2020-08-26T10:40:30.000Z</time>
      </trkpt>
      <trkpt lat="45.09586" lon="6.15568">
        <ele>1734.8</ele>
        <time>2020-08-26T10:40:31.000Z</time>
      </trkpt>
      <trkpt lat="45.09585" lon="6.15565">
        <ele>1735</ele>
        <time>2020-08-26T10:40:32.000Z</time>
      </trkpt>
      <trkpt lat="45.09584" lon="6.15562">
        <ele>1735.2</ele>
        <time>2020-08-26T10:40:33.000Z</time>
      </trkpt>
      <trkpt lat="45.09583" lon="6.15559">
        <ele>1735.6</ele>
        <time>2020-08-26T10:40:34.000Z</time>
      </trkpt>
      <trkpt lat="45.09582" lon="6.15556">
        <ele>1736.2</ele>
        <time>2020-08-26T10:40:35.000Z</time>
      </trkpt>
      <trkpt lat="45.0958" lon="6.15554">
        <ele>1736.4</ele>
        <time>2020-08-26T10:40:36.000Z</time>
      </trkpt>
      <trkpt lat="45.09579" lon="6.15551">
        <ele>1736.8</ele>
        <time>2020-08-26T10:40:37.000Z</time>
      </trkpt>
      <trkpt lat="45.09578" lon="6.15548">
        <ele>1737</ele>
        <time>2020-08-26T10:40:38.000Z</time>
      </trkpt>
      <trkpt lat="45.09576" lon="6.15546">
        <ele>1737.4</ele>
        <time>2020-08-26T10:40:39.000Z</time>
      </trkpt>
      <trkpt lat="45.09575" lon="6.15543">
        <ele>1737.6</ele>
        <time>2020-08-26T10:40:40.000Z</time>
      </trkpt>
      <trkpt lat="45.09573" lon="6.15541">
        <ele>1738</ele>
        <time>2020-08-26T10:40:41.000Z</time>
      </trkpt>
      <trkpt lat="45.09572" lon="6.15538">
        <ele>1738.2</ele>
        <time>2020-08-26T10:40:42.000Z</time>
      </trkpt>
      <trkpt lat="45.0957" lon="6.15536">
        <ele>1738.4</ele>
        <time>2020-08-26T10:40:43.000Z</time>
      </trkpt>
      <trkpt lat="45.09568" lon="6.15534">
        <ele>1738.8</ele>
        <time>2020-08-26T10:40:44.000Z</time>
      </trkpt>
      <trkpt lat="45.09567" lon="6.15531">
        <ele>1739</ele>
        <time>2020-08-26T10:40:45.000Z</time>
      </trkpt>
      <trkpt lat="45.09565" lon="6.15529">
        <ele>1739.2</ele>
        <time>2020-08-26T10:40:46.000Z</time>
      </trkpt>
      <trkpt lat="45.09564" lon="6.15527">
        <ele>1739.4</ele>
        <time>2020-08-26T10:40:47.000Z</time>
      </trkpt>
      <trkpt lat="45.09563" lon="6.15524">
        <ele>1739.6</ele>
        <time>2020-08-26T10:40:48.000Z</time>
      </trkpt>
      <trkpt lat="45.09561" lon="6.15522">
        <ele>1739.8</ele>
        <time>2020-08-26T10:40:49.000Z</time>
      </trkpt>
      <trkpt lat="45.0956" lon="6.1552">
        <ele>1740</ele>
        <time>2020-08-26T10:40:50.000Z</time>
      </trkpt>
      <trkpt lat="45.09558" lon="6.15518">
        <ele>1740.2</ele>
        <time>2020-08-26T10:40:51.000Z</time>
      </trkpt>
      <trkpt lat="45.09556" lon="6.15515">
        <ele>1740.4</ele>
        <time>2020-08-26T10:40:52.000Z</time>
      </trkpt>
      <trkpt lat="45.09555" lon="6.15513">
        <ele>1740.8</ele>
        <time>2020-08-26T10:40:53.000Z</time>
      </trkpt>
      <trkpt lat="45.09553" lon="6.15511">
        <ele>1741</ele>
        <time>2020-08-26T10:40:54.000Z</time>
      </trkpt>
      <trkpt lat="45.09552" lon="6.15509">
        <ele>1741</ele>
        <time>2020-08-26T10:40:55.000Z</time>
      </trkpt>
      <trkpt lat="45.0955" lon="6.15507">
        <ele>1741.2</ele>
        <time>2020-08-26T10:40:56.000Z</time>
      </trkpt>
      <trkpt lat="45.09548" lon="6.15505">
        <ele>1741.4</ele>
        <time>2020-08-26T10:40:57.000Z</time>
      </trkpt>
      <trkpt lat="45.09546" lon="6.15503">
        <ele>1741.6</ele>
        <time>2020-08-26T10:40:58.000Z</time>
      </trkpt>
      <trkpt lat="45.09544" lon="6.15501">
        <ele>1742</ele>
        <time>2020-08-26T10:40:59.000Z</time>
      </trkpt>
      <trkpt lat="45.09543" lon="6.155">
        <ele>1742</ele>
        <time>2020-08-26T10:41:00.000Z</time>
      </trkpt>
      <trkpt lat="45.09541" lon="6.15498">
        <ele>1742.4</ele>
        <time>2020-08-26T10:41:01.000Z</time>
      </trkpt>
      <trkpt lat="45.09539" lon="6.15496">
        <ele>1742.8</ele>
        <time>2020-08-26T10:41:02.000Z</time>
      </trkpt>
      <trkpt lat="45.09537" lon="6.15494">
        <ele>1743.4</ele>
        <time>2020-08-26T10:41:03.000Z</time>
      </trkpt>
      <trkpt lat="45.09535" lon="6.15493">
        <ele>1743.6</ele>
        <time>2020-08-26T10:41:04.000Z</time>
      </trkpt>
      <trkpt lat="45.09534" lon="6.15491">
        <ele>1743.8</ele>
        <time>2020-08-26T10:41:05.000Z</time>
      </trkpt>
      <trkpt lat="45.09532" lon="6.15489">
        <ele>1744</ele>
        <time>2020-08-26T10:41:06.000Z</time>
      </trkpt>
      <trkpt lat="45.0953" lon="6.15488">
        <ele>1744.2</ele>
        <time>2020-08-26T10:41:07.000Z</time>
      </trkpt>
      <trkpt lat="45.09528" lon="6.15486">
        <ele>1744.4</ele>
        <time>2020-08-26T10:41:08.000Z</time>
      </trkpt>
      <trkpt lat="45.09526" lon="6.15485">
        <ele>1744.4</ele>
        <time>2020-08-26T10:41:09.000Z</time>
      </trkpt>
      <trkpt lat="45.09524" lon="6.15483">
        <ele>1744.4</ele>
        <time>2020-08-26T10:41:10.000Z</time>
      </trkpt>
      <trkpt lat="45.09522" lon="6.15482">
        <ele>1744.6</ele>
        <time>2020-08-26T10:41:11.000Z</time>
      </trkpt>
      <trkpt lat="45.0952" lon="6.1548">
        <ele>1744.8</ele>
        <time>2020-08-26T10:41:12.000Z</time>
      </trkpt>
      <trkpt lat="45.09518" lon="6.15479">
        <ele>1745</ele>
        <time>2020-08-26T10:41:13.000Z</time>
      </trkpt>
      <trkpt lat="45.09516" lon="6.15477">
        <ele>1745.2</ele>
        <time>2020-08-26T10:41:14.000Z</time>
      </trkpt>
      <trkpt lat="45.09514" lon="6.15476">
        <ele>1745.6</ele>
        <time>2020-08-26T10:41:15.000Z</time>
      </trkpt>
      <trkpt lat="45.09512" lon="6.15474">
        <ele>1745.8</ele>
        <time>2020-08-26T10:41:16.000Z</time>
      </trkpt>
      <trkpt lat="45.0951" lon="6.15472">
        <ele>1746</ele>
        <time>2020-08-26T10:41:17.000Z</time>
      </trkpt>
      <trkpt lat="45.09508" lon="6.15471">
        <ele>1746.2</ele>
        <time>2020-08-26T10:41:18.000Z</time>
      </trkpt>
      <trkpt lat="45.09506" lon="6.15469">
        <ele>1746.4</ele>
        <time>2020-08-26T10:41:19.000Z</time>
      </trkpt>
      <trkpt lat="45.09504" lon="6.15467">
        <ele>1746.6</ele>
        <time>2020-08-26T10:41:20.000Z</time>
      </trkpt>
      <trkpt lat="45.09502" lon="6.15466">
        <ele>1746.8</ele>
        <time>2020-08-26T10:41:21.000Z</time>
      </trkpt>
      <trkpt lat="45.095" lon="6.15464">
        <ele>1747</ele>
        <time>2020-08-26T10:41:22.000Z</time>
      </trkpt>
      <trkpt lat="45.09499" lon="6.15462">
        <ele>1747.4</ele>
        <time>2020-08-26T10:41:23.000Z</time>
      </trkpt>
      <trkpt lat="45.09497" lon="6.1546">
        <ele>1747.6</ele>
        <time>2020-08-26T10:41:24.000Z</time>
      </trkpt>
      <trkpt lat="45.09495" lon="6.15458">
        <ele>1747.6</ele>
        <time>2020-08-26T10:41:25.000Z</time>
      </trkpt>
      <trkpt lat="45.09493" lon="6.15457">
        <ele>1747.8</ele>
        <time>2020-08-26T10:41:26.000Z</time>
      </trkpt>
      <trkpt lat="45.09491" lon="6.15455">
        <ele>1748</ele>
        <time>2020-08-26T10:41:27.000Z</time>
      </trkpt>
      <trkpt lat="45.09489" lon="6.15453">
        <ele>1748.2</ele>
        <time>2020-08-26T10:41:28.000Z</time>
      </trkpt>
      <trkpt lat="45.09488" lon="6.15451">
        <ele>1748.4</ele>
        <time>2020-08-26T10:41:29.000Z</time>
      </trkpt>
      <trkpt lat="45.09486" lon="6.15449">
        <ele>1748.8</ele>
        <time>2020-08-26T10:41:30.000Z</time>
      </trkpt>
      <trkpt lat="45.09484" lon="6.15447">
        <ele>1749.2</ele>
        <time>2020-08-26T10:41:31.000Z</time>
      </trkpt>
      <trkpt lat="45.09482" lon="6.15445">
        <ele>1749.6</ele>
        <time>2020-08-26T10:41:32.000Z</time>
      </trkpt>
      <trkpt lat="45.0948" lon="6.15443">
        <ele>1749.8</ele>
        <time>2020-08-26T10:41:33.000Z</time>
      </trkpt>
      <trkpt lat="45.09479" lon="6.15441">
        <ele>1750.2</ele>
        <time>2020-08-26T10:41:34.000Z</time>
      </trkpt>
      <trkpt lat="45.09477" lon="6.15439">
        <ele>1750.4</ele>
        <time>2020-08-26T10:41:35.000Z</time>
      </trkpt>
      <trkpt lat="45.09475" lon="6.15437">
        <ele>1750.6</ele>
        <time>2020-08-26T10:41:36.000Z</time>
      </trkpt>
      <trkpt lat="45.09473" lon="6.15435">
        <ele>1750.8</ele>
        <time>2020-08-26T10:41:37.000Z</time>
      </trkpt>
      <trkpt lat="45.09472" lon="6.15433">
        <ele>1751</ele>
        <time>2020-08-26T10:41:38.000Z</time>
      </trkpt>
      <trkpt lat="45.0947" lon="6.15432">
        <ele>1751.2</ele>
        <time>2020-08-26T10:41:39.000Z</time>
      </trkpt>
      <trkpt lat="45.09468" lon="6.1543">
        <ele>1751.4</ele>
        <time>2020-08-26T10:41:40.000Z</time>
      </trkpt>
      <trkpt lat="45.09466" lon="6.15428">
        <ele>1751.6</ele>
        <time>2020-08-26T10:41:41.000Z</time>
      </trkpt>
      <trkpt lat="45.09464" lon="6.15426">
        <ele>1751.8</ele>
        <time>2020-08-26T10:41:42.000Z</time>
      </trkpt>
      <trkpt lat="45.09462" lon="6.15424">
        <ele>1751.8</ele>
        <time>2020-08-26T10:41:43.000Z</time>
      </trkpt>
      <trkpt lat="45.09461" lon="6.15422">
        <ele>1752</ele>
        <time>2020-08-26T10:41:44.000Z</time>
      </trkpt>
      <trkpt lat="45.09459" lon="6.1542">
        <ele>1752.2</ele>
        <time>2020-08-26T10:41:45.000Z</time>
      </trkpt>
      <trkpt lat="45.09457" lon="6.15418">
        <ele>1752.4</ele>
        <time>2020-08-26T10:41:46.000Z</time>
      </trkpt>
      <trkpt lat="45.09456" lon="6.15416">
        <ele>1752.6</ele>
        <time>2020-08-26T10:41:47.000Z</time>
      </trkpt>
      <trkpt lat="45.09454" lon="6.15414">
        <ele>1752.8</ele>
        <time>2020-08-26T10:41:48.000Z</time>
      </trkpt>
      <trkpt lat="45.09452" lon="6.15412">
        <ele>1753</ele>
        <time>2020-08-26T10:41:49.000Z</time>
      </trkpt>
      <trkpt lat="45.0945" lon="6.1541">
        <ele>1753.2</ele>
        <time>2020-08-26T10:41:50.000Z</time>
      </trkpt>
      <trkpt lat="45.09448" lon="6.15408">
        <ele>1753.4</ele>
        <time>2020-08-26T10:41:51.000Z</time>
      </trkpt>
      <trkpt lat="45.09446" lon="6.15406">
        <ele>1753.6</ele>
        <time>2020-08-26T10:41:52.000Z</time>
      </trkpt>
      <trkpt lat="45.09445" lon="6.15404">
        <ele>1753.8</ele>
        <time>2020-08-26T10:41:53.000Z</time>
      </trkpt>
      <trkpt lat="45.09443" lon="6.15402">
        <ele>1754</ele>
        <time>2020-08-26T10:41:54.000Z</time>
      </trkpt>
      <trkpt lat="45.09441" lon="6.154">
        <ele>1754.4</ele>
        <time>2020-08-26T10:41:55.000Z</time>
      </trkpt>
      <trkpt lat="45.0944" lon="6.15398">
        <ele>1754.6</ele>
        <time>2020-08-26T10:41:56.000Z</time>
      </trkpt>
      <trkpt lat="45.09438" lon="6.15396">
        <ele>1754.6</ele>
        <time>2020-08-26T10:41:57.000Z</time>
      </trkpt>
      <trkpt lat="45.09437" lon="6.15393">
        <ele>1754.8</ele>
        <time>2020-08-26T10:41:58.000Z</time>
      </trkpt>
      <trkpt lat="45.09435" lon="6.15391">
        <ele>1755</ele>
        <time>2020-08-26T10:41:59.000Z</time>
      </trkpt>
      <trkpt lat="45.09434" lon="6.15389">
        <ele>1755</ele>
        <time>2020-08-26T10:42:00.000Z</time>
      </trkpt>
      <trkpt lat="45.09432" lon="6.15386">
        <ele>1755.6</ele>
        <time>2020-08-26T10:42:01.000Z</time>
      </trkpt>
      <trkpt lat="45.09431" lon="6.15384">
        <ele>1755.8</ele>
        <time>2020-08-26T10:42:02.000Z</time>
      </trkpt>
      <trkpt lat="45.0943" lon="6.15382">
        <ele>1756.2</ele>
        <time>2020-08-26T10:42:03.000Z</time>
      </trkpt>
      <trkpt lat="45.09428" lon="6.1538">
        <ele>1756.4</ele>
        <time>2020-08-26T10:42:04.000Z</time>
      </trkpt>
      <trkpt lat="45.09427" lon="6.15378">
        <ele>1756.6</ele>
        <time>2020-08-26T10:42:05.000Z</time>
      </trkpt>
      <trkpt lat="45.09425" lon="6.15376">
        <ele>1757</ele>
        <time>2020-08-26T10:42:06.000Z</time>
      </trkpt>
      <trkpt lat="45.09423" lon="6.15373">
        <ele>1757.2</ele>
        <time>2020-08-26T10:42:07.000Z</time>
      </trkpt>
      <trkpt lat="45.09422" lon="6.15371">
        <ele>1757.6</ele>
        <time>2020-08-26T10:42:08.000Z</time>
      </trkpt>
      <trkpt lat="45.0942" lon="6.15369">
        <ele>1757.8</ele>
        <time>2020-08-26T10:42:09.000Z</time>
      </trkpt>
      <trkpt lat="45.09419" lon="6.15367">
        <ele>1758.2</ele>
        <time>2020-08-26T10:42:10.000Z</time>
      </trkpt>
      <trkpt lat="45.09417" lon="6.15365">
        <ele>1758.4</ele>
        <time>2020-08-26T10:42:11.000Z</time>
      </trkpt>
      <trkpt lat="45.09415" lon="6.15363">
        <ele>1758.8</ele>
        <time>2020-08-26T10:42:12.000Z</time>
      </trkpt>
      <trkpt lat="45.09414" lon="6.15361">
        <ele>1759</ele>
        <time>2020-08-26T10:42:13.000Z</time>
      </trkpt>
      <trkpt lat="45.09412" lon="6.15358">
        <ele>1759.2</ele>
        <time>2020-08-26T10:42:14.000Z</time>
      </trkpt>
      <trkpt lat="45.09411" lon="6.15356">
        <ele>1759.6</ele>
        <time>2020-08-26T10:42:15.000Z</time>
      </trkpt>
      <trkpt lat="45.09409" lon="6.15354">
        <ele>1759.8</ele>
        <time>2020-08-26T10:42:16.000Z</time>
      </trkpt>
      <trkpt lat="45.09408" lon="6.15351">
        <ele>1759.8</ele>
        <time>2020-08-26T10:42:17.000Z</time>
      </trkpt>
      <trkpt lat="45.09406" lon="6.15349">
        <ele>1760</ele>
        <time>2020-08-26T10:42:18.000Z</time>
      </trkpt>
      <trkpt lat="45.09405" lon="6.15347">
        <ele>1760.2</ele>
        <time>2020-08-26T10:42:19.000Z</time>
      </trkpt>
      <trkpt lat="45.09403" lon="6.15345">
        <ele>1760.4</ele>
        <time>2020-08-26T10:42:20.000Z</time>
      </trkpt>
      <trkpt lat="45.09402" lon="6.15343">
        <ele>1760.6</ele>
        <time>2020-08-26T10:42:21.000Z</time>
      </trkpt>
      <trkpt lat="45.094" lon="6.15341">
        <ele>1760.8</ele>
        <time>2020-08-26T10:42:22.000Z</time>
      </trkpt>
      <trkpt lat="45.09399" lon="6.15339">
        <ele>1761</ele>
        <time>2020-08-26T10:42:23.000Z</time>
      </trkpt>
      <trkpt lat="45.09397" lon="6.15337">
        <ele>1761.4</ele>
        <time>2020-08-26T10:42:24.000Z</time>
      </trkpt>
      <trkpt lat="45.09396" lon="6.15334">
        <ele>1761.6</ele>
        <time>2020-08-26T10:42:25.000Z</time>
      </trkpt>
      <trkpt lat="45.09394" lon="6.15332">
        <ele>1761.8</ele>
        <time>2020-08-26T10:42:26.000Z</time>
      </trkpt>
      <trkpt lat="45.09393" lon="6.15331">
        <ele>1762.2</ele>
        <time>2020-08-26T10:42:27.000Z</time>
      </trkpt>
      <trkpt lat="45.09391" lon="6.15329">
        <ele>1762.4</ele>
        <time>2020-08-26T10:42:28.000Z</time>
      </trkpt>
      <trkpt lat="45.09389" lon="6.15327">
        <ele>1762.8</ele>
        <time>2020-08-26T10:42:29.000Z</time>
      </trkpt>
      <trkpt lat="45.09388" lon="6.15324">
        <ele>1763.2</ele>
        <time>2020-08-26T10:42:30.000Z</time>
      </trkpt>
      <trkpt lat="45.09386" lon="6.15322">
        <ele>1763.4</ele>
        <time>2020-08-26T10:42:31.000Z</time>
      </trkpt>
      <trkpt lat="45.09384" lon="6.15321">
        <ele>1763.8</ele>
        <time>2020-08-26T10:42:32.000Z</time>
      </trkpt>
      <trkpt lat="45.09383" lon="6.15319">
        <ele>1764</ele>
        <time>2020-08-26T10:42:33.000Z</time>
      </trkpt>
      <trkpt lat="45.09381" lon="6.15317">
        <ele>1764</ele>
        <time>2020-08-26T10:42:34.000Z</time>
      </trkpt>
      <trkpt lat="45.09379" lon="6.15315">
        <ele>1764.2</ele>
        <time>2020-08-26T10:42:35.000Z</time>
      </trkpt>
      <trkpt lat="45.09377" lon="6.15313">
        <ele>1764.6</ele>
        <time>2020-08-26T10:42:36.000Z</time>
      </trkpt>
      <trkpt lat="45.09376" lon="6.15312">
        <ele>1764.8</ele>
        <time>2020-08-26T10:42:37.000Z</time>
      </trkpt>
      <trkpt lat="45.09374" lon="6.1531">
        <ele>1765.2</ele>
        <time>2020-08-26T10:42:38.000Z</time>
      </trkpt>
      <trkpt lat="45.09372" lon="6.15308">
        <ele>1765.4</ele>
        <time>2020-08-26T10:42:39.000Z</time>
      </trkpt>
      <trkpt lat="45.0937" lon="6.15306">
        <ele>1765.6</ele>
        <time>2020-08-26T10:42:40.000Z</time>
      </trkpt>
      <trkpt lat="45.09368" lon="6.15304">
        <ele>1766</ele>
        <time>2020-08-26T10:42:41.000Z</time>
      </trkpt>
      <trkpt lat="45.09366" lon="6.15303">
        <ele>1766.2</ele>
        <time>2020-08-26T10:42:42.000Z</time>
      </trkpt>
      <trkpt lat="45.09364" lon="6.15301">
        <ele>1766.4</ele>
        <time>2020-08-26T10:42:43.000Z</time>
      </trkpt>
      <trkpt lat="45.09362" lon="6.15299">
        <ele>1766.6</ele>
        <time>2020-08-26T10:42:44.000Z</time>
      </trkpt>
      <trkpt lat="45.0936" lon="6.15297">
        <ele>1766.8</ele>
        <time>2020-08-26T10:42:45.000Z</time>
      </trkpt>
      <trkpt lat="45.09358" lon="6.15295">
        <ele>1767</ele>
        <time>2020-08-26T10:42:46.000Z</time>
      </trkpt>
      <trkpt lat="45.09356" lon="6.15294">
        <ele>1767.4</ele>
        <time>2020-08-26T10:42:47.000Z</time>
      </trkpt>
      <trkpt lat="45.09354" lon="6.15292">
        <ele>1767.6</ele>
        <time>2020-08-26T10:42:48.000Z</time>
      </trkpt>
      <trkpt lat="45.09352" lon="6.1529">
        <ele>1767.8</ele>
        <time>2020-08-26T10:42:49.000Z</time>
      </trkpt>
      <trkpt lat="45.0935" lon="6.15288">
        <ele>1768.2</ele>
        <time>2020-08-26T10:42:50.000Z</time>
      </trkpt>
      <trkpt lat="45.09347" lon="6.15287">
        <ele>1768.6</ele>
        <time>2020-08-26T10:42:51.000Z</time>
      </trkpt>
      <trkpt lat="45.09345" lon="6.15285">
        <ele>1768.8</ele>
        <time>2020-08-26T10:42:52.000Z</time>
      </trkpt>
      <trkpt lat="45.09343" lon="6.15284">
        <ele>1769</ele>
        <time>2020-08-26T10:42:53.000Z</time>
      </trkpt>
      <trkpt lat="45.09341" lon="6.15282">
        <ele>1769.4</ele>
        <time>2020-08-26T10:42:54.000Z</time>
      </trkpt>
      <trkpt lat="45.09338" lon="6.15281">
        <ele>1769.6</ele>
        <time>2020-08-26T10:42:55.000Z</time>
      </trkpt>
      <trkpt lat="45.09336" lon="6.1528">
        <ele>1769.6</ele>
        <time>2020-08-26T10:42:56.000Z</time>
      </trkpt>
      <trkpt lat="45.09333" lon="6.15279">
        <ele>1769.8</ele>
        <time>2020-08-26T10:42:57.000Z</time>
      </trkpt>
      <trkpt lat="45.0933" lon="6.15278">
        <ele>1770.2</ele>
        <time>2020-08-26T10:42:58.000Z</time>
      </trkpt>
      <trkpt lat="45.09328" lon="6.15277">
        <ele>1770.4</ele>
        <time>2020-08-26T10:42:59.000Z</time>
      </trkpt>
      <trkpt lat="45.09325" lon="6.15276">
        <ele>1770.8</ele>
        <time>2020-08-26T10:43:00.000Z</time>
      </trkpt>
      <trkpt lat="45.09323" lon="6.15276">
        <ele>1771</ele>
        <time>2020-08-26T10:43:01.000Z</time>
      </trkpt>
      <trkpt lat="45.0932" lon="6.15275">
        <ele>1771</ele>
        <time>2020-08-26T10:43:02.000Z</time>
      </trkpt>
      <trkpt lat="45.09318" lon="6.15274">
        <ele>1771.2</ele>
        <time>2020-08-26T10:43:03.000Z</time>
      </trkpt>
      <trkpt lat="45.09315" lon="6.15274">
        <ele>1771.4</ele>
        <time>2020-08-26T10:43:04.000Z</time>
      </trkpt>
      <trkpt lat="45.09312" lon="6.15273">
        <ele>1771.6</ele>
        <time>2020-08-26T10:43:05.000Z</time>
      </trkpt>
      <trkpt lat="45.0931" lon="6.15272">
        <ele>1771.8</ele>
        <time>2020-08-26T10:43:06.000Z</time>
      </trkpt>
      <trkpt lat="45.09307" lon="6.15272">
        <ele>1772</ele>
        <time>2020-08-26T10:43:07.000Z</time>
      </trkpt>
      <trkpt lat="45.09304" lon="6.15271">
        <ele>1772.2</ele>
        <time>2020-08-26T10:43:08.000Z</time>
      </trkpt>
      <trkpt lat="45.09302" lon="6.15268">
        <ele>1772.2</ele>
        <time>2020-08-26T10:43:09.000Z</time>
      </trkpt>
      <trkpt lat="45.09301" lon="6.15266">
        <ele>1772.2</ele>
        <time>2020-08-26T10:43:10.000Z</time>
      </trkpt>
      <trkpt lat="45.09301" lon="6.15263">
        <ele>1772.4</ele>
        <time>2020-08-26T10:43:11.000Z</time>
      </trkpt>
      <trkpt lat="45.09303" lon="6.1526">
        <ele>1772.8</ele>
        <time>2020-08-26T10:43:12.000Z</time>
      </trkpt>
      <trkpt lat="45.09305" lon="6.15259">
        <ele>1772.8</ele>
        <time>2020-08-26T10:43:13.000Z</time>
      </trkpt>
      <trkpt lat="45.09307" lon="6.15259">
        <ele>1773</ele>
        <time>2020-08-26T10:43:14.000Z</time>
      </trkpt>
      <trkpt lat="45.0931" lon="6.15259">
        <ele>1773</ele>
        <time>2020-08-26T10:43:15.000Z</time>
      </trkpt>
      <trkpt lat="45.09313" lon="6.15259">
        <ele>1773.2</ele>
        <time>2020-08-26T10:43:16.000Z</time>
      </trkpt>
      <trkpt lat="45.09316" lon="6.1526">
        <ele>1773.2</ele>
        <time>2020-08-26T10:43:17.000Z</time>
      </trkpt>
      <trkpt lat="45.09319" lon="6.15261">
        <ele>1773.2</ele>
        <time>2020-08-26T10:43:18.000Z</time>
      </trkpt>
      <trkpt lat="45.09322" lon="6.15261">
        <ele>1773.4</ele>
        <time>2020-08-26T10:43:19.000Z</time>
      </trkpt>
      <trkpt lat="45.09325" lon="6.15262">
        <ele>1773.6</ele>
        <time>2020-08-26T10:43:20.000Z</time>
      </trkpt>
      <trkpt lat="45.09327" lon="6.15262">
        <ele>1774.2</ele>
        <time>2020-08-26T10:43:21.000Z</time>
      </trkpt>
      <trkpt lat="45.0933" lon="6.15263">
        <ele>1774.6</ele>
        <time>2020-08-26T10:43:22.000Z</time>
      </trkpt>
      <trkpt lat="45.09332" lon="6.15264">
        <ele>1774.8</ele>
        <time>2020-08-26T10:43:23.000Z</time>
      </trkpt>
      <trkpt lat="45.09335" lon="6.15265">
        <ele>1775</ele>
        <time>2020-08-26T10:43:24.000Z</time>
      </trkpt>
      <trkpt lat="45.09337" lon="6.15265">
        <ele>1775.2</ele>
        <time>2020-08-26T10:43:25.000Z</time>
      </trkpt>
      <trkpt lat="45.0934" lon="6.15266">
        <ele>1775.6</ele>
        <time>2020-08-26T10:43:26.000Z</time>
      </trkpt>
      <trkpt lat="45.09342" lon="6.15266">
        <ele>1776</ele>
        <time>2020-08-26T10:43:27.000Z</time>
      </trkpt>
      <trkpt lat="45.09345" lon="6.15267">
        <ele>1776.2</ele>
        <time>2020-08-26T10:43:28.000Z</time>
      </trkpt>
      <trkpt lat="45.09347" lon="6.15267">
        <ele>1776.4</ele>
        <time>2020-08-26T10:43:29.000Z</time>
      </trkpt>
      <trkpt lat="45.09349" lon="6.15268">
        <ele>1776.8</ele>
        <time>2020-08-26T10:43:30.000Z</time>
      </trkpt>
      <trkpt lat="45.09352" lon="6.15269">
        <ele>1777.2</ele>
        <time>2020-08-26T10:43:31.000Z</time>
      </trkpt>
      <trkpt lat="45.09354" lon="6.15269">
        <ele>1777.4</ele>
        <time>2020-08-26T10:43:32.000Z</time>
      </trkpt>
      <trkpt lat="45.09357" lon="6.15269">
        <ele>1777.6</ele>
        <time>2020-08-26T10:43:33.000Z</time>
      </trkpt>
      <trkpt lat="45.09359" lon="6.1527">
        <ele>1777.8</ele>
        <time>2020-08-26T10:43:34.000Z</time>
      </trkpt>
      <trkpt lat="45.09361" lon="6.1527">
        <ele>1778.2</ele>
        <time>2020-08-26T10:43:35.000Z</time>
      </trkpt>
      <trkpt lat="45.09364" lon="6.15271">
        <ele>1778.4</ele>
        <time>2020-08-26T10:43:36.000Z</time>
      </trkpt>
      <trkpt lat="45.09366" lon="6.15271">
        <ele>1778.6</ele>
        <time>2020-08-26T10:43:37.000Z</time>
      </trkpt>
      <trkpt lat="45.09368" lon="6.15272">
        <ele>1778.8</ele>
        <time>2020-08-26T10:43:38.000Z</time>
      </trkpt>
      <trkpt lat="45.09371" lon="6.15272">
        <ele>1779.2</ele>
        <time>2020-08-26T10:43:39.000Z</time>
      </trkpt>
      <trkpt lat="45.09373" lon="6.15273">
        <ele>1779.4</ele>
        <time>2020-08-26T10:43:40.000Z</time>
      </trkpt>
      <trkpt lat="45.09375" lon="6.15274">
        <ele>1779.6</ele>
        <time>2020-08-26T10:43:41.000Z</time>
      </trkpt>
      <trkpt lat="45.09378" lon="6.15275">
        <ele>1779.8</ele>
        <time>2020-08-26T10:43:42.000Z</time>
      </trkpt>
      <trkpt lat="45.0938" lon="6.15275">
        <ele>1780</ele>
        <time>2020-08-26T10:43:43.000Z</time>
      </trkpt>
      <trkpt lat="45.09382" lon="6.15276">
        <ele>1780.4</ele>
        <time>2020-08-26T10:43:44.000Z</time>
      </trkpt>
      <trkpt lat="45.09385" lon="6.15276">
        <ele>1780.6</ele>
        <time>2020-08-26T10:43:45.000Z</time>
      </trkpt>
      <trkpt lat="45.09387" lon="6.15277">
        <ele>1780.8</ele>
        <time>2020-08-26T10:43:46.000Z</time>
      </trkpt>
      <trkpt lat="45.09389" lon="6.15277">
        <ele>1781.2</ele>
        <time>2020-08-26T10:43:47.000Z</time>
      </trkpt>
      <trkpt lat="45.09391" lon="6.15277">
        <ele>1781.2</ele>
        <time>2020-08-26T10:43:48.000Z</time>
      </trkpt>
      <trkpt lat="45.09394" lon="6.15278">
        <ele>1781.4</ele>
        <time>2020-08-26T10:43:49.000Z</time>
      </trkpt>
      <trkpt lat="45.09396" lon="6.15279">
        <ele>1781.8</ele>
        <time>2020-08-26T10:43:50.000Z</time>
      </trkpt>
      <trkpt lat="45.09398" lon="6.1528">
        <ele>1782</ele>
        <time>2020-08-26T10:43:51.000Z</time>
      </trkpt>
      <trkpt lat="45.094" lon="6.15281">
        <ele>1782</ele>
        <time>2020-08-26T10:43:52.000Z</time>
      </trkpt>
      <trkpt lat="45.09402" lon="6.15281">
        <ele>1782.4</ele>
        <time>2020-08-26T10:43:53.000Z</time>
      </trkpt>
      <trkpt lat="45.09405" lon="6.15282">
        <ele>1782.6</ele>
        <time>2020-08-26T10:43:54.000Z</time>
      </trkpt>
      <trkpt lat="45.09407" lon="6.15283">
        <ele>1782.8</ele>
        <time>2020-08-26T10:43:55.000Z</time>
      </trkpt>
      <trkpt lat="45.09409" lon="6.15284">
        <ele>1783.4</ele>
        <time>2020-08-26T10:43:56.000Z</time>
      </trkpt>
      <trkpt lat="45.09411" lon="6.15285">
        <ele>1783.8</ele>
        <time>2020-08-26T10:43:57.000Z</time>
      </trkpt>
      <trkpt lat="45.09413" lon="6.15286">
        <ele>1784</ele>
        <time>2020-08-26T10:43:58.000Z</time>
      </trkpt>
      <trkpt lat="45.09415" lon="6.15287">
        <ele>1784.2</ele>
        <time>2020-08-26T10:43:59.000Z</time>
      </trkpt>
      <trkpt lat="45.09417" lon="6.15288">
        <ele>1784.6</ele>
        <time>2020-08-26T10:44:00.000Z</time>
      </trkpt>
      <trkpt lat="45.09419" lon="6.15289">
        <ele>1784.8</ele>
        <time>2020-08-26T10:44:01.000Z</time>
      </trkpt>
      <trkpt lat="45.09421" lon="6.1529">
        <ele>1785</ele>
        <time>2020-08-26T10:44:02.000Z</time>
      </trkpt>
      <trkpt lat="45.09423" lon="6.15291">
        <ele>1785.2</ele>
        <time>2020-08-26T10:44:03.000Z</time>
      </trkpt>
      <trkpt lat="45.09426" lon="6.15292">
        <ele>1785.4</ele>
        <time>2020-08-26T10:44:04.000Z</time>
      </trkpt>
      <trkpt lat="45.09428" lon="6.15293">
        <ele>1785.6</ele>
        <time>2020-08-26T10:44:05.000Z</time>
      </trkpt>
      <trkpt lat="45.0943" lon="6.15294">
        <ele>1785.8</ele>
        <time>2020-08-26T10:44:06.000Z</time>
      </trkpt>
      <trkpt lat="45.09432" lon="6.15295">
        <ele>1786</ele>
        <time>2020-08-26T10:44:07.000Z</time>
      </trkpt>
      <trkpt lat="45.09435" lon="6.15296">
        <ele>1786.2</ele>
        <time>2020-08-26T10:44:08.000Z</time>
      </trkpt>
      <trkpt lat="45.09437" lon="6.15297">
        <ele>1786.6</ele>
        <time>2020-08-26T10:44:09.000Z</time>
      </trkpt>
      <trkpt lat="45.09439" lon="6.15297">
        <ele>1786.8</ele>
        <time>2020-08-26T10:44:10.000Z</time>
      </trkpt>
      <trkpt lat="45.09442" lon="6.15298">
        <ele>1787</ele>
        <time>2020-08-26T10:44:11.000Z</time>
      </trkpt>
      <trkpt lat="45.09444" lon="6.15299">
        <ele>1787.4</ele>
        <time>2020-08-26T10:44:12.000Z</time>
      </trkpt>
      <trkpt lat="45.09446" lon="6.153">
        <ele>1787.6</ele>
        <time>2020-08-26T10:44:13.000Z</time>
      </trkpt>
      <trkpt lat="45.09448" lon="6.15301">
        <ele>1787.8</ele>
        <time>2020-08-26T10:44:14.000Z</time>
      </trkpt>
      <trkpt lat="45.0945" lon="6.15302">
        <ele>1788</ele>
        <time>2020-08-26T10:44:15.000Z</time>
      </trkpt>
      <trkpt lat="45.09452" lon="6.15303">
        <ele>1788.2</ele>
        <time>2020-08-26T10:44:16.000Z</time>
      </trkpt>
      <trkpt lat="45.09454" lon="6.15304">
        <ele>1788.6</ele>
        <time>2020-08-26T10:44:17.000Z</time>
      </trkpt>
      <trkpt lat="45.09456" lon="6.15305">
        <ele>1788.8</ele>
        <time>2020-08-26T10:44:18.000Z</time>
      </trkpt>
      <trkpt lat="45.09457" lon="6.15306">
        <ele>1789</ele>
        <time>2020-08-26T10:44:19.000Z</time>
      </trkpt>
      <trkpt lat="45.09459" lon="6.15307">
        <ele>1789.2</ele>
        <time>2020-08-26T10:44:20.000Z</time>
      </trkpt>
      <trkpt lat="45.09461" lon="6.15309">
        <ele>1789.4</ele>
        <time>2020-08-26T10:44:21.000Z</time>
      </trkpt>
      <trkpt lat="45.09463" lon="6.1531">
        <ele>1789.8</ele>
        <time>2020-08-26T10:44:22.000Z</time>
      </trkpt>
      <trkpt lat="45.09465" lon="6.15311">
        <ele>1790.2</ele>
        <time>2020-08-26T10:44:23.000Z</time>
      </trkpt>
      <trkpt lat="45.09467" lon="6.15312">
        <ele>1790.4</ele>
        <time>2020-08-26T10:44:24.000Z</time>
      </trkpt>
      <trkpt lat="45.09469" lon="6.15314">
        <ele>1790.6</ele>
        <time>2020-08-26T10:44:25.000Z</time>
      </trkpt>
      <trkpt lat="45.09471" lon="6.15315">
        <ele>1791</ele>
        <time>2020-08-26T10:44:26.000Z</time>
      </trkpt>
      <trkpt lat="45.09473" lon="6.15315">
        <ele>1791.2</ele>
        <time>2020-08-26T10:44:27.000Z</time>
      </trkpt>
      <trkpt lat="45.09475" lon="6.15317">
        <ele>1791.6</ele>
        <time>2020-08-26T10:44:28.000Z</time>
      </trkpt>
      <trkpt lat="45.09477" lon="6.15318">
        <ele>1792</ele>
        <time>2020-08-26T10:44:29.000Z</time>
      </trkpt>
      <trkpt lat="45.09479" lon="6.15319">
        <ele>1792.2</ele>
        <time>2020-08-26T10:44:30.000Z</time>
      </trkpt>
      <trkpt lat="45.09481" lon="6.1532">
        <ele>1792.6</ele>
        <time>2020-08-26T10:44:31.000Z</time>
      </trkpt>
      <trkpt lat="45.09483" lon="6.15321">
        <ele>1792.8</ele>
        <time>2020-08-26T10:44:32.000Z</time>
      </trkpt>
      <trkpt lat="45.09485" lon="6.15322">
        <ele>1793</ele>
        <time>2020-08-26T10:44:33.000Z</time>
      </trkpt>
      <trkpt lat="45.09487" lon="6.15323">
        <ele>1793.4</ele>
        <time>2020-08-26T10:44:34.000Z</time>
      </trkpt>
      <trkpt lat="45.09489" lon="6.15324">
        <ele>1793.6</ele>
        <time>2020-08-26T10:44:35.000Z</time>
      </trkpt>
      <trkpt lat="45.09492" lon="6.15325">
        <ele>1793.8</ele>
        <time>2020-08-26T10:44:36.000Z</time>
      </trkpt>
      <trkpt lat="45.09494" lon="6.15326">
        <ele>1794</ele>
        <time>2020-08-26T10:44:37.000Z</time>
      </trkpt>
      <trkpt lat="45.09496" lon="6.15327">
        <ele>1794.2</ele>
        <time>2020-08-26T10:44:38.000Z</time>
      </trkpt>
      <trkpt lat="45.09498" lon="6.15328">
        <ele>1794.6</ele>
        <time>2020-08-26T10:44:39.000Z</time>
      </trkpt>
      <trkpt lat="45.095" lon="6.15329">
        <ele>1794.8</ele>
        <time>2020-08-26T10:44:40.000Z</time>
      </trkpt>
      <trkpt lat="45.09502" lon="6.1533">
        <ele>1794.8</ele>
        <time>2020-08-26T10:44:41.000Z</time>
      </trkpt>
      <trkpt lat="45.09504" lon="6.15331">
        <ele>1795</ele>
        <time>2020-08-26T10:44:42.000Z</time>
      </trkpt>
      <trkpt lat="45.09506" lon="6.15332">
        <ele>1795.2</ele>
        <time>2020-08-26T10:44:43.000Z</time>
      </trkpt>
      <trkpt lat="45.09509" lon="6.15333">
        <ele>1795.4</ele>
        <time>2020-08-26T10:44:44.000Z</time>
      </trkpt>
      <trkpt lat="45.09511" lon="6.15334">
        <ele>1795.8</ele>
        <time>2020-08-26T10:44:45.000Z</time>
      </trkpt>
      <trkpt lat="45.09513" lon="6.15335">
        <ele>1796</ele>
        <time>2020-08-26T10:44:46.000Z</time>
      </trkpt>
      <trkpt lat="45.09515" lon="6.15336">
        <ele>1796</ele>
        <time>2020-08-26T10:44:47.000Z</time>
      </trkpt>
      <trkpt lat="45.09518" lon="6.15336">
        <ele>1796.2</ele>
        <time>2020-08-26T10:44:48.000Z</time>
      </trkpt>
      <trkpt lat="45.0952" lon="6.15337">
        <ele>1796.4</ele>
        <time>2020-08-26T10:44:49.000Z</time>
      </trkpt>
      <trkpt lat="45.09522" lon="6.15338">
        <ele>1796.6</ele>
        <time>2020-08-26T10:44:50.000Z</time>
      </trkpt>
      <trkpt lat="45.09524" lon="6.1534">
        <ele>1797</ele>
        <time>2020-08-26T10:44:51.000Z</time>
      </trkpt>
      <trkpt lat="45.09526" lon="6.15341">
        <ele>1797.2</ele>
        <time>2020-08-26T10:44:52.000Z</time>
      </trkpt>
      <trkpt lat="45.09528" lon="6.15342">
        <ele>1797.4</ele>
        <time>2020-08-26T10:44:53.000Z</time>
      </trkpt>
      <trkpt lat="45.0953" lon="6.15343">
        <ele>1797.8</ele>
        <time>2020-08-26T10:44:54.000Z</time>
      </trkpt>
      <trkpt lat="45.09533" lon="6.15344">
        <ele>1798</ele>
        <time>2020-08-26T10:44:55.000Z</time>
      </trkpt>
      <trkpt lat="45.09535" lon="6.15345">
        <ele>1798.2</ele>
        <time>2020-08-26T10:44:56.000Z</time>
      </trkpt>
      <trkpt lat="45.09537" lon="6.15346">
        <ele>1798.6</ele>
        <time>2020-08-26T10:44:57.000Z</time>
      </trkpt>
      <trkpt lat="45.09539" lon="6.15347">
        <ele>1798.8</ele>
        <time>2020-08-26T10:44:58.000Z</time>
      </trkpt>
      <trkpt lat="45.09541" lon="6.15348">
        <ele>1799</ele>
        <time>2020-08-26T10:44:59.000Z</time>
      </trkpt>
      <trkpt lat="45.09543" lon="6.15348">
        <ele>1799.2</ele>
        <time>2020-08-26T10:45:00.000Z</time>
      </trkpt>
      <trkpt lat="45.09545" lon="6.15349">
        <ele>1799.4</ele>
        <time>2020-08-26T10:45:01.000Z</time>
      </trkpt>
      <trkpt lat="45.09547" lon="6.1535">
        <ele>1799.8</ele>
        <time>2020-08-26T10:45:02.000Z</time>
      </trkpt>
      <trkpt lat="45.09549" lon="6.15351">
        <ele>1800</ele>
        <time>2020-08-26T10:45:03.000Z</time>
      </trkpt>
      <trkpt lat="45.09551" lon="6.15351">
        <ele>1800.2</ele>
        <time>2020-08-26T10:45:04.000Z</time>
      </trkpt>
      <trkpt lat="45.09553" lon="6.15353">
        <ele>1800.4</ele>
        <time>2020-08-26T10:45:05.000Z</time>
      </trkpt>
      <trkpt lat="45.09555" lon="6.15354">
        <ele>1800.6</ele>
        <time>2020-08-26T10:45:06.000Z</time>
      </trkpt>
      <trkpt lat="45.09557" lon="6.15355">
        <ele>1800.6</ele>
        <time>2020-08-26T10:45:07.000Z</time>
      </trkpt>
      <trkpt lat="45.09559" lon="6.15355">
        <ele>1801</ele>
        <time>2020-08-26T10:45:08.000Z</time>
      </trkpt>
      <trkpt lat="45.09561" lon="6.15356">
        <ele>1801.4</ele>
        <time>2020-08-26T10:45:09.000Z</time>
      </trkpt>
      <trkpt lat="45.09563" lon="6.15357">
        <ele>1801.8</ele>
        <time>2020-08-26T10:45:10.000Z</time>
      </trkpt>
      <trkpt lat="45.09566" lon="6.15358">
        <ele>1802</ele>
        <time>2020-08-26T10:45:11.000Z</time>
      </trkpt>
      <trkpt lat="45.09568" lon="6.15359">
        <ele>1802.4</ele>
        <time>2020-08-26T10:45:12.000Z</time>
      </trkpt>
      <trkpt lat="45.0957" lon="6.1536">
        <ele>1802.6</ele>
        <time>2020-08-26T10:45:13.000Z</time>
      </trkpt>
      <trkpt lat="45.09572" lon="6.15361">
        <ele>1802.8</ele>
        <time>2020-08-26T10:45:14.000Z</time>
      </trkpt>
      <trkpt lat="45.09574" lon="6.15362">
        <ele>1803</ele>
        <time>2020-08-26T10:45:15.000Z</time>
      </trkpt>
      <trkpt lat="45.09576" lon="6.15363">
        <ele>1803.2</ele>
        <time>2020-08-26T10:45:16.000Z</time>
      </trkpt>
      <trkpt lat="45.09578" lon="6.15364">
        <ele>1803.6</ele>
        <time>2020-08-26T10:45:17.000Z</time>
      </trkpt>
      <trkpt lat="45.0958" lon="6.15364">
        <ele>1803.8</ele>
        <time>2020-08-26T10:45:18.000Z</time>
      </trkpt>
      <trkpt lat="45.09582" lon="6.15365">
        <ele>1804</ele>
        <time>2020-08-26T10:45:19.000Z</time>
      </trkpt>
      <trkpt lat="45.09584" lon="6.15366">
        <ele>1804.4</ele>
        <time>2020-08-26T10:45:20.000Z</time>
      </trkpt>
      <trkpt lat="45.09586" lon="6.15367">
        <ele>1804.6</ele>
        <time>2020-08-26T10:45:21.000Z</time>
      </trkpt>
      <trkpt lat="45.09588" lon="6.15367">
        <ele>1804.8</ele>
        <time>2020-08-26T10:45:22.000Z</time>
      </trkpt>
      <trkpt lat="45.09591" lon="6.15368">
        <ele>1805.2</ele>
        <time>2020-08-26T10:45:23.000Z</time>
      </trkpt>
      <trkpt lat="45.09593" lon="6.15369">
        <ele>1805.4</ele>
        <time>2020-08-26T10:45:24.000Z</time>
      </trkpt>
      <trkpt lat="45.09595" lon="6.1537">
        <ele>1805.6</ele>
        <time>2020-08-26T10:45:25.000Z</time>
      </trkpt>
      <trkpt lat="45.09596" lon="6.15371">
        <ele>1805.8</ele>
        <time>2020-08-26T10:45:26.000Z</time>
      </trkpt>
      <trkpt lat="45.09598" lon="6.15372">
        <ele>1806.4</ele>
        <time>2020-08-26T10:45:27.000Z</time>
      </trkpt>
      <trkpt lat="45.096" lon="6.15373">
        <ele>1806.6</ele>
        <time>2020-08-26T10:45:28.000Z</time>
      </trkpt>
      <trkpt lat="45.09602" lon="6.15374">
        <ele>1807</ele>
        <time>2020-08-26T10:45:29.000Z</time>
      </trkpt>
      <trkpt lat="45.09604" lon="6.15375">
        <ele>1807</ele>
        <time>2020-08-26T10:45:30.000Z</time>
      </trkpt>
      <trkpt lat="45.09606" lon="6.15376">
        <ele>1807.2</ele>
        <time>2020-08-26T10:45:31.000Z</time>
      </trkpt>
      <trkpt lat="45.09608" lon="6.15377">
        <ele>1807.4</ele>
        <time>2020-08-26T10:45:32.000Z</time>
      </trkpt>
      <trkpt lat="45.0961" lon="6.15378">
        <ele>1807.6</ele>
        <time>2020-08-26T10:45:33.000Z</time>
      </trkpt>
      <trkpt lat="45.09612" lon="6.15379">
        <ele>1807.8</ele>
        <time>2020-08-26T10:45:34.000Z</time>
      </trkpt>
      <trkpt lat="45.09614" lon="6.1538">
        <ele>1808</ele>
        <time>2020-08-26T10:45:35.000Z</time>
      </trkpt>
      <trkpt lat="45.09616" lon="6.1538">
        <ele>1808.2</ele>
        <time>2020-08-26T10:45:36.000Z</time>
      </trkpt>
      <trkpt lat="45.09618" lon="6.15381">
        <ele>1808.4</ele>
        <time>2020-08-26T10:45:37.000Z</time>
      </trkpt>
      <trkpt lat="45.0962" lon="6.15382">
        <ele>1808.6</ele>
        <time>2020-08-26T10:45:38.000Z</time>
      </trkpt>
      <trkpt lat="45.09622" lon="6.15383">
        <ele>1808.8</ele>
        <time>2020-08-26T10:45:39.000Z</time>
      </trkpt>
      <trkpt lat="45.09624" lon="6.15384">
        <ele>1809</ele>
        <time>2020-08-26T10:45:40.000Z</time>
      </trkpt>
      <trkpt lat="45.09626" lon="6.15385">
        <ele>1809.2</ele>
        <time>2020-08-26T10:45:41.000Z</time>
      </trkpt>
      <trkpt lat="45.09629" lon="6.15387">
        <ele>1809.4</ele>
        <time>2020-08-26T10:45:42.000Z</time>
      </trkpt>
      <trkpt lat="45.09631" lon="6.15388">
        <ele>1809.6</ele>
        <time>2020-08-26T10:45:43.000Z</time>
      </trkpt>
      <trkpt lat="45.09633" lon="6.15389">
        <ele>1809.8</ele>
        <time>2020-08-26T10:45:44.000Z</time>
      </trkpt>
      <trkpt lat="45.09635" lon="6.1539">
        <ele>1810</ele>
        <time>2020-08-26T10:45:45.000Z</time>
      </trkpt>
      <trkpt lat="45.09637" lon="6.15391">
        <ele>1810.2</ele>
        <time>2020-08-26T10:45:46.000Z</time>
      </trkpt>
      <trkpt lat="45.09639" lon="6.15393">
        <ele>1810.4</ele>
        <time>2020-08-26T10:45:47.000Z</time>
      </trkpt>
      <trkpt lat="45.09641" lon="6.15394">
        <ele>1810.6</ele>
        <time>2020-08-26T10:45:48.000Z</time>
      </trkpt>
      <trkpt lat="45.09643" lon="6.15396">
        <ele>1810.8</ele>
        <time>2020-08-26T10:45:49.000Z</time>
      </trkpt>
      <trkpt lat="45.09645" lon="6.15397">
        <ele>1811</ele>
        <time>2020-08-26T10:45:50.000Z</time>
      </trkpt>
      <trkpt lat="45.09647" lon="6.15399">
        <ele>1811.2</ele>
        <time>2020-08-26T10:45:51.000Z</time>
      </trkpt>
      <trkpt lat="45.09649" lon="6.15401">
        <ele>1811.8</ele>
        <time>2020-08-26T10:45:52.000Z</time>
      </trkpt>
      <trkpt lat="45.09651" lon="6.15403">
        <ele>1812</ele>
        <time>2020-08-26T10:45:53.000Z</time>
      </trkpt>
      <trkpt lat="45.09653" lon="6.15405">
        <ele>1812.4</ele>
        <time>2020-08-26T10:45:54.000Z</time>
      </trkpt>
      <trkpt lat="45.09655" lon="6.15406">
        <ele>1812.6</ele>
        <time>2020-08-26T10:45:55.000Z</time>
      </trkpt>
      <trkpt lat="45.09657" lon="6.15408">
        <ele>1812.8</ele>
        <time>2020-08-26T10:45:56.000Z</time>
      </trkpt>
      <trkpt lat="45.09659" lon="6.15409">
        <ele>1813.2</ele>
        <time>2020-08-26T10:45:57.000Z</time>
      </trkpt>
      <trkpt lat="45.09661" lon="6.15411">
        <ele>1813.4</ele>
        <time>2020-08-26T10:45:58.000Z</time>
      </trkpt>
      <trkpt lat="45.09663" lon="6.15412">
        <ele>1813.6</ele>
        <time>2020-08-26T10:45:59.000Z</time>
      </trkpt>
      <trkpt lat="45.09665" lon="6.15414">
        <ele>1814</ele>
        <time>2020-08-26T10:46:00.000Z</time>
      </trkpt>
      <trkpt lat="45.09667" lon="6.15416">
        <ele>1814.2</ele>
        <time>2020-08-26T10:46:01.000Z</time>
      </trkpt>
      <trkpt lat="45.09669" lon="6.15417">
        <ele>1814.6</ele>
        <time>2020-08-26T10:46:02.000Z</time>
      </trkpt>
      <trkpt lat="45.09671" lon="6.15418">
        <ele>1814.8</ele>
        <time>2020-08-26T10:46:03.000Z</time>
      </trkpt>
      <trkpt lat="45.09673" lon="6.1542">
        <ele>1815.2</ele>
        <time>2020-08-26T10:46:04.000Z</time>
      </trkpt>
      <trkpt lat="45.09675" lon="6.15421">
        <ele>1815.2</ele>
        <time>2020-08-26T10:46:05.000Z</time>
      </trkpt>
      <trkpt lat="45.09677" lon="6.15422">
        <ele>1815.4</ele>
        <time>2020-08-26T10:46:06.000Z</time>
      </trkpt>
      <trkpt lat="45.09679" lon="6.15423">
        <ele>1815.8</ele>
        <time>2020-08-26T10:46:07.000Z</time>
      </trkpt>
      <trkpt lat="45.09681" lon="6.15424">
        <ele>1816</ele>
        <time>2020-08-26T10:46:08.000Z</time>
      </trkpt>
      <trkpt lat="45.09683" lon="6.15425">
        <ele>1816.2</ele>
        <time>2020-08-26T10:46:09.000Z</time>
      </trkpt>
      <trkpt lat="45.09685" lon="6.15426">
        <ele>1816.4</ele>
        <time>2020-08-26T10:46:10.000Z</time>
      </trkpt>
      <trkpt lat="45.09687" lon="6.15427">
        <ele>1816.4</ele>
        <time>2020-08-26T10:46:11.000Z</time>
      </trkpt>
      <trkpt lat="45.09689" lon="6.15428">
        <ele>1816.6</ele>
        <time>2020-08-26T10:46:12.000Z</time>
      </trkpt>
      <trkpt lat="45.09691" lon="6.15429">
        <ele>1816.8</ele>
        <time>2020-08-26T10:46:13.000Z</time>
      </trkpt>
      <trkpt lat="45.09693" lon="6.1543">
        <ele>1817</ele>
        <time>2020-08-26T10:46:14.000Z</time>
      </trkpt>
      <trkpt lat="45.09695" lon="6.15431">
        <ele>1817.4</ele>
        <time>2020-08-26T10:46:15.000Z</time>
      </trkpt>
      <trkpt lat="45.09697" lon="6.15432">
        <ele>1817.6</ele>
        <time>2020-08-26T10:46:16.000Z</time>
      </trkpt>
      <trkpt lat="45.09699" lon="6.15433">
        <ele>1817.8</ele>
        <time>2020-08-26T10:46:17.000Z</time>
      </trkpt>
      <trkpt lat="45.09701" lon="6.15434">
        <ele>1818</ele>
        <time>2020-08-26T10:46:18.000Z</time>
      </trkpt>
      <trkpt lat="45.09704" lon="6.15435">
        <ele>1818.4</ele>
        <time>2020-08-26T10:46:19.000Z</time>
      </trkpt>
      <trkpt lat="45.09706" lon="6.15437">
        <ele>1818.4</ele>
        <time>2020-08-26T10:46:20.000Z</time>
      </trkpt>
      <trkpt lat="45.09708" lon="6.15438">
        <ele>1819</ele>
        <time>2020-08-26T10:46:21.000Z</time>
      </trkpt>
      <trkpt lat="45.0971" lon="6.15439">
        <ele>1819.2</ele>
        <time>2020-08-26T10:46:22.000Z</time>
      </trkpt>
      <trkpt lat="45.09712" lon="6.15441">
        <ele>1819.4</ele>
        <time>2020-08-26T10:46:23.000Z</time>
      </trkpt>
      <trkpt lat="45.09714" lon="6.15442">
        <ele>1819.6</ele>
        <time>2020-08-26T10:46:24.000Z</time>
      </trkpt>
      <trkpt lat="45.09716" lon="6.15444">
        <ele>1820</ele>
        <time>2020-08-26T10:46:25.000Z</time>
      </trkpt>
      <trkpt lat="45.09717" lon="6.15446">
        <ele>1820.4</ele>
        <time>2020-08-26T10:46:26.000Z</time>
      </trkpt>
      <trkpt lat="45.09719" lon="6.15448">
        <ele>1820.6</ele>
        <time>2020-08-26T10:46:27.000Z</time>
      </trkpt>
      <trkpt lat="45.09721" lon="6.15449">
        <ele>1820.8</ele>
        <time>2020-08-26T10:46:28.000Z</time>
      </trkpt>
      <trkpt lat="45.09723" lon="6.15451">
        <ele>1821</ele>
        <time>2020-08-26T10:46:29.000Z</time>
      </trkpt>
      <trkpt lat="45.09726" lon="6.15452">
        <ele>1821.2</ele>
        <time>2020-08-26T10:46:30.000Z</time>
      </trkpt>
      <trkpt lat="45.09728" lon="6.15452">
        <ele>1821.4</ele>
        <time>2020-08-26T10:46:31.000Z</time>
      </trkpt>
      <trkpt lat="45.0973" lon="6.15451">
        <ele>1821.6</ele>
        <time>2020-08-26T10:46:32.000Z</time>
      </trkpt>
      <trkpt lat="45.09732" lon="6.15449">
        <ele>1821.8</ele>
        <time>2020-08-26T10:46:33.000Z</time>
      </trkpt>
      <trkpt lat="45.09733" lon="6.15447">
        <ele>1822</ele>
        <time>2020-08-26T10:46:34.000Z</time>
      </trkpt>
      <trkpt lat="45.09733" lon="6.15444">
        <ele>1822.2</ele>
        <time>2020-08-26T10:46:35.000Z</time>
      </trkpt>
      <trkpt lat="45.09733" lon="6.15441">
        <ele>1822.4</ele>
        <time>2020-08-26T10:46:36.000Z</time>
      </trkpt>
      <trkpt lat="45.09731" lon="6.15439">
        <ele>1822.8</ele>
        <time>2020-08-26T10:46:37.000Z</time>
      </trkpt>
      <trkpt lat="45.0973" lon="6.15436">
        <ele>1823</ele>
        <time>2020-08-26T10:46:38.000Z</time>
      </trkpt>
      <trkpt lat="45.09728" lon="6.15434">
        <ele>1823.4</ele>
        <time>2020-08-26T10:46:39.000Z</time>
      </trkpt>
      <trkpt lat="45.09726" lon="6.15432">
        <ele>1823.6</ele>
        <time>2020-08-26T10:46:40.000Z</time>
      </trkpt>
      <trkpt lat="45.09724" lon="6.15431">
        <ele>1823.8</ele>
        <time>2020-08-26T10:46:41.000Z</time>
      </trkpt>
      <trkpt lat="45.09722" lon="6.15429">
        <ele>1824</ele>
        <time>2020-08-26T10:46:42.000Z</time>
      </trkpt>
      <trkpt lat="45.0972" lon="6.15427">
        <ele>1824.2</ele>
        <time>2020-08-26T10:46:43.000Z</time>
      </trkpt>
      <trkpt lat="45.09718" lon="6.15425">
        <ele>1824.6</ele>
        <time>2020-08-26T10:46:44.000Z</time>
      </trkpt>
      <trkpt lat="45.09716" lon="6.15424">
        <ele>1824.8</ele>
        <time>2020-08-26T10:46:45.000Z</time>
      </trkpt>
      <trkpt lat="45.09714" lon="6.15422">
        <ele>1825</ele>
        <time>2020-08-26T10:46:46.000Z</time>
      </trkpt>
      <trkpt lat="45.09712" lon="6.15421">
        <ele>1825.2</ele>
        <time>2020-08-26T10:46:47.000Z</time>
      </trkpt>
      <trkpt lat="45.0971" lon="6.15419">
        <ele>1825.4</ele>
        <time>2020-08-26T10:46:48.000Z</time>
      </trkpt>
      <trkpt lat="45.09708" lon="6.15418">
        <ele>1825.6</ele>
        <time>2020-08-26T10:46:49.000Z</time>
      </trkpt>
      <trkpt lat="45.09706" lon="6.15416">
        <ele>1826</ele>
        <time>2020-08-26T10:46:50.000Z</time>
      </trkpt>
      <trkpt lat="45.09704" lon="6.15414">
        <ele>1826.2</ele>
        <time>2020-08-26T10:46:51.000Z</time>
      </trkpt>
      <trkpt lat="45.09702" lon="6.15412">
        <ele>1826.4</ele>
        <time>2020-08-26T10:46:52.000Z</time>
      </trkpt>
      <trkpt lat="45.097" lon="6.1541">
        <ele>1826.6</ele>
        <time>2020-08-26T10:46:53.000Z</time>
      </trkpt>
      <trkpt lat="45.09699" lon="6.15409">
        <ele>1826.8</ele>
        <time>2020-08-26T10:46:54.000Z</time>
      </trkpt>
      <trkpt lat="45.09697" lon="6.15407">
        <ele>1826.8</ele>
        <time>2020-08-26T10:46:55.000Z</time>
      </trkpt>
      <trkpt lat="45.09695" lon="6.15405">
        <ele>1826.8</ele>
        <time>2020-08-26T10:46:56.000Z</time>
      </trkpt>
      <trkpt lat="45.09693" lon="6.15403">
        <ele>1827.2</ele>
        <time>2020-08-26T10:46:57.000Z</time>
      </trkpt>
      <trkpt lat="45.09691" lon="6.15401">
        <ele>1827.4</ele>
        <time>2020-08-26T10:46:58.000Z</time>
      </trkpt>
      <trkpt lat="45.0969" lon="6.15398">
        <ele>1827.6</ele>
        <time>2020-08-26T10:46:59.000Z</time>
      </trkpt>
      <trkpt lat="45.09688" lon="6.15396">
        <ele>1828</ele>
        <time>2020-08-26T10:47:00.000Z</time>
      </trkpt>
      <trkpt lat="45.09686" lon="6.15394">
        <ele>1828.2</ele>
        <time>2020-08-26T10:47:01.000Z</time>
      </trkpt>
      <trkpt lat="45.09684" lon="6.15392">
        <ele>1828.4</ele>
        <time>2020-08-26T10:47:02.000Z</time>
      </trkpt>
      <trkpt lat="45.09682" lon="6.1539">
        <ele>1828.6</ele>
        <time>2020-08-26T10:47:03.000Z</time>
      </trkpt>
      <trkpt lat="45.09681" lon="6.15388">
        <ele>1828.8</ele>
        <time>2020-08-26T10:47:04.000Z</time>
      </trkpt>
      <trkpt lat="45.09679" lon="6.15386">
        <ele>1829</ele>
        <time>2020-08-26T10:47:05.000Z</time>
      </trkpt>
      <trkpt lat="45.09677" lon="6.15383">
        <ele>1829.2</ele>
        <time>2020-08-26T10:47:06.000Z</time>
      </trkpt>
      <trkpt lat="45.09675" lon="6.1538">
        <ele>1829.4</ele>
        <time>2020-08-26T10:47:07.000Z</time>
      </trkpt>
      <trkpt lat="45.09674" lon="6.15378">
        <ele>1829.6</ele>
        <time>2020-08-26T10:47:08.000Z</time>
      </trkpt>
      <trkpt lat="45.09672" lon="6.15375">
        <ele>1830</ele>
        <time>2020-08-26T10:47:09.000Z</time>
      </trkpt>
      <trkpt lat="45.0967" lon="6.15373">
        <ele>1830.2</ele>
        <time>2020-08-26T10:47:10.000Z</time>
      </trkpt>
      <trkpt lat="45.09668" lon="6.1537">
        <ele>1830.4</ele>
        <time>2020-08-26T10:47:11.000Z</time>
      </trkpt>
      <trkpt lat="45.09666" lon="6.15368">
        <ele>1830.6</ele>
        <time>2020-08-26T10:47:12.000Z</time>
      </trkpt>
      <trkpt lat="45.09664" lon="6.15367">
        <ele>1830.8</ele>
        <time>2020-08-26T10:47:13.000Z</time>
      </trkpt>
      <trkpt lat="45.09662" lon="6.15365">
        <ele>1831</ele>
        <time>2020-08-26T10:47:14.000Z</time>
      </trkpt>
      <trkpt lat="45.0966" lon="6.15363">
        <ele>1831.2</ele>
        <time>2020-08-26T10:47:15.000Z</time>
      </trkpt>
      <trkpt lat="45.09657" lon="6.15362">
        <ele>1831.4</ele>
        <time>2020-08-26T10:47:16.000Z</time>
      </trkpt>
      <trkpt lat="45.09655" lon="6.1536">
        <ele>1831.4</ele>
        <time>2020-08-26T10:47:17.000Z</time>
      </trkpt>
      <trkpt lat="45.09653" lon="6.15358">
        <ele>1831.6</ele>
        <time>2020-08-26T10:47:18.000Z</time>
      </trkpt>
      <trkpt lat="45.09651" lon="6.15356">
        <ele>1831.8</ele>
        <time>2020-08-26T10:47:19.000Z</time>
      </trkpt>
      <trkpt lat="45.09649" lon="6.15354">
        <ele>1832</ele>
        <time>2020-08-26T10:47:20.000Z</time>
      </trkpt>
      <trkpt lat="45.09647" lon="6.15352">
        <ele>1832.2</ele>
        <time>2020-08-26T10:47:21.000Z</time>
      </trkpt>
      <trkpt lat="45.09645" lon="6.15351">
        <ele>1832.4</ele>
        <time>2020-08-26T10:47:22.000Z</time>
      </trkpt>
      <trkpt lat="45.09643" lon="6.15349">
        <ele>1832.6</ele>
        <time>2020-08-26T10:47:23.000Z</time>
      </trkpt>
      <trkpt lat="45.0964" lon="6.15346">
        <ele>1832.8</ele>
        <time>2020-08-26T10:47:24.000Z</time>
      </trkpt>
      <trkpt lat="45.09638" lon="6.15345">
        <ele>1833</ele>
        <time>2020-08-26T10:47:25.000Z</time>
      </trkpt>
      <trkpt lat="45.09636" lon="6.15343">
        <ele>1833.2</ele>
        <time>2020-08-26T10:47:26.000Z</time>
      </trkpt>
      <trkpt lat="45.09634" lon="6.15341">
        <ele>1833.4</ele>
        <time>2020-08-26T10:47:27.000Z</time>
      </trkpt>
      <trkpt lat="45.09631" lon="6.15339">
        <ele>1833.6</ele>
        <time>2020-08-26T10:47:28.000Z</time>
      </trkpt>
      <trkpt lat="45.09629" lon="6.15337">
        <ele>1834</ele>
        <time>2020-08-26T10:47:29.000Z</time>
      </trkpt>
      <trkpt lat="45.09627" lon="6.15335">
        <ele>1834.2</ele>
        <time>2020-08-26T10:47:30.000Z</time>
      </trkpt>
      <trkpt lat="45.09625" lon="6.15333">
        <ele>1834.2</ele>
        <time>2020-08-26T10:47:31.000Z</time>
      </trkpt>
      <trkpt lat="45.09623" lon="6.15331">
        <ele>1834.6</ele>
        <time>2020-08-26T10:47:32.000Z</time>
      </trkpt>
      <trkpt lat="45.09621" lon="6.15329">
        <ele>1834.8</ele>
        <time>2020-08-26T10:47:33.000Z</time>
      </trkpt>
      <trkpt lat="45.09619" lon="6.15327">
        <ele>1835</ele>
        <time>2020-08-26T10:47:34.000Z</time>
      </trkpt>
      <trkpt lat="45.09617" lon="6.15325">
        <ele>1835.4</ele>
        <time>2020-08-26T10:47:35.000Z</time>
      </trkpt>
      <trkpt lat="45.09615" lon="6.15323">
        <ele>1835.6</ele>
        <time>2020-08-26T10:47:36.000Z</time>
      </trkpt>
      <trkpt lat="45.09613" lon="6.15321">
        <ele>1835.8</ele>
        <time>2020-08-26T10:47:37.000Z</time>
      </trkpt>
      <trkpt lat="45.09611" lon="6.15319">
        <ele>1836</ele>
        <time>2020-08-26T10:47:38.000Z</time>
      </trkpt>
      <trkpt lat="45.09609" lon="6.15317">
        <ele>1836.2</ele>
        <time>2020-08-26T10:47:39.000Z</time>
      </trkpt>
      <trkpt lat="45.09608" lon="6.15314">
        <ele>1836.4</ele>
        <time>2020-08-26T10:47:40.000Z</time>
      </trkpt>
      <trkpt lat="45.09606" lon="6.15311">
        <ele>1836.6</ele>
        <time>2020-08-26T10:47:41.000Z</time>
      </trkpt>
      <trkpt lat="45.09604" lon="6.15308">
        <ele>1836.8</ele>
        <time>2020-08-26T10:47:42.000Z</time>
      </trkpt>
      <trkpt lat="45.09603" lon="6.15306">
        <ele>1837</ele>
        <time>2020-08-26T10:47:43.000Z</time>
      </trkpt>
      <trkpt lat="45.09601" lon="6.15303">
        <ele>1837.4</ele>
        <time>2020-08-26T10:47:44.000Z</time>
      </trkpt>
      <trkpt lat="45.096" lon="6.153">
        <ele>1837.6</ele>
        <time>2020-08-26T10:47:45.000Z</time>
      </trkpt>
      <trkpt lat="45.09598" lon="6.15297">
        <ele>1837.8</ele>
        <time>2020-08-26T10:47:46.000Z</time>
      </trkpt>
      <trkpt lat="45.09596" lon="6.15294">
        <ele>1838</ele>
        <time>2020-08-26T10:47:47.000Z</time>
      </trkpt>
      <trkpt lat="45.09595" lon="6.15292">
        <ele>1838.6</ele>
        <time>2020-08-26T10:47:48.000Z</time>
      </trkpt>
      <trkpt lat="45.09593" lon="6.15289">
        <ele>1838.8</ele>
        <time>2020-08-26T10:47:49.000Z</time>
      </trkpt>
      <trkpt lat="45.09592" lon="6.15287">
        <ele>1839</ele>
        <time>2020-08-26T10:47:50.000Z</time>
      </trkpt>
      <trkpt lat="45.0959" lon="6.15284">
        <ele>1839.2</ele>
        <time>2020-08-26T10:47:51.000Z</time>
      </trkpt>
      <trkpt lat="45.09589" lon="6.15282">
        <ele>1839.4</ele>
        <time>2020-08-26T10:47:52.000Z</time>
      </trkpt>
      <trkpt lat="45.09588" lon="6.15279">
        <ele>1839.6</ele>
        <time>2020-08-26T10:47:53.000Z</time>
      </trkpt>
      <trkpt lat="45.09586" lon="6.15277">
        <ele>1839.8</ele>
        <time>2020-08-26T10:47:54.000Z</time>
      </trkpt>
      <trkpt lat="45.09585" lon="6.15274">
        <ele>1840</ele>
        <time>2020-08-26T10:47:55.000Z</time>
      </trkpt>
      <trkpt lat="45.09584" lon="6.15272">
        <ele>1840.4</ele>
        <time>2020-08-26T10:47:56.000Z</time>
      </trkpt>
      <trkpt lat="45.09582" lon="6.1527">
        <ele>1840.6</ele>
        <time>2020-08-26T10:47:57.000Z</time>
      </trkpt>
      <trkpt lat="45.09581" lon="6.15268">
        <ele>1841</ele>
        <time>2020-08-26T10:47:58.000Z</time>
      </trkpt>
      <trkpt lat="45.09579" lon="6.15266">
        <ele>1841.2</ele>
        <time>2020-08-26T10:47:59.000Z</time>
      </trkpt>
      <trkpt lat="45.09577" lon="6.15264">
        <ele>1841.6</ele>
        <time>2020-08-26T10:48:00.000Z</time>
      </trkpt>
      <trkpt lat="45.09576" lon="6.15262">
        <ele>1841.8</ele>
        <time>2020-08-26T10:48:01.000Z</time>
      </trkpt>
      <trkpt lat="45.09574" lon="6.1526">
        <ele>1842</ele>
        <time>2020-08-26T10:48:02.000Z</time>
      </trkpt>
      <trkpt lat="45.09572" lon="6.15258">
        <ele>1842.2</ele>
        <time>2020-08-26T10:48:03.000Z</time>
      </trkpt>
      <trkpt lat="45.0957" lon="6.15257">
        <ele>1842.6</ele>
        <time>2020-08-26T10:48:04.000Z</time>
      </trkpt>
      <trkpt lat="45.09568" lon="6.15256">
        <ele>1842.8</ele>
        <time>2020-08-26T10:48:05.000Z</time>
      </trkpt>
      <trkpt lat="45.09566" lon="6.15255">
        <ele>1843</ele>
        <time>2020-08-26T10:48:06.000Z</time>
      </trkpt>
      <trkpt lat="45.09564" lon="6.15253">
        <ele>1843.2</ele>
        <time>2020-08-26T10:48:07.000Z</time>
      </trkpt>
      <trkpt lat="45.09563" lon="6.15252">
        <ele>1843.4</ele>
        <time>2020-08-26T10:48:08.000Z</time>
      </trkpt>
      <trkpt lat="45.09561" lon="6.1525">
        <ele>1843.6</ele>
        <time>2020-08-26T10:48:09.000Z</time>
      </trkpt>
      <trkpt lat="45.09559" lon="6.15248">
        <ele>1844</ele>
        <time>2020-08-26T10:48:10.000Z</time>
      </trkpt>
      <trkpt lat="45.09558" lon="6.15246">
        <ele>1844.2</ele>
        <time>2020-08-26T10:48:11.000Z</time>
      </trkpt>
      <trkpt lat="45.09556" lon="6.15244">
        <ele>1844.6</ele>
        <time>2020-08-26T10:48:12.000Z</time>
      </trkpt>
      <trkpt lat="45.09555" lon="6.15241">
        <ele>1845</ele>
        <time>2020-08-26T10:48:13.000Z</time>
      </trkpt>
      <trkpt lat="45.09553" lon="6.15239">
        <ele>1845.2</ele>
        <time>2020-08-26T10:48:14.000Z</time>
      </trkpt>
      <trkpt lat="45.09552" lon="6.15236">
        <ele>1845.6</ele>
        <time>2020-08-26T10:48:15.000Z</time>
      </trkpt>
      <trkpt lat="45.0955" lon="6.15234">
        <ele>1845.8</ele>
        <time>2020-08-26T10:48:16.000Z</time>
      </trkpt>
      <trkpt lat="45.09549" lon="6.15232">
        <ele>1846.4</ele>
        <time>2020-08-26T10:48:17.000Z</time>
      </trkpt>
      <trkpt lat="45.09547" lon="6.1523">
        <ele>1846.6</ele>
        <time>2020-08-26T10:48:18.000Z</time>
      </trkpt>
      <trkpt lat="45.09546" lon="6.15228">
        <ele>1846.8</ele>
        <time>2020-08-26T10:48:19.000Z</time>
      </trkpt>
      <trkpt lat="45.09544" lon="6.15226">
        <ele>1847.2</ele>
        <time>2020-08-26T10:48:20.000Z</time>
      </trkpt>
      <trkpt lat="45.09543" lon="6.15223">
        <ele>1847.4</ele>
        <time>2020-08-26T10:48:21.000Z</time>
      </trkpt>
      <trkpt lat="45.09541" lon="6.15221">
        <ele>1847.6</ele>
        <time>2020-08-26T10:48:22.000Z</time>
      </trkpt>
      <trkpt lat="45.0954" lon="6.15219">
        <ele>1847.8</ele>
        <time>2020-08-26T10:48:23.000Z</time>
      </trkpt>
      <trkpt lat="45.09538" lon="6.15217">
        <ele>1848</ele>
        <time>2020-08-26T10:48:24.000Z</time>
      </trkpt>
      <trkpt lat="45.09537" lon="6.15215">
        <ele>1848.2</ele>
        <time>2020-08-26T10:48:25.000Z</time>
      </trkpt>
      <trkpt lat="45.09535" lon="6.15213">
        <ele>1848.2</ele>
        <time>2020-08-26T10:48:26.000Z</time>
      </trkpt>
      <trkpt lat="45.09534" lon="6.15211">
        <ele>1848.6</ele>
        <time>2020-08-26T10:48:27.000Z</time>
      </trkpt>
      <trkpt lat="45.09532" lon="6.15208">
        <ele>1848.8</ele>
        <time>2020-08-26T10:48:28.000Z</time>
      </trkpt>
      <trkpt lat="45.09531" lon="6.15206">
        <ele>1849.2</ele>
        <time>2020-08-26T10:48:29.000Z</time>
      </trkpt>
      <trkpt lat="45.09529" lon="6.15203">
        <ele>1849.6</ele>
        <time>2020-08-26T10:48:30.000Z</time>
      </trkpt>
      <trkpt lat="45.09528" lon="6.15201">
        <ele>1849.8</ele>
        <time>2020-08-26T10:48:31.000Z</time>
      </trkpt>
      <trkpt lat="45.09526" lon="6.15199">
        <ele>1850.2</ele>
        <time>2020-08-26T10:48:32.000Z</time>
      </trkpt>
      <trkpt lat="45.09525" lon="6.15197">
        <ele>1850.4</ele>
        <time>2020-08-26T10:48:33.000Z</time>
      </trkpt>
      <trkpt lat="45.09523" lon="6.15195">
        <ele>1850.6</ele>
        <time>2020-08-26T10:48:34.000Z</time>
      </trkpt>
      <trkpt lat="45.09521" lon="6.15193">
        <ele>1851</ele>
        <time>2020-08-26T10:48:35.000Z</time>
      </trkpt>
      <trkpt lat="45.09519" lon="6.15192">
        <ele>1851.2</ele>
        <time>2020-08-26T10:48:36.000Z</time>
      </trkpt>
      <trkpt lat="45.09517" lon="6.1519">
        <ele>1851.4</ele>
        <time>2020-08-26T10:48:37.000Z</time>
      </trkpt>
      <trkpt lat="45.09514" lon="6.15189">
        <ele>1851.6</ele>
        <time>2020-08-26T10:48:38.000Z</time>
      </trkpt>
      <trkpt lat="45.09512" lon="6.15188">
        <ele>1852</ele>
        <time>2020-08-26T10:48:39.000Z</time>
      </trkpt>
      <trkpt lat="45.0951" lon="6.15187">
        <ele>1852.2</ele>
        <time>2020-08-26T10:48:40.000Z</time>
      </trkpt>
      <trkpt lat="45.09508" lon="6.15185">
        <ele>1852.4</ele>
        <time>2020-08-26T10:48:41.000Z</time>
      </trkpt>
      <trkpt lat="45.09506" lon="6.15184">
        <ele>1852.6</ele>
        <time>2020-08-26T10:48:42.000Z</time>
      </trkpt>
      <trkpt lat="45.09504" lon="6.15183">
        <ele>1852.8</ele>
        <time>2020-08-26T10:48:43.000Z</time>
      </trkpt>
      <trkpt lat="45.09502" lon="6.15182">
        <ele>1852.8</ele>
        <time>2020-08-26T10:48:44.000Z</time>
      </trkpt>
      <trkpt lat="45.095" lon="6.15182">
        <ele>1853</ele>
        <time>2020-08-26T10:48:45.000Z</time>
      </trkpt>
      <trkpt lat="45.09497" lon="6.15181">
        <ele>1853.2</ele>
        <time>2020-08-26T10:48:46.000Z</time>
      </trkpt>
      <trkpt lat="45.09495" lon="6.15181">
        <ele>1853.8</ele>
        <time>2020-08-26T10:48:47.000Z</time>
      </trkpt>
      <trkpt lat="45.09493" lon="6.1518">
        <ele>1854.2</ele>
        <time>2020-08-26T10:48:48.000Z</time>
      </trkpt>
      <trkpt lat="45.09491" lon="6.15179">
        <ele>1854.4</ele>
        <time>2020-08-26T10:48:49.000Z</time>
      </trkpt>
      <trkpt lat="45.09489" lon="6.15178">
        <ele>1854.6</ele>
        <time>2020-08-26T10:48:50.000Z</time>
      </trkpt>
      <trkpt lat="45.09487" lon="6.15177">
        <ele>1855</ele>
        <time>2020-08-26T10:48:51.000Z</time>
      </trkpt>
      <trkpt lat="45.09484" lon="6.15176">
        <ele>1855.4</ele>
        <time>2020-08-26T10:48:52.000Z</time>
      </trkpt>
      <trkpt lat="45.09482" lon="6.15174">
        <ele>1855.6</ele>
        <time>2020-08-26T10:48:53.000Z</time>
      </trkpt>
      <trkpt lat="45.0948" lon="6.15173">
        <ele>1856</ele>
        <time>2020-08-26T10:48:54.000Z</time>
      </trkpt>
      <trkpt lat="45.09478" lon="6.15171">
        <ele>1856.4</ele>
        <time>2020-08-26T10:48:55.000Z</time>
      </trkpt>
      <trkpt lat="45.09476" lon="6.15169">
        <ele>1856.6</ele>
        <time>2020-08-26T10:48:56.000Z</time>
      </trkpt>
      <trkpt lat="45.09474" lon="6.15168">
        <ele>1856.8</ele>
        <time>2020-08-26T10:48:57.000Z</time>
      </trkpt>
      <trkpt lat="45.09473" lon="6.15166">
        <ele>1857</ele>
        <time>2020-08-26T10:48:58.000Z</time>
      </trkpt>
      <trkpt lat="45.09471" lon="6.15164">
        <ele>1857.2</ele>
        <time>2020-08-26T10:48:59.000Z</time>
      </trkpt>
      <trkpt lat="45.09469" lon="6.15162">
        <ele>1857.4</ele>
        <time>2020-08-26T10:49:00.000Z</time>
      </trkpt>
      <trkpt lat="45.09468" lon="6.1516">
        <ele>1857.6</ele>
        <time>2020-08-26T10:49:01.000Z</time>
      </trkpt>
      <trkpt lat="45.09466" lon="6.15158">
        <ele>1857.8</ele>
        <time>2020-08-26T10:49:02.000Z</time>
      </trkpt>
      <trkpt lat="45.09464" lon="6.15157">
        <ele>1858</ele>
        <time>2020-08-26T10:49:03.000Z</time>
      </trkpt>
      <trkpt lat="45.09462" lon="6.15155">
        <ele>1858.2</ele>
        <time>2020-08-26T10:49:04.000Z</time>
      </trkpt>
      <trkpt lat="45.0946" lon="6.15153">
        <ele>1858.4</ele>
        <time>2020-08-26T10:49:05.000Z</time>
      </trkpt>
      <trkpt lat="45.09458" lon="6.15151">
        <ele>1858.8</ele>
        <time>2020-08-26T10:49:06.000Z</time>
      </trkpt>
      <trkpt lat="45.09456" lon="6.1515">
        <ele>1859</ele>
        <time>2020-08-26T10:49:07.000Z</time>
      </trkpt>
      <trkpt lat="45.09454" lon="6.15149">
        <ele>1859</ele>
        <time>2020-08-26T10:49:08.000Z</time>
      </trkpt>
      <trkpt lat="45.09452" lon="6.15149">
        <ele>1859.2</ele>
        <time>2020-08-26T10:49:09.000Z</time>
      </trkpt>
      <trkpt lat="45.09449" lon="6.15148">
        <ele>1859.6</ele>
        <time>2020-08-26T10:49:10.000Z</time>
      </trkpt>
      <trkpt lat="45.09447" lon="6.15148">
        <ele>1859.8</ele>
        <time>2020-08-26T10:49:11.000Z</time>
      </trkpt>
      <trkpt lat="45.09445" lon="6.15147">
        <ele>1860.2</ele>
        <time>2020-08-26T10:49:12.000Z</time>
      </trkpt>
      <trkpt lat="45.09443" lon="6.15146">
        <ele>1860.4</ele>
        <time>2020-08-26T10:49:13.000Z</time>
      </trkpt>
      <trkpt lat="45.09441" lon="6.15146">
        <ele>1860.8</ele>
        <time>2020-08-26T10:49:14.000Z</time>
      </trkpt>
      <trkpt lat="45.09439" lon="6.15145">
        <ele>1860.8</ele>
        <time>2020-08-26T10:49:15.000Z</time>
      </trkpt>
      <trkpt lat="45.09437" lon="6.15144">
        <ele>1861</ele>
        <time>2020-08-26T10:49:16.000Z</time>
      </trkpt>
      <trkpt lat="45.09435" lon="6.15142">
        <ele>1861.2</ele>
        <time>2020-08-26T10:49:17.000Z</time>
      </trkpt>
      <trkpt lat="45.09433" lon="6.15141">
        <ele>1861.4</ele>
        <time>2020-08-26T10:49:18.000Z</time>
      </trkpt>
      <trkpt lat="45.09431" lon="6.1514">
        <ele>1861.8</ele>
        <time>2020-08-26T10:49:19.000Z</time>
      </trkpt>
      <trkpt lat="45.09429" lon="6.15139">
        <ele>1862</ele>
        <time>2020-08-26T10:49:20.000Z</time>
      </trkpt>
      <trkpt lat="45.09427" lon="6.15139">
        <ele>1862</ele>
        <time>2020-08-26T10:49:21.000Z</time>
      </trkpt>
      <trkpt lat="45.09425" lon="6.15138">
        <ele>1862.4</ele>
        <time>2020-08-26T10:49:22.000Z</time>
      </trkpt>
      <trkpt lat="45.09423" lon="6.15137">
        <ele>1862.6</ele>
        <time>2020-08-26T10:49:23.000Z</time>
      </trkpt>
      <trkpt lat="45.09421" lon="6.15135">
        <ele>1862.8</ele>
        <time>2020-08-26T10:49:24.000Z</time>
      </trkpt>
      <trkpt lat="45.09419" lon="6.15133">
        <ele>1863</ele>
        <time>2020-08-26T10:49:25.000Z</time>
      </trkpt>
      <trkpt lat="45.09418" lon="6.15131">
        <ele>1863.2</ele>
        <time>2020-08-26T10:49:26.000Z</time>
      </trkpt>
      <trkpt lat="45.09416" lon="6.15129">
        <ele>1863.4</ele>
        <time>2020-08-26T10:49:27.000Z</time>
      </trkpt>
      <trkpt lat="45.09415" lon="6.15127">
        <ele>1863.6</ele>
        <time>2020-08-26T10:49:28.000Z</time>
      </trkpt>
      <trkpt lat="45.09413" lon="6.15124">
        <ele>1863.8</ele>
        <time>2020-08-26T10:49:29.000Z</time>
      </trkpt>
      <trkpt lat="45.09412" lon="6.15122">
        <ele>1864</ele>
        <time>2020-08-26T10:49:30.000Z</time>
      </trkpt>
      <trkpt lat="45.0941" lon="6.1512">
        <ele>1864.4</ele>
        <time>2020-08-26T10:49:31.000Z</time>
      </trkpt>
      <trkpt lat="45.09409" lon="6.15117">
        <ele>1864.6</ele>
        <time>2020-08-26T10:49:32.000Z</time>
      </trkpt>
      <trkpt lat="45.09407" lon="6.15115">
        <ele>1864.8</ele>
        <time>2020-08-26T10:49:33.000Z</time>
      </trkpt>
      <trkpt lat="45.09406" lon="6.15113">
        <ele>1865.2</ele>
        <time>2020-08-26T10:49:34.000Z</time>
      </trkpt>
      <trkpt lat="45.09404" lon="6.15111">
        <ele>1865.4</ele>
        <time>2020-08-26T10:49:35.000Z</time>
      </trkpt>
      <trkpt lat="45.09402" lon="6.15108">
        <ele>1865.6</ele>
        <time>2020-08-26T10:49:36.000Z</time>
      </trkpt>
      <trkpt lat="45.09401" lon="6.15106">
        <ele>1865.8</ele>
        <time>2020-08-26T10:49:37.000Z</time>
      </trkpt>
      <trkpt lat="45.09399" lon="6.15105">
        <ele>1866</ele>
        <time>2020-08-26T10:49:38.000Z</time>
      </trkpt>
      <trkpt lat="45.09397" lon="6.15103">
        <ele>1866</ele>
        <time>2020-08-26T10:49:39.000Z</time>
      </trkpt>
      <trkpt lat="45.09394" lon="6.15102">
        <ele>1866.6</ele>
        <time>2020-08-26T10:49:40.000Z</time>
      </trkpt>
      <trkpt lat="45.09392" lon="6.15102">
        <ele>1866.6</ele>
        <time>2020-08-26T10:49:41.000Z</time>
      </trkpt>
      <trkpt lat="45.09389" lon="6.15102">
        <ele>1866.8</ele>
        <time>2020-08-26T10:49:42.000Z</time>
      </trkpt>
      <trkpt lat="45.09387" lon="6.15102">
        <ele>1867</ele>
        <time>2020-08-26T10:49:43.000Z</time>
      </trkpt>
      <trkpt lat="45.09384" lon="6.15102">
        <ele>1867.4</ele>
        <time>2020-08-26T10:49:44.000Z</time>
      </trkpt>
      <trkpt lat="45.09382" lon="6.15103">
        <ele>1867.8</ele>
        <time>2020-08-26T10:49:45.000Z</time>
      </trkpt>
      <trkpt lat="45.0938" lon="6.15104">
        <ele>1868</ele>
        <time>2020-08-26T10:49:46.000Z</time>
      </trkpt>
      <trkpt lat="45.09377" lon="6.15106">
        <ele>1868.4</ele>
        <time>2020-08-26T10:49:47.000Z</time>
      </trkpt>
      <trkpt lat="45.09374" lon="6.15108">
        <ele>1868.6</ele>
        <time>2020-08-26T10:49:48.000Z</time>
      </trkpt>
      <trkpt lat="45.09371" lon="6.15109">
        <ele>1868.8</ele>
        <time>2020-08-26T10:49:49.000Z</time>
      </trkpt>
      <trkpt lat="45.09368" lon="6.1511">
        <ele>1869</ele>
        <time>2020-08-26T10:49:50.000Z</time>
      </trkpt>
      <trkpt lat="45.09365" lon="6.1511">
        <ele>1869.2</ele>
        <time>2020-08-26T10:49:51.000Z</time>
      </trkpt>
      <trkpt lat="45.09362" lon="6.1511">
        <ele>1869.4</ele>
        <time>2020-08-26T10:49:52.000Z</time>
      </trkpt>
      <trkpt lat="45.0936" lon="6.15108">
        <ele>1869.6</ele>
        <time>2020-08-26T10:49:53.000Z</time>
      </trkpt>
      <trkpt lat="45.09358" lon="6.15106">
        <ele>1869.6</ele>
        <time>2020-08-26T10:49:54.000Z</time>
      </trkpt>
      <trkpt lat="45.09356" lon="6.15103">
        <ele>1869.8</ele>
        <time>2020-08-26T10:49:55.000Z</time>
      </trkpt>
      <trkpt lat="45.09354" lon="6.151">
        <ele>1869.8</ele>
        <time>2020-08-26T10:49:56.000Z</time>
      </trkpt>
      <trkpt lat="45.09353" lon="6.15098">
        <ele>1869.8</ele>
        <time>2020-08-26T10:49:57.000Z</time>
      </trkpt>
      <trkpt lat="45.09351" lon="6.15095">
        <ele>1869.8</ele>
        <time>2020-08-26T10:49:58.000Z</time>
      </trkpt>
      <trkpt lat="45.0935" lon="6.15092">
        <ele>1869.8</ele>
        <time>2020-08-26T10:49:59.000Z</time>
      </trkpt>
      <trkpt lat="45.09348" lon="6.1509">
        <ele>1869.8</ele>
        <time>2020-08-26T10:50:00.000Z</time>
      </trkpt>
      <trkpt lat="45.09347" lon="6.15087">
        <ele>1870</ele>
        <time>2020-08-26T10:50:01.000Z</time>
      </trkpt>
      <trkpt lat="45.09345" lon="6.15085">
        <ele>1870.2</ele>
        <time>2020-08-26T10:50:02.000Z</time>
      </trkpt>
      <trkpt lat="45.09343" lon="6.15084">
        <ele>1870.4</ele>
        <time>2020-08-26T10:50:03.000Z</time>
      </trkpt>
      <trkpt lat="45.09341" lon="6.15082">
        <ele>1870.6</ele>
        <time>2020-08-26T10:50:04.000Z</time>
      </trkpt>
      <trkpt lat="45.09339" lon="6.1508">
        <ele>1871</ele>
        <time>2020-08-26T10:50:05.000Z</time>
      </trkpt>
      <trkpt lat="45.09336" lon="6.1508">
        <ele>1871.4</ele>
        <time>2020-08-26T10:50:06.000Z</time>
      </trkpt>
      <trkpt lat="45.09333" lon="6.1508">
        <ele>1871.6</ele>
        <time>2020-08-26T10:50:07.000Z</time>
      </trkpt>
      <trkpt lat="45.0933" lon="6.1508">
        <ele>1871.8</ele>
        <time>2020-08-26T10:50:08.000Z</time>
      </trkpt>
      <trkpt lat="45.09328" lon="6.1508">
        <ele>1872</ele>
        <time>2020-08-26T10:50:09.000Z</time>
      </trkpt>
      <trkpt lat="45.09325" lon="6.1508">
        <ele>1872.2</ele>
        <time>2020-08-26T10:50:10.000Z</time>
      </trkpt>
      <trkpt lat="45.09323" lon="6.1508">
        <ele>1872.4</ele>
        <time>2020-08-26T10:50:11.000Z</time>
      </trkpt>
      <trkpt lat="45.09321" lon="6.15081">
        <ele>1872.4</ele>
        <time>2020-08-26T10:50:12.000Z</time>
      </trkpt>
      <trkpt lat="45.09318" lon="6.15081">
        <ele>1872.6</ele>
        <time>2020-08-26T10:50:13.000Z</time>
      </trkpt>
      <trkpt lat="45.09316" lon="6.15082">
        <ele>1872.8</ele>
        <time>2020-08-26T10:50:14.000Z</time>
      </trkpt>
      <trkpt lat="45.09313" lon="6.15082">
        <ele>1873</ele>
        <time>2020-08-26T10:50:15.000Z</time>
      </trkpt>
      <trkpt lat="45.09311" lon="6.15082">
        <ele>1873.2</ele>
        <time>2020-08-26T10:50:16.000Z</time>
      </trkpt>
      <trkpt lat="45.09309" lon="6.1508">
        <ele>1873.4</ele>
        <time>2020-08-26T10:50:17.000Z</time>
      </trkpt>
      <trkpt lat="45.09307" lon="6.15078">
        <ele>1873.6</ele>
        <time>2020-08-26T10:50:18.000Z</time>
      </trkpt>
      <trkpt lat="45.09306" lon="6.15076">
        <ele>1873.6</ele>
        <time>2020-08-26T10:50:19.000Z</time>
      </trkpt>
      <trkpt lat="45.09304" lon="6.15073">
        <ele>1873.8</ele>
        <time>2020-08-26T10:50:20.000Z</time>
      </trkpt>
      <trkpt lat="45.09303" lon="6.1507">
        <ele>1874</ele>
        <time>2020-08-26T10:50:21.000Z</time>
      </trkpt>
      <trkpt lat="45.09302" lon="6.15067">
        <ele>1874.4</ele>
        <time>2020-08-26T10:50:22.000Z</time>
      </trkpt>
      <trkpt lat="45.09301" lon="6.15064">
        <ele>1874.6</ele>
        <time>2020-08-26T10:50:23.000Z</time>
      </trkpt>
      <trkpt lat="45.09299" lon="6.15062">
        <ele>1874.8</ele>
        <time>2020-08-26T10:50:24.000Z</time>
      </trkpt>
      <trkpt lat="45.09297" lon="6.1506">
        <ele>1875.2</ele>
        <time>2020-08-26T10:50:25.000Z</time>
      </trkpt>
      <trkpt lat="45.09296" lon="6.15057">
        <ele>1875.6</ele>
        <time>2020-08-26T10:50:26.000Z</time>
      </trkpt>
      <trkpt lat="45.09293" lon="6.15056">
        <ele>1875.8</ele>
        <time>2020-08-26T10:50:27.000Z</time>
      </trkpt>
      <trkpt lat="45.09291" lon="6.15055">
        <ele>1876.2</ele>
        <time>2020-08-26T10:50:28.000Z</time>
      </trkpt>
      <trkpt lat="45.09289" lon="6.15054">
        <ele>1876.6</ele>
        <time>2020-08-26T10:50:29.000Z</time>
      </trkpt>
      <trkpt lat="45.09287" lon="6.15052">
        <ele>1877</ele>
        <time>2020-08-26T10:50:30.000Z</time>
      </trkpt>
      <trkpt lat="45.09284" lon="6.15052">
        <ele>1877.2</ele>
        <time>2020-08-26T10:50:31.000Z</time>
      </trkpt>
      <trkpt lat="45.09282" lon="6.15051">
        <ele>1877.6</ele>
        <time>2020-08-26T10:50:32.000Z</time>
      </trkpt>
      <trkpt lat="45.0928" lon="6.1505">
        <ele>1877.8</ele>
        <time>2020-08-26T10:50:33.000Z</time>
      </trkpt>
      <trkpt lat="45.09277" lon="6.1505">
        <ele>1878</ele>
        <time>2020-08-26T10:50:34.000Z</time>
      </trkpt>
      <trkpt lat="45.09275" lon="6.1505">
        <ele>1878.4</ele>
        <time>2020-08-26T10:50:35.000Z</time>
      </trkpt>
      <trkpt lat="45.09272" lon="6.15051">
        <ele>1878.6</ele>
        <time>2020-08-26T10:50:36.000Z</time>
      </trkpt>
      <trkpt lat="45.0927" lon="6.15052">
        <ele>1878.8</ele>
        <time>2020-08-26T10:50:37.000Z</time>
      </trkpt>
      <trkpt lat="45.09268" lon="6.15053">
        <ele>1879</ele>
        <time>2020-08-26T10:50:38.000Z</time>
      </trkpt>
      <trkpt lat="45.09265" lon="6.15054">
        <ele>1879.2</ele>
        <time>2020-08-26T10:50:39.000Z</time>
      </trkpt>
      <trkpt lat="45.09263" lon="6.15055">
        <ele>1879.4</ele>
        <time>2020-08-26T10:50:40.000Z</time>
      </trkpt>
      <trkpt lat="45.0926" lon="6.15056">
        <ele>1879.6</ele>
        <time>2020-08-26T10:50:41.000Z</time>
      </trkpt>
      <trkpt lat="45.09257" lon="6.15057">
        <ele>1879.6</ele>
        <time>2020-08-26T10:50:42.000Z</time>
      </trkpt>
      <trkpt lat="45.09255" lon="6.15057">
        <ele>1879.8</ele>
        <time>2020-08-26T10:50:43.000Z</time>
      </trkpt>
      <trkpt lat="45.09252" lon="6.15058">
        <ele>1880.2</ele>
        <time>2020-08-26T10:50:44.000Z</time>
      </trkpt>
      <trkpt lat="45.0925" lon="6.15058">
        <ele>1880.4</ele>
        <time>2020-08-26T10:50:45.000Z</time>
      </trkpt>
      <trkpt lat="45.09247" lon="6.15058">
        <ele>1880.6</ele>
        <time>2020-08-26T10:50:46.000Z</time>
      </trkpt>
      <trkpt lat="45.09245" lon="6.15057">
        <ele>1880.8</ele>
        <time>2020-08-26T10:50:47.000Z</time>
      </trkpt>
      <trkpt lat="45.09242" lon="6.15057">
        <ele>1881</ele>
        <time>2020-08-26T10:50:48.000Z</time>
      </trkpt>
      <trkpt lat="45.0924" lon="6.15055">
        <ele>1881.2</ele>
        <time>2020-08-26T10:50:49.000Z</time>
      </trkpt>
      <trkpt lat="45.09238" lon="6.15054">
        <ele>1881.2</ele>
        <time>2020-08-26T10:50:50.000Z</time>
      </trkpt>
      <trkpt lat="45.09236" lon="6.15052">
        <ele>1881.4</ele>
        <time>2020-08-26T10:50:51.000Z</time>
      </trkpt>
      <trkpt lat="45.09233" lon="6.15051">
        <ele>1881.4</ele>
        <time>2020-08-26T10:50:52.000Z</time>
      </trkpt>
      <trkpt lat="45.09231" lon="6.1505">
        <ele>1881.6</ele>
        <time>2020-08-26T10:50:53.000Z</time>
      </trkpt>
      <trkpt lat="45.09229" lon="6.15048">
        <ele>1881.6</ele>
        <time>2020-08-26T10:50:54.000Z</time>
      </trkpt>
      <trkpt lat="45.09227" lon="6.15047">
        <ele>1881.8</ele>
        <time>2020-08-26T10:50:55.000Z</time>
      </trkpt>
      <trkpt lat="45.09225" lon="6.15046">
        <ele>1882</ele>
        <time>2020-08-26T10:50:56.000Z</time>
      </trkpt>
      <trkpt lat="45.09223" lon="6.15045">
        <ele>1882.4</ele>
        <time>2020-08-26T10:50:57.000Z</time>
      </trkpt>
      <trkpt lat="45.09221" lon="6.15044">
        <ele>1882.6</ele>
        <time>2020-08-26T10:50:58.000Z</time>
      </trkpt>
      <trkpt lat="45.09219" lon="6.15043">
        <ele>1883</ele>
        <time>2020-08-26T10:50:59.000Z</time>
      </trkpt>
      <trkpt lat="45.09216" lon="6.15042">
        <ele>1883.4</ele>
        <time>2020-08-26T10:51:00.000Z</time>
      </trkpt>
      <trkpt lat="45.09214" lon="6.15041">
        <ele>1883.6</ele>
        <time>2020-08-26T10:51:01.000Z</time>
      </trkpt>
      <trkpt lat="45.09212" lon="6.1504">
        <ele>1883.8</ele>
        <time>2020-08-26T10:51:02.000Z</time>
      </trkpt>
      <trkpt lat="45.09209" lon="6.15039">
        <ele>1883.8</ele>
        <time>2020-08-26T10:51:03.000Z</time>
      </trkpt>
      <trkpt lat="45.09207" lon="6.15038">
        <ele>1884</ele>
        <time>2020-08-26T10:51:04.000Z</time>
      </trkpt>
      <trkpt lat="45.09205" lon="6.15037">
        <ele>1884.4</ele>
        <time>2020-08-26T10:51:05.000Z</time>
      </trkpt>
      <trkpt lat="45.09203" lon="6.15035">
        <ele>1884.6</ele>
        <time>2020-08-26T10:51:06.000Z</time>
      </trkpt>
      <trkpt lat="45.09201" lon="6.15033">
        <ele>1884.8</ele>
        <time>2020-08-26T10:51:07.000Z</time>
      </trkpt>
      <trkpt lat="45.09199" lon="6.1503">
        <ele>1885</ele>
        <time>2020-08-26T10:51:08.000Z</time>
      </trkpt>
      <trkpt lat="45.09198" lon="6.15027">
        <ele>1885.2</ele>
        <time>2020-08-26T10:51:09.000Z</time>
      </trkpt>
      <trkpt lat="45.09196" lon="6.15025">
        <ele>1885.4</ele>
        <time>2020-08-26T10:51:10.000Z</time>
      </trkpt>
      <trkpt lat="45.09195" lon="6.15022">
        <ele>1885.4</ele>
        <time>2020-08-26T10:51:11.000Z</time>
      </trkpt>
      <trkpt lat="45.09194" lon="6.15018">
        <ele>1885.6</ele>
        <time>2020-08-26T10:51:12.000Z</time>
      </trkpt>
      <trkpt lat="45.09194" lon="6.15015">
        <ele>1886</ele>
        <time>2020-08-26T10:51:13.000Z</time>
      </trkpt>
      <trkpt lat="45.09193" lon="6.15012">
        <ele>1886.2</ele>
        <time>2020-08-26T10:51:14.000Z</time>
      </trkpt>
      <trkpt lat="45.09192" lon="6.15009">
        <ele>1886.4</ele>
        <time>2020-08-26T10:51:15.000Z</time>
      </trkpt>
      <trkpt lat="45.0919" lon="6.15006">
        <ele>1886.6</ele>
        <time>2020-08-26T10:51:16.000Z</time>
      </trkpt>
      <trkpt lat="45.09189" lon="6.15004">
        <ele>1886.4</ele>
        <time>2020-08-26T10:51:17.000Z</time>
      </trkpt>
      <trkpt lat="45.09188" lon="6.15001">
        <ele>1886.6</ele>
        <time>2020-08-26T10:51:18.000Z</time>
      </trkpt>
      <trkpt lat="45.09187" lon="6.14998">
        <ele>1886.6</ele>
        <time>2020-08-26T10:51:19.000Z</time>
      </trkpt>
      <trkpt lat="45.09186" lon="6.14995">
        <ele>1886.8</ele>
        <time>2020-08-26T10:51:20.000Z</time>
      </trkpt>
      <trkpt lat="45.09185" lon="6.14992">
        <ele>1887.2</ele>
        <time>2020-08-26T10:51:21.000Z</time>
      </trkpt>
      <trkpt lat="45.09184" lon="6.14989">
        <ele>1887.4</ele>
        <time>2020-08-26T10:51:22.000Z</time>
      </trkpt>
      <trkpt lat="45.09183" lon="6.14986">
        <ele>1887.6</ele>
        <time>2020-08-26T10:51:23.000Z</time>
      </trkpt>
      <trkpt lat="45.09182" lon="6.14983">
        <ele>1888</ele>
        <time>2020-08-26T10:51:24.000Z</time>
      </trkpt>
      <trkpt lat="45.0918" lon="6.14981">
        <ele>1888.2</ele>
        <time>2020-08-26T10:51:25.000Z</time>
      </trkpt>
      <trkpt lat="45.09179" lon="6.14978">
        <ele>1888.4</ele>
        <time>2020-08-26T10:51:26.000Z</time>
      </trkpt>
      <trkpt lat="45.09178" lon="6.14976">
        <ele>1888.6</ele>
        <time>2020-08-26T10:51:27.000Z</time>
      </trkpt>
      <trkpt lat="45.09177" lon="6.14973">
        <ele>1888.6</ele>
        <time>2020-08-26T10:51:28.000Z</time>
      </trkpt>
      <trkpt lat="45.09175" lon="6.14971">
        <ele>1888.8</ele>
        <time>2020-08-26T10:51:29.000Z</time>
      </trkpt>
      <trkpt lat="45.09174" lon="6.14968">
        <ele>1889</ele>
        <time>2020-08-26T10:51:30.000Z</time>
      </trkpt>
      <trkpt lat="45.09173" lon="6.14966">
        <ele>1889.2</ele>
        <time>2020-08-26T10:51:31.000Z</time>
      </trkpt>
      <trkpt lat="45.09171" lon="6.14964">
        <ele>1889.4</ele>
        <time>2020-08-26T10:51:32.000Z</time>
      </trkpt>
      <trkpt lat="45.0917" lon="6.14962">
        <ele>1889.6</ele>
        <time>2020-08-26T10:51:33.000Z</time>
      </trkpt>
      <trkpt lat="45.09168" lon="6.14959">
        <ele>1890</ele>
        <time>2020-08-26T10:51:34.000Z</time>
      </trkpt>
      <trkpt lat="45.09167" lon="6.14957">
        <ele>1890.2</ele>
        <time>2020-08-26T10:51:35.000Z</time>
      </trkpt>
      <trkpt lat="45.09166" lon="6.14955">
        <ele>1890.2</ele>
        <time>2020-08-26T10:51:36.000Z</time>
      </trkpt>
      <trkpt lat="45.09164" lon="6.14953">
        <ele>1890.2</ele>
        <time>2020-08-26T10:51:37.000Z</time>
      </trkpt>
      <trkpt lat="45.09163" lon="6.14951">
        <ele>1890.4</ele>
        <time>2020-08-26T10:51:38.000Z</time>
      </trkpt>
      <trkpt lat="45.09161" lon="6.1495">
        <ele>1890.8</ele>
        <time>2020-08-26T10:51:39.000Z</time>
      </trkpt>
      <trkpt lat="45.09159" lon="6.14948">
        <ele>1891.2</ele>
        <time>2020-08-26T10:51:40.000Z</time>
      </trkpt>
      <trkpt lat="45.09158" lon="6.14947">
        <ele>1891.6</ele>
        <time>2020-08-26T10:51:41.000Z</time>
      </trkpt>
      <trkpt lat="45.09156" lon="6.14946">
        <ele>1892.6</ele>
        <time>2020-08-26T10:51:42.000Z</time>
      </trkpt>
      <trkpt lat="45.09154" lon="6.14944">
        <ele>1893</ele>
        <time>2020-08-26T10:51:43.000Z</time>
      </trkpt>
      <trkpt lat="45.09152" lon="6.14943">
        <ele>1893.4</ele>
        <time>2020-08-26T10:51:44.000Z</time>
      </trkpt>
      <trkpt lat="45.0915" lon="6.14942">
        <ele>1893.6</ele>
        <time>2020-08-26T10:51:45.000Z</time>
      </trkpt>
      <trkpt lat="45.09149" lon="6.1494">
        <ele>1894</ele>
        <time>2020-08-26T10:51:46.000Z</time>
      </trkpt>
      <trkpt lat="45.09147" lon="6.14939">
        <ele>1894.2</ele>
        <time>2020-08-26T10:51:47.000Z</time>
      </trkpt>
      <trkpt lat="45.09145" lon="6.14937">
        <ele>1894.6</ele>
        <time>2020-08-26T10:51:48.000Z</time>
      </trkpt>
      <trkpt lat="45.09144" lon="6.14935">
        <ele>1895</ele>
        <time>2020-08-26T10:51:49.000Z</time>
      </trkpt>
      <trkpt lat="45.09142" lon="6.14933">
        <ele>1895.4</ele>
        <time>2020-08-26T10:51:50.000Z</time>
      </trkpt>
      <trkpt lat="45.09141" lon="6.14931">
        <ele>1895.8</ele>
        <time>2020-08-26T10:51:51.000Z</time>
      </trkpt>
      <trkpt lat="45.0914" lon="6.14929">
        <ele>1895.8</ele>
        <time>2020-08-26T10:51:52.000Z</time>
      </trkpt>
      <trkpt lat="45.09139" lon="6.14927">
        <ele>1896.2</ele>
        <time>2020-08-26T10:51:53.000Z</time>
      </trkpt>
      <trkpt lat="45.09138" lon="6.14925">
        <ele>1896.6</ele>
        <time>2020-08-26T10:51:54.000Z</time>
      </trkpt>
      <trkpt lat="45.09136" lon="6.14923">
        <ele>1897</ele>
        <time>2020-08-26T10:51:55.000Z</time>
      </trkpt>
      <trkpt lat="45.09135" lon="6.14921">
        <ele>1897.6</ele>
        <time>2020-08-26T10:51:56.000Z</time>
      </trkpt>
      <trkpt lat="45.09133" lon="6.1492">
        <ele>1898</ele>
        <time>2020-08-26T10:51:57.000Z</time>
      </trkpt>
      <trkpt lat="45.09131" lon="6.14918">
        <ele>1898.4</ele>
        <time>2020-08-26T10:51:58.000Z</time>
      </trkpt>
      <trkpt lat="45.09129" lon="6.14916">
        <ele>1898.8</ele>
        <time>2020-08-26T10:51:59.000Z</time>
      </trkpt>
      <trkpt lat="45.09128" lon="6.14914">
        <ele>1899</ele>
        <time>2020-08-26T10:52:00.000Z</time>
      </trkpt>
      <trkpt lat="45.09126" lon="6.14912">
        <ele>1899.2</ele>
        <time>2020-08-26T10:52:01.000Z</time>
      </trkpt>
      <trkpt lat="45.09124" lon="6.1491">
        <ele>1899.4</ele>
        <time>2020-08-26T10:52:02.000Z</time>
      </trkpt>
      <trkpt lat="45.09122" lon="6.14908">
        <ele>1899.6</ele>
        <time>2020-08-26T10:52:03.000Z</time>
      </trkpt>
      <trkpt lat="45.0912" lon="6.14907">
        <ele>1899.8</ele>
        <time>2020-08-26T10:52:04.000Z</time>
      </trkpt>
      <trkpt lat="45.09118" lon="6.14905">
        <ele>1900</ele>
        <time>2020-08-26T10:52:05.000Z</time>
      </trkpt>
      <trkpt lat="45.09116" lon="6.14904">
        <ele>1900.2</ele>
        <time>2020-08-26T10:52:06.000Z</time>
      </trkpt>
      <trkpt lat="45.09114" lon="6.14902">
        <ele>1900.6</ele>
        <time>2020-08-26T10:52:07.000Z</time>
      </trkpt>
      <trkpt lat="45.09112" lon="6.14901">
        <ele>1900.6</ele>
        <time>2020-08-26T10:52:08.000Z</time>
      </trkpt>
      <trkpt lat="45.0911" lon="6.149">
        <ele>1900.8</ele>
        <time>2020-08-26T10:52:09.000Z</time>
      </trkpt>
      <trkpt lat="45.09108" lon="6.14899">
        <ele>1900.8</ele>
        <time>2020-08-26T10:52:10.000Z</time>
      </trkpt>
      <trkpt lat="45.09106" lon="6.14898">
        <ele>1901</ele>
        <time>2020-08-26T10:52:11.000Z</time>
      </trkpt>
      <trkpt lat="45.09104" lon="6.14897">
        <ele>1901.2</ele>
        <time>2020-08-26T10:52:12.000Z</time>
      </trkpt>
      <trkpt lat="45.09102" lon="6.14896">
        <ele>1901.4</ele>
        <time>2020-08-26T10:52:13.000Z</time>
      </trkpt>
      <trkpt lat="45.091" lon="6.14895">
        <ele>1901.8</ele>
        <time>2020-08-26T10:52:14.000Z</time>
      </trkpt>
      <trkpt lat="45.09097" lon="6.14894">
        <ele>1902.4</ele>
        <time>2020-08-26T10:52:15.000Z</time>
      </trkpt>
      <trkpt lat="45.09095" lon="6.14894">
        <ele>1902.4</ele>
        <time>2020-08-26T10:52:16.000Z</time>
      </trkpt>
      <trkpt lat="45.09092" lon="6.14893">
        <ele>1902.8</ele>
        <time>2020-08-26T10:52:17.000Z</time>
      </trkpt>
      <trkpt lat="45.0909" lon="6.14894">
        <ele>1903</ele>
        <time>2020-08-26T10:52:18.000Z</time>
      </trkpt>
      <trkpt lat="45.09087" lon="6.14894">
        <ele>1903.2</ele>
        <time>2020-08-26T10:52:19.000Z</time>
      </trkpt>
      <trkpt lat="45.09085" lon="6.14895">
        <ele>1903.4</ele>
        <time>2020-08-26T10:52:20.000Z</time>
      </trkpt>
      <trkpt lat="45.09082" lon="6.14896">
        <ele>1903.6</ele>
        <time>2020-08-26T10:52:21.000Z</time>
      </trkpt>
      <trkpt lat="45.09079" lon="6.14898">
        <ele>1903.6</ele>
        <time>2020-08-26T10:52:22.000Z</time>
      </trkpt>
      <trkpt lat="45.09077" lon="6.14899">
        <ele>1903.8</ele>
        <time>2020-08-26T10:52:23.000Z</time>
      </trkpt>
      <trkpt lat="45.09074" lon="6.14899">
        <ele>1904</ele>
        <time>2020-08-26T10:52:24.000Z</time>
      </trkpt>
      <trkpt lat="45.09072" lon="6.14901">
        <ele>1904.2</ele>
        <time>2020-08-26T10:52:25.000Z</time>
      </trkpt>
      <trkpt lat="45.09069" lon="6.14902">
        <ele>1904.4</ele>
        <time>2020-08-26T10:52:26.000Z</time>
      </trkpt>
      <trkpt lat="45.09067" lon="6.14903">
        <ele>1904.6</ele>
        <time>2020-08-26T10:52:27.000Z</time>
      </trkpt>
      <trkpt lat="45.09064" lon="6.14904">
        <ele>1904.8</ele>
        <time>2020-08-26T10:52:28.000Z</time>
      </trkpt>
      <trkpt lat="45.09062" lon="6.14905">
        <ele>1904.8</ele>
        <time>2020-08-26T10:52:29.000Z</time>
      </trkpt>
      <trkpt lat="45.09059" lon="6.14906">
        <ele>1904.8</ele>
        <time>2020-08-26T10:52:30.000Z</time>
      </trkpt>
      <trkpt lat="45.09056" lon="6.14907">
        <ele>1905</ele>
        <time>2020-08-26T10:52:31.000Z</time>
      </trkpt>
      <trkpt lat="45.09054" lon="6.14907">
        <ele>1905.4</ele>
        <time>2020-08-26T10:52:32.000Z</time>
      </trkpt>
      <trkpt lat="45.09051" lon="6.14908">
        <ele>1905.6</ele>
        <time>2020-08-26T10:52:33.000Z</time>
      </trkpt>
      <trkpt lat="45.09049" lon="6.14909">
        <ele>1905.8</ele>
        <time>2020-08-26T10:52:34.000Z</time>
      </trkpt>
      <trkpt lat="45.09046" lon="6.1491">
        <ele>1906</ele>
        <time>2020-08-26T10:52:35.000Z</time>
      </trkpt>
      <trkpt lat="45.09043" lon="6.1491">
        <ele>1906.2</ele>
        <time>2020-08-26T10:52:36.000Z</time>
      </trkpt>
      <trkpt lat="45.09041" lon="6.14911">
        <ele>1906.2</ele>
        <time>2020-08-26T10:52:37.000Z</time>
      </trkpt>
      <trkpt lat="45.09038" lon="6.14912">
        <ele>1906.6</ele>
        <time>2020-08-26T10:52:38.000Z</time>
      </trkpt>
      <trkpt lat="45.09036" lon="6.14913">
        <ele>1906.8</ele>
        <time>2020-08-26T10:52:39.000Z</time>
      </trkpt>
      <trkpt lat="45.09033" lon="6.14914">
        <ele>1907</ele>
        <time>2020-08-26T10:52:40.000Z</time>
      </trkpt>
      <trkpt lat="45.09031" lon="6.14915">
        <ele>1907</ele>
        <time>2020-08-26T10:52:41.000Z</time>
      </trkpt>
      <trkpt lat="45.09029" lon="6.14917">
        <ele>1907.4</ele>
        <time>2020-08-26T10:52:42.000Z</time>
      </trkpt>
      <trkpt lat="45.09027" lon="6.14919">
        <ele>1907.6</ele>
        <time>2020-08-26T10:52:43.000Z</time>
      </trkpt>
      <trkpt lat="45.09025" lon="6.14921">
        <ele>1907.8</ele>
        <time>2020-08-26T10:52:44.000Z</time>
      </trkpt>
      <trkpt lat="45.09023" lon="6.14923">
        <ele>1908.2</ele>
        <time>2020-08-26T10:52:45.000Z</time>
      </trkpt>
      <trkpt lat="45.09022" lon="6.14926">
        <ele>1908.4</ele>
        <time>2020-08-26T10:52:46.000Z</time>
      </trkpt>
      <trkpt lat="45.09021" lon="6.14929">
        <ele>1908.6</ele>
        <time>2020-08-26T10:52:47.000Z</time>
      </trkpt>
      <trkpt lat="45.09019" lon="6.14932">
        <ele>1909</ele>
        <time>2020-08-26T10:52:48.000Z</time>
      </trkpt>
      <trkpt lat="45.09018" lon="6.14934">
        <ele>1909.2</ele>
        <time>2020-08-26T10:52:49.000Z</time>
      </trkpt>
      <trkpt lat="45.09017" lon="6.14937">
        <ele>1909.4</ele>
        <time>2020-08-26T10:52:50.000Z</time>
      </trkpt>
      <trkpt lat="45.09015" lon="6.1494">
        <ele>1909.6</ele>
        <time>2020-08-26T10:52:51.000Z</time>
      </trkpt>
      <trkpt lat="45.09014" lon="6.14942">
        <ele>1909.8</ele>
        <time>2020-08-26T10:52:52.000Z</time>
      </trkpt>
      <trkpt lat="45.09012" lon="6.14944">
        <ele>1910</ele>
        <time>2020-08-26T10:52:53.000Z</time>
      </trkpt>
      <trkpt lat="45.0901" lon="6.14946">
        <ele>1910.4</ele>
        <time>2020-08-26T10:52:54.000Z</time>
      </trkpt>
      <trkpt lat="45.09008" lon="6.14948">
        <ele>1910.8</ele>
        <time>2020-08-26T10:52:55.000Z</time>
      </trkpt>
      <trkpt lat="45.09005" lon="6.14948">
        <ele>1911</ele>
        <time>2020-08-26T10:52:56.000Z</time>
      </trkpt>
      <trkpt lat="45.09003" lon="6.14948">
        <ele>1911.2</ele>
        <time>2020-08-26T10:52:57.000Z</time>
      </trkpt>
      <trkpt lat="45.09" lon="6.14948">
        <ele>1911.6</ele>
        <time>2020-08-26T10:52:58.000Z</time>
      </trkpt>
      <trkpt lat="45.08999" lon="6.14946">
        <ele>1912</ele>
        <time>2020-08-26T10:52:59.000Z</time>
      </trkpt>
      <trkpt lat="45.08997" lon="6.14944">
        <ele>1912.4</ele>
        <time>2020-08-26T10:53:00.000Z</time>
      </trkpt>
      <trkpt lat="45.08996" lon="6.14942">
        <ele>1912.4</ele>
        <time>2020-08-26T10:53:01.000Z</time>
      </trkpt>
      <trkpt lat="45.08996" lon="6.14939">
        <ele>1912.4</ele>
        <time>2020-08-26T10:53:02.000Z</time>
      </trkpt>
      <trkpt lat="45.08997" lon="6.14936">
        <ele>1912.6</ele>
        <time>2020-08-26T10:53:03.000Z</time>
      </trkpt>
      <trkpt lat="45.08998" lon="6.14933">
        <ele>1912.8</ele>
        <time>2020-08-26T10:53:04.000Z</time>
      </trkpt>
      <trkpt lat="45.08999" lon="6.1493">
        <ele>1913.2</ele>
        <time>2020-08-26T10:53:05.000Z</time>
      </trkpt>
      <trkpt lat="45.09001" lon="6.14927">
        <ele>1913.4</ele>
        <time>2020-08-26T10:53:06.000Z</time>
      </trkpt>
      <trkpt lat="45.09002" lon="6.14924">
        <ele>1913.8</ele>
        <time>2020-08-26T10:53:07.000Z</time>
      </trkpt>
      <trkpt lat="45.09003" lon="6.14921">
        <ele>1914.2</ele>
        <time>2020-08-26T10:53:08.000Z</time>
      </trkpt>
      <trkpt lat="45.09005" lon="6.14919">
        <ele>1914.6</ele>
        <time>2020-08-26T10:53:09.000Z</time>
      </trkpt>
      <trkpt lat="45.09006" lon="6.14916">
        <ele>1915.4</ele>
        <time>2020-08-26T10:53:10.000Z</time>
      </trkpt>
      <trkpt lat="45.09008" lon="6.14914">
        <ele>1915.8</ele>
        <time>2020-08-26T10:53:11.000Z</time>
      </trkpt>
      <trkpt lat="45.09009" lon="6.14911">
        <ele>1916.2</ele>
        <time>2020-08-26T10:53:12.000Z</time>
      </trkpt>
      <trkpt lat="45.09011" lon="6.14909">
        <ele>1916.6</ele>
        <time>2020-08-26T10:53:13.000Z</time>
      </trkpt>
      <trkpt lat="45.09012" lon="6.14906">
        <ele>1917</ele>
        <time>2020-08-26T10:53:14.000Z</time>
      </trkpt>
      <trkpt lat="45.09014" lon="6.14904">
        <ele>1917.4</ele>
        <time>2020-08-26T10:53:15.000Z</time>
      </trkpt>
      <trkpt lat="45.09016" lon="6.14902">
        <ele>1917.6</ele>
        <time>2020-08-26T10:53:16.000Z</time>
      </trkpt>
      <trkpt lat="45.09017" lon="6.149">
        <ele>1918</ele>
        <time>2020-08-26T10:53:17.000Z</time>
      </trkpt>
      <trkpt lat="45.09019" lon="6.14898">
        <ele>1918.2</ele>
        <time>2020-08-26T10:53:18.000Z</time>
      </trkpt>
      <trkpt lat="45.09021" lon="6.14896">
        <ele>1918.4</ele>
        <time>2020-08-26T10:53:19.000Z</time>
      </trkpt>
      <trkpt lat="45.09023" lon="6.14894">
        <ele>1918.8</ele>
        <time>2020-08-26T10:53:20.000Z</time>
      </trkpt>
      <trkpt lat="45.09025" lon="6.14892">
        <ele>1919</ele>
        <time>2020-08-26T10:53:21.000Z</time>
      </trkpt>
      <trkpt lat="45.09026" lon="6.1489">
        <ele>1919.4</ele>
        <time>2020-08-26T10:53:22.000Z</time>
      </trkpt>
      <trkpt lat="45.09028" lon="6.14888">
        <ele>1919.8</ele>
        <time>2020-08-26T10:53:23.000Z</time>
      </trkpt>
      <trkpt lat="45.0903" lon="6.14887">
        <ele>1920</ele>
        <time>2020-08-26T10:53:24.000Z</time>
      </trkpt>
      <trkpt lat="45.09032" lon="6.14885">
        <ele>1920.2</ele>
        <time>2020-08-26T10:53:25.000Z</time>
      </trkpt>
      <trkpt lat="45.09034" lon="6.14883">
        <ele>1920.6</ele>
        <time>2020-08-26T10:53:26.000Z</time>
      </trkpt>
      <trkpt lat="45.09035" lon="6.14882">
        <ele>1920.8</ele>
        <time>2020-08-26T10:53:27.000Z</time>
      </trkpt>
      <trkpt lat="45.09037" lon="6.1488">
        <ele>1921</ele>
        <time>2020-08-26T10:53:28.000Z</time>
      </trkpt>
      <trkpt lat="45.0904" lon="6.14879">
        <ele>1921.2</ele>
        <time>2020-08-26T10:53:29.000Z</time>
      </trkpt>
      <trkpt lat="45.09041" lon="6.14877">
        <ele>1921.2</ele>
        <time>2020-08-26T10:53:30.000Z</time>
      </trkpt>
      <trkpt lat="45.09043" lon="6.14876">
        <ele>1921.4</ele>
        <time>2020-08-26T10:53:31.000Z</time>
      </trkpt>
      <trkpt lat="45.09044" lon="6.14873">
        <ele>1921.6</ele>
        <time>2020-08-26T10:53:32.000Z</time>
      </trkpt>
      <trkpt lat="45.09045" lon="6.14871">
        <ele>1921.6</ele>
        <time>2020-08-26T10:53:33.000Z</time>
      </trkpt>
      <trkpt lat="45.09044" lon="6.14868">
        <ele>1921.8</ele>
        <time>2020-08-26T10:53:34.000Z</time>
      </trkpt>
      <trkpt lat="45.09042" lon="6.14866">
        <ele>1922</ele>
        <time>2020-08-26T10:53:35.000Z</time>
      </trkpt>
      <trkpt lat="45.0904" lon="6.14865">
        <ele>1922.2</ele>
        <time>2020-08-26T10:53:36.000Z</time>
      </trkpt>
      <trkpt lat="45.09037" lon="6.14865">
        <ele>1922.6</ele>
        <time>2020-08-26T10:53:37.000Z</time>
      </trkpt>
      <trkpt lat="45.09035" lon="6.14865">
        <ele>1922.8</ele>
        <time>2020-08-26T10:53:38.000Z</time>
      </trkpt>
      <trkpt lat="45.09033" lon="6.14865">
        <ele>1923</ele>
        <time>2020-08-26T10:53:39.000Z</time>
      </trkpt>
      <trkpt lat="45.09031" lon="6.14866">
        <ele>1923.4</ele>
        <time>2020-08-26T10:53:40.000Z</time>
      </trkpt>
      <trkpt lat="45.09029" lon="6.14868">
        <ele>1923.6</ele>
        <time>2020-08-26T10:53:41.000Z</time>
      </trkpt>
      <trkpt lat="45.09027" lon="6.14869">
        <ele>1924</ele>
        <time>2020-08-26T10:53:42.000Z</time>
      </trkpt>
      <trkpt lat="45.09025" lon="6.14871">
        <ele>1924.2</ele>
        <time>2020-08-26T10:53:43.000Z</time>
      </trkpt>
      <trkpt lat="45.09023" lon="6.14872">
        <ele>1924.2</ele>
        <time>2020-08-26T10:53:44.000Z</time>
      </trkpt>
      <trkpt lat="45.09021" lon="6.14873">
        <ele>1924.2</ele>
        <time>2020-08-26T10:53:45.000Z</time>
      </trkpt>
      <trkpt lat="45.09019" lon="6.14875">
        <ele>1924.4</ele>
        <time>2020-08-26T10:53:46.000Z</time>
      </trkpt>
      <trkpt lat="45.09017" lon="6.14876">
        <ele>1924.6</ele>
        <time>2020-08-26T10:53:47.000Z</time>
      </trkpt>
      <trkpt lat="45.09015" lon="6.14878">
        <ele>1924.8</ele>
        <time>2020-08-26T10:53:48.000Z</time>
      </trkpt>
      <trkpt lat="45.09012" lon="6.14879">
        <ele>1925</ele>
        <time>2020-08-26T10:53:49.000Z</time>
      </trkpt>
      <trkpt lat="45.0901" lon="6.14881">
        <ele>1925.4</ele>
        <time>2020-08-26T10:53:50.000Z</time>
      </trkpt>
      <trkpt lat="45.09008" lon="6.14882">
        <ele>1925.6</ele>
        <time>2020-08-26T10:53:51.000Z</time>
      </trkpt>
      <trkpt lat="45.09005" lon="6.14884">
        <ele>1925.8</ele>
        <time>2020-08-26T10:53:52.000Z</time>
      </trkpt>
      <trkpt lat="45.09003" lon="6.14885">
        <ele>1926</ele>
        <time>2020-08-26T10:53:53.000Z</time>
      </trkpt>
      <trkpt lat="45.09" lon="6.14887">
        <ele>1926.2</ele>
        <time>2020-08-26T10:53:54.000Z</time>
      </trkpt>
      <trkpt lat="45.08998" lon="6.14889">
        <ele>1926.2</ele>
        <time>2020-08-26T10:53:55.000Z</time>
      </trkpt>
      <trkpt lat="45.08995" lon="6.1489">
        <ele>1926.4</ele>
        <time>2020-08-26T10:53:56.000Z</time>
      </trkpt>
      <trkpt lat="45.08993" lon="6.14892">
        <ele>1926.6</ele>
        <time>2020-08-26T10:53:57.000Z</time>
      </trkpt>
      <trkpt lat="45.08991" lon="6.14894">
        <ele>1926.6</ele>
        <time>2020-08-26T10:53:58.000Z</time>
      </trkpt>
      <trkpt lat="45.08988" lon="6.14895">
        <ele>1926.8</ele>
        <time>2020-08-26T10:53:59.000Z</time>
      </trkpt>
      <trkpt lat="45.08986" lon="6.14897">
        <ele>1927</ele>
        <time>2020-08-26T10:54:00.000Z</time>
      </trkpt>
      <trkpt lat="45.08984" lon="6.14899">
        <ele>1927.2</ele>
        <time>2020-08-26T10:54:01.000Z</time>
      </trkpt>
      <trkpt lat="45.08981" lon="6.149">
        <ele>1927.4</ele>
        <time>2020-08-26T10:54:02.000Z</time>
      </trkpt>
      <trkpt lat="45.08979" lon="6.14902">
        <ele>1927.6</ele>
        <time>2020-08-26T10:54:03.000Z</time>
      </trkpt>
      <trkpt lat="45.08977" lon="6.14905">
        <ele>1927.8</ele>
        <time>2020-08-26T10:54:04.000Z</time>
      </trkpt>
      <trkpt lat="45.08975" lon="6.14907">
        <ele>1927.8</ele>
        <time>2020-08-26T10:54:05.000Z</time>
      </trkpt>
      <trkpt lat="45.08973" lon="6.14909">
        <ele>1928</ele>
        <time>2020-08-26T10:54:06.000Z</time>
      </trkpt>
      <trkpt lat="45.08971" lon="6.14911">
        <ele>1928.2</ele>
        <time>2020-08-26T10:54:07.000Z</time>
      </trkpt>
      <trkpt lat="45.0897" lon="6.14913">
        <ele>1928.2</ele>
        <time>2020-08-26T10:54:08.000Z</time>
      </trkpt>
      <trkpt lat="45.08968" lon="6.14915">
        <ele>1929</ele>
        <time>2020-08-26T10:54:09.000Z</time>
      </trkpt>
      <trkpt lat="45.08966" lon="6.14917">
        <ele>1929.2</ele>
        <time>2020-08-26T10:54:10.000Z</time>
      </trkpt>
      <trkpt lat="45.08964" lon="6.14918">
        <ele>1929.6</ele>
        <time>2020-08-26T10:54:11.000Z</time>
      </trkpt>
      <trkpt lat="45.08962" lon="6.14919">
        <ele>1929.6</ele>
        <time>2020-08-26T10:54:12.000Z</time>
      </trkpt>
      <trkpt lat="45.0896" lon="6.1492">
        <ele>1929.8</ele>
        <time>2020-08-26T10:54:13.000Z</time>
      </trkpt>
      <trkpt lat="45.08957" lon="6.14921">
        <ele>1930</ele>
        <time>2020-08-26T10:54:14.000Z</time>
      </trkpt>
      <trkpt lat="45.08955" lon="6.14922">
        <ele>1930</ele>
        <time>2020-08-26T10:54:15.000Z</time>
      </trkpt>
      <trkpt lat="45.08953" lon="6.14923">
        <ele>1930.2</ele>
        <time>2020-08-26T10:54:16.000Z</time>
      </trkpt>
      <trkpt lat="45.0895" lon="6.14923">
        <ele>1930.2</ele>
        <time>2020-08-26T10:54:17.000Z</time>
      </trkpt>
      <trkpt lat="45.08948" lon="6.14923">
        <ele>1930.6</ele>
        <time>2020-08-26T10:54:18.000Z</time>
      </trkpt>
      <trkpt lat="45.08945" lon="6.14923">
        <ele>1930.8</ele>
        <time>2020-08-26T10:54:19.000Z</time>
      </trkpt>
      <trkpt lat="45.08943" lon="6.14922">
        <ele>1931.2</ele>
        <time>2020-08-26T10:54:20.000Z</time>
      </trkpt>
      <trkpt lat="45.0894" lon="6.14921">
        <ele>1931.6</ele>
        <time>2020-08-26T10:54:21.000Z</time>
      </trkpt>
      <trkpt lat="45.08938" lon="6.1492">
        <ele>1931.8</ele>
        <time>2020-08-26T10:54:22.000Z</time>
      </trkpt>
      <trkpt lat="45.08936" lon="6.14919">
        <ele>1932.2</ele>
        <time>2020-08-26T10:54:23.000Z</time>
      </trkpt>
      <trkpt lat="45.08933" lon="6.14918">
        <ele>1932.4</ele>
        <time>2020-08-26T10:54:24.000Z</time>
      </trkpt>
      <trkpt lat="45.08931" lon="6.14917">
        <ele>1932.8</ele>
        <time>2020-08-26T10:54:25.000Z</time>
      </trkpt>
      <trkpt lat="45.08928" lon="6.14916">
        <ele>1933.2</ele>
        <time>2020-08-26T10:54:26.000Z</time>
      </trkpt>
      <trkpt lat="45.08926" lon="6.14915">
        <ele>1933.4</ele>
        <time>2020-08-26T10:54:27.000Z</time>
      </trkpt>
      <trkpt lat="45.08923" lon="6.14915">
        <ele>1933.4</ele>
        <time>2020-08-26T10:54:28.000Z</time>
      </trkpt>
      <trkpt lat="45.0892" lon="6.14915">
        <ele>1933.8</ele>
        <time>2020-08-26T10:54:29.000Z</time>
      </trkpt>
      <trkpt lat="45.08917" lon="6.14915">
        <ele>1934</ele>
        <time>2020-08-26T10:54:30.000Z</time>
      </trkpt>
      <trkpt lat="45.08915" lon="6.14914">
        <ele>1934.4</ele>
        <time>2020-08-26T10:54:31.000Z</time>
      </trkpt>
      <trkpt lat="45.08912" lon="6.14915">
        <ele>1934.6</ele>
        <time>2020-08-26T10:54:32.000Z</time>
      </trkpt>
      <trkpt lat="45.08909" lon="6.14915">
        <ele>1934.8</ele>
        <time>2020-08-26T10:54:33.000Z</time>
      </trkpt>
      <trkpt lat="45.08907" lon="6.14916">
        <ele>1935.2</ele>
        <time>2020-08-26T10:54:34.000Z</time>
      </trkpt>
      <trkpt lat="45.08904" lon="6.14917">
        <ele>1935.2</ele>
        <time>2020-08-26T10:54:35.000Z</time>
      </trkpt>
      <trkpt lat="45.08901" lon="6.14918">
        <ele>1935.4</ele>
        <time>2020-08-26T10:54:36.000Z</time>
      </trkpt>
      <trkpt lat="45.08899" lon="6.14919">
        <ele>1935.6</ele>
        <time>2020-08-26T10:54:37.000Z</time>
      </trkpt>
      <trkpt lat="45.08897" lon="6.14921">
        <ele>1935.6</ele>
        <time>2020-08-26T10:54:38.000Z</time>
      </trkpt>
      <trkpt lat="45.08894" lon="6.14923">
        <ele>1935.6</ele>
        <time>2020-08-26T10:54:39.000Z</time>
      </trkpt>
      <trkpt lat="45.08892" lon="6.14925">
        <ele>1935.6</ele>
        <time>2020-08-26T10:54:40.000Z</time>
      </trkpt>
      <trkpt lat="45.0889" lon="6.14927">
        <ele>1935.8</ele>
        <time>2020-08-26T10:54:41.000Z</time>
      </trkpt>
      <trkpt lat="45.08888" lon="6.1493">
        <ele>1936</ele>
        <time>2020-08-26T10:54:42.000Z</time>
      </trkpt>
      <trkpt lat="45.08886" lon="6.14932">
        <ele>1936</ele>
        <time>2020-08-26T10:54:43.000Z</time>
      </trkpt>
      <trkpt lat="45.08883" lon="6.14934">
        <ele>1936.2</ele>
        <time>2020-08-26T10:54:44.000Z</time>
      </trkpt>
      <trkpt lat="45.08881" lon="6.14936">
        <ele>1936.4</ele>
        <time>2020-08-26T10:54:45.000Z</time>
      </trkpt>
      <trkpt lat="45.08878" lon="6.14937">
        <ele>1936.6</ele>
        <time>2020-08-26T10:54:46.000Z</time>
      </trkpt>
      <trkpt lat="45.08875" lon="6.14939">
        <ele>1937</ele>
        <time>2020-08-26T10:54:47.000Z</time>
      </trkpt>
      <trkpt lat="45.08872" lon="6.14939">
        <ele>1937.4</ele>
        <time>2020-08-26T10:54:48.000Z</time>
      </trkpt>
      <trkpt lat="45.0887" lon="6.1494">
        <ele>1937.8</ele>
        <time>2020-08-26T10:54:49.000Z</time>
      </trkpt>
      <trkpt lat="45.08867" lon="6.1494">
        <ele>1938</ele>
        <time>2020-08-26T10:54:50.000Z</time>
      </trkpt>
      <trkpt lat="45.08864" lon="6.1494">
        <ele>1938.4</ele>
        <time>2020-08-26T10:54:51.000Z</time>
      </trkpt>
      <trkpt lat="45.08861" lon="6.1494">
        <ele>1938.6</ele>
        <time>2020-08-26T10:54:52.000Z</time>
      </trkpt>
      <trkpt lat="45.08858" lon="6.1494">
        <ele>1938.8</ele>
        <time>2020-08-26T10:54:53.000Z</time>
      </trkpt>
      <trkpt lat="45.08856" lon="6.14939">
        <ele>1938.8</ele>
        <time>2020-08-26T10:54:54.000Z</time>
      </trkpt>
      <trkpt lat="45.08853" lon="6.14939">
        <ele>1939</ele>
        <time>2020-08-26T10:54:55.000Z</time>
      </trkpt>
      <trkpt lat="45.0885" lon="6.14938">
        <ele>1939</ele>
        <time>2020-08-26T10:54:56.000Z</time>
      </trkpt>
      <trkpt lat="45.08847" lon="6.14937">
        <ele>1939.2</ele>
        <time>2020-08-26T10:54:57.000Z</time>
      </trkpt>
      <trkpt lat="45.08844" lon="6.14935">
        <ele>1939.2</ele>
        <time>2020-08-26T10:54:58.000Z</time>
      </trkpt>
      <trkpt lat="45.08841" lon="6.14934">
        <ele>1939.2</ele>
        <time>2020-08-26T10:54:59.000Z</time>
      </trkpt>
      <trkpt lat="45.08837" lon="6.14933">
        <ele>1939.4</ele>
        <time>2020-08-26T10:55:00.000Z</time>
      </trkpt>
      <trkpt lat="45.08833" lon="6.14931">
        <ele>1939.8</ele>
        <time>2020-08-26T10:55:01.000Z</time>
      </trkpt>
      <trkpt lat="45.0883" lon="6.14929">
        <ele>1940</ele>
        <time>2020-08-26T10:55:02.000Z</time>
      </trkpt>
      <trkpt lat="45.08826" lon="6.14927">
        <ele>1940.4</ele>
        <time>2020-08-26T10:55:03.000Z</time>
      </trkpt>
      <trkpt lat="45.08822" lon="6.14925">
        <ele>1940.8</ele>
        <time>2020-08-26T10:55:04.000Z</time>
      </trkpt>
      <trkpt lat="45.08818" lon="6.14923">
        <ele>1941</ele>
        <time>2020-08-26T10:55:05.000Z</time>
      </trkpt>
      <trkpt lat="45.08815" lon="6.14922">
        <ele>1941.4</ele>
        <time>2020-08-26T10:55:06.000Z</time>
      </trkpt>
      <trkpt lat="45.08811" lon="6.1492">
        <ele>1942.2</ele>
        <time>2020-08-26T10:55:07.000Z</time>
      </trkpt>
      <trkpt lat="45.08807" lon="6.14918">
        <ele>1942.8</ele>
        <time>2020-08-26T10:55:08.000Z</time>
      </trkpt>
      <trkpt lat="45.08802" lon="6.14916">
        <ele>1943.2</ele>
        <time>2020-08-26T10:55:09.000Z</time>
      </trkpt>
      <trkpt lat="45.08798" lon="6.14914">
        <ele>1943.6</ele>
        <time>2020-08-26T10:55:10.000Z</time>
      </trkpt>
      <trkpt lat="45.08795" lon="6.14912">
        <ele>1944</ele>
        <time>2020-08-26T10:55:11.000Z</time>
      </trkpt>
      <trkpt lat="45.08791" lon="6.14911">
        <ele>1944.4</ele>
        <time>2020-08-26T10:55:12.000Z</time>
      </trkpt>
      <trkpt lat="45.08787" lon="6.1491">
        <ele>1945</ele>
        <time>2020-08-26T10:55:13.000Z</time>
      </trkpt>
      <trkpt lat="45.08783" lon="6.14908">
        <ele>1945.2</ele>
        <time>2020-08-26T10:55:14.000Z</time>
      </trkpt>
      <trkpt lat="45.08779" lon="6.14908">
        <ele>1945.6</ele>
        <time>2020-08-26T10:55:15.000Z</time>
      </trkpt>
      <trkpt lat="45.08775" lon="6.14907">
        <ele>1946</ele>
        <time>2020-08-26T10:55:16.000Z</time>
      </trkpt>
      <trkpt lat="45.08772" lon="6.14907">
        <ele>1946.2</ele>
        <time>2020-08-26T10:55:17.000Z</time>
      </trkpt>
      <trkpt lat="45.08768" lon="6.14906">
        <ele>1946.4</ele>
        <time>2020-08-26T10:55:18.000Z</time>
      </trkpt>
      <trkpt lat="45.08765" lon="6.14906">
        <ele>1946.6</ele>
        <time>2020-08-26T10:55:19.000Z</time>
      </trkpt>
      <trkpt lat="45.08762" lon="6.14905">
        <ele>1947</ele>
        <time>2020-08-26T10:55:20.000Z</time>
      </trkpt>
      <trkpt lat="45.08759" lon="6.14905">
        <ele>1947.4</ele>
        <time>2020-08-26T10:55:21.000Z</time>
      </trkpt>
      <trkpt lat="45.08756" lon="6.14905">
        <ele>1947.8</ele>
        <time>2020-08-26T10:55:22.000Z</time>
      </trkpt>
      <trkpt lat="45.08754" lon="6.14905">
        <ele>1948.2</ele>
        <time>2020-08-26T10:55:23.000Z</time>
      </trkpt>
      <trkpt lat="45.08751" lon="6.14905">
        <ele>1948.8</ele>
        <time>2020-08-26T10:55:24.000Z</time>
      </trkpt>
      <trkpt lat="45.08748" lon="6.14905">
        <ele>1949.2</ele>
        <time>2020-08-26T10:55:25.000Z</time>
      </trkpt>
      <trkpt lat="45.08746" lon="6.14905">
        <ele>1949.6</ele>
        <time>2020-08-26T10:55:26.000Z</time>
      </trkpt>
      <trkpt lat="45.08744" lon="6.14904">
        <ele>1950</ele>
        <time>2020-08-26T10:55:27.000Z</time>
      </trkpt>
      <trkpt lat="45.08742" lon="6.14903">
        <ele>1950.2</ele>
        <time>2020-08-26T10:55:28.000Z</time>
      </trkpt>
      <trkpt lat="45.0874" lon="6.14903">
        <ele>1950.4</ele>
        <time>2020-08-26T10:55:29.000Z</time>
      </trkpt>
      <trkpt lat="45.08739" lon="6.14902">
        <ele>1950.6</ele>
        <time>2020-08-26T10:55:30.000Z</time>
      </trkpt>
      <trkpt lat="45.08737" lon="6.14901">
        <ele>1950.6</ele>
        <time>2020-08-26T10:55:31.000Z</time>
      </trkpt>
      <trkpt lat="45.08736" lon="6.14901">
        <ele>1950.6</ele>
        <time>2020-08-26T10:55:32.000Z</time>
      </trkpt>
      <trkpt lat="45.08736" lon="6.149">
        <ele>1950.6</ele>
        <time>2020-08-26T10:55:33.000Z</time>
      </trkpt>
      <trkpt lat="45.08736" lon="6.149">
        <ele>1950.8</ele>
        <time>2020-08-26T10:55:34.000Z</time>
      </trkpt>
      <trkpt lat="45.08736" lon="6.149">
        <ele>1950.8</ele>
        <time>2020-08-26T10:55:35.000Z</time>
      </trkpt>
    </trkseg>
  </trk>
</gpx>